# Wetter Temperatur Luftdruck Luftfeuchtigkeit Sichtweite Windgeschwindigkeit Windrichtung Zeit
1 Clear 14 1023 76 10000 5.66 220 11:48 07.10.2022
2 Clouds 9 1024 87 10000 2.57 200 09:26 07.10.2022
3 Clear 8 1024 89 10000 2.57 170 08:47 07.10.2022
4 Clear 7 1025 91 10000 2.06 170 05:51 07.10.2022
5 Clear 9 1028 85 10000 1.54 210 00:41 07.10.2022
6 Clear 11 1028 84 10000 1.54 220 22:50 06.10.2022
7 Clear 12 1028 80 10000 3.6 210 21:42 06.10.2022
8 Clear 11 1028 81 10000 3.09 210 21:21 06.10.2022
9 Clouds 12 1028 79 10000 3.09 220 19:50 06.10.2022
10 Clouds 12 1028 78 10000 3.09 220 19:50 06.10.2022
11 Clear 14 1028 71 10000 4.12 240 18:37 06.10.2022
12 Clear 14 1028 71 10000 4.12 240 18:37 06.10.2022
13 Clear 16 1027 66 10000 6.69 250 17:50 06.10.2022
14 Clouds 16 1027 66 10000 7.2 260 14:24 06.10.2022
15 Clouds 14 1026 79 10000 8.23 250 11:24 06.10.2022
16 Clear 12 1021 86 10000 6.17 250 06:53 06.10.2022
17 Clear 13 1018 87 10000 6.17 250 03:34 06.10.2022
18 Clouds 17 1013 77 10000 9.26 230 23:20 05.10.2022
19 Clouds 17 1012 81 10000 3.6 190 19:58 05.10.2022
20 Clouds 18 1012 73 10000 4.12 210 18:42 05.10.2022
21 Clouds 18 1012 72 10000 5.14 210 17:34 05.10.2022
22 Clouds 19 1012 69 10000 9.26 220 15:55 05.10.2022
23 Clouds 18 1012 71 10000 7.2 210 14:47 05.10.2022
24 Clouds 17 1013 72 10000 7.2 210 13:55 05.10.2022
25 Clouds 15 1014 85 10000 7.2 220 12:20 05.10.2022
26 Clouds 13 1014 91 10000 3.6 190 09:21 05.10.2022
27 Clouds 13 1015 91 10000 3.09 190 07:42 05.10.2022
28 Clouds 13 1015 88 10000 3.09 190 05:39 05.10.2022
29 Clouds 14 1016 90 10000 5.18 205 04:18 05.10.2022
30 Clouds 13 1017 85 10000 2.06 200 00:46 05.10.2022
31 Clouds 13 1017 87 10000 2.57 200 00:24 05.10.2022
32 Clouds 12 1018 87 10000 2.57 210 22:37 04.10.2022
33 Clear 13 1018 84 10000 2.06 190 20:39 04.10.2022
34 Clear 15 1018 78 10000 3.09 210 18:58 04.10.2022
35 Clear 15 1018 77 10000 3.09 210 18:37 04.10.2022
36 Clear 17 1018 64 10000 4.63 210 17:48 04.10.2022
37 Clear 18 1018 62 10000 6.17 220 16:35 04.10.2022
38 Clear 16 1020 77 10000 5.14 200 12:58 04.10.2022
39 Clear 11 1021 96 10000 1.54 190 09:46 04.10.2022
40 Clouds 9 1021 98 10000 1.54 210 07:24 04.10.2022
41 Mist 9 1023 96 3200 1.03 180 02:27 04.10.2022
42 Fog 10 1024 98 900 1.03 230 23:41 03.10.2022
43 Clear 11 1024 95 10000 1.03 260 21:53 03.10.2022
44 Clear 11 1024 95 10000 1.54 250 21:23 03.10.2022
45 Clear 12 1024 92 10000 1.03 290 20:19 03.10.2022
46 Clouds 14 1024 86 10000 3.09 290 18:35 03.10.2022
47 Clouds 16 1024 81 10000 4.12 300 17:26 03.10.2022
48 Clouds 17 1025 75 10000 6.17 290 15:49 03.10.2022
49 Clouds 17 1025 78 10000 5.66 290 14:21 03.10.2022
50 Clouds 16 1025 81 10000 6.69 290 12:31 03.10.2022
51 Clouds 14 1025 90 10000 4.12 280 10:40 03.10.2022
52 Clear 12 1024 98 10000 4.55 284 09:44 03.10.2022
53 Clouds 9 1023 99 10000 3.09 260 07:32 03.10.2022
54 Clear 10 1023 98 10000 3.58 275 03:38 03.10.2022
55 Clear 10 1020 95 10000 3.6 270 22:55 02.10.2022
56 Clouds 11 1019 92 10000 3.09 260 21:33 02.10.2022
57 Clouds 13 1018 88 10000 4.12 300 19:39 02.10.2022
58 Clouds 15 1016 83 10000 6.69 300 17:55 02.10.2022
59 Clouds 16 1015 82 10000 5.66 280 16:50 02.10.2022
60 Clouds 15 1015 86 10000 7.72 290 16:27 02.10.2022
61 Clouds 15 1014 81 10000 6.69 300 14:57 02.10.2022
62 Clouds 16 1014 74 10000 8.23 280 13:46 02.10.2022
63 Clouds 15 1014 85 10000 7.72 280 12:39 02.10.2022
64 Clear 14 1013 89 10000 6.17 260 11:43 02.10.2022
65 Rain 14 1013 89 10000 6.17 260 11:23 02.10.2022
66 Clouds 12 1013 95 10000 5.14 250 09:49 02.10.2022
67 Clouds 11 1012 96 10000 3.6 260 08:27 02.10.2022
68 Clear 11 1011 96 10000 4.12 230 05:19 02.10.2022
69 Clear 11 1010 96 10000 5.14 250 00:58 02.10.2022
70 Clouds 12 1009 94 10000 5.14 240 00:38 02.10.2022
71 Clouds 12 1009 94 10000 5.14 240 23:28 01.10.2022
72 Clouds 12 1008 93 10000 4.12 240 21:39 01.10.2022
73 Clouds 13 1005 92 10000 5.34 273 18:54 01.10.2022
74 Clouds 14 1003 85 10000 7.72 280 17:46 01.10.2022
75 Rain 15 1001 83 10000 8.75 280 15:29 01.10.2022
76 Rain 16 1001 85 10000 6.69 250 13:52 01.10.2022
77 Clouds 14 1000 93 10000 6.17 230 12:34 01.10.2022
78 Clouds 12 1000 96 10000 5.66 240 11:22 01.10.2022
79 Clouds 12 999 94 10000 6.17 220 10:53 01.10.2022
80 Clouds 11 999 96 10000 6.69 210 10:30 01.10.2022
81 Clouds 10 999 96 7000 6.69 190 09:25 01.10.2022
82 Clouds 11 1000 94 10000 8.75 190 08:27 01.10.2022
83 Rain 11 1004 80 10000 5.66 180 03:47 01.10.2022
84 Rain 11 1004 81 10000 5.14 170 03:22 01.10.2022
85 Clear 10 1007 86 10000 3.6 160 23:21 30.09.2022
86 Clear 10 1007 86 10000 3.6 160 22:19 30.09.2022
87 Clear 10 1008 84 10000 3.6 170 21:21 30.09.2022
88 Clouds 11 1008 83 10000 3.09 170 20:30 30.09.2022
89 Clear 14 1008 74 10000 3.09 200 18:45 30.09.2022
90 Clouds 15 1008 72 10000 5.14 210 16:55 30.09.2022
91 Clouds 15 1009 74 10000 5.14 240 14:49 30.09.2022
92 Clouds 15 1010 76 10000 4.63 220 13:24 30.09.2022
93 Clear 14 1009 84 10000 3.6 220 11:56 30.09.2022
94 Clear 10 1009 94 10000 2.06 210 09:45 30.09.2022
95 Fog 7 1008 96 1500 1.03 0 08:19 30.09.2022
96 Fog 8 1007 98 500 1.54 210 04:24 30.09.2022
97 Clear 9 1006 95 10000 2.57 210 02:22 30.09.2022
98 Drizzle 10 1005 95 10000 1.03 250 22:23 29.09.2022
99 Clear 10 1005 95 10000 1.03 0 21:25 29.09.2022
100 Clouds 11 1005 94 10000 2.22 284 19:58 29.09.2022
101 Clouds 11 1004 91 10000 2.33 286 18:31 29.09.2022
102 Rain 14 1002 77 10000 3.6 300 16:30 29.09.2022
103 Clouds 14 1002 77 10000 4.63 300 15:51 29.09.2022
104 Clouds 14 1002 76 10000 5.14 260 15:27 29.09.2022
105 Clouds 12 1002 88 10000 3.6 240 12:54 29.09.2022
106 Fog 5 1000 98 1000 0 0 08:52 29.09.2022
107 Fog 4 999 98 500 1.03 0 05:36 29.09.2022
108 Fog 5 999 98 6000 1.03 0 02:42 29.09.2022
109 Clouds 7 999 98 9000 1.54 160 23:29 28.09.2022
110 Clouds 7 998 95 9000 2.06 180 22:25 28.09.2022
111 Clouds 8 998 93 10000 2.06 170 21:28 28.09.2022
112 Clouds 9 998 92 10000 2.06 160 20:18 28.09.2022
113 Clouds 12 997 81 10000 2.06 190 17:42 28.09.2022
114 Clouds 12 996 79 10000 1.54 0 14:45 28.09.2022
115 Clouds 11 996 89 10000 1.03 0 12:40 28.09.2022
116 Drizzle 8 995 96 10000 1.03 0 10:24 28.09.2022
117 Drizzle 7 994 96 10000 0.51 0 08:25 28.09.2022
118 Rain 7 994 98 6000 1.03 0 06:42 28.09.2022
119 Mist 6 995 96 2400 1.03 0 01:51 28.09.2022
120 Clear 7 996 96 10000 2.57 200 01:30 28.09.2022
121 Clear 7 996 96 10000 2.57 200 22:54 27.09.2022
122 Clouds 8 996 96 10000 2.06 220 21:24 27.09.2022
123 Clear 8 996 96 10000 2.57 230 20:37 27.09.2022
124 Clouds 9 995 94 10000 3.09 250 19:47 27.09.2022
125 Clouds 11 995 92 10000 5.14 250 18:31 27.09.2022
126 Clouds 11 995 93 10000 3.09 240 17:43 27.09.2022
127 Clouds 11 994 93 10000 5.66 250 15:29 27.09.2022
128 Clouds 11 994 94 10000 5.14 250 14:45 27.09.2022
129 Rain 11 994 94 10000 6.17 260 12:40 27.09.2022
130 Rain 11 993 95 10000 5.14 270 10:58 27.09.2022
131 Clouds 10 992 97 10000 4.63 260 08:46 27.09.2022
132 Drizzle 10 992 96 10000 4.12 260 06:39 27.09.2022
133 Rain 11 992 96 10000 1.54 200 01:57 27.09.2022
134 Rain 11 992 96 10000 3.6 200 01:27 27.09.2022
135 Rain 11 992 96 10000 3.6 200 01:27 27.09.2022
136 Rain 11 993 96 10000 4.12 180 23:25 26.09.2022
137 Clouds 11 994 96 10000 4.63 200 22:34 26.09.2022
138 Drizzle 11 994 96 7000 5.66 200 20:45 26.09.2022
139 Clouds 11 995 96 10000 6.17 190 19:31 26.09.2022
140 Drizzle 11 996 96 10000 6.69 180 18:32 26.09.2022
141 Drizzle 11 997 96 10000 7.2 180 16:34 26.09.2022
142 Rain 12 998 91 10000 8.75 200 14:28 26.09.2022
143 Rain 12 1001 89 10000 5.14 200 11:30 26.09.2022
144 Clouds 12 1001 87 10000 6.17 200 10:39 26.09.2022
145 Clouds 12 1001 88 10000 5.14 210 10:20 26.09.2022
146 Clear 11 1001 92 10000 4.63 200 09:55 26.09.2022
147 Clear 10 1002 95 10000 4.12 200 09:24 26.09.2022
148 Clouds 10 1003 93 10000 5.66 210 07:56 26.09.2022
149 Clear 9 1007 96 10000 3.6 210 02:54 26.09.2022
150 Clear 8 1010 95 10000 1.03 240 23:50 25.09.2022
151 Fog 8 1010 97 1000 1.03 190 22:45 25.09.2022
152 Clear 10 1011 93 10000 1.03 270 21:35 25.09.2022
153 Clear 11 1011 88 10000 2.06 260 20:48 25.09.2022
154 Clouds 12 1011 88 10000 2.06 260 19:43 25.09.2022
155 Clouds 14 1011 81 10000 3.09 300 18:43 25.09.2022
156 Clouds 14 1011 75 10000 2.57 320 18:20 25.09.2022
157 Clouds 15 1012 77 10000 3.6 320 16:45 25.09.2022
158 Rain 15 1012 80 10000 3.6 350 15:45 25.09.2022
159 Rain 15 1013 84 10000 4.63 350 14:29 25.09.2022
160 Clouds 15 1013 84 10000 5.66 360 12:57 25.09.2022
161 Clouds 13 1013 93 10000 4.63 340 10:36 25.09.2022
162 Clouds 10 1013 99 10000 2.57 290 08:25 25.09.2022
163 Clouds 12 1013 97 10000 3.09 300 06:23 25.09.2022
164 Clouds 12 1013 97 10000 3.09 300 06:23 25.09.2022
165 Clouds 12 1013 97 10000 2.57 310 03:20 25.09.2022
166 Clouds 12 1012 97 10000 5.66 340 22:50 24.09.2022
167 Clouds 13 1012 97 10000 4.12 300 21:19 24.09.2022
168 Clouds 14 1011 97 10000 2.57 200 19:23 24.09.2022
169 Clouds 15 1011 95 10000 3.09 200 18:18 24.09.2022
170 Clouds 15 1012 95 10000 3.09 200 16:36 24.09.2022
171 Clouds 14 1012 95 10000 2.57 190 15:23 24.09.2022
172 Clouds 14 1012 97 10000 3.09 180 13:50 24.09.2022
173 Rain 13 1012 97 6000 3.09 180 12:58 24.09.2022
174 Rain 13 1012 96 4200 3.09 170 11:42 24.09.2022
175 Rain 12 1012 96 4400 2.57 160 09:54 24.09.2022
176 Rain 12 1011 96 6000 2.57 160 08:47 24.09.2022
177 Rain 11 1011 98 5000 2.57 180 07:39 24.09.2022
178 Rain 12 1012 96 4800 2.57 160 04:50 24.09.2022
179 Rain 12 1012 96 5000 2.06 140 03:43 24.09.2022
180 Rain 13 1013 91 10000 1.03 160 22:39 23.09.2022
181 Rain 13 1014 91 10000 0.51 100 21:31 23.09.2022
182 Rain 13 1014 90 10000 1.03 110 20:57 23.09.2022
183 Rain 13 1014 90 10000 0.51 0 20:20 23.09.2022
184 Rain 15 1014 83 10000 0.51 270 18:51 23.09.2022
185 Clear 17 1015 64 10000 3.6 210 15:23 23.09.2022
186 Clear 14 1017 80 10000 3.6 170 11:28 23.09.2022
187 Clear 9 1017 90 10000 2.06 140 09:35 23.09.2022
188 Clear 7 1018 93 10000 2.06 130 05:59 23.09.2022
189 Clear 9 1020 90 10000 2.06 130 00:41 23.09.2022
190 Clear 9 1020 89 10000 1.54 130 23:22 22.09.2022
191 Clear 10 1020 87 10000 1.54 130 22:27 22.09.2022
192 Clear 11 1020 83 10000 2.06 130 21:18 22.09.2022
193 Clear 13 1021 75 10000 2.06 120 19:58 22.09.2022
194 Clear 18 1021 53 10000 2.57 180 17:38 22.09.2022
195 Clouds 17 1023 63 10000 3.09 170 13:20 22.09.2022
196 Clear 12 1024 82 10000 1.54 170 10:37 22.09.2022
197 Fog 5 1024 93 2900 0.51 0 08:58 22.09.2022
198 Fog 4 1024 95 500 0.51 0 07:36 22.09.2022
199 Fog 5 1025 94 600 0.51 210 04:37 22.09.2022
200 Clear 8 1026 94 10000 0.51 260 23:33 21.09.2022
201 Clear 9 1025 91 10000 0 0 21:52 21.09.2022
202 Clear 10 1025 87 10000 1.03 170 20:54 21.09.2022
203 Clouds 16 1025 63 10000 2.57 240 17:55 21.09.2022
204 Clear 17 1026 62 10000 1.03 0 17:22 21.09.2022
205 Clouds 17 1026 53 10000 1.03 0 15:18 21.09.2022
206 Clear 16 1027 68 10000 2.06 230 13:38 21.09.2022
207 Clear 14 1027 82 10000 1.54 260 11:34 21.09.2022
208 Clear 12 1027 90 10000 1.54 260 10:50 21.09.2022
209 Clear 9 1027 95 10000 1.03 0 09:38 21.09.2022
210 Fog 4 1026 98 450 0.51 230 08:23 21.09.2022
211 Fog 5 1026 98 550 1.03 250 02:52 21.09.2022
212 Fog 6 1025 95 600 1.03 250 02:33 21.09.2022
213 Fog 6 1025 97 550 1.03 260 01:50 21.09.2022
214 Fog 7 1025 94 550 0.51 240 23:50 20.09.2022
215 Clear 9 1024 94 10000 1.03 260 21:40 20.09.2022
216 Clear 10 1023 90 10000 2.06 270 20:26 20.09.2022
217 Clouds 14 1022 77 10000 4.63 280 17:53 20.09.2022
218 Clear 14 1022 80 10000 2.06 270 15:18 20.09.2022
219 Clouds 13 1022 86 10000 2.06 310 13:59 20.09.2022
220 Clouds 13 1021 90 10000 2.06 270 11:28 20.09.2022
221 Clouds 10 1020 96 10000 5.14 300 08:30 20.09.2022
222 Clouds 9 1020 96 10000 2.57 320 07:32 20.09.2022
223 Clouds 10 1019 96 10000 4.63 310 04:33 20.09.2022
224 Clear 9 1018 96 10000 2.57 280 01:32 20.09.2022
225 Clear 10 1018 96 10000 3.67 283 22:41 19.09.2022
226 Clouds 10 1018 94 10000 3.09 270 21:28 19.09.2022
227 Clouds 10 1017 96 10000 2.06 290 20:39 19.09.2022
228 Rain 13 1016 79 10000 7.2 320 18:45 19.09.2022
229 Clouds 15 1016 76 10000 8.23 330 16:48 19.09.2022
230 Rain 14 1015 89 10000 5.14 270 13:47 19.09.2022
231 Clouds 15 1015 87 10000 5.14 290 11:57 19.09.2022
232 Clear 11 1015 94 10000 4.12 280 09:44 19.09.2022
233 Clear 9 1014 99 10000 1.54 250 08:32 19.09.2022
234 Clear 9 1012 96 10000 3.6 300 03:39 19.09.2022
235 Clear 9 1010 96 10000 4.12 300 00:48 19.09.2022
236 Clouds 10 1008 94 10000 4.12 300 22:33 18.09.2022
237 Clouds 10 1008 95 9000 6.69 300 21:26 18.09.2022
238 Clouds 11 1007 90 10000 6.17 290 19:40 18.09.2022
239 Rain 11 1007 94 10000 7.98 301 17:52 18.09.2022
240 Clouds 13 1008 78 10000 7.72 320 16:49 18.09.2022
241 Rain 11 1008 82 10000 12.35 300 14:51 18.09.2022
242 Clouds 12 1008 87 10000 6.17 270 13:41 18.09.2022
243 Rain 12 1008 88 10000 8.23 260 12:20 18.09.2022
244 Clouds 10 1009 92 10000 5.14 270 09:44 18.09.2022
245 Clouds 9 1010 93 10000 6.17 270 03:35 18.09.2022
246 Rain 9 1010 91 10000 4.63 270 01:22 18.09.2022
247 Clouds 9 1010 88 10000 2.57 300 23:36 17.09.2022
248 Rain 11 1009 94 10000 4.12 290 20:56 17.09.2022
249 Rain 11 1008 94 10000 5.66 310 19:40 17.09.2022
250 Rain 11 1008 94 10000 5.66 310 19:40 17.09.2022
251 Rain 11 1008 92 10000 7.2 310 18:43 17.09.2022
252 Rain 11 1007 94 10000 7.2 280 14:54 17.09.2022
253 Rain 10 1008 94 10000 8.75 290 13:38 17.09.2022
254 Clouds 12 1008 85 10000 8.23 280 10:50 17.09.2022
255 Clouds 10 1008 94 10000 4.63 250 08:33 17.09.2022
256 Clouds 10 1007 96 10000 5.66 270 06:21 17.09.2022
257 Rain 12 1006 96 10000 5.14 280 23:56 16.09.2022
258 Rain 12 1005 96 10000 7.2 270 22:42 16.09.2022
259 Rain 11 1004 95 10000 8.23 260 20:54 16.09.2022
260 Rain 11 1003 95 9000 12.86 260 19:50 16.09.2022
261 Rain 13 1004 82 10000 8.75 280 16:26 16.09.2022
262 Clouds 15 1005 74 10000 9.26 280 14:53 16.09.2022
263 Clouds 16 1005 70 10000 10.29 270 13:26 16.09.2022
264 Clear 13 1006 84 10000 7.72 250 10:46 16.09.2022
265 Clear 10 1006 96 10000 5.66 250 08:19 16.09.2022
266 Clouds 10 1006 96 10000 5.66 250 06:48 16.09.2022
267 Clouds 10 1006 95 10000 4.12 250 05:58 16.09.2022
268 Clear 11 1006 93 10000 5.14 260 02:35 16.09.2022
269 Clear 12 1006 92 10000 4.12 260 22:20 15.09.2022
270 Clear 12 1006 92 10000 4.12 260 22:20 15.09.2022
271 Clouds 12 1006 91 10000 3.09 290 20:39 15.09.2022
272 Clouds 13 1005 89 10000 2.57 260 19:45 15.09.2022
273 Rain 15 1005 81 10000 6.17 280 18:26 15.09.2022
274 Clouds 15 1005 83 10000 4.63 300 17:29 15.09.2022
275 Clouds 15 1005 80 10000 6.17 320 15:50 15.09.2022
276 Clouds 16 1005 76 10000 3.6 300 13:19 15.09.2022
277 Clouds 15 1005 82 9000 8.23 330 11:48 15.09.2022
278 Clouds 15 1004 84 10000 4.12 270 09:52 15.09.2022
279 Clear 13 1004 93 10000 3.6 260 07:45 15.09.2022
280 Clouds 13 1004 93 10000 4.19 268 03:49 15.09.2022
281 Clear 12 1004 92 10000 1.54 220 23:43 14.09.2022
282 Clear 14 1004 81 10000 1.54 290 21:26 14.09.2022
283 Clouds 17 1003 71 10000 3.09 40 19:33 14.09.2022
284 Clouds 18 1003 67 10000 2.57 320 18:32 14.09.2022
285 Clouds 19 1004 69 10000 3.09 330 16:44 14.09.2022
286 Clouds 19 1005 67 10000 2.57 280 15:34 14.09.2022
287 Clouds 19 1005 67 10000 2.57 280 13:36 14.09.2022
288 Clouds 16 1006 84 10000 1.54 290 10:52 14.09.2022
289 Clouds 14 1006 91 10000 1.54 250 09:41 14.09.2022
290 Clouds 11 1006 97 10000 0.51 0 06:53 14.09.2022
291 Clouds 11 1006 97 10000 0.51 0 06:34 14.09.2022
292 Clouds 11 1007 94 10000 1.54 210 06:34 14.09.2022
293 Clouds 11 1006 97 10000 0.51 0 06:34 14.09.2022
294 Clear 11 1007 96 10000 1.03 260 04:24 14.09.2022
295 Clear 12 1008 92 10000 0.51 0 01:46 14.09.2022
296 Clear 12 1008 89 10000 1.03 240 01:27 14.09.2022
297 Clear 12 1008 90 10000 1.03 240 00:42 14.09.2022
298 Clear 13 1008 86 10000 1.54 240 23:54 13.09.2022
299 Clear 13 1008 86 10000 1.54 240 23:36 13.09.2022
300 Clear 13 1009 86 10000 1.03 250 23:18 13.09.2022
301 Clouds 14 1009 82 10000 3.09 300 21:44 13.09.2022
302 Clouds 18 1008 69 10000 4.63 310 19:38 13.09.2022
303 Clear 20 1008 66 10000 6.17 310 17:41 13.09.2022
304 Clouds 21 1008 60 10000 7.72 280 15:54 13.09.2022
305 Clouds 21 1008 64 10000 6.17 270 14:31 13.09.2022
306 Clouds 19 1009 84 10000 6.17 300 12:31 13.09.2022
307 Mist 16 1008 96 2700 3.09 250 08:43 13.09.2022
308 Rain 15 1008 95 10000 2.06 220 05:22 13.09.2022
309 Clear 16 1010 83 10000 2.06 150 23:37 12.09.2022
310 Clear 16 1011 81 10000 3.09 140 22:49 12.09.2022
311 Clear 17 1011 80 10000 2.57 140 21:37 12.09.2022
312 Clear 19 1012 73 10000 2.57 150 20:25 12.09.2022
313 Clear 22 1013 59 10000 3.09 200 18:44 12.09.2022
314 Clear 23 1014 50 10000 6.17 180 16:32 12.09.2022
315 Clear 23 1014 50 10000 5.14 190 16:32 12.09.2022
316 Clear 23 1014 50 10000 5.14 190 16:32 12.09.2022
317 Clear 22 1015 56 10000 5.66 200 14:36 12.09.2022
318 Clear 18 1016 87 10000 2.06 150 11:29 12.09.2022
319 Clear 15 1016 92 10000 1.03 0 09:46 12.09.2022
320 Fog 10 1017 97 1800 1.03 80 04:50 12.09.2022
321 Clear 10 1017 97 10000 0.51 70 04:24 12.09.2022
322 Clear 13 1018 89 10000 1.03 0 23:34 11.09.2022
323 Clear 14 1018 88 10000 1.54 20 22:18 11.09.2022
324 Clear 15 1018 80 10000 1.54 340 20:48 11.09.2022
325 Clear 18 1018 71 10000 3.09 350 19:56 11.09.2022
326 Clear 19 1018 68 10000 3.09 360 19:23 11.09.2022
327 Clear 20 1018 62 10000 4.12 350 18:21 11.09.2022
328 Clear 21 1018 64 10000 4.63 320 16:46 11.09.2022
329 Clouds 21 1019 66 10000 3.09 0 14:39 11.09.2022
330 Clouds 18 1019 78 10000 2.06 10 12:50 11.09.2022
331 Mist 14 1018 98 1300 2.06 310 09:25 11.09.2022
332 Mist 14 1018 98 1300 2.06 310 09:25 11.09.2022
333 Mist 14 1017 96 4500 2.06 300 07:19 11.09.2022
334 Clouds 14 1015 96 10000 2.57 350 00:54 11.09.2022
335 Clear 15 1014 93 10000 2.06 340 23:20 10.09.2022
336 Clear 16 1013 90 10000 4.12 20 21:33 10.09.2022
337 Clouds 17 1012 86 10000 3.09 30 19:49 10.09.2022
338 Clouds 18 1012 84 10000 4.12 30 19:29 10.09.2022
339 Clouds 19 1012 83 10000 3.09 20 18:58 10.09.2022
340 Clouds 20 1011 78 10000 1.03 0 16:57 10.09.2022
341 Clouds 19 1011 79 10000 1.03 0 14:45 10.09.2022
342 Clouds 19 1012 80 10000 1.54 210 12:55 10.09.2022
343 Clouds 17 1011 92 10000 1.03 0 11:36 10.09.2022
344 Clouds 16 1011 94 10000 1.03 0 10:24 10.09.2022
345 Clouds 15 1010 96 10000 2.06 150 08:37 10.09.2022
346 Clouds 14 1010 96 10000 1.54 140 07:57 10.09.2022
347 Clouds 14 1010 96 10000 2.06 160 02:48 10.09.2022
348 Clouds 14 1009 95 10000 2.06 120 23:35 09.09.2022
349 Clear 14 1009 95 10000 1.03 140 22:21 09.09.2022
350 Rain 15 1009 93 10000 1.54 80 20:48 09.09.2022
351 Rain 16 1008 91 10000 3.6 140 19:25 09.09.2022
352 Clear 16 1008 93 10000 2.57 110 18:55 09.09.2022
353 Rain 18 1008 87 10000 3.09 130 16:34 09.09.2022
354 Rain 18 1008 82 10000 3.6 190 14:27 09.09.2022
355 Clouds 19 1008 80 10000 5.66 210 12:59 09.09.2022
356 Clear 16 1008 91 10000 4.12 200 10:23 09.09.2022
357 Clear 13 1008 96 10000 2.57 190 07:18 09.09.2022
358 Fog 13 1007 98 4500 3.09 170 03:30 09.09.2022
359 Fog 14 1008 97 1600 0.51 130 22:19 08.09.2022
360 Fog 14 1008 95 550 1.03 120 21:47 08.09.2022
361 Fog 15 1008 95 900 1.03 190 20:46 08.09.2022
362 Clear 15 1007 95 10000 0 0 20:21 08.09.2022
363 Clouds 17 1008 93 10000 1.54 260 18:34 08.09.2022
364 Drizzle 17 1007 93 10000 1.54 320 16:47 08.09.2022
365 Rain 17 1007 95 7000 4.63 300 14:42 08.09.2022
366 Rain 17 1008 92 4300 0.51 0 13:27 08.09.2022
367 Rain 17 1007 94 8000 2.06 220 12:35 08.09.2022
368 Rain 17 1007 89 10000 2.06 100 10:58 08.09.2022
369 Clear 16 1008 93 10000 2.06 130 09:20 08.09.2022
370 Clouds 15 1008 96 7000 2.57 90 06:43 08.09.2022
371 Fog 15 1010 93 4200 2.06 70 03:18 08.09.2022
372 Fog 15 1010 95 1100 0.51 0 02:36 08.09.2022
373 Fog 15 1010 92 1300 0.51 250 02:18 08.09.2022
374 Clear 18 1012 85 10000 0.51 0 22:55 07.09.2022
375 Clear 19 1012 81 10000 1.54 70 21:44 07.09.2022
376 Clear 20 1012 80 10000 1.03 90 21:20 07.09.2022
377 Clear 21 1011 73 10000 1.03 360 20:22 07.09.2022
378 Clouds 23 1012 69 10000 2.06 270 18:41 07.09.2022
379 Clouds 23 1012 63 10000 3.6 250 15:41 07.09.2022
380 Clear 19 1013 84 10000 1.03 0 10:51 07.09.2022
381 Clear 18 1013 85 10000 1.03 0 10:32 07.09.2022
382 Rain 15 1013 86 10000 3.6 140 07:45 07.09.2022
383 Rain 16 1012 81 10000 2.57 80 04:59 07.09.2022
384 Clear 16 1014 79 10000 3.09 90 00:26 07.09.2022
385 Clear 18 1015 73 10000 4.12 80 21:48 06.09.2022
386 Clear 18 1015 73 10000 4.12 80 21:27 06.09.2022
387 Clear 20 1015 64 10000 4.63 80 19:27 06.09.2022
388 Clear 22 1016 62 10000 4.12 110 18:29 06.09.2022
389 Clear 22 1016 56 10000 5.14 90 17:23 06.09.2022
390 Clear 22 1016 56 10000 6.17 90 16:41 06.09.2022
391 Clear 22 1017 60 10000 5.66 90 15:55 06.09.2022
392 Clear 18 1017 75 10000 4.63 100 13:47 06.09.2022
393 Clouds 18 1017 71 10000 4.63 90 13:27 06.09.2022
394 Clear 17 1017 70 10000 5.66 90 12:56 06.09.2022
395 Rain 18 1018 65 10000 4.63 100 10:54 06.09.2022
396 Clear 17 1017 67 10000 5.66 90 08:58 06.09.2022
397 Clear 17 1017 67 10000 5.14 100 07:52 06.09.2022
398 Clear 17 1017 68 10000 6.17 90 06:18 06.09.2022
399 Clear 19 1019 61 10000 4.63 90 00:45 06.09.2022
400 Clear 21 1019 52 10000 6.17 90 22:44 05.09.2022
401 Clear 23 1019 46 10000 5.14 90 21:38 05.09.2022
402 Clear 24 1019 46 10000 5.66 90 20:18 05.09.2022
403 Clear 27 1019 41 10000 5.14 100 18:53 05.09.2022
404 Clear 27 1019 41 10000 4.12 110 18:24 05.09.2022
405 Clear 28 1019 39 10000 4.12 100 17:47 05.09.2022
406 Clear 27 1020 47 10000 5.14 100 15:53 05.09.2022
407 Clear 26 1021 50 10000 5.66 130 14:34 05.09.2022
408 Clear 25 1021 54 10000 5.66 130 12:51 05.09.2022
409 Clear 20 1022 63 10000 4.63 110 10:35 05.09.2022
410 Clear 17 1022 66 10000 4.12 110 08:45 05.09.2022
411 Clear 16 1021 67 10000 3.09 90 03:47 05.09.2022
412 Clear 16 1021 67 10000 3.09 90 03:47 05.09.2022
413 Clear 19 1021 59 10000 4.12 90 00:18 05.09.2022
414 Clear 20 1021 60 10000 4.12 80 22:28 04.09.2022
415 Clear 20 1020 59 10000 3.6 80 21:55 04.09.2022
416 Clear 22 1020 54 10000 3.6 90 20:21 04.09.2022
417 Clear 25 1019 46 10000 3.6 100 18:34 04.09.2022
418 Clear 26 1019 40 10000 3.6 100 17:31 04.09.2022
419 Clear 25 1019 44 10000 4.63 140 15:43 04.09.2022
420 Clear 25 1019 46 10000 4.63 100 14:25 04.09.2022
421 Clear 22 1020 53 10000 4.12 80 12:34 04.09.2022
422 Clear 19 1020 60 10000 3.6 100 10:59 04.09.2022
423 Clear 16 1019 64 10000 4.12 120 09:34 04.09.2022
424 Clear 12 1017 69 10000 3.09 90 06:34 04.09.2022
425 Clear 15 1017 61 10000 4.63 80 02:51 04.09.2022
426 Clear 18 1016 50 10000 5.14 90 22:53 03.09.2022
427 Clear 20 1015 46 10000 4.12 90 21:26 03.09.2022
428 Clear 20 1015 45 10000 4.12 90 20:55 03.09.2022
429 Clear 23 1014 40 10000 6.17 110 18:41 03.09.2022
430 Clear 24 1014 35 10000 5.66 110 17:19 03.09.2022
431 Clear 24 1014 38 10000 6.17 120 15:49 03.09.2022
432 Clear 24 1015 36 10000 6.17 100 14:42 03.09.2022
433 Clear 23 1015 41 10000 8.23 110 13:50 03.09.2022
434 Clear 20 1016 53 10000 5.66 100 11:33 03.09.2022
435 Clear 16 1016 64 10000 4.63 110 09:36 03.09.2022
436 Clouds 12 1016 77 10000 5.26 99 07:53 03.09.2022
437 Clear 13 1016 72 10000 4.12 90 04:55 03.09.2022
438 Clear 14 1016 66 10000 4.63 80 02:49 03.09.2022
439 Clear 18 1016 56 10000 5.66 110 23:46 02.09.2022
440 Clear 18 1016 55 10000 4.63 90 22:27 02.09.2022
441 Clear 19 1016 51 10000 4.12 90 20:56 02.09.2022
442 Clear 20 1016 49 10000 4.63 90 20:22 02.09.2022
443 Clear 22 1016 44 10000 4.12 120 18:51 02.09.2022
444 Clear 23 1016 44 10000 4.63 110 18:26 02.09.2022
445 Clear 24 1016 41 10000 5.14 120 17:28 02.09.2022
446 Clear 24 1016 42 10000 5.66 130 16:32 02.09.2022
447 Clear 22 1018 47 10000 6.17 110 13:50 02.09.2022
448 Clear 20 1019 56 10000 4.63 100 11:36 02.09.2022
449 Clear 15 1020 67 10000 3.09 90 09:46 02.09.2022
450 Clear 13 1020 76 10000 4.12 90 08:49 02.09.2022
451 Clear 11 1020 86 10000 3.09 70 06:50 02.09.2022
452 Clear 11 1020 83 10000 3.6 80 06:24 02.09.2022
453 Clear 13 1021 73 10000 3.6 70 01:41 02.09.2022
454 Clear 17 1021 61 10000 4.63 70 22:24 01.09.2022
455 Clear 18 1021 59 10000 4.12 70 21:39 01.09.2022
456 Clear 18 1021 56 10000 4.12 70 21:20 01.09.2022
457 Clear 19 1022 56 10000 4.3 66 20:31 01.09.2022
458 Clear 22 1021 43 10000 4.12 70 18:38 01.09.2022
459 Clear 23 1022 37 10000 4.63 60 16:58 01.09.2022
460 Clear 23 1022 41 10000 4.12 90 15:29 01.09.2022
461 Clear 23 1023 44 10000 3.6 80 13:48 01.09.2022
462 Clear 22 1023 48 10000 5.14 90 12:57 01.09.2022
463 Clear 20 1024 52 10000 3.6 90 11:52 01.09.2022
464 Clear 20 1024 55 10000 3.6 90 11:29 01.09.2022
465 Clear 16 1024 74 10000 3.09 90 09:49 01.09.2022
466 Clear 13 1023 84 10000 2.57 60 07:50 01.09.2022
467 Clear 13 1023 83 10000 2.57 50 05:58 01.09.2022
468 Clear 14 1024 73 10000 3.09 60 01:31 01.09.2022
469 Clear 14 1024 73 10000 3.09 60 01:31 01.09.2022
470 Clear 14 1024 73 10000 3.09 60 01:31 01.09.2022
471 Clear 16 1023 65 10000 3.6 40 23:19 31.08.2022
472 Clear 18 1023 57 10000 2.57 60 21:20 31.08.2022
473 Clear 21 1022 45 10000 4.12 70 19:23 31.08.2022
474 Clear 23 1023 38 10000 3.6 60 17:25 31.08.2022
475 Clear 23 1023 41 10000 4.63 70 15:44 31.08.2022
476 Clear 22 1024 47 10000 6.17 80 13:56 31.08.2022
477 Clouds 20 1025 57 10000 5.14 50 12:19 31.08.2022
478 Clear 17 1025 69 10000 5.14 60 10:30 31.08.2022
479 Clear 13 1025 80 10000 3.09 60 08:32 31.08.2022
480 Clear 12 1024 77 10000 3.6 60 03:46 31.08.2022
481 Clear 16 1023 66 10000 5.14 60 22:44 30.08.2022
482 Clear 18 1022 67 10000 4.63 60 21:33 30.08.2022
483 Clear 19 1022 66 10000 4.12 50 20:47 30.08.2022
484 Clouds 22 1021 62 10000 4.98 49 17:25 30.08.2022
485 Clouds 22 1022 63 10000 4.12 60 14:42 30.08.2022
486 Clouds 21 1023 68 10000 4.12 80 13:24 30.08.2022
487 Clouds 18 1023 77 10000 2.06 70 11:21 30.08.2022
488 Clouds 17 1023 75 10000 2.06 50 10:35 30.08.2022
489 Clouds 11 1022 94 10000 0.51 0 06:50 30.08.2022
490 Clear 14 1022 86 10000 1.54 60 01:45 30.08.2022
491 Clear 14 1022 86 10000 1.54 60 01:45 30.08.2022
492 Clear 14 1022 86 10000 1.54 60 01:45 30.08.2022
493 Clear 17 1022 77 10000 3.09 60 22:54 29.08.2022
494 Clear 18 1021 76 10000 4.12 60 22:20 29.08.2022
495 Clouds 18 1021 75 10000 3.22 25 21:24 29.08.2022
496 Clear 20 1020 65 10000 4.63 20 19:48 29.08.2022
497 Clouds 23 1020 59 10000 5.14 10 17:50 29.08.2022
498 Clouds 23 1020 59 10000 4.63 320 17:24 29.08.2022
499 Clouds 24 1021 58 10000 5.14 340 16:22 29.08.2022
500 Clouds 24 1021 59 10000 4.63 330 14:44 29.08.2022
501 Clouds 21 1021 68 10000 3.6 340 12:52 29.08.2022
502 Clouds 19 1021 80 10000 3.09 340 10:56 29.08.2022
503 Clouds 17 1021 91 10000 3.6 310 09:45 29.08.2022
504 Clouds 16 1020 93 10000 3.09 280 08:28 29.08.2022
505 Clouds 15 1020 81 10000 3.6 280 02:49 29.08.2022
506 Clouds 16 1020 75 10000 3.6 290 23:55 28.08.2022
507 Clouds 17 1020 70 10000 4.63 300 22:36 28.08.2022
508 Clouds 17 1020 69 10000 4.12 290 21:43 28.08.2022
509 Clouds 17 1019 66 10000 4.63 310 20:54 28.08.2022
510 Clouds 19 1019 60 10000 7.2 320 19:20 28.08.2022
511 Clouds 19 1019 61 10000 7.2 340 18:20 28.08.2022
512 Clouds 21 1019 58 10000 6.17 330 16:57 28.08.2022
513 Clouds 21 1019 58 10000 6.69 300 16:22 28.08.2022
514 Clouds 20 1019 56 10000 7.2 310 14:36 28.08.2022
515 Clouds 20 1019 59 10000 8.75 300 12:32 28.08.2022
516 Clear 19 1019 66 10000 6.17 300 10:43 28.08.2022
517 Clouds 17 1018 71 10000 4.63 300 09:49 28.08.2022
518 Clouds 15 1018 78 10000 2.57 280 08:37 28.08.2022
519 Clear 12 1018 92 10000 1.03 270 07:43 28.08.2022
520 Clouds 13 1017 89 10000 3.09 300 02:48 28.08.2022
521 Clouds 14 1017 85 10000 3.09 300 00:27 28.08.2022
522 Clouds 16 1017 77 10000 3.09 300 22:36 27.08.2022
523 Clouds 18 1017 72 10000 5.14 320 21:36 27.08.2022
524 Clouds 19 1016 67 10000 5.66 330 19:49 27.08.2022
525 Clouds 21 1016 57 10000 6.17 320 17:43 27.08.2022
526 Clouds 23 1015 59 10000 6.69 330 15:53 27.08.2022
527 Clouds 22 1015 62 10000 6.69 320 15:24 27.08.2022
528 Clouds 20 1016 73 10000 5.66 340 12:28 27.08.2022
529 Clouds 20 1015 75 10000 5.14 330 11:32 27.08.2022
530 Clouds 20 1015 75 10000 5.14 330 11:32 27.08.2022
531 Clouds 19 1015 78 10000 5.14 330 09:49 27.08.2022
532 Clouds 19 1014 82 10000 4.63 340 08:22 27.08.2022
533 Clouds 19 1014 83 10000 4.63 330 03:40 27.08.2022
534 Clouds 20 1015 86 10000 5.14 340 23:58 26.08.2022
535 Clouds 20 1014 86 10000 7.2 340 22:50 26.08.2022
536 Clouds 21 1014 83 10000 5.14 330 21:30 26.08.2022
537 Clouds 22 1013 82 10000 4.12 330 19:23 26.08.2022
538 Rain 23 1013 82 10000 5.66 310 17:25 26.08.2022
539 Clouds 27 1012 66 10000 6.17 340 15:35 26.08.2022
540 Clouds 28 1013 59 10000 2.57 90 14:42 26.08.2022
541 Clear 28 1013 60 10000 2.06 0 12:53 26.08.2022
542 Clear 27 1014 63 10000 1.54 140 11:35 26.08.2022
543 Clear 25 1014 70 10000 1.54 0 10:46 26.08.2022
544 Clear 19 1013 88 10000 1.03 0 07:32 26.08.2022
545 Clear 22 1014 77 10000 3.6 110 02:31 26.08.2022
546 Clear 23 1014 71 10000 3.09 100 23:44 25.08.2022
547 Clear 25 1014 64 10000 3.6 80 21:40 25.08.2022
548 Clear 26 1014 61 10000 3.09 90 20:51 25.08.2022
549 Clear 29 1014 53 10000 3.6 100 19:24 25.08.2022
550 Clear 28 1014 51 10000 5.66 90 18:18 25.08.2022
551 Clear 29 1015 52 10000 4.63 110 17:31 25.08.2022
552 Clear 29 1015 53 10000 5.14 130 16:25 25.08.2022
553 Clear 29 1016 54 10000 4.63 120 15:27 25.08.2022
554 Clouds 27 1018 59 10000 4.12 130 12:47 25.08.2022
555 Clear 24 1019 69 10000 3.6 100 10:49 25.08.2022
556 Clear 22 1019 77 10000 3.6 110 09:44 25.08.2022
557 Clear 17 1019 84 10000 3.09 80 06:45 25.08.2022
558 Clear 21 1019 64 10000 3.09 120 01:57 25.08.2022
559 Clear 23 1020 57 10000 3.6 90 23:28 24.08.2022
560 Clear 24 1019 55 10000 4.12 90 22:43 24.08.2022
561 Clear 26 1019 52 10000 4.12 90 21:37 24.08.2022
562 Clear 26 1019 51 10000 4.12 90 21:19 24.08.2022
563 Clear 30 1018 37 10000 3.09 130 19:34 24.08.2022
564 Clear 32 1018 37 10000 3.6 110 16:49 24.08.2022
565 Clear 31 1018 38 10000 4.63 140 15:52 24.08.2022
566 Clear 30 1019 39 10000 3.09 170 13:49 24.08.2022
567 Clear 27 1019 49 10000 4.12 120 12:24 24.08.2022
568 Clear 26 1019 51 10000 4.12 140 11:18 24.08.2022
569 Clear 19 1018 72 10000 3.09 130 08:28 24.08.2022
570 Clear 20 1018 67 10000 3.09 110 03:54 24.08.2022
571 Clear 22 1017 52 10000 4.63 110 23:53 23.08.2022
572 Clear 23 1017 55 10000 3.6 110 22:35 23.08.2022
573 Clear 24 1017 53 10000 3.6 120 21:49 23.08.2022
574 Clear 26 1016 43 10000 4.12 110 20:40 23.08.2022
575 Clear 28 1015 41 10000 4.12 120 18:55 23.08.2022
576 Clear 29 1016 39 10000 4.12 140 17:56 23.08.2022
577 Clear 30 1016 34 10000 4.63 140 17:21 23.08.2022
578 Clear 29 1016 38 10000 5.66 150 15:54 23.08.2022
579 Clear 28 1016 41 10000 5.14 120 13:54 23.08.2022
580 Clear 27 1016 46 10000 6.69 130 12:46 23.08.2022
581 Clear 23 1017 58 10000 6.17 130 10:57 23.08.2022
582 Clear 22 1017 62 10000 5.14 130 10:33 23.08.2022
583 Clear 20 1016 70 10000 4.63 130 08:58 23.08.2022
584 Clear 19 1016 71 10000 4.63 130 08:38 23.08.2022
585 Clear 19 1016 72 10000 3.09 120 08:18 23.08.2022
586 Clear 18 1016 72 10000 3.6 110 07:25 23.08.2022
587 Clear 19 1015 71 10000 3.6 110 06:22 23.08.2022
588 Clear 20 1015 65 10000 4.12 130 01:44 23.08.2022
589 Clear 21 1015 66 10000 3.09 110 00:26 23.08.2022
590 Clouds 21 1015 67 10000 3.6 90 23:32 22.08.2022
591 Clouds 21 1015 74 10000 3.44 73 22:24 22.08.2022
592 Clouds 23 1014 67 10000 4.3 44 20:29 22.08.2022
593 Clear 24 1014 52 10000 3.6 60 19:41 22.08.2022
594 Clouds 25 1014 52 10000 2.57 90 18:37 22.08.2022
595 Clouds 25 1015 52 10000 2.57 70 15:46 22.08.2022
596 Clouds 25 1015 52 10000 2.06 150 15:18 22.08.2022
597 Clouds 23 1017 68 10000 3.6 90 11:45 22.08.2022
598 Clear 19 1017 82 10000 3.09 70 09:24 22.08.2022
599 Clear 16 1016 91 10000 1.54 40 05:51 22.08.2022
600 Clear 17 1016 88 10000 2.57 30 02:28 22.08.2022
601 Clouds 17 1017 91 10000 2.04 10 00:36 22.08.2022
602 Clear 19 1016 77 10000 2.57 10 23:32 21.08.2022
603 Clear 21 1016 64 10000 4.63 350 21:55 21.08.2022
604 Clear 21 1015 68 10000 6.17 350 21:19 21.08.2022
605 Clear 21 1015 75 10000 6.17 350 20:20 21.08.2022
606 Clear 24 1014 56 10000 3.6 300 18:49 21.08.2022
607 Clear 25 1014 43 10000 2.06 0 16:50 21.08.2022
608 Clear 25 1015 53 10000 4.12 280 15:52 21.08.2022
609 Clear 24 1015 55 10000 4.63 240 14:57 21.08.2022
610 Clouds 23 1015 60 10000 5.14 290 13:51 21.08.2022
611 Clouds 24 1015 60 10000 6.17 250 12:56 21.08.2022
612 Clear 20 1016 72 10000 4.12 230 10:41 21.08.2022
613 Clear 17 1016 84 10000 1.54 230 09:21 21.08.2022
614 Clear 16 1016 82 10000 1.03 0 08:46 21.08.2022
615 Clear 15 1016 87 10000 0.51 0 08:28 21.08.2022
616 Clear 12 1015 94 10000 0.51 200 06:37 21.08.2022
617 Clear 14 1017 86 10000 0.51 110 01:50 21.08.2022
618 Clear 16 1017 76 10000 1.54 90 23:34 20.08.2022
619 Clear 18 1017 71 10000 3.09 20 21:57 20.08.2022
620 Clear 20 1016 65 10000 3.09 30 20:56 20.08.2022
621 Clouds 21 1016 62 10000 4.12 10 19:49 20.08.2022
622 Clear 22 1016 58 10000 3.09 300 18:50 20.08.2022
623 Clear 23 1016 55 10000 4.12 320 18:26 20.08.2022
624 Clouds 24 1016 51 10000 5.66 310 17:21 20.08.2022
625 Clouds 24 1016 54 10000 4.12 310 16:23 20.08.2022
626 Clear 23 1016 60 10000 4.12 320 14:35 20.08.2022
627 Clouds 22 1016 70 10000 4.12 300 12:19 20.08.2022
628 Clouds 21 1016 78 10000 3.6 310 11:42 20.08.2022
629 Clouds 19 1015 93 10000 3.6 310 09:25 20.08.2022
630 Rain 18 1014 94 10000 1.54 250 07:31 20.08.2022
631 Clouds 18 1014 92 10000 2.06 290 05:48 20.08.2022
632 Clear 18 1014 79 10000 1.54 270 00:58 20.08.2022
633 Clear 18 1013 77 10000 1.54 300 23:52 19.08.2022
634 Clear 19 1013 70 10000 1.54 80 22:48 19.08.2022
635 Clear 21 1012 62 10000 2.06 20 21:34 19.08.2022
636 Clouds 23 1011 63 10000 3 22 19:40 19.08.2022
637 Clear 27 1012 46 10000 6.17 290 16:32 19.08.2022
638 Clear 25 1013 52 10000 3.6 290 14:22 19.08.2022
639 Clear 23 1013 59 10000 1.54 0 12:45 19.08.2022
640 Clouds 20 1013 72 10000 2.57 10 10:41 19.08.2022
641 Clear 18 1013 83 10000 2.06 300 09:36 19.08.2022
642 Clouds 17 1012 93 10000 1.54 270 04:56 19.08.2022
643 Clouds 17 1013 89 10000 2.57 350 00:43 19.08.2022
644 Clear 17 1013 89 10000 2.57 10 00:20 19.08.2022
645 Clear 18 1013 85 10000 3.09 360 22:59 18.08.2022
646 Clouds 18 1013 85 10000 4.63 350 22:26 18.08.2022
647 Clouds 18 1013 84 10000 3.6 340 21:51 18.08.2022
648 Clouds 19 1012 82 10000 5.14 350 20:56 18.08.2022
649 Clouds 21 1012 76 10000 4.63 340 19:54 18.08.2022
650 Clouds 22 1012 76 10000 5.14 340 19:21 18.08.2022
651 Clouds 23 1012 70 10000 4.63 320 17:41 18.08.2022
652 Clouds 24 1012 72 10000 5.66 300 16:25 18.08.2022
653 Clouds 23 1012 75 10000 6.17 310 14:22 18.08.2022
654 Clouds 24 1012 72 10000 3.6 280 13:45 18.08.2022
655 Clouds 22 1012 81 10000 3.09 270 12:31 18.08.2022
656 Clouds 21 1012 85 10000 3.09 290 11:21 18.08.2022
657 Clouds 20 1012 88 10000 4.12 250 09:43 18.08.2022
658 Clouds 19 1011 92 10000 4.63 270 07:57 18.08.2022
659 Clouds 19 1011 92 9000 3.09 240 07:18 18.08.2022
660 Clear 18 1010 96 10000 1.03 180 02:59 18.08.2022
661 Clear 20 1010 83 10000 2.06 80 22:51 17.08.2022
662 Clouds 19 1011 93 10000 4.38 4 21:26 17.08.2022
663 Clouds 21 1011 96 10000 5.27 328 19:59 17.08.2022
664 Clouds 29 1009 39 10000 3.09 100 18:39 17.08.2022
665 Clouds 28 1009 55 10000 4.12 120 17:28 17.08.2022
666 Clear 29 1010 52 10000 3.09 130 16:21 17.08.2022
667 Clear 29 1010 49 10000 4.12 110 14:48 17.08.2022
668 Clear 29 1011 51 10000 3.09 100 12:52 17.08.2022
669 Clear 27 1011 62 10000 2.06 0 11:36 17.08.2022
670 Clouds 20 1011 87 9000 2.06 80 09:31 17.08.2022
671 Clouds 18 1011 96 10000 2.25 49 07:36 17.08.2022
672 Clear 18 1011 90 10000 1.03 40 02:21 17.08.2022
673 Clouds 20 1011 85 10000 1.5 48 23:49 16.08.2022
674 Clouds 21 1010 83 10000 2.04 356 21:59 16.08.2022
675 Clear 23 1009 69 10000 1.54 290 20:51 16.08.2022
676 Rain 24 1008 65 10000 5.14 300 19:50 16.08.2022
677 Clouds 27 1008 52 10000 2.57 330 18:34 16.08.2022
678 Rain 27 1008 53 10000 5.66 290 17:40 16.08.2022
679 Clouds 28 1008 49 10000 4.12 260 15:47 16.08.2022
680 Clear 29 1008 51 10000 5.14 220 14:55 16.08.2022
681 Clear 29 1008 50 10000 5.14 220 14:37 16.08.2022
682 Clear 26 1007 58 10000 1.54 220 12:43 16.08.2022
683 Clear 23 1007 78 10000 2.57 180 10:35 16.08.2022
684 Clear 22 1007 81 10000 2.57 140 09:44 16.08.2022
685 Clear 20 1006 87 10000 1.54 200 08:45 16.08.2022
686 Clouds 18 1006 91 7000 1.54 160 07:33 16.08.2022
687 Clear 19 1005 87 10000 2.06 250 01:42 16.08.2022
688 Clear 20 1004 86 10000 1.54 160 22:30 15.08.2022
689 Clear 20 1004 86 10000 1.54 160 22:30 15.08.2022
690 Clear 21 1004 86 10000 1.03 150 21:54 15.08.2022
691 Clouds 21 1004 80 10000 0.51 0 20:52 15.08.2022
692 Rain 21 1004 83 10000 2.06 90 20:19 15.08.2022
693 Rain 21 1004 83 10000 2.06 90 20:19 15.08.2022
694 Clear 26 1003 61 10000 3.09 110 18:41 15.08.2022
695 Rain 28 1003 48 10000 3.09 220 17:36 15.08.2022
696 Clouds 27 1003 55 10000 8.23 210 16:22 15.08.2022
697 Clear 30 1003 45 10000 3.6 160 13:57 15.08.2022
698 Clear 27 1003 47 10000 2.06 110 12:37 15.08.2022
699 Clear 24 1003 63 10000 2.06 130 10:18 15.08.2022
700 Clear 21 1003 73 10000 2.06 120 08:51 15.08.2022
701 Clear 21 1004 74 10000 1.54 80 06:33 15.08.2022
702 Clear 23 1005 65 10000 3.09 90 02:57 15.08.2022
703 Clear 25 1006 62 10000 3.6 90 23:22 14.08.2022
704 Clear 26 1006 57 10000 2.57 90 21:42 14.08.2022
705 Clear 28 1006 50 10000 5.14 110 20:33 14.08.2022
706 Clear 30 1006 42 10000 5.14 90 19:36 14.08.2022
707 Clouds 31 1007 40 10000 6.17 110 18:21 14.08.2022
708 Clear 30 1007 41 10000 4.12 140 17:27 14.08.2022
709 Clear 31 1008 41 10000 6.69 110 16:22 14.08.2022
710 Clear 30 1009 48 10000 5.14 120 14:55 14.08.2022
711 Clear 30 1010 47 10000 5.14 110 13:51 14.08.2022
712 Clear 29 1010 52 10000 5.14 120 13:31 14.08.2022
713 Clear 29 1010 53 10000 5.14 120 13:31 14.08.2022
714 Clear 28 1011 53 10000 3.6 120 12:35 14.08.2022
715 Clear 26 1012 63 10000 4.12 120 11:22 14.08.2022
716 Clear 23 1012 70 10000 3.09 110 08:57 14.08.2022
717 Clear 20 1013 80 10000 3.09 70 06:40 14.08.2022
718 Rain 20 1013 78 10000 3.09 80 05:37 14.08.2022
719 Clear 22 1015 70 10000 2.57 70 01:36 14.08.2022
720 Clear 23 1015 65 10000 2.06 60 23:22 13.08.2022
721 Clear 24 1015 61 10000 2.06 70 22:28 13.08.2022
722 Clear 27 1015 51 10000 3.6 100 20:51 13.08.2022
723 Clear 28 1015 46 10000 5.14 100 19:49 13.08.2022
724 Clear 29 1015 43 10000 5.14 90 19:18 13.08.2022
725 Clear 30 1016 37 10000 4.63 60 17:22 13.08.2022
726 Clear 30 1017 36 10000 5.66 50 14:51 13.08.2022
727 Clear 30 1017 36 10000 3.6 90 14:24 13.08.2022
728 Clear 30 1018 36 10000 3.6 70 13:34 13.08.2022
729 Clear 28 1019 39 10000 2.06 90 11:33 13.08.2022
730 Clear 23 1019 53 10000 0.51 0 09:26 13.08.2022
731 Clear 17 1019 71 10000 0.51 130 07:43 13.08.2022
732 Clear 20 1019 56 10000 2.57 90 01:56 13.08.2022
733 Clear 21 1019 54 10000 2.57 90 23:36 12.08.2022
734 Clear 25 1018 47 10000 2.57 100 21:40 12.08.2022
735 Clear 29 1018 29 10000 4.12 90 19:50 12.08.2022
736 Clear 30 1018 29 10000 5.14 70 19:24 12.08.2022
737 Clear 31 1018 29 10000 3.09 100 18:31 12.08.2022
738 Clear 31 1019 29 10000 4.12 110 16:27 12.08.2022
739 Clear 30 1019 35 10000 2.06 0 15:23 12.08.2022
740 Clear 30 1020 29 10000 4.12 110 13:56 12.08.2022
741 Clear 28 1021 37 10000 3.09 80 12:51 12.08.2022
742 Clear 21 1021 61 10000 2.06 90 09:28 12.08.2022
743 Clear 18 1021 72 10000 2.06 50 07:47 12.08.2022
744 Clear 16 1021 81 10000 2.06 60 06:25 12.08.2022
745 Clear 19 1021 72 10000 3.6 70 01:45 12.08.2022
746 Clear 21 1021 65 10000 3.09 60 00:20 12.08.2022
747 Clear 21 1021 65 10000 3.09 50 23:29 11.08.2022
748 Clear 24 1021 58 10000 2.57 40 21:57 11.08.2022
749 Clear 24 1021 56 10000 2.57 40 21:35 11.08.2022
750 Clear 28 1020 38 10000 4.12 50 20:32 11.08.2022
751 Clear 28 1020 37 10000 4.63 40 19:57 11.08.2022
752 Clear 29 1021 36 10000 4.63 40 19:32 11.08.2022
753 Clear 30 1021 34 10000 3.09 70 17:47 11.08.2022
754 Clear 29 1022 33 10000 3.6 60 16:32 11.08.2022
755 Clear 29 1022 44 10000 2.57 40 15:21 11.08.2022
756 Clear 27 1024 38 10000 3.09 70 12:41 11.08.2022
757 Clear 22 1024 62 10000 1.03 0 09:54 11.08.2022
758 Clear 15 1024 87 10000 1.54 50 06:59 11.08.2022
759 Clear 16 1024 85 10000 1.03 80 03:46 11.08.2022
760 Clear 19 1025 83 10000 3.09 40 00:35 11.08.2022
761 Clear 22 1024 63 10000 3.09 40 22:22 10.08.2022
762 Clear 23 1024 56 10000 3.09 40 21:24 10.08.2022
763 Clear 24 1024 55 10000 4.12 50 20:54 10.08.2022
764 Clear 27 1025 43 10000 4.12 40 19:24 10.08.2022
765 Clear 28 1025 37 10000 4.12 60 17:55 10.08.2022
766 Clear 28 1025 39 10000 4.12 30 16:35 10.08.2022
767 Clear 26 1027 44 10000 3.09 70 13:35 10.08.2022
768 Clear 24 1028 60 10000 3.09 70 12:35 10.08.2022
769 Clear 19 1028 79 10000 2.57 70 09:25 10.08.2022
770 Clear 17 1028 78 10000 2.57 70 08:33 10.08.2022
771 Clear 14 1028 92 10000 1.54 50 07:18 10.08.2022
772 Clear 15 1028 91 10000 1.54 60 03:25 10.08.2022
773 Clear 18 1028 77 10000 4.63 10 23:34 09.08.2022
774 Clear 18 1028 76 10000 5.14 10 22:56 09.08.2022
775 Clear 21 1028 74 10000 5.14 20 21:36 09.08.2022
776 Clear 23 1027 65 10000 5.66 20 20:30 09.08.2022
777 Clear 24 1027 59 10000 3.6 30 18:44 09.08.2022
778 Clear 25 1028 47 10000 3.09 30 17:28 09.08.2022
779 Clear 25 1028 47 10000 3.09 30 17:28 09.08.2022
780 Clear 25 1028 48 10000 3.6 360 16:41 09.08.2022
781 Clouds 25 1028 48 10000 2.57 0 15:58 09.08.2022
782 Clouds 22 1029 68 10000 2.57 40 12:52 09.08.2022
783 Clear 18 1029 76 10000 2.57 40 09:56 09.08.2022
784 Clear 16 1029 87 10000 3.6 40 08:50 09.08.2022
785 Clear 14 1028 92 10000 2.06 30 07:53 09.08.2022
786 Clear 13 1028 93 10000 0.51 0 04:25 09.08.2022
787 Clouds 16 1027 92 10000 3 8 23:35 08.08.2022
788 Clouds 16 1027 91 10000 3.23 4 22:56 08.08.2022
789 Clouds 17 1027 93 10000 3.38 358 22:22 08.08.2022
790 Clouds 18 1026 85 10000 3.37 348 21:22 08.08.2022
791 Clear 20 1026 73 10000 3.6 360 19:51 08.08.2022
792 Clouds 21 1025 66 10000 3.09 20 18:58 08.08.2022
793 Clear 22 1026 62 10000 3.6 310 16:47 08.08.2022
794 Clouds 22 1026 66 10000 4.63 350 15:45 08.08.2022
795 Clear 22 1026 67 10000 3.09 290 14:33 08.08.2022
796 Clouds 21 1026 59 10000 1.54 0 12:29 08.08.2022
797 Clear 19 1026 72 10000 3.09 330 10:19 08.08.2022
798 Clear 11 1025 95 10000 2.06 290 06:54 08.08.2022
799 Clear 11 1024 93 10000 0.51 340 03:34 08.08.2022
800 Clear 17 1024 70 10000 4.12 20 22:44 07.08.2022
801 Clear 19 1023 60 10000 3.09 10 21:40 07.08.2022
802 Clear 21 1023 49 10000 4.12 10 20:42 07.08.2022
803 Clear 21 1023 61 10000 3.09 300 20:18 07.08.2022
804 Clear 21 1023 59 10000 3.09 300 19:41 07.08.2022
805 Clear 23 1023 54 10000 3.09 290 18:40 07.08.2022
806 Clear 23 1024 43 10000 3.09 300 17:18 07.08.2022
807 Clear 23 1024 42 10000 3.09 260 16:38 07.08.2022
808 Clear 23 1024 43 10000 2.06 0 15:25 07.08.2022
809 Clouds 21 1025 50 10000 2.57 280 13:44 07.08.2022
810 Clear 20 1026 64 10000 2.06 0 12:18 07.08.2022
811 Clear 19 1026 61 10000 1.54 0 10:37 07.08.2022
812 Clear 13 1027 91 10000 0.51 0 08:26 07.08.2022
813 Clear 10 1026 95 10000 0.51 260 04:26 07.08.2022
814 Clear 11 1027 91 10000 0 0 01:50 07.08.2022
815 Clouds 14 1027 87 10000 3.2 360 22:28 06.08.2022
816 Clear 16 1027 77 10000 4.63 350 21:43 06.08.2022
817 Clouds 19 1026 65 10000 4.12 330 19:42 06.08.2022
818 Clouds 20 1026 61 10000 2.57 0 18:33 06.08.2022
819 Clear 20 1027 52 10000 2.57 300 17:44 06.08.2022
820 Clouds 20 1027 67 10000 4.12 320 15:21 06.08.2022
821 Clouds 20 1027 67 10000 3.6 280 13:50 06.08.2022
822 Clouds 19 1027 66 10000 4.12 290 12:21 06.08.2022
823 Clouds 18 1027 64 10000 4.63 300 10:40 06.08.2022
824 Clear 16 1026 82 10000 1.54 230 09:24 06.08.2022
825 Clouds 11 1024 92 10000 1.03 270 03:56 06.08.2022
826 Clear 12 1023 90 10000 1.54 260 00:46 06.08.2022
827 Clear 13 1022 78 10000 3.09 290 22:35 05.08.2022
828 Clear 17 1020 70 10000 4.63 310 20:50 05.08.2022
829 Clear 19 1019 63 10000 8.23 300 18:56 05.08.2022
830 Clouds 19 1018 71 10000 6.28 315 18:38 05.08.2022
831 Clouds 21 1017 64 10000 6.69 300 16:52 05.08.2022
832 Clouds 20 1017 85 10000 3.6 240 15:25 05.08.2022
833 Clouds 19 1017 87 10000 4.12 240 14:38 05.08.2022
834 Clouds 18 1016 90 10000 3.09 260 13:38 05.08.2022
835 Clouds 18 1016 93 10000 2.57 290 13:18 05.08.2022
836 Rain 17 1015 96 10000 2.06 280 11:55 05.08.2022
837 Clouds 17 1015 97 10000 2.57 316 09:18 05.08.2022
838 Clouds 17 1015 96 10000 3.09 290 07:57 05.08.2022
839 Clear 17 1014 93 10000 3.6 310 04:48 05.08.2022
840 Clouds 19 1014 92 10000 4.12 340 23:36 04.08.2022
841 Clear 20 1013 89 10000 4.63 340 21:37 04.08.2022
842 Clear 20 1013 89 10000 4.63 340 21:18 04.08.2022
843 Clear 22 1012 84 10000 5.14 340 20:38 04.08.2022
844 Clear 22 1012 89 10000 4.63 10 19:00 04.08.2022
845 Clear 22 1012 90 10000 4.63 10 18:34 04.08.2022
846 Thunderstorm 28 1011 66 10000 6.69 300 16:54 04.08.2022
847 Clear 34 1010 34 10000 4.63 210 13:34 04.08.2022
848 Clear 30 1011 49 10000 3.09 140 11:42 04.08.2022
849 Clear 27 1012 63 10000 2.57 140 10:24 04.08.2022
850 Clear 21 1012 85 10000 3.6 120 07:50 04.08.2022
851 Clear 18 1014 94 10000 1.54 140 03:33 04.08.2022
852 Clear 20 1014 91 10000 2.06 80 01:42 04.08.2022
853 Clouds 19 1015 91 10000 2.85 52 23:41 03.08.2022
854 Clouds 23 1015 82 10000 3.37 8 21:39 03.08.2022
855 Clear 27 1013 62 10000 2.57 230 20:22 03.08.2022
856 Clear 30 1013 45 10000 4.12 220 19:28 03.08.2022
857 Clear 31 1013 41 10000 4.12 220 17:41 03.08.2022
858 Clear 31 1013 42 10000 5.14 250 16:24 03.08.2022
859 Clear 30 1014 53 10000 5.14 260 14:43 03.08.2022
860 Clear 27 1014 59 10000 6.69 220 11:53 03.08.2022
861 Clear 20 1014 81 10000 1.54 220 08:20 03.08.2022
862 Clear 17 1014 90 10000 1.03 190 04:46 03.08.2022
863 Clear 18 1014 86 10000 1.54 170 03:28 03.08.2022
864 Clear 19 1015 84 10000 1.54 170 01:18 03.08.2022
865 Clear 19 1015 84 10000 1.54 170 01:18 03.08.2022
866 Clear 21 1015 79 10000 1.54 170 23:18 02.08.2022
867 Clear 23 1014 71 10000 1.03 200 21:55 02.08.2022
868 Clear 24 1014 60 10000 1.54 260 21:21 02.08.2022
869 Clear 27 1014 44 10000 4.12 220 18:59 02.08.2022
870 Clear 26 1015 49 10000 5.66 210 16:27 02.08.2022
871 Clear 23 1017 48 10000 3.6 210 12:53 02.08.2022
872 Clear 15 1018 85 10000 2.57 130 09:40 02.08.2022
873 Clear 11 1018 96 10000 1.54 150 07:56 02.08.2022
874 Clear 10 1018 98 10000 1.03 0 07:25 02.08.2022
875 Fog 9 1019 98 650 0.51 150 04:55 02.08.2022
876 Clear 13 1019 84 10000 1.54 10 23:52 01.08.2022
877 Clear 14 1019 81 10000 3.09 350 22:50 01.08.2022
878 Clear 16 1019 82 10000 3.46 354 20:57 01.08.2022
879 Clouds 18 1018 70 10000 4.12 340 19:41 01.08.2022
880 Clouds 19 1018 68 10000 4.12 340 18:43 01.08.2022
881 Clouds 20 1018 60 10000 5.14 330 16:54 01.08.2022
882 Clouds 20 1018 70 10000 5.14 320 16:29 01.08.2022
883 Clouds 20 1018 70 10000 4.63 330 15:31 01.08.2022
884 Clouds 20 1017 70 10000 5.66 310 14:43 01.08.2022
885 Clouds 20 1017 70 10000 5.66 310 14:43 01.08.2022
886 Clouds 19 1017 76 10000 4.63 330 12:52 01.08.2022
887 Clouds 17 1016 90 10000 5.14 330 10:30 01.08.2022
888 Clouds 16 1015 97 10000 5.14 300 08:41 01.08.2022
889 Clouds 17 1014 97 10000 4.12 300 06:50 01.08.2022
890 Clouds 18 1013 97 10000 3.6 300 04:29 01.08.2022
891 Clouds 18 1013 98 10000 3.09 290 00:56 01.08.2022
892 Rain 19 1013 96 10000 3.09 210 22:42 31.07.2022
893 Clouds 19 1013 96 10000 2.57 170 21:46 31.07.2022
894 Clouds 19 1013 96 10000 3.09 200 20:18 31.07.2022
895 Clouds 18 1013 95 6000 3.09 210 18:38 31.07.2022
896 Rain 20 1014 81 10000 4.12 290 16:22 31.07.2022
897 Rain 24 1014 62 10000 5.14 180 13:59 31.07.2022
898 Rain 24 1015 58 10000 4.12 180 12:55 31.07.2022
899 Clear 21 1016 65 10000 2.57 160 10:53 31.07.2022
900 Clear 17 1016 83 10000 1.54 150 08:29 31.07.2022
901 Clear 16 1017 92 10000 1.03 230 05:20 31.07.2022
902 Clear 16 1018 91 10000 1.54 290 01:20 31.07.2022
903 Clear 18 1018 84 10000 3.6 330 22:40 30.07.2022
904 Clear 19 1018 83 10000 1.54 350 21:50 30.07.2022
905 Clear 19 1018 82 10000 1.54 350 21:32 30.07.2022
906 Clouds 20 1017 76 10000 6.69 340 20:28 30.07.2022
907 Clouds 21 1017 73 10000 6.17 340 19:50 30.07.2022
908 Clear 25 1016 53 10000 2.57 20 17:53 30.07.2022
909 Clouds 25 1017 55 10000 3.09 290 16:38 30.07.2022
910 Clouds 25 1017 53 10000 2.06 300 15:30 30.07.2022
911 Clouds 24 1017 59 10000 3.09 310 13:23 30.07.2022
912 Clear 22 1017 70 10000 2.06 320 12:22 30.07.2022
913 Clear 22 1017 70 10000 2.06 270 11:51 30.07.2022
914 Clear 20 1017 79 10000 2.57 240 10:19 30.07.2022
915 Clear 16 1017 92 10000 2.06 230 08:54 30.07.2022
916 Clear 15 1016 92 10000 1.03 0 06:58 30.07.2022
917 Clear 18 1017 79 10000 1.54 40 02:33 30.07.2022
918 Clouds 18 1017 81 10000 2.52 48 23:57 29.07.2022
919 Clouds 20 1017 70 10000 2.57 350 21:38 29.07.2022
920 Clear 21 1016 68 10000 4.63 20 20:50 29.07.2022
921 Rain 21 1016 63 10000 4.12 20 19:46 29.07.2022
922 Clear 24 1016 46 10000 4.12 50 17:25 29.07.2022
923 Clear 24 1017 43 10000 5.14 60 14:50 29.07.2022
924 Clear 23 1017 51 10000 4.63 60 12:52 29.07.2022
925 Clear 15 1018 76 10000 4.12 70 08:52 29.07.2022
926 Clear 15 1018 75 10000 4.12 80 08:24 29.07.2022
927 Clear 14 1018 77 10000 4.12 60 06:40 29.07.2022
928 Clouds 14 1020 78 10000 3.3 41 01:19 29.07.2022
929 Clear 18 1018 57 10000 4.63 50 21:45 28.07.2022
930 Clouds 18 1019 61 10000 3.7 30 20:54 28.07.2022
931 Clear 19 1018 53 10000 5.14 30 20:20 28.07.2022
932 Clear 20 1018 52 10000 4.63 40 19:40 28.07.2022
933 Clear 21 1019 49 10000 4.63 40 18:25 28.07.2022
934 Clear 21 1019 46 10000 3.6 50 17:42 28.07.2022
935 Clear 21 1019 46 10000 3.6 40 16:41 28.07.2022
936 Clouds 20 1020 52 10000 4.63 60 14:50 28.07.2022
937 Clouds 18 1020 59 10000 3.09 0 12:41 28.07.2022
938 Clouds 16 1021 73 10000 0.51 0 09:45 28.07.2022
939 Clouds 11 1020 90 10000 1.03 220 06:21 28.07.2022
940 Clouds 10 1020 92 10000 1.54 200 05:26 28.07.2022
941 Clouds 11 1020 84 10000 1.03 260 00:44 28.07.2022
942 Clear 15 1020 68 10000 4.63 340 22:31 27.07.2022
943 Clear 17 1019 60 10000 5.66 350 20:25 27.07.2022
944 Clouds 18 1019 57 10000 6.17 320 19:34 27.07.2022
945 Clouds 19 1019 57 10000 7.2 330 17:23 27.07.2022
946 Clouds 20 1019 48 10000 5.66 300 15:52 27.07.2022
947 Clouds 19 1019 57 10000 5.14 330 14:48 27.07.2022
948 Clouds 19 1019 56 10000 5.66 310 14:30 27.07.2022
949 Clouds 18 1019 61 10000 5.66 320 12:48 27.07.2022
950 Clear 13 1018 90 10000 3.09 260 07:53 27.07.2022
951 Clouds 11 1018 92 10000 2.06 250 06:19 27.07.2022
952 Clear 13 1018 84 10000 2.57 280 00:48 27.07.2022
953 Clear 16 1017 74 10000 4.63 310 22:25 26.07.2022
954 Clear 17 1017 70 10000 5.14 320 21:20 26.07.2022
955 Clouds 17 1017 70 10000 4.88 323 20:25 26.07.2022
956 Clouds 19 1016 62 10000 6.69 310 18:42 26.07.2022
957 Clouds 19 1016 60 10000 5.66 310 17:58 26.07.2022
958 Clouds 19 1016 52 10000 5.66 310 15:58 26.07.2022
959 Clouds 18 1016 63 10000 5.14 320 15:18 26.07.2022
960 Clouds 19 1015 65 10000 7.2 330 13:20 26.07.2022
961 Clouds 18 1014 81 10000 5.66 310 11:20 26.07.2022
962 Rain 17 1012 95 8000 5.14 300 08:55 26.07.2022
963 Clouds 17 1011 86 10000 4.12 250 05:49 26.07.2022
964 Clear 19 1010 68 10000 3.6 240 00:37 26.07.2022
965 Clear 18 1010 76 10000 3.09 250 23:32 25.07.2022
966 Clear 20 1009 70 10000 7.2 270 22:26 25.07.2022
967 Clouds 20 1009 72 10000 4.87 277 21:43 25.07.2022
968 Clouds 22 1008 71 10000 4.63 270 20:42 25.07.2022
969 Clouds 21 1008 73 10000 5.66 270 19:46 25.07.2022
970 Clear 23 1007 75 10000 7.2 280 18:19 25.07.2022
971 Clouds 22 1007 83 10000 4.63 280 17:27 25.07.2022
972 Clear 30 1006 51 10000 7.72 250 15:20 25.07.2022
973 Clear 29 1006 46 10000 4.63 200 12:22 25.07.2022
974 Clear 26 1007 55 10000 5.14 190 09:58 25.07.2022
975 Clear 19 1009 80 10000 2.57 140 06:32 25.07.2022
976 Clear 22 1013 76 10000 2.57 140 23:55 24.07.2022
977 Clear 22 1014 74 10000 2.57 140 23:18 24.07.2022
978 Clear 22 1014 73 10000 2.06 140 22:34 24.07.2022
979 Clear 25 1014 66 10000 2.57 210 21:28 24.07.2022
980 Clear 26 1014 63 10000 3.6 210 20:53 24.07.2022
981 Clear 28 1014 48 10000 3.09 220 20:27 24.07.2022
982 Clear 29 1014 46 10000 5.14 230 18:56 24.07.2022
983 Clear 29 1015 42 10000 6.69 250 16:48 24.07.2022
984 Clear 30 1016 48 10000 5.66 220 15:51 24.07.2022
985 Clear 29 1016 42 10000 6.69 230 14:40 24.07.2022
986 Clear 27 1018 49 10000 6.17 200 12:55 24.07.2022
987 Clear 26 1018 49 10000 6.17 210 12:19 24.07.2022
988 Clear 25 1018 54 10000 4.63 200 11:26 24.07.2022
989 Clear 19 1019 73 10000 3.09 150 09:23 24.07.2022
990 Clear 15 1019 88 10000 2.57 140 07:53 24.07.2022
991 Clear 12 1019 93 10000 2.06 140 06:34 24.07.2022
992 Clear 12 1020 95 10000 1.54 160 01:50 24.07.2022
993 Clear 17 1020 75 10000 3.6 360 22:25 23.07.2022
994 Clear 19 1019 68 10000 5.66 310 20:41 23.07.2022
995 Clear 20 1019 64 10000 4.12 310 18:52 23.07.2022
996 Clouds 22 1019 60 10000 6.17 320 17:48 23.07.2022
997 Clouds 22 1019 60 10000 6.69 300 17:24 23.07.2022
998 Clouds 21 1019 62 10000 5.14 290 15:51 23.07.2022
999 Clouds 20 1019 66 10000 5.66 300 15:21 23.07.2022
1000 Clouds 20 1019 67 10000 5.14 280 14:47 23.07.2022
1001 Clouds 19 1019 70 10000 4.63 300 13:54 23.07.2022
1002 Clouds 18 1019 75 10000 4.63 290 11:47 23.07.2022
1003 Clouds 17 1018 79 10000 4.12 310 10:28 23.07.2022
1004 Clouds 16 1018 82 10000 4.63 270 09:26 23.07.2022
1005 Clouds 13 1017 97 10000 1.54 230 06:40 23.07.2022
1006 Clear 13 1018 99 10000 0.51 250 03:37 23.07.2022
1007 Clouds 16 1018 87 10000 2.57 10 00:27 23.07.2022
1008 Clouds 16 1018 88 10000 2.69 329 21:28 22.07.2022
1009 Clouds 17 1018 79 10000 2.57 310 20:29 22.07.2022
1010 Clouds 18 1018 84 10000 3.91 310 18:42 22.07.2022
1011 Clouds 18 1019 75 10000 3.09 310 17:39 22.07.2022
1012 Clouds 19 1019 66 10000 2.06 280 15:46 22.07.2022
1013 Clouds 18 1020 77 10000 4.12 290 12:47 22.07.2022
1014 Clouds 16 1019 83 10000 5.14 310 10:22 22.07.2022
1015 Clouds 16 1019 88 10000 4.63 290 09:21 22.07.2022
1016 Clouds 15 1019 95 10000 3.6 280 07:57 22.07.2022
1017 Clouds 15 1018 96 10000 4.12 290 04:23 22.07.2022
1018 Clouds 19 1016 96 7000 3.09 240 23:36 21.07.2022
1019 Clouds 19 1016 96 10000 3.09 250 21:51 21.07.2022
1020 Clouds 20 1016 90 10000 2.57 230 19:45 21.07.2022
1021 Rain 19 1016 86 10000 5.14 260 18:36 21.07.2022
1022 Clouds 23 1016 74 10000 3.6 210 17:22 21.07.2022
1023 Rain 22 1016 82 10000 4.63 250 16:31 21.07.2022
1024 Clouds 23 1016 73 10000 4.63 210 14:46 21.07.2022
1025 Clouds 23 1017 77 10000 4.63 210 13:58 21.07.2022
1026 Clouds 20 1017 88 10000 5.14 220 12:18 21.07.2022
1027 Rain 19 1017 93 10000 2.57 180 10:21 21.07.2022
1028 Clouds 18 1016 92 10000 3.09 220 08:53 21.07.2022
1029 Clear 18 1016 92 10000 2.06 170 08:35 21.07.2022
1030 Clouds 19 1015 89 10000 2.57 310 07:22 21.07.2022
1031 Clear 20 1018 78 10000 5.14 240 03:25 21.07.2022
1032 Clear 22 1016 69 10000 4.63 360 23:22 20.07.2022
1033 Clear 24 1016 60 10000 4.63 20 22:20 20.07.2022
1034 Clear 27 1015 50 10000 5.14 20 20:49 20.07.2022
1035 Clear 28 1015 43 10000 7.72 340 19:47 20.07.2022
1036 Clear 30 1015 40 10000 6.17 330 19:19 20.07.2022
1037 Clear 31 1015 39 10000 7.2 340 18:33 20.07.2022
1038 Clear 34 1015 40 10000 6.69 310 17:42 20.07.2022
1039 Clear 36 1015 30 10000 4.63 300 15:59 20.07.2022
1040 Clear 36 1014 26 10000 5.14 230 14:54 20.07.2022
1041 Clear 37 1014 24 10000 6.17 220 13:53 20.07.2022
1042 Clear 34 1015 29 10000 5.66 190 11:32 20.07.2022
1043 Clear 23 1015 45 10000 2.57 140 07:39 20.07.2022
1044 Clear 23 1015 46 10000 3.6 110 02:44 20.07.2022
1045 Clear 25 1015 43 10000 3.6 110 00:44 20.07.2022
1046 Clear 27 1015 42 10000 3.09 110 23:37 19.07.2022
1047 Clear 28 1015 41 10000 3.09 80 22:21 19.07.2022
1048 Clear 29 1015 44 10000 3.09 90 21:18 19.07.2022
1049 Clear 33 1015 29 10000 3.6 80 20:23 19.07.2022
1050 Clear 34 1016 28 10000 2.06 100 18:43 19.07.2022
1051 Clear 35 1016 27 10000 3.09 110 17:57 19.07.2022
1052 Clear 36 1017 26 10000 3.6 110 16:31 19.07.2022
1053 Clear 34 1017 25 10000 3.09 120 14:36 19.07.2022
1054 Clear 31 1019 38 10000 3.09 140 11:39 19.07.2022
1055 Clear 28 1019 45 10000 1.54 120 10:47 19.07.2022
1056 Clear 24 1019 52 10000 1.54 110 09:22 19.07.2022
1057 Clear 22 1020 57 10000 1.03 140 08:32 19.07.2022
1058 Clear 16 1019 84 10000 1.03 80 07:19 19.07.2022
1059 Clear 15 1019 89 10000 0.51 0 05:28 19.07.2022
1060 Clear 15 1019 88 10000 0.51 220 04:53 19.07.2022
1061 Clear 17 1019 83 10000 1.03 160 01:19 19.07.2022
1062 Clear 19 1020 73 10000 1.03 0 23:47 18.07.2022
1063 Clear 20 1020 69 10000 1.03 0 23:18 18.07.2022
1064 Clear 22 1020 62 10000 2.06 30 22:18 18.07.2022
1065 Clear 27 1019 48 10000 3.6 30 20:51 18.07.2022
1066 Clear 29 1019 32 10000 2.06 330 19:33 18.07.2022
1067 Clear 30 1020 33 10000 3.6 250 17:52 18.07.2022
1068 Clear 29 1021 37 10000 3.09 250 15:58 18.07.2022
1069 Clear 29 1022 27 10000 2.06 0 15:19 18.07.2022
1070 Clear 27 1022 34 10000 3.09 140 13:26 18.07.2022
1071 Clear 25 1023 42 10000 3.09 210 11:31 18.07.2022
1072 Clear 21 1023 58 10000 2.57 160 09:53 18.07.2022
1073 Clear 16 1024 86 10000 1.03 0 07:48 18.07.2022
1074 Clear 14 1025 88 10000 1.03 160 02:34 18.07.2022
1075 Clear 17 1025 78 10000 1.03 100 22:55 17.07.2022
1076 Clear 18 1025 75 10000 1.54 110 22:28 17.07.2022
1077 Clear 19 1025 63 10000 2.06 90 21:35 17.07.2022
1078 Clear 21 1025 63 10000 2.06 30 20:45 17.07.2022
1079 Clear 21 1025 60 10000 2.06 0 19:49 17.07.2022
1080 Clear 22 1026 59 10000 2.57 340 19:20 17.07.2022
1081 Clear 23 1026 53 10000 3.09 320 17:42 17.07.2022
1082 Clear 23 1026 55 10000 3.09 320 17:22 17.07.2022
1083 Clear 23 1027 53 10000 3.09 320 16:28 17.07.2022
1084 Clear 22 1027 58 10000 2.57 0 15:37 17.07.2022
1085 Clear 22 1027 48 10000 3.09 300 13:51 17.07.2022
1086 Clear 20 1028 54 10000 3.6 320 12:42 17.07.2022
1087 Clouds 17 1028 67 10000 3.09 290 10:19 17.07.2022
1088 Clear 9 1027 95 10000 0.51 0 06:59 17.07.2022
1089 Clear 10 1026 91 10000 1.03 230 02:34 17.07.2022
1090 Clear 10 1026 91 10000 1.03 230 02:34 17.07.2022
1091 Clear 13 1026 82 10000 4.12 300 23:26 16.07.2022
1092 Clear 15 1026 69 10000 4.12 300 22:20 16.07.2022
1093 Clouds 17 1025 63 10000 5.66 330 20:30 16.07.2022
1094 Clouds 18 1024 61 10000 6.17 310 18:54 16.07.2022
1095 Clear 19 1024 53 10000 7.2 310 17:38 16.07.2022
1096 Clouds 18 1024 54 10000 8.75 320 15:54 16.07.2022
1097 Clouds 17 1022 69 10000 9.26 310 12:37 16.07.2022
1098 Clouds 16 1020 74 10000 7.72 310 10:28 16.07.2022
1099 Clouds 16 1019 80 10000 6.17 300 09:25 16.07.2022
1100 Clouds 16 1019 86 10000 6.69 310 08:41 16.07.2022
1101 Clouds 14 1018 94 10000 5.66 290 06:59 16.07.2022
1102 Clouds 15 1017 86 10000 5.14 250 03:35 16.07.2022
1103 Clouds 15 1018 90 10000 3.09 210 00:45 16.07.2022
1104 Rain 15 1019 92 10000 2.06 200 22:56 15.07.2022
1105 Clear 15 1020 92 10000 2.57 200 22:26 15.07.2022
1106 Clear 16 1020 86 10000 2.06 250 20:44 15.07.2022
1107 Clear 16 1021 79 10000 2.57 250 19:34 15.07.2022
1108 Clear 16 1021 82 10000 2.57 220 18:23 15.07.2022
1109 Rain 18 1021 75 10000 2.57 260 17:19 15.07.2022
1110 Clouds 18 1021 76 10000 4.12 280 14:24 15.07.2022
1111 Drizzle 15 1021 83 10000 8.23 300 12:38 15.07.2022
1112 Clouds 16 1021 77 10000 4.63 260 10:52 15.07.2022
1113 Clouds 13 1021 91 10000 4.63 270 07:55 15.07.2022
1114 Clouds 12 1020 91 10000 3.6 250 05:54 15.07.2022
1115 Clear 12 1020 92 10000 3.09 300 00:47 15.07.2022
1116 Clouds 13 1020 92 10000 3.09 300 23:25 14.07.2022
1117 Clouds 14 1020 90 10000 3.6 290 22:42 14.07.2022
1118 Clear 15 1019 88 10000 4.63 300 21:42 14.07.2022
1119 Clear 15 1019 88 10000 4.63 300 21:24 14.07.2022
1120 Clear 15 1019 88 10000 5.14 300 20:43 14.07.2022
1121 Clear 15 1019 88 10000 5.14 300 20:43 14.07.2022
1122 Clear 15 1019 88 10000 4.12 300 20:19 14.07.2022
1123 Clear 16 1019 82 10000 4.12 300 18:41 14.07.2022
1124 Clouds 18 1018 71 10000 7.2 310 16:21 14.07.2022
1125 Clouds 19 1018 67 10000 6.17 300 15:26 14.07.2022
1126 Clouds 20 1018 63 10000 6.17 300 13:52 14.07.2022
1127 Clouds 20 1019 55 10000 4.63 320 12:40 14.07.2022
1128 Clouds 19 1019 68 10000 4.12 290 11:41 14.07.2022
1129 Clouds 18 1019 71 10000 5.14 310 11:22 14.07.2022
1130 Clouds 17 1020 78 10000 3.09 320 09:49 14.07.2022
1131 Clouds 11 1020 98 10000 1.54 220 05:25 14.07.2022
1132 Clear 13 1020 88 10000 3.09 300 01:22 14.07.2022
1133 Clouds 14 1020 84 10000 3.6 330 00:52 14.07.2022
1134 Clear 17 1020 83 10000 5.14 330 22:32 13.07.2022
1135 Clear 17 1019 76 10000 5.66 330 21:55 13.07.2022
1136 Clear 19 1019 79 10000 6.17 330 20:45 13.07.2022
1137 Clear 22 1018 73 10000 7.72 340 19:21 13.07.2022
1138 Clear 24 1018 60 10000 6.17 340 17:42 13.07.2022
1139 Clear 28 1017 49 10000 6.17 320 16:29 13.07.2022
1140 Clear 27 1017 53 10000 7.72 310 15:24 13.07.2022
1141 Clear 28 1017 51 10000 4.63 260 12:55 13.07.2022
1142 Clear 23 1017 62 10000 3.6 230 10:46 13.07.2022
1143 Clear 23 1017 65 10000 3.6 230 10:24 13.07.2022
1144 Clear 22 1018 70 10000 2.57 220 09:24 13.07.2022
1145 Clear 19 1018 85 10000 2.06 180 06:46 13.07.2022
1146 Clear 19 1021 86 10000 1.03 160 02:38 13.07.2022
1147 Clear 19 1022 87 10000 1.54 170 23:52 12.07.2022
1148 Clear 19 1022 84 10000 0.51 0 22:18 12.07.2022
1149 Clear 21 1022 78 10000 1.03 280 21:35 12.07.2022
1150 Clear 23 1022 75 10000 1.03 0 20:42 12.07.2022
1151 Clear 24 1022 60 10000 1.03 0 19:37 12.07.2022
1152 Clear 25 1023 56 10000 3.6 320 17:55 12.07.2022
1153 Clear 25 1024 56 10000 3.6 330 16:20 12.07.2022
1154 Clear 24 1024 58 10000 2.06 0 14:31 12.07.2022
1155 Clear 23 1024 61 10000 2.06 0 13:21 12.07.2022
1156 Clear 20 1025 68 10000 2.06 230 11:42 12.07.2022
1157 Clear 19 1025 73 10000 1.54 260 10:25 12.07.2022
1158 Clouds 16 1025 83 10000 1.03 0 08:38 12.07.2022
1159 Clouds 16 1025 84 10000 1.54 270 07:38 12.07.2022
1160 Clouds 15 1024 86 10000 2.57 290 05:44 12.07.2022
1161 Clouds 15 1024 88 10000 1.03 0 04:18 12.07.2022
1162 Clouds 16 1024 88 10000 3.09 360 23:50 11.07.2022
1163 Clouds 16 1024 88 10000 5.14 340 22:37 11.07.2022
1164 Clouds 17 1023 80 10000 4.12 340 20:56 11.07.2022
1165 Clouds 17 1023 83 10000 4.63 330 20:32 11.07.2022
1166 Clouds 18 1023 79 10000 5.14 300 18:48 11.07.2022
1167 Clouds 18 1023 79 10000 5.14 320 18:23 11.07.2022
1168 Clouds 19 1023 79 10000 5.14 320 18:23 11.07.2022
1169 Clouds 19 1023 78 10000 4.63 300 16:26 11.07.2022
1170 Clouds 18 1023 81 10000 4.12 330 15:23 11.07.2022
1171 Clouds 17 1023 90 10000 4.12 330 12:42 11.07.2022
1172 Drizzle 16 1023 92 7000 4.63 310 11:23 11.07.2022
1173 Clouds 16 1022 92 10000 3.6 300 09:55 11.07.2022
1174 Clouds 15 1022 94 10000 3.09 290 09:25 11.07.2022
1175 Clouds 14 1022 95 10000 3.09 280 08:30 11.07.2022
1176 Clouds 14 1022 95 10000 2.06 280 00:59 11.07.2022
1177 Clouds 14 1022 95 10000 3.09 290 23:54 10.07.2022
1178 Clouds 14 1022 93 10000 3.09 290 22:45 10.07.2022
1179 Clouds 15 1022 86 10000 5.66 300 20:56 10.07.2022
1180 Clouds 16 1022 77 10000 5.66 300 20:36 10.07.2022
1181 Clouds 17 1022 73 10000 6.69 310 19:30 10.07.2022
1182 Clouds 17 1022 73 10000 6.69 310 19:30 10.07.2022
1183 Clouds 17 1022 72 10000 6.17 310 18:25 10.07.2022
1184 Clouds 18 1023 69 10000 6.69 300 17:35 10.07.2022
1185 Clouds 18 1022 67 10000 8.23 300 16:24 10.07.2022
1186 Clouds 16 1023 73 10000 7.2 310 14:47 10.07.2022
1187 Clouds 17 1023 66 10000 7.72 310 13:31 10.07.2022
1188 Clouds 17 1023 63 10000 7.2 320 11:57 10.07.2022
1189 Clouds 15 1023 73 10000 6.69 290 09:47 10.07.2022
1190 Clouds 15 1023 77 10000 5.14 300 08:44 10.07.2022
1191 Clear 13 1022 85 10000 4.12 290 07:24 10.07.2022
1192 Clear 14 1024 77 10000 4.63 290 23:58 09.07.2022
1193 Clouds 15 1024 74 10000 7.2 310 22:27 09.07.2022
1194 Clouds 15 1024 72 10000 5.14 300 21:49 09.07.2022
1195 Clouds 17 1024 63 10000 8.75 310 19:57 09.07.2022
1196 Clouds 18 1024 60 10000 8.23 330 18:32 09.07.2022
1197 Clouds 18 1024 60 10000 9.77 320 17:32 09.07.2022
1198 Clouds 19 1024 59 10000 9.26 330 16:44 09.07.2022
1199 Clouds 19 1024 64 10000 8.75 330 15:40 09.07.2022
1200 Clouds 19 1024 79 10000 8.23 310 14:27 09.07.2022
1201 Clouds 20 1024 75 10000 7.2 300 13:49 09.07.2022
1202 Rain 20 1024 70 10000 6.17 280 12:45 09.07.2022
1203 Clouds 20 1024 76 10000 6.17 290 11:22 09.07.2022
1204 Clouds 18 1025 81 10000 4.63 280 10:22 09.07.2022
1205 Clouds 15 1025 96 10000 2.57 250 07:45 09.07.2022
1206 Mist 13 1026 98 10000 1.03 260 04:57 09.07.2022
1207 Clouds 13 1027 94 10000 1.54 280 01:50 09.07.2022
1208 Clear 16 1027 82 10000 4.63 340 22:54 08.07.2022
1209 Clear 17 1027 74 10000 4.12 310 21:43 08.07.2022
1210 Clear 19 1027 71 10000 5.14 310 20:40 08.07.2022
1211 Clouds 20 1027 68 10000 8.23 310 19:52 08.07.2022
1212 Clouds 21 1028 70 10000 6.17 310 18:24 08.07.2022
1213 Clouds 19 1028 78 10000 4.12 290 16:40 08.07.2022
1214 Clouds 17 1029 86 10000 5.14 290 14:53 08.07.2022
1215 Clouds 17 1029 80 10000 5.66 280 13:29 08.07.2022
1216 Clouds 16 1029 81 10000 4.63 270 11:42 08.07.2022
1217 Clouds 16 1029 79 10000 5.66 310 10:29 08.07.2022
1218 Clear 15 1028 76 10000 5.66 290 08:33 08.07.2022
1219 Clouds 14 1027 64 10000 4.12 290 06:50 08.07.2022
1220 Clouds 15 1026 75 10000 4.12 300 01:31 08.07.2022
1221 Clouds 15 1025 75 10000 6.69 300 23:22 07.07.2022
1222 Clouds 15 1024 75 10000 6.69 300 22:35 07.07.2022
1223 Clouds 16 1023 72 10000 9.26 310 20:36 07.07.2022
1224 Clouds 17 1022 68 10000 8.23 320 18:20 07.07.2022
1225 Clouds 17 1021 71 10000 9.77 310 16:53 07.07.2022
1226 Clouds 16 1019 85 10000 9.26 320 14:35 07.07.2022
1227 Clouds 18 1018 82 10000 8.75 330 13:25 07.07.2022
1228 Clouds 17 1017 81 10000 6.17 340 12:24 07.07.2022
1229 Clouds 18 1017 81 10000 8.23 310 11:45 07.07.2022
1230 Clouds 17 1016 88 10000 8.75 320 11:27 07.07.2022
1231 Clouds 16 1016 95 10000 7.72 320 10:42 07.07.2022
1232 Clouds 16 1015 96 10000 7.2 310 10:24 07.07.2022
1233 Mist 15 1014 99 5000 5.66 250 06:58 07.07.2022
1234 Clouds 15 1017 97 7000 4.63 230 02:55 07.07.2022
1235 Rain 14 1018 96 10000 5.06 238 23:36 06.07.2022
1236 Rain 14 1020 92 10000 3.09 220 23:18 06.07.2022
1237 Rain 14 1020 94 10000 3.09 220 22:53 06.07.2022
1238 Rain 14 1020 89 10000 4.63 250 22:34 06.07.2022
1239 Clouds 17 1021 74 10000 5.66 260 20:54 06.07.2022
1240 Clouds 18 1020 77 10000 4.64 275 19:35 06.07.2022
1241 Clear 20 1022 62 10000 5.66 310 17:32 06.07.2022
1242 Clouds 21 1022 61 10000 4.63 280 15:59 06.07.2022
1243 Clouds 19 1023 66 10000 4.63 270 14:46 06.07.2022
1244 Clear 18 1023 69 10000 6.17 290 12:35 06.07.2022
1245 Clouds 17 1023 63 10000 5.66 300 11:48 06.07.2022
1246 Clouds 16 1023 67 10000 6.17 300 10:18 06.07.2022
1247 Clouds 16 1023 67 10000 6.17 300 10:18 06.07.2022
1248 Clear 14 1023 84 10000 4.12 270 07:46 06.07.2022
1249 Clear 14 1023 81 10000 3.6 260 07:23 06.07.2022
1250 Clear 11 1023 87 10000 2.57 260 02:55 06.07.2022
1251 Clear 14 1022 74 10000 2.57 290 22:45 05.07.2022
1252 Clear 14 1022 74 10000 2.57 290 22:45 05.07.2022
1253 Clouds 16 1022 63 10000 4.63 300 21:39 05.07.2022
1254 Clear 17 1021 71 10000 5.14 310 20:38 05.07.2022
1255 Clouds 18 1021 69 10000 6.69 310 19:41 05.07.2022
1256 Clouds 19 1021 68 10000 6.69 320 19:22 05.07.2022
1257 Clouds 20 1021 69 10000 6.69 320 17:47 05.07.2022
1258 Clear 20 1021 66 10000 6.69 260 16:44 05.07.2022
1259 Clouds 21 1021 49 10000 6.17 280 15:25 05.07.2022
1260 Clear 21 1021 51 10000 5.14 280 13:59 05.07.2022
1261 Clear 20 1021 50 10000 5.14 290 12:42 05.07.2022
1262 Clouds 20 1021 50 10000 5.66 260 11:32 05.07.2022
1263 Clouds 19 1021 55 10000 5.66 250 10:34 05.07.2022
1264 Clear 17 1021 75 10000 4.63 260 09:22 05.07.2022
1265 Clear 14 1021 87 10000 1.03 0 07:45 05.07.2022
1266 Clear 11 1020 97 10000 0.51 260 04:49 05.07.2022
1267 Clear 12 1020 94 10000 0.51 260 04:21 05.07.2022
1268 Clear 13 1020 85 10000 2.06 300 23:56 04.07.2022
1269 Clear 14 1020 81 10000 2.57 300 23:26 04.07.2022
1270 Clear 17 1019 69 10000 3.6 300 22:25 04.07.2022
1271 Clear 17 1019 72 10000 2.9 315 21:30 04.07.2022
1272 Clear 19 1019 80 10000 4.27 313 20:52 04.07.2022
1273 Clear 20 1018 67 10000 6.69 310 20:33 04.07.2022
1274 Clear 21 1018 67 10000 7.2 290 19:54 04.07.2022
1275 Clear 21 1018 67 10000 7.2 290 19:35 04.07.2022
1276 Clear 23 1018 47 10000 4.12 280 17:58 04.07.2022
1277 Clear 22 1018 56 10000 6.69 300 15:50 04.07.2022
1278 Clear 23 1018 49 10000 6.69 270 15:31 04.07.2022
1279 Clouds 21 1019 52 10000 5.66 260 13:29 04.07.2022
1280 Clouds 21 1019 56 10000 4.63 260 12:21 04.07.2022
1281 Clear 19 1019 62 10000 4.63 250 10:34 04.07.2022
1282 Clear 18 1019 66 10000 5.14 240 09:41 04.07.2022
1283 Clear 14 1019 94 10000 2.06 250 07:33 04.07.2022
1284 Mist 11 1018 98 10000 1.54 280 04:48 04.07.2022
1285 Clear 13 1018 94 10000 1.54 240 00:36 04.07.2022
1286 Clear 16 1018 87 10000 2.57 290 22:59 03.07.2022
1287 Clouds 17 1017 87 10000 3.34 330 20:58 03.07.2022
1288 Clouds 18 1016 84 10000 4.08 332 20:31 03.07.2022
1289 Clear 22 1016 73 10000 1.54 50 19:27 03.07.2022
1290 Clear 21 1016 79 10000 2.57 30 18:43 03.07.2022
1291 Clouds 22 1016 80 10000 5.14 340 17:43 03.07.2022
1292 Clear 25 1016 57 10000 3.6 270 15:54 03.07.2022
1293 Clear 26 1016 41 10000 3.6 0 14:59 03.07.2022
1294 Clear 26 1016 43 10000 5.14 320 14:18 03.07.2022
1295 Clear 26 1016 41 10000 3.09 240 13:48 03.07.2022
1296 Clear 26 1016 42 10000 2.06 0 12:33 03.07.2022
1297 Clear 26 1016 39 10000 2.06 330 11:29 03.07.2022
1298 Clear 25 1016 46 10000 2.57 320 10:39 03.07.2022
1299 Clear 23 1016 60 10000 1.03 0 09:42 03.07.2022
1300 Clear 16 1016 89 10000 0.51 0 07:35 03.07.2022
1301 Clear 16 1016 84 10000 0.51 0 03:46 03.07.2022
1302 Clouds 18 1018 84 10000 2.61 67 00:22 03.07.2022
1303 Clear 20 1018 70 10000 2.57 40 22:34 02.07.2022
1304 Clouds 20 1018 76 10000 2.23 30 21:28 02.07.2022
1305 Clear 23 1019 56 10000 2.06 240 19:52 02.07.2022
1306 Clear 24 1019 55 10000 2.06 210 19:20 02.07.2022
1307 Clear 25 1020 51 10000 3.6 220 17:51 02.07.2022
1308 Clear 25 1020 52 10000 4.63 240 17:33 02.07.2022
1309 Clear 24 1021 41 10000 5.66 180 14:52 02.07.2022
1310 Clear 23 1022 48 10000 5.66 200 12:22 02.07.2022
1311 Clouds 21 1022 51 10000 6.17 230 11:27 02.07.2022
1312 Clear 21 1023 55 10000 5.14 220 10:43 02.07.2022
1313 Clear 20 1022 62 10000 4.63 200 09:37 02.07.2022
1314 Clear 16 1022 82 10000 2.57 210 08:36 02.07.2022
1315 Clear 16 1022 84 10000 2.57 210 08:18 02.07.2022
1316 Clear 12 1021 92 10000 1.54 220 02:52 02.07.2022
1317 Clear 14 1021 87 10000 1.03 220 00:26 02.07.2022
1318 Clear 16 1019 76 10000 3.09 260 22:59 01.07.2022
1319 Clear 18 1019 67 10000 2.06 290 21:56 01.07.2022
1320 Clear 18 1019 66 10000 2.06 290 21:37 01.07.2022
1321 Clouds 18 1019 80 10000 3.13 261 20:56 01.07.2022
1322 Clouds 19 1018 73 10000 3.6 280 19:47 01.07.2022
1323 Clouds 21 1017 57 10000 5.14 240 17:58 01.07.2022
1324 Clear 20 1017 61 10000 5.14 250 16:35 01.07.2022
1325 Clouds 18 1016 82 10000 4.63 250 13:55 01.07.2022
1326 Clouds 16 1016 90 10000 4.12 250 12:59 01.07.2022
1327 Rain 15 1016 94 10000 4.12 250 10:46 01.07.2022
1328 Rain 16 1015 92 10000 4.12 260 10:18 01.07.2022
1329 Clouds 15 1013 95 10000 4.63 280 05:58 01.07.2022
1330 Clouds 18 1010 97 10000 2.06 30 01:30 01.07.2022
1331 Clear 23 1009 77 10000 3.6 70 23:28 30.06.2022
1332 Clear 24 1009 76 10000 4.12 70 22:45 30.06.2022
1333 Clear 24 1009 76 10000 4.12 70 22:45 30.06.2022
1334 Clear 24 1008 76 10000 3.6 60 22:27 30.06.2022
1335 Clear 26 1008 57 10000 3.6 70 21:50 30.06.2022
1336 Clear 26 1008 67 10000 5.14 70 20:41 30.06.2022
1337 Clear 28 1008 61 10000 4.12 60 19:55 30.06.2022
1338 Clear 28 1008 49 10000 4.12 60 19:35 30.06.2022
1339 Clear 29 1009 44 10000 4.63 50 18:43 30.06.2022
1340 Clear 28 1010 62 10000 4.63 50 17:49 30.06.2022
1341 Clear 29 1010 59 10000 3.09 100 16:56 30.06.2022
1342 Clear 29 1011 55 10000 1.54 0 15:52 30.06.2022
1343 Clear 27 1011 51 10000 3.09 0 13:51 30.06.2022
1344 Clear 27 1011 52 10000 4.12 110 13:18 30.06.2022
1345 Clear 26 1012 52 10000 3.09 120 12:32 30.06.2022
1346 Clear 23 1012 62 10000 5.14 110 10:21 30.06.2022
1347 Clear 22 1012 66 10000 5.14 120 09:41 30.06.2022
1348 Clear 19 1012 74 10000 1.54 100 08:26 30.06.2022
1349 Clear 18 1012 77 10000 1.54 110 07:41 30.06.2022
1350 Clear 17 1013 77 10000 2.06 100 03:53 30.06.2022
1351 Clear 20 1013 70 10000 3.6 110 23:39 29.06.2022
1352 Clear 22 1013 68 10000 3.09 120 22:41 29.06.2022
1353 Clear 22 1013 66 10000 2.57 130 22:19 29.06.2022
1354 Clear 26 1013 47 10000 3.09 130 20:35 29.06.2022
1355 Clear 26 1013 47 10000 3.6 140 19:57 29.06.2022
1356 Clear 27 1013 40 10000 4.63 130 18:46 29.06.2022
1357 Clear 27 1014 42 10000 3.6 130 17:38 29.06.2022
1358 Clear 28 1014 39 10000 4.63 120 16:24 29.06.2022
1359 Clear 27 1015 44 10000 6.17 150 13:52 29.06.2022
1360 Clear 26 1015 51 10000 5.14 120 12:38 29.06.2022
1361 Clear 20 1016 69 10000 3.6 110 10:18 29.06.2022
1362 Clear 19 1017 74 10000 3.09 120 09:27 29.06.2022
1363 Clear 14 1017 84 10000 2.57 80 06:57 29.06.2022
1364 Clear 14 1017 83 10000 3.09 90 04:46 29.06.2022
1365 Clear 16 1019 74 10000 2.57 80 00:54 29.06.2022
1366 Clear 16 1019 73 10000 2.57 80 00:35 29.06.2022
1367 Clear 18 1019 62 10000 1.54 60 22:52 28.06.2022
1368 Clear 20 1019 58 10000 1.03 80 22:18 28.06.2022
1369 Clear 22 1019 55 10000 0.51 120 21:49 28.06.2022
1370 Clear 22 1019 51 10000 1.03 110 21:29 28.06.2022
1371 Clear 23 1019 42 10000 1.54 0 20:18 28.06.2022
1372 Clear 23 1019 42 10000 1.54 210 19:32 28.06.2022
1373 Clear 23 1019 40 10000 2.57 260 18:40 28.06.2022
1374 Clear 23 1020 43 10000 2.06 220 17:36 28.06.2022
1375 Clear 23 1020 43 10000 2.06 210 15:55 28.06.2022
1376 Clear 23 1021 48 10000 3.09 230 14:59 28.06.2022
1377 Clouds 22 1021 49 10000 2.57 0 14:19 28.06.2022
1378 Clouds 22 1021 49 10000 4.12 230 13:47 28.06.2022
1379 Clouds 22 1021 54 10000 5.14 220 12:47 28.06.2022
1380 Clouds 19 1022 69 10000 4.63 250 10:44 28.06.2022
1381 Clear 17 1021 83 10000 4.63 260 09:25 28.06.2022
1382 Clear 16 1021 88 10000 4.12 250 08:43 28.06.2022
1383 Mist 14 1021 96 3700 2.57 220 07:20 28.06.2022
1384 Clouds 13 1020 96 10000 2.06 240 04:56 28.06.2022
1385 Clouds 15 1018 98 10000 1.54 230 23:56 27.06.2022
1386 Clear 15 1018 96 10000 1.54 280 23:28 27.06.2022
1387 Clouds 16 1018 96 10000 1.03 0 22:50 27.06.2022
1388 Clouds 17 1017 91 10000 2.57 290 21:30 27.06.2022
1389 Rain 17 1017 92 10000 3.09 330 20:38 27.06.2022
1390 Clouds 17 1016 92 10000 3.6 330 18:58 27.06.2022
1391 Clouds 17 1016 95 10000 4.12 340 17:46 27.06.2022
1392 Rain 18 1015 89 10000 4.12 300 16:18 27.06.2022
1393 Clouds 19 1015 84 10000 4.63 300 14:44 27.06.2022
1394 Clouds 19 1014 83 10000 2.06 290 13:25 27.06.2022
1395 Clouds 19 1014 84 10000 1.03 0 12:52 27.06.2022
1396 Clouds 16 1014 89 10000 4.63 20 10:22 27.06.2022
1397 Clouds 15 1014 91 10000 4.12 340 08:47 27.06.2022
1398 Clouds 15 1014 91 10000 4.63 350 08:19 27.06.2022
1399 Clouds 15 1014 94 10000 4.12 340 06:38 27.06.2022
1400 Rain 17 1015 90 10000 5.66 300 02:23 27.06.2022
1401 Rain 19 1015 78 10000 4.12 30 23:49 26.06.2022
1402 Rain 20 1015 75 10000 5.66 20 21:58 26.06.2022
1403 Clouds 22 1015 67 10000 4.12 310 20:43 26.06.2022
1404 Rain 24 1015 57 10000 4.12 310 19:27 26.06.2022
1405 Clear 25 1015 49 10000 2.06 320 18:28 26.06.2022
1406 Clear 25 1015 50 10000 2.57 280 16:21 26.06.2022
1407 Clear 24 1015 60 10000 3.09 280 14:40 26.06.2022
1408 Clouds 24 1015 61 10000 4.63 270 13:38 26.06.2022
1409 Clouds 24 1015 61 10000 6.69 270 13:18 26.06.2022
1410 Clouds 24 1014 66 10000 5.14 270 11:26 26.06.2022
1411 Clear 22 1014 74 10000 4.63 250 10:26 26.06.2022
1412 Clear 22 1013 73 10000 5.14 260 09:19 26.06.2022
1413 Clear 20 1012 77 10000 2.06 150 07:41 26.06.2022
1414 Clear 21 1011 74 10000 3.6 90 01:53 26.06.2022
1415 Clouds 21 1011 78 10000 2.57 230 00:20 26.06.2022
1416 Rain 21 1011 68 10000 0.51 210 23:41 25.06.2022
1417 Clear 23 1011 62 10000 2.06 290 22:57 25.06.2022
1418 Clear 23 1011 64 10000 2.57 280 22:27 25.06.2022
1419 Clouds 23 1012 66 10000 1.6 72 21:40 25.06.2022
1420 Clouds 23 1012 63 10000 0.83 28 21:18 25.06.2022
1421 Clear 26 1011 48 10000 2.06 170 20:27 25.06.2022
1422 Clear 27 1011 46 10000 2.06 180 19:21 25.06.2022
1423 Clear 28 1011 39 10000 3.6 220 17:57 25.06.2022
1424 Clear 28 1011 44 10000 2.57 0 17:22 25.06.2022
1425 Clear 26 1011 41 10000 3.6 250 15:36 25.06.2022
1426 Clear 26 1011 54 10000 4.12 240 13:34 25.06.2022
1427 Clouds 25 1011 53 10000 2.57 200 12:38 25.06.2022
1428 Clouds 23 1011 68 10000 4.12 250 10:35 25.06.2022
1429 Clear 21 1011 76 10000 3.09 220 09:20 25.06.2022
1430 Clear 20 1011 81 10000 3.6 220 08:37 25.06.2022
1431 Clear 19 1011 85 10000 4.63 220 08:18 25.06.2022
1432 Fog 17 1010 95 900 2.57 150 04:18 25.06.2022
1433 Clear 16 1008 95 10000 0.51 0 00:38 25.06.2022
1434 Clouds 19 1008 85 10000 1.54 300 22:55 24.06.2022
1435 Clear 21 1007 79 10000 3.09 320 21:42 24.06.2022
1436 Clouds 21 1007 76 10000 4.12 320 20:48 24.06.2022
1437 Clouds 22 1007 74 10000 3.6 310 20:19 24.06.2022
1438 Clear 22 1006 75 10000 5.66 260 19:21 24.06.2022
1439 Clouds 22 1006 73 10000 5.14 270 18:49 24.06.2022
1440 Clouds 22 1006 76 10000 1.26 126 18:30 24.06.2022
1441 Clouds 25 1005 58 10000 4.63 230 17:21 24.06.2022
1442 Clouds 26 1005 53 10000 4.63 210 15:47 24.06.2022
1443 Clouds 24 1005 66 10000 5.66 210 14:28 24.06.2022
1444 Rain 24 1005 64 10000 4.63 200 13:55 24.06.2022
1445 Clouds 26 1005 63 10000 4.63 220 11:45 24.06.2022
1446 Clouds 26 1005 63 10000 5.66 200 11:22 24.06.2022
1447 Clear 24 1005 62 10000 5.66 200 10:22 24.06.2022
1448 Clear 24 1006 57 10000 4.63 180 09:40 24.06.2022
1449 Clear 23 1006 54 10000 4.12 140 08:52 24.06.2022
1450 Clear 20 1006 62 10000 4.63 120 06:58 24.06.2022
1451 Clear 19 1006 62 10000 4.63 120 06:40 24.06.2022
1452 Clear 18 1006 65 10000 3.6 90 05:57 24.06.2022
1453 Clear 19 1009 61 10000 3.6 80 02:31 24.06.2022
1454 Clear 22 1010 49 10000 2.57 100 22:57 23.06.2022
1455 Clear 23 1010 48 10000 2.57 100 22:38 23.06.2022
1456 Clear 28 1010 37 10000 3.09 130 20:57 23.06.2022
1457 Clear 28 1010 36 10000 3.09 130 20:32 23.06.2022
1458 Clear 30 1010 27 10000 4.63 130 19:25 23.06.2022
1459 Clear 31 1011 27 10000 3.6 160 17:51 23.06.2022
1460 Clear 31 1011 28 10000 4.12 120 16:58 23.06.2022
1461 Clear 30 1012 25 10000 3.6 130 15:50 23.06.2022
1462 Clear 30 1012 32 10000 3.6 100 15:24 23.06.2022
1463 Clear 27 1013 42 10000 5.14 120 13:33 23.06.2022
1464 Clear 24 1014 49 10000 3.6 120 11:27 23.06.2022
1465 Clear 23 1014 57 10000 3.6 110 10:35 23.06.2022
1466 Clear 18 1014 76 10000 2.57 130 08:53 23.06.2022
1467 Clear 13 1014 91 10000 1.54 40 03:35 23.06.2022
1468 Clear 15 1014 82 10000 4.12 30 00:26 23.06.2022
1469 Clear 16 1014 78 10000 4.12 30 23:41 22.06.2022
1470 Clear 17 1013 73 10000 5.14 30 22:39 22.06.2022
1471 Clear 20 1013 66 10000 5.14 30 21:22 22.06.2022
1472 Clear 20 1013 66 10000 5.14 30 21:22 22.06.2022
1473 Clear 20 1013 60 10000 4.63 20 20:43 22.06.2022
1474 Clear 22 1012 53 10000 4.63 20 19:56 22.06.2022
1475 Clear 23 1012 46 10000 3.6 20 18:47 22.06.2022
1476 Clear 24 1012 41 10000 3.6 30 17:28 22.06.2022
1477 Clear 24 1013 43 10000 3.6 360 16:29 22.06.2022
1478 Clear 24 1013 45 10000 2.57 0 15:26 22.06.2022
1479 Clear 23 1014 50 10000 2.57 80 14:21 22.06.2022
1480 Clouds 22 1014 51 10000 2.57 330 13:41 22.06.2022
1481 Clouds 22 1014 53 10000 2.57 0 13:23 22.06.2022
1482 Clear 21 1014 52 10000 2.57 50 11:50 22.06.2022
1483 Clear 21 1014 52 10000 2.57 50 11:50 22.06.2022
1484 Clear 19 1014 59 10000 2.06 0 10:57 22.06.2022
1485 Clear 19 1014 60 10000 2.06 0 10:19 22.06.2022
1486 Clear 17 1014 67 10000 1.54 70 08:37 22.06.2022
1487 Clear 9 1013 93 10000 1.54 300 05:38 22.06.2022
1488 Clear 13 1014 82 10000 2.06 30 01:39 22.06.2022
1489 Clear 13 1014 81 10000 1.54 40 00:36 22.06.2022
1490 Clear 17 1013 67 10000 4.63 30 22:37 21.06.2022
1491 Clear 20 1013 56 10000 1.54 280 19:57 21.06.2022
1492 Clear 22 1013 48 10000 2.06 250 18:51 21.06.2022
1493 Clear 22 1013 43 10000 1.54 0 17:40 21.06.2022
1494 Clear 21 1015 50 10000 2.06 0 14:42 21.06.2022
1495 Clouds 19 1016 58 10000 2.57 230 11:52 21.06.2022
1496 Clouds 15 1016 73 10000 3.09 290 10:20 21.06.2022
1497 Clouds 14 1016 81 10000 2.57 270 08:50 21.06.2022
1498 Clear 11 1015 91 10000 0.51 0 07:35 21.06.2022
1499 Clear 10 1016 92 10000 3.6 270 03:21 21.06.2022
1500 Clouds 13 1015 83 10000 3.6 300 23:27 20.06.2022
1501 Clouds 15 1015 74 10000 5.66 300 21:58 20.06.2022
1502 Clouds 15 1015 73 10000 6.17 290 21:31 20.06.2022
1503 Clouds 16 1014 69 10000 6.69 310 19:57 20.06.2022
1504 Clouds 16 1014 65 10000 8.75 310 18:54 20.06.2022
1505 Clouds 17 1014 64 10000 7.72 310 18:24 20.06.2022
1506 Clouds 17 1014 60 10000 7.72 320 17:40 20.06.2022
1507 Clouds 18 1014 57 10000 7.72 310 16:21 20.06.2022
1508 Clouds 18 1013 59 10000 7.72 310 14:29 20.06.2022
1509 Rain 16 1013 68 10000 5.66 290 11:46 20.06.2022
1510 Clouds 16 1013 72 10000 5.14 290 09:49 20.06.2022
1511 Clouds 14 1012 85 10000 4.63 310 08:45 20.06.2022
1512 Clear 12 1012 90 10000 1.54 250 07:35 20.06.2022
1513 Clear 10 1012 92 10000 1.03 0 03:52 20.06.2022
1514 Rain 11 1013 91 10000 2.06 280 01:32 20.06.2022
1515 Clear 11 1013 88 10000 1.54 290 23:48 19.06.2022
1516 Clear 14 1013 79 10000 2.06 340 22:19 19.06.2022
1517 Clouds 14 1013 77 10000 3.09 330 21:42 19.06.2022
1518 Clouds 14 1012 81 10000 4.63 10 20:49 19.06.2022
1519 Rain 14 1013 83 10000 3.09 290 19:49 19.06.2022
1520 Rain 15 1013 81 10000 3.6 330 19:24 19.06.2022
1521 Rain 15 1013 79 10000 5.66 300 18:32 19.06.2022
1522 Clouds 16 1012 77 10000 6.17 310 17:43 19.06.2022
1523 Clouds 16 1012 76 10000 5.66 330 17:20 19.06.2022
1524 Clouds 16 1012 79 10000 3.6 340 16:28 19.06.2022
1525 Clouds 16 1011 80 10000 4.63 340 15:35 19.06.2022
1526 Clouds 15 1011 83 10000 3.6 350 14:43 19.06.2022
1527 Clouds 15 1011 86 10000 4.12 310 13:54 19.06.2022
1528 Clouds 16 1011 75 10000 5.14 300 12:26 19.06.2022
1529 Clouds 17 1010 62 10000 4.63 30 10:53 19.06.2022
1530 Clouds 16 1008 69 10000 9.26 60 09:31 19.06.2022
1531 Clouds 15 1009 77 10000 7.2 30 08:35 19.06.2022
1532 Clouds 15 1010 79 10000 6.69 360 07:36 19.06.2022
1533 Clear 14 1010 85 10000 4.63 40 04:33 19.06.2022
1534 Clear 15 1013 78 10000 3.6 40 01:28 19.06.2022
1535 Clear 16 1014 76 10000 2.57 60 00:23 19.06.2022
1536 Clear 17 1014 70 10000 4.12 20 23:35 18.06.2022
1537 Clear 17 1014 69 10000 3.6 10 22:36 18.06.2022
1538 Clear 19 1015 67 10000 5.14 10 20:55 18.06.2022
1539 Clear 20 1015 67 10000 4.63 10 20:26 18.06.2022
1540 Clear 21 1015 65 10000 4.12 20 19:31 18.06.2022
1541 Clear 22 1015 64 10000 5.14 350 18:44 18.06.2022
1542 Clear 24 1015 61 10000 5.66 360 17:30 18.06.2022
1543 Clouds 25 1016 61 10000 6.17 360 16:37 18.06.2022
1544 Clouds 26 1015 61 10000 3.6 330 15:22 18.06.2022
1545 Clouds 25 1016 63 10000 4.63 310 14:42 18.06.2022
1546 Clear 25 1016 62 10000 4.63 310 13:22 18.06.2022
1547 Clear 25 1016 63 10000 4.12 320 11:34 18.06.2022
1548 Clear 24 1016 59 10000 4.63 290 10:46 18.06.2022
1549 Clear 23 1015 64 10000 5.14 260 09:20 18.06.2022
1550 Clear 21 1015 69 10000 3.6 240 08:19 18.06.2022
1551 Clear 21 1015 69 10000 3.6 240 08:19 18.06.2022
1552 Clear 17 1015 76 10000 1.54 210 06:44 18.06.2022
1553 Clear 16 1016 77 10000 2.06 160 03:24 18.06.2022
1554 Clear 17 1017 73 10000 1.54 140 01:24 18.06.2022
1555 Clear 18 1018 70 10000 2.06 150 00:45 18.06.2022
1556 Clear 18 1019 67 10000 2.06 150 23:52 17.06.2022
1557 Clear 19 1019 61 10000 2.57 150 23:19 17.06.2022
1558 Clear 22 1020 52 10000 2.06 140 20:55 17.06.2022
1559 Clear 23 1021 53 10000 3.09 180 19:31 17.06.2022
1560 Clear 24 1021 52 10000 3.09 180 18:37 17.06.2022
1561 Clear 24 1022 50 10000 1.54 0 17:43 17.06.2022
1562 Clear 24 1022 52 10000 3.09 160 16:43 17.06.2022
1563 Clear 24 1022 50 10000 2.57 220 15:43 17.06.2022
1564 Clear 23 1023 51 10000 2.57 210 15:20 17.06.2022
1565 Rain 24 1023 48 10000 4.12 230 14:20 17.06.2022
1566 Clear 24 1023 48 10000 3.09 190 13:46 17.06.2022
1567 Clear 22 1023 50 10000 2.57 210 12:57 17.06.2022
1568 Clear 22 1024 51 10000 3.09 220 11:57 17.06.2022
1569 Clear 22 1024 51 10000 3.09 220 11:36 17.06.2022
1570 Clear 22 1024 51 10000 3.09 220 11:36 17.06.2022
1571 Clear 21 1024 53 10000 3.09 220 10:52 17.06.2022
1572 Clear 16 1024 72 10000 2.06 210 08:30 17.06.2022
1573 Clear 15 1024 78 10000 1.03 0 07:48 17.06.2022
1574 Clear 11 1024 87 10000 0.51 180 06:22 17.06.2022
1575 Clear 10 1024 87 10000 0.51 230 03:19 17.06.2022
1576 Clear 13 1023 76 10000 1.03 150 00:42 17.06.2022
1577 Clear 16 1024 63 10000 2.06 360 22:45 16.06.2022
1578 Clear 16 1023 64 10000 3.6 360 22:26 16.06.2022
1579 Clear 17 1023 59 10000 3.6 360 21:19 16.06.2022
1580 Clear 18 1022 56 10000 4.63 20 20:50 16.06.2022
1581 Clear 19 1022 54 10000 4.63 340 19:59 16.06.2022
1582 Clear 21 1023 50 10000 6.17 330 18:44 16.06.2022
1583 Clear 21 1023 47 10000 5.66 310 17:44 16.06.2022
1584 Clear 22 1022 45 10000 5.14 340 17:22 16.06.2022
1585 Clear 21 1023 44 10000 6.17 320 15:58 16.06.2022
1586 Clear 21 1022 43 10000 5.66 320 15:21 16.06.2022
1587 Clouds 20 1022 52 10000 5.66 350 13:55 16.06.2022
1588 Clouds 20 1022 56 10000 4.12 10 12:47 16.06.2022
1589 Clear 19 1021 57 10000 4.63 30 12:20 16.06.2022
1590 Clear 19 1021 61 10000 4.63 340 11:21 16.06.2022
1591 Clear 17 1021 63 10000 5.14 360 10:35 16.06.2022
1592 Clear 16 1021 68 10000 6.17 10 09:39 16.06.2022
1593 Clear 15 1021 75 10000 5.66 30 08:56 16.06.2022
1594 Clear 13 1020 86 10000 3.09 360 07:38 16.06.2022
1595 Clouds 11 1020 93 10000 2.68 354 05:51 16.06.2022
1596 Clear 12 1019 82 10000 3.6 30 03:56 16.06.2022
1597 Clouds 12 1020 84 10000 2.93 16 01:52 16.06.2022
1598 Clear 13 1019 79 10000 3.6 360 01:22 16.06.2022
1599 Clouds 13 1020 78 10000 3.07 15 00:22 16.06.2022
1600 Clear 15 1019 66 10000 4.63 360 22:53 15.06.2022
1601 Clear 17 1019 56 10000 4.12 360 21:48 15.06.2022
1602 Clear 17 1019 62 10000 6.17 10 21:19 15.06.2022
1603 Clear 19 1019 52 10000 6.17 360 20:37 15.06.2022
1604 Clear 19 1019 56 10000 6.69 360 20:18 15.06.2022
1605 Clear 20 1018 54 10000 6.69 350 18:41 15.06.2022
1606 Clear 23 1018 49 10000 6.17 320 17:53 15.06.2022
1607 Clear 23 1019 46 10000 3.09 0 16:27 15.06.2022
1608 Clear 23 1019 52 10000 2.57 0 15:22 15.06.2022
1609 Clouds 21 1019 54 10000 2.57 60 13:29 15.06.2022
1610 Clouds 22 1020 47 10000 2.57 60 12:47 15.06.2022
1611 Clouds 20 1020 51 10000 3.6 30 11:28 15.06.2022
1612 Clear 18 1020 63 10000 3.09 50 10:22 15.06.2022
1613 Clear 18 1020 61 10000 3.09 80 09:34 15.06.2022
1614 Clouds 13 1020 89 10000 2.06 80 07:58 15.06.2022
1615 Fog 8 1020 98 2200 1.03 80 05:58 15.06.2022
1616 Clear 10 1021 97 10000 1.03 40 02:56 15.06.2022
1617 Clear 10 1021 93 10000 0.51 110 01:37 15.06.2022
1618 Clear 12 1021 90 10000 1.03 30 00:41 15.06.2022
1619 Clear 13 1021 86 10000 1.03 0 23:38 14.06.2022
1620 Clear 15 1021 78 10000 2.57 60 22:51 14.06.2022
1621 Clear 16 1021 76 10000 2.57 40 21:47 14.06.2022
1622 Clear 16 1021 72 10000 3.6 30 21:26 14.06.2022
1623 Clear 17 1021 71 10000 3.6 30 20:41 14.06.2022
1624 Clouds 17 1021 68 10000 3.09 20 19:59 14.06.2022
1625 Clouds 18 1021 66 10000 2.57 340 18:45 14.06.2022
1626 Clouds 18 1022 65 10000 2.57 300 17:29 14.06.2022
1627 Clouds 18 1022 64 10000 2.06 0 16:43 14.06.2022
1628 Clouds 19 1022 61 10000 2.06 0 15:49 14.06.2022
1629 Clouds 19 1023 62 10000 2.57 230 14:57 14.06.2022
1630 Clouds 18 1023 63 10000 2.57 300 14:20 14.06.2022
1631 Clouds 18 1023 52 10000 2.57 270 13:39 14.06.2022
1632 Clouds 17 1023 68 10000 2.06 0 12:27 14.06.2022
1633 Clouds 16 1023 71 10000 3.09 290 11:27 14.06.2022
1634 Clouds 15 1023 71 10000 3.09 300 10:35 14.06.2022
1635 Clouds 15 1023 78 10000 2.57 260 09:45 14.06.2022
1636 Clouds 13 1023 86 10000 3.6 250 08:45 14.06.2022
1637 Clear 10 1023 92 10000 1.03 0 07:26 14.06.2022
1638 Clouds 8 1023 98 10000 1.03 0 04:44 14.06.2022
1639 Clear 9 1022 93 10000 1.54 220 02:45 14.06.2022
1640 Clear 10 1023 89 10000 2.06 300 00:27 14.06.2022
1641 Clear 11 1023 86 10000 2.57 300 23:21 13.06.2022
1642 Clear 13 1022 70 10000 3.6 320 22:25 13.06.2022
1643 Clouds 13 1022 68 10000 4.63 310 21:48 13.06.2022
1644 Clouds 15 1021 71 10000 6.17 340 20:23 13.06.2022
1645 Clouds 15 1021 72 10000 5.14 340 19:34 13.06.2022
1646 Clouds 17 1021 70 10000 8.23 320 17:58 13.06.2022
1647 Clouds 17 1021 61 10000 8.23 320 17:38 13.06.2022
1648 Clouds 17 1020 71 10000 6.17 310 16:40 13.06.2022
1649 Clear 17 1020 75 10000 5.66 310 15:37 13.06.2022
1650 Rain 17 1020 73 10000 7.2 310 14:42 13.06.2022
1651 Clouds 17 1020 73 10000 9.26 300 13:46 13.06.2022
1652 Rain 16 1019 55 10000 7.72 300 12:47 13.06.2022
1653 Clouds 16 1019 79 10000 6.17 290 11:26 13.06.2022
1654 Clouds 13 1019 89 10000 4.12 290 10:27 13.06.2022
1655 Clouds 13 1019 89 10000 4.12 290 10:27 13.06.2022
1656 Rain 15 1018 76 10000 7.2 270 09:38 13.06.2022
1657 Clear 13 1018 89 10000 3.09 230 07:51 13.06.2022
1658 Clear 10 1018 90 10000 1.54 220 05:49 13.06.2022
1659 Clear 10 1019 89 10000 2.57 220 02:55 13.06.2022
1660 Clear 11 1019 89 10000 1.54 260 01:37 13.06.2022
1661 Clear 13 1019 73 10000 3.09 320 00:22 13.06.2022
1662 Clouds 14 1020 77 10000 3.09 300 23:25 12.06.2022
1663 Clear 15 1019 71 10000 4.12 310 22:22 12.06.2022
1664 Clear 17 1019 74 10000 6.17 310 21:27 12.06.2022
1665 Clear 18 1019 62 10000 6.17 320 20:34 12.06.2022
1666 Clear 20 1019 71 10000 3.6 10 19:36 12.06.2022
1667 Clear 22 1019 50 10000 6.17 280 17:54 12.06.2022
1668 Clear 22 1019 49 10000 6.69 310 16:42 12.06.2022
1669 Clouds 22 1019 59 10000 6.17 260 15:24 12.06.2022
1670 Clear 22 1020 60 10000 5.66 260 14:31 12.06.2022
1671 Clear 22 1020 62 10000 5.14 250 13:55 12.06.2022
1672 Clear 21 1020 65 10000 4.12 270 12:58 12.06.2022
1673 Clear 22 1021 47 10000 4.12 270 11:47 12.06.2022
1674 Clear 21 1021 55 10000 4.12 240 10:45 12.06.2022
1675 Clear 18 1021 75 10000 3.6 210 09:28 12.06.2022
1676 Clear 17 1021 80 10000 2.06 210 08:49 12.06.2022
1677 Clear 14 1021 87 10000 1.03 0 07:40 12.06.2022
1678 Clear 10 1021 97 10000 0.51 270 05:39 12.06.2022
1679 Clear 12 1021 91 10000 1.54 160 03:38 12.06.2022
1680 Clouds 13 1022 93 10000 0.51 0 01:43 12.06.2022
1681 Clear 14 1022 82 10000 2.06 40 00:59 12.06.2022
1682 Clear 15 1022 78 10000 2.57 20 00:28 12.06.2022
1683 Clear 15 1022 77 10000 3.09 20 23:56 11.06.2022
1684 Clear 18 1021 63 10000 4.63 30 22:49 11.06.2022
1685 Clear 17 1021 72 10000 4.12 30 22:29 11.06.2022
1686 Clear 22 1021 43 10000 4.12 320 20:55 11.06.2022
1687 Clear 21 1021 67 10000 5.14 310 20:26 11.06.2022
1688 Clear 22 1021 64 10000 4.12 300 19:32 11.06.2022
1689 Clear 23 1021 56 10000 4.63 290 18:36 11.06.2022
1690 Clear 24 1021 42 10000 5.14 280 17:52 11.06.2022
1691 Clear 24 1021 43 10000 8.23 260 17:29 11.06.2022
1692 Clear 24 1021 59 10000 6.69 260 16:59 11.06.2022
1693 Clear 24 1021 43 10000 6.69 260 16:38 11.06.2022
1694 Clear 22 1021 50 10000 5.14 270 15:46 11.06.2022
1695 Clouds 22 1021 66 10000 6.17 280 13:54 11.06.2022
1696 Clouds 23 1021 63 10000 6.17 280 13:36 11.06.2022
1697 Rain 21 1021 69 10000 6.17 250 11:18 11.06.2022
1698 Clouds 20 1020 63 10000 7.2 240 10:22 11.06.2022
1699 Clouds 19 1020 77 10000 6.69 250 09:40 11.06.2022
1700 Clouds 18 1020 89 10000 2.57 240 07:58 11.06.2022
1701 Clear 15 1019 92 10000 2.06 220 06:31 11.06.2022
1702 Clear 16 1019 93 10000 2.06 220 05:22 11.06.2022
1703 Clouds 17 1020 91 10000 1.54 170 02:34 11.06.2022
1704 Clouds 18 1020 88 10000 1.54 220 01:41 11.06.2022
1705 Clouds 18 1020 87 10000 1.54 170 00:37 11.06.2022
1706 Rain 18 1020 84 10000 2.57 200 22:38 10.06.2022
1707 Clear 19 1020 82 10000 2.06 200 21:56 10.06.2022
1708 Clouds 19 1020 79 10000 2.06 210 20:55 10.06.2022
1709 Clouds 19 1020 79 10000 2.06 210 20:36 10.06.2022
1710 Clear 21 1020 68 10000 3.6 230 20:18 10.06.2022
1711 Clouds 21 1020 67 10000 4.12 220 19:18 10.06.2022
1712 Clouds 21 1020 67 10000 4.12 220 19:18 10.06.2022
1713 Clouds 21 1020 73 10000 4.63 210 18:20 10.06.2022
1714 Clouds 22 1020 72 10000 4.63 230 17:41 10.06.2022
1715 Clouds 21 1021 73 10000 4.63 220 16:59 10.06.2022
1716 Clouds 21 1021 74 10000 4.63 240 16:20 10.06.2022
1717 Clouds 20 1021 78 10000 4.63 210 15:36 10.06.2022
1718 Clouds 19 1021 78 10000 5.66 230 13:52 10.06.2022
1719 Clouds 19 1021 72 10000 6.17 230 12:48 10.06.2022
1720 Clouds 19 1021 69 10000 6.69 240 11:41 10.06.2022
1721 Clouds 19 1021 61 10000 6.69 210 10:44 10.06.2022
1722 Clouds 19 1021 63 10000 4.12 200 09:48 10.06.2022
1723 Clear 16 1021 74 10000 3.09 180 08:33 10.06.2022
1724 Clear 12 1021 94 10000 0.51 0 07:24 10.06.2022
1725 Clear 10 1021 98 10000 1.03 0 06:43 10.06.2022
1726 Mist 10 1020 98 3400 1.03 180 06:25 10.06.2022
1727 Fog 10 1020 98 400 0.51 160 03:52 10.06.2022
1728 Fog 11 1020 95 1100 1.03 190 01:41 10.06.2022
1729 Clear 12 1019 93 10000 2.06 290 00:32 10.06.2022
1730 Clear 12 1019 90 10000 2.06 300 23:39 09.06.2022
1731 Clouds 16 1018 77 10000 3.09 310 22:18 09.06.2022
1732 Clouds 17 1017 74 10000 3.6 310 21:33 09.06.2022
1733 Clouds 19 1016 67 10000 5.66 300 20:54 09.06.2022
1734 Clouds 19 1016 73 10000 5.66 300 20:21 09.06.2022
1735 Clouds 19 1015 69 10000 6.17 310 19:21 09.06.2022
1736 Clouds 20 1015 70 10000 6.17 310 18:28 09.06.2022
1737 Clouds 20 1014 67 10000 5.14 290 16:51 09.06.2022
1738 Clouds 21 1013 58 10000 4.12 300 15:49 09.06.2022
1739 Clouds 20 1012 73 10000 4.12 270 14:35 09.06.2022
1740 Clouds 20 1012 72 10000 5.14 250 13:54 09.06.2022
1741 Clouds 19 1012 77 10000 4.63 280 13:28 09.06.2022
1742 Clouds 17 1011 84 10000 5.14 260 11:54 09.06.2022
1743 Clouds 17 1011 86 10000 5.66 270 11:19 09.06.2022
1744 Clouds 16 1010 90 10000 4.12 250 09:45 09.06.2022
1745 Clouds 16 1009 91 10000 5.14 250 09:24 09.06.2022
1746 Clouds 14 1008 96 10000 4.63 250 07:52 09.06.2022
1747 Clouds 15 1007 96 7000 3.6 240 06:33 09.06.2022
1748 Clouds 14 1006 98 10000 3.09 170 02:52 09.06.2022
1749 Rain 15 1006 96 10000 2.06 130 23:48 08.06.2022
1750 Drizzle 15 1006 95 10000 1.03 130 22:58 08.06.2022
1751 Rain 15 1006 95 10000 1.03 130 22:27 08.06.2022
1752 Drizzle 15 1006 96 10000 1.03 0 21:55 08.06.2022
1753 Rain 15 1006 94 10000 2.06 270 21:21 08.06.2022
1754 Rain 16 1006 90 10000 5.66 270 20:21 08.06.2022
1755 Rain 17 1006 88 10000 6.17 260 19:38 08.06.2022
1756 Clouds 20 1005 60 10000 3.09 160 18:45 08.06.2022
1757 Clouds 22 1005 66 10000 5.14 190 17:25 08.06.2022
1758 Clouds 21 1006 59 10000 4.12 200 15:48 08.06.2022
1759 Clouds 21 1007 60 10000 3.6 190 13:52 08.06.2022
1760 Clouds 19 1007 75 10000 3.6 200 12:22 08.06.2022
1761 Clouds 19 1007 71 10000 3.6 200 11:33 08.06.2022
1762 Clouds 17 1008 81 10000 2.57 180 10:20 08.06.2022
1763 Clouds 15 1009 87 10000 3.09 150 09:22 08.06.2022
1764 Clouds 14 1009 93 10000 2.06 160 08:43 08.06.2022
1765 Clouds 11 1009 96 10000 1.54 150 06:35 08.06.2022
1766 Clear 9 1010 98 10000 1.03 150 03:58 08.06.2022
1767 Clear 10 1011 95 10000 0.51 0 00:49 08.06.2022
1768 Clear 12 1011 90 10000 2.06 250 23:30 07.06.2022
1769 Clear 12 1011 90 10000 2.57 260 22:48 07.06.2022
1770 Clear 13 1011 86 10000 2.57 260 22:30 07.06.2022
1771 Clouds 15 1011 78 10000 4.12 260 21:35 07.06.2022
1772 Clouds 15 1011 78 10000 5.14 270 20:59 07.06.2022
1773 Clouds 15 1011 77 10000 5.14 270 20:33 07.06.2022
1774 Clear 16 1011 78 10000 5.14 290 19:48 07.06.2022
1775 Clear 17 1010 78 10000 5.14 320 18:24 07.06.2022
1776 Clouds 17 1011 78 10000 4.63 280 17:27 07.06.2022
1777 Clouds 16 1011 78 10000 4.63 270 16:43 07.06.2022
1778 Clouds 17 1011 70 10000 5.14 260 15:56 07.06.2022
1779 Clouds 17 1011 59 10000 7.72 260 15:26 07.06.2022
1780 Clouds 17 1011 70 10000 7.2 230 14:52 07.06.2022
1781 Clouds 16 1011 80 10000 7.2 230 14:34 07.06.2022
1782 Clouds 16 1010 80 10000 7.2 240 13:32 07.06.2022
1783 Clouds 15 1010 80 10000 5.66 240 12:52 07.06.2022
1784 Clouds 15 1010 81 10000 8.75 230 11:48 07.06.2022
1785 Clouds 15 1010 87 10000 7.2 210 10:27 07.06.2022
1786 Clouds 14 1010 93 10000 6.69 190 08:53 07.06.2022
1787 Clouds 13 1010 93 10000 4.63 190 07:35 07.06.2022
1788 Clouds 12 1011 96 10000 4.12 180 06:38 07.06.2022
1789 Clouds 12 1011 96 10000 4.12 180 06:38 07.06.2022
1790 Rain 12 1011 94 10000 4.12 190 04:39 07.06.2022
1791 Clouds 12 1013 96 10000 2.06 220 01:27 07.06.2022
1792 Rain 12 1013 95 10000 5.66 240 23:52 06.06.2022
1793 Rain 13 1013 95 10000 4.63 230 22:54 06.06.2022
1794 Rain 13 1013 96 10000 5.66 230 22:29 06.06.2022
1795 Rain 15 1012 87 10000 6.17 250 20:43 06.06.2022
1796 Rain 16 1011 80 10000 6.69 240 19:24 06.06.2022
1797 Rain 18 1011 71 10000 5.66 250 18:48 06.06.2022
1798 Clear 19 1011 62 10000 6.17 210 18:21 06.06.2022
1799 Clear 21 1011 59 10000 6.17 210 17:24 06.06.2022
1800 Clear 20 1012 47 10000 8.23 230 16:18 06.06.2022
1801 Clear 21 1012 49 10000 8.75 230 15:23 06.06.2022
1802 Clouds 20 1012 65 10000 7.2 230 14:29 06.06.2022
1803 Clouds 20 1012 66 10000 7.72 230 13:21 06.06.2022
1804 Clouds 19 1012 70 10000 9.26 220 12:35 06.06.2022
1805 Clouds 18 1012 76 10000 9.26 230 11:50 06.06.2022
1806 Clouds 17 1012 82 10000 5.14 220 10:21 06.06.2022
1807 Clouds 16 1012 86 10000 8.23 220 09:24 06.06.2022
1808 Clouds 15 1011 93 10000 7.54 211 08:31 06.06.2022
1809 Clouds 16 1010 90 10000 7.2 220 07:28 06.06.2022
1810 Clouds 16 1010 95 10000 7.98 209 05:18 06.06.2022
1811 Clouds 17 1009 95 10000 7.26 206 02:42 06.06.2022
1812 Clouds 17 1009 97 10000 4.64 152 00:57 06.06.2022
1813 Clouds 18 1010 92 10000 4.12 150 00:37 06.06.2022
1814 Clouds 17 1010 93 10000 4.63 90 23:28 05.06.2022
1815 Clouds 17 1011 92 10000 5.14 70 22:33 05.06.2022
1816 Rain 21 1011 69 10000 4.12 70 20:46 05.06.2022
1817 Rain 20 1012 73 10000 4.12 90 19:38 05.06.2022
1818 Rain 22 1012 71 10000 2.57 90 18:29 05.06.2022
1819 Rain 23 1013 46 10000 3.6 100 17:51 05.06.2022
1820 Rain 23 1013 51 10000 3.6 100 17:24 05.06.2022
1821 Rain 22 1013 63 10000 3.6 110 16:49 05.06.2022
1822 Rain 24 1014 48 10000 3.6 110 16:30 05.06.2022
1823 Clear 24 1015 46 10000 5.66 100 14:24 05.06.2022
1824 Clear 23 1016 51 10000 6.17 100 12:49 05.06.2022
1825 Clear 22 1017 55 10000 5.14 110 11:43 05.06.2022
1826 Clear 21 1018 56 10000 5.66 110 10:33 05.06.2022
1827 Clear 19 1018 60 10000 4.63 110 09:59 05.06.2022
1828 Clear 15 1019 80 10000 3.09 100 08:32 05.06.2022
1829 Clear 14 1019 86 10000 3.6 80 07:43 05.06.2022
1830 Clear 11 1020 93 10000 2.06 70 05:22 05.06.2022
1831 Clear 11 1020 94 10000 2.57 50 03:46 05.06.2022
1832 Clear 13 1021 92 10000 3.6 30 01:32 05.06.2022
1833 Clear 13 1022 90 10000 4.12 30 00:33 05.06.2022
1834 Clear 13 1022 91 10000 3.26 4 22:22 04.06.2022
1835 Clear 19 1021 70 10000 3.6 20 20:31 04.06.2022
1836 Clear 20 1021 65 10000 3.6 360 18:45 04.06.2022
1837 Clear 21 1021 50 10000 3.6 360 16:47 04.06.2022
1838 Clear 21 1022 52 10000 2.57 0 16:18 04.06.2022
1839 Clear 20 1022 62 10000 3.6 50 14:53 04.06.2022
1840 Clear 18 1022 60 10000 4.63 10 12:38 04.06.2022
1841 Clear 16 1022 77 10000 3.6 30 11:22 04.06.2022
1842 Clear 15 1022 73 10000 4.12 20 10:49 04.06.2022
1843 Clear 13 1022 84 10000 4.12 20 09:45 04.06.2022
1844 Clear 12 1021 87 10000 4.12 30 08:43 04.06.2022
1845 Clear 11 1021 89 10000 4.12 20 07:42 04.06.2022
1846 Clear 10 1021 92 10000 4.12 20 05:30 04.06.2022
1847 Clear 11 1021 86 10000 5.14 20 02:20 04.06.2022
1848 Clear 13 1020 82 10000 5.14 20 00:19 04.06.2022
1849 Clear 14 1019 81 10000 5.66 20 22:40 03.06.2022
1850 Clear 16 1019 77 10000 6.69 20 21:39 03.06.2022
1851 Clear 17 1019 75 10000 6.17 10 20:38 03.06.2022
1852 Clear 21 1018 62 10000 5.66 20 18:54 03.06.2022
1853 Clear 22 1019 55 10000 2.57 20 16:52 03.06.2022
1854 Clear 21 1019 46 10000 2.57 50 15:40 03.06.2022
1855 Clouds 20 1020 48 10000 3.6 50 13:49 03.06.2022
1856 Clear 19 1021 56 10000 2.57 40 11:51 03.06.2022
1857 Clear 16 1021 67 10000 2.57 80 09:54 03.06.2022
1858 Clear 14 1021 80 10000 3.09 70 09:29 03.06.2022
1859 Clear 10 1022 94 10000 3.09 70 07:42 03.06.2022
1860 Clear 8 1022 95 10000 2.06 80 06:46 03.06.2022
1861 Clear 7 1022 98 10000 1.54 50 06:27 03.06.2022
1862 Clear 9 1022 91 10000 1.54 50 02:50 03.06.2022
1863 Clear 11 1022 78 10000 1.54 20 23:36 02.06.2022
1864 Clear 15 1021 67 10000 3.09 30 21:58 02.06.2022
1865 Clouds 17 1021 58 10000 2.57 300 20:34 02.06.2022
1866 Clear 17 1021 69 10000 3.09 300 19:54 02.06.2022
1867 Clear 17 1021 70 10000 3.6 300 19:36 02.06.2022
1868 Clouds 18 1021 66 10000 3.6 300 18:38 02.06.2022
1869 Clouds 18 1021 55 10000 3.6 310 16:28 02.06.2022
1870 Clouds 18 1021 57 10000 4.12 320 15:46 02.06.2022
1871 Clouds 15 1022 75 10000 5.14 260 13:30 02.06.2022
1872 Clouds 15 1022 75 10000 5.14 260 13:30 02.06.2022
1873 Clouds 15 1021 68 10000 4.63 270 12:46 02.06.2022
1874 Clouds 14 1021 79 10000 3.6 280 10:34 02.06.2022
1875 Clear 12 1020 86 10000 5.14 290 09:29 02.06.2022
1876 Clear 11 1020 91 10000 4.12 280 08:44 02.06.2022
1877 Clear 11 1020 93 10000 3.09 270 08:23 02.06.2022
1878 Fog 7 1019 96 350 1.03 240 06:21 02.06.2022
1879 Fog 8 1018 96 800 1.03 0 03:50 02.06.2022
1880 Clouds 9 1017 97 10000 1.54 240 00:55 02.06.2022
1881 Clouds 10 1016 95 10000 1.54 280 22:58 01.06.2022
1882 Clouds 11 1015 89 10000 3.6 310 21:59 01.06.2022
1883 Rain 12 1015 89 10000 2.57 300 21:24 01.06.2022
1884 Clouds 13 1015 84 10000 3.6 320 20:38 01.06.2022
1885 Clouds 13 1014 85 10000 3.6 260 19:52 01.06.2022
1886 Clouds 14 1014 76 10000 2.06 270 18:37 01.06.2022
1887 Clouds 15 1013 72 10000 5.14 340 16:58 01.06.2022
1888 Clouds 14 1013 73 10000 6.17 260 15:43 01.06.2022
1889 Clouds 15 1013 84 10000 4.12 270 14:49 01.06.2022
1890 Rain 13 1013 84 10000 4.63 250 13:23 01.06.2022
1891 Clouds 13 1013 90 10000 2.06 220 10:48 01.06.2022
1892 Clear 11 1013 94 10000 2.57 180 09:29 01.06.2022
1893 Clouds 11 1012 94 10000 1.54 210 08:19 01.06.2022
1894 Clouds 10 1012 95 10000 1.03 0 07:20 01.06.2022
1895 Rain 10 1012 89 10000 1.54 60 04:41 01.06.2022
1896 Clear 11 1013 83 10000 3.09 40 23:50 31.05.2022
1897 Clear 13 1013 72 10000 4.12 30 22:43 31.05.2022
1898 Clear 13 1013 80 10000 3.6 30 22:24 31.05.2022
1899 Clear 13 1012 77 10000 3.09 30 21:44 31.05.2022
1900 Clouds 14 1012 84 10000 2.97 24 20:44 31.05.2022
1901 Clouds 14 1012 83 10000 2.97 24 20:44 31.05.2022
1902 Clear 15 1012 66 10000 1.54 90 19:46 31.05.2022
1903 Clear 17 1012 64 10000 1.03 0 18:33 31.05.2022
1904 Clear 16 1012 53 10000 2.06 100 17:46 31.05.2022
1905 Clear 16 1013 66 10000 1.54 0 16:21 31.05.2022
1906 Clouds 16 1013 55 10000 1.54 100 15:37 31.05.2022
1907 Clouds 16 1013 63 10000 1.03 0 13:22 31.05.2022
1908 Clouds 15 1014 66 10000 2.06 100 12:19 31.05.2022
1909 Clear 14 1014 73 10000 1.54 0 10:52 31.05.2022
1910 Clear 10 1015 88 10000 1.54 140 08:35 31.05.2022
1911 Clear 8 1015 95 10000 1.03 70 06:38 31.05.2022
1912 Clear 8 1015 95 10000 1.03 70 04:34 31.05.2022
1913 Clear 9 1015 90 10000 0 0 23:49 30.05.2022
1914 Clear 9 1015 89 10000 0.51 0 23:25 30.05.2022
1915 Clear 10 1015 83 10000 0.51 0 22:42 30.05.2022
1916 Clear 11 1014 74 10000 1.54 30 21:42 30.05.2022
1917 Clouds 12 1014 80 10000 2.06 350 21:21 30.05.2022
1918 Clouds 13 1014 79 10000 2.06 290 19:45 30.05.2022
1919 Clear 13 1014 77 10000 3.6 310 18:26 30.05.2022
1920 Clouds 12 1014 79 10000 6.69 310 17:23 30.05.2022
1921 Clear 13 1013 78 10000 4.12 290 16:36 30.05.2022
1922 Clouds 13 1013 74 10000 2.57 270 13:44 30.05.2022
1923 Clouds 12 1012 77 10000 2.57 300 11:54 30.05.2022
1924 Clouds 11 1012 78 10000 3.6 290 10:26 30.05.2022
1925 Clear 10 1012 84 10000 3.09 290 09:19 30.05.2022
1926 Clear 8 1011 91 10000 2.06 260 06:28 30.05.2022
1927 Clear 8 1011 93 10000 1.54 260 05:38 30.05.2022
1928 Clouds 9 1012 93 10000 1.54 260 01:31 30.05.2022
1929 Clouds 9 1012 88 10000 4.63 290 22:49 29.05.2022
1930 Clouds 9 1012 88 10000 4.63 290 22:31 29.05.2022
1931 Clouds 10 1012 89 10000 4.97 316 20:51 29.05.2022
1932 Clouds 11 1012 83 10000 5.14 300 19:30 29.05.2022
1933 Clouds 11 1012 83 10000 6.17 320 18:35 29.05.2022
1934 Clouds 11 1012 88 10000 5.14 320 16:51 29.05.2022
1935 Clouds 11 1012 88 10000 7.2 310 15:47 29.05.2022
1936 Clouds 11 1012 89 10000 6.17 300 14:57 29.05.2022
1937 Clouds 10 1012 93 10000 6.17 310 13:46 29.05.2022
1938 Drizzle 10 1012 95 10000 5.66 290 11:34 29.05.2022
1939 Mist 10 1012 95 2500 4.63 290 10:38 29.05.2022
1940 Clouds 10 1012 93 10000 5.14 280 08:47 29.05.2022
1941 Clouds 9 1012 92 10000 4.63 260 05:48 29.05.2022
1942 Clouds 9 1013 90 10000 4.12 270 04:43 29.05.2022
1943 Clouds 9 1013 92 10000 4.12 270 03:41 29.05.2022
1944 Clouds 10 1015 93 10000 4.63 280 23:49 28.05.2022
1945 Clouds 10 1015 93 10000 4.63 270 23:26 28.05.2022
1946 Drizzle 10 1016 92 10000 4.12 270 22:33 28.05.2022
1947 Clouds 10 1016 91 10000 5.14 280 21:38 28.05.2022
1948 Clouds 12 1017 80 10000 6.17 310 19:41 28.05.2022
1949 Clear 13 1016 73 10000 8.75 310 18:47 28.05.2022
1950 Clouds 13 1017 64 10000 8.23 300 17:37 28.05.2022
1951 Clouds 13 1017 73 10000 9.26 300 16:38 28.05.2022
1952 Clouds 14 1017 71 10000 10.29 300 15:43 28.05.2022
1953 Clouds 14 1017 67 10000 9.77 300 14:24 28.05.2022
1954 Clouds 13 1017 81 10000 8.23 300 12:51 28.05.2022
1955 Rain 12 1017 81 10000 8.23 300 12:33 28.05.2022
1956 Clouds 12 1017 77 10000 10.8 310 11:22 28.05.2022
1957 Clouds 12 1016 86 10000 7.72 300 09:59 28.05.2022
1958 Clouds 11 1016 87 10000 7.72 300 09:21 28.05.2022
1959 Clouds 9 1016 91 10000 5.66 280 07:23 28.05.2022
1960 Clouds 8 1015 91 10000 6.17 270 05:48 28.05.2022
1961 Clouds 8 1016 92 10000 4.12 280 02:52 28.05.2022
1962 Clouds 10 1017 90 10000 5.14 260 00:33 28.05.2022
1963 Clouds 9 1017 91 10000 5.14 300 23:32 27.05.2022
1964 Clouds 11 1017 84 10000 7.2 270 21:50 27.05.2022
1965 Clear 11 1017 85 10000 6.69 270 20:56 27.05.2022
1966 Clouds 11 1017 85 10000 8.75 290 20:25 27.05.2022
1967 Clouds 11 1017 85 10000 8.23 290 19:48 27.05.2022
1968 Clouds 12 1017 83 10000 8.23 300 19:29 27.05.2022
1969 Rain 12 1017 84 9000 9.26 300 18:24 27.05.2022
1970 Clouds 14 1017 76 10000 10.8 290 16:40 27.05.2022
1971 Clouds 16 1017 54 10000 12.35 280 15:33 27.05.2022
1972 Clouds 15 1017 65 10000 10.8 290 14:44 27.05.2022
1973 Clouds 15 1016 71 10000 9.77 280 13:23 27.05.2022
1974 Clouds 14 1016 65 10000 10.29 270 11:34 27.05.2022
1975 Clouds 14 1016 70 10000 9.77 270 10:57 27.05.2022
1976 Clouds 14 1016 71 10000 9.77 270 10:32 27.05.2022
1977 Clouds 14 1016 73 10000 7.2 280 09:37 27.05.2022
1978 Clouds 13 1016 84 10000 5.66 280 08:19 27.05.2022
1979 Clear 11 1016 88 10000 3.6 270 06:45 27.05.2022
1980 Rain 14 1015 95 10000 4.63 260 02:53 27.05.2022
1981 Clouds 14 1016 96 9000 6.69 250 00:37 27.05.2022
1982 Drizzle 14 1016 90 10000 4.12 240 22:47 26.05.2022
1983 Drizzle 14 1016 89 10000 2.57 230 21:42 26.05.2022
1984 Mist 14 1017 91 2800 4.12 260 20:59 26.05.2022
1985 Clouds 16 1017 74 10000 6.17 280 19:27 26.05.2022
1986 Clouds 17 1017 73 10000 6.69 280 18:21 26.05.2022
1987 Clouds 17 1017 62 10000 7.2 260 16:56 26.05.2022
1988 Clouds 17 1017 70 10000 6.69 250 15:46 26.05.2022
1989 Clear 18 1018 67 10000 7.2 250 14:48 26.05.2022
1990 Clouds 18 1018 67 10000 8.75 260 13:23 26.05.2022
1991 Clouds 18 1017 67 10000 7.2 270 11:36 26.05.2022
1992 Clouds 16 1017 72 10000 7.72 280 10:24 26.05.2022
1993 Clouds 15 1016 75 10000 7.2 280 09:35 26.05.2022
1994 Clouds 14 1016 84 10000 7.2 270 08:37 26.05.2022
1995 Clouds 13 1014 94 7000 5.14 230 05:22 26.05.2022
1996 Rain 13 1014 88 10000 5.66 230 01:24 26.05.2022
1997 Rain 14 1014 84 10000 6.69 260 23:40 25.05.2022
1998 Clouds 14 1013 78 10000 2.06 260 22:30 25.05.2022
1999 Clear 15 1013 75 10000 3.09 230 21:33 25.05.2022
2000 Clear 15 1013 76 10000 2.57 240 20:38 25.05.2022
2001 Clear 16 1013 76 10000 1.54 250 19:31 25.05.2022
2002 Rain 16 1013 74 10000 6.17 230 18:20 25.05.2022
2003 Clouds 17 1012 70 10000 5.66 300 16:41 25.05.2022
2004 Clouds 18 1012 66 10000 6.17 240 15:58 25.05.2022
2005 Rain 18 1013 67 10000 5.66 240 14:56 25.05.2022
2006 Clouds 18 1013 65 10000 5.66 240 14:33 25.05.2022
2007 Clouds 18 1013 66 10000 5.66 240 13:58 25.05.2022
2008 Clouds 18 1013 58 10000 6.17 240 12:48 25.05.2022
2009 Clouds 16 1013 63 10000 5.66 220 10:58 25.05.2022
2010 Clouds 15 1013 75 10000 5.66 220 10:20 25.05.2022
2011 Clear 12 1013 91 10000 5.13 232 08:45 25.05.2022
2012 Clouds 11 1013 96 10000 2.89 215 07:23 25.05.2022
2013 Fog 9 1012 95 800 1.54 190 05:23 25.05.2022
2014 Clear 11 1010 88 10000 2.06 210 00:31 25.05.2022
2015 Clear 12 1010 83 10000 3.09 200 23:47 24.05.2022
2016 Clear 12 1009 86 10000 3.6 220 22:52 24.05.2022
2017 Clouds 13 1008 84 10000 2.57 220 21:46 24.05.2022
2018 Clouds 14 1008 82 10000 2.57 200 21:22 24.05.2022
2019 Clear 14 1008 83 10000 2.57 230 20:44 24.05.2022
2020 Clouds 16 1007 74 10000 6.69 240 18:59 24.05.2022
2021 Clouds 16 1006 68 10000 6.17 240 17:50 24.05.2022
2022 Clouds 17 1005 67 10000 9.77 230 16:36 24.05.2022
2023 Clouds 16 1004 79 10000 7.72 240 15:31 24.05.2022
2024 Clouds 17 1004 76 10000 6.69 210 14:37 24.05.2022
2025 Clouds 16 1004 80 10000 7.2 220 13:35 24.05.2022
2026 Clouds 14 1003 91 10000 4.63 220 12:19 24.05.2022
2027 Rain 16 1001 86 10000 5.14 210 09:51 24.05.2022
2028 Clouds 15 1001 90 10000 4.12 200 08:51 24.05.2022
2029 Clouds 14 1000 93 10000 2.57 220 07:44 24.05.2022
2030 Clouds 13 1000 94 10000 4.12 230 06:39 24.05.2022
2031 Clouds 14 999 92 10000 6.17 260 03:38 24.05.2022
2032 Clouds 16 996 95 10000 2.57 190 01:46 24.05.2022
2033 Rain 16 996 89 10000 4.12 130 00:30 24.05.2022
2034 Rain 18 996 75 10000 6.69 150 22:24 23.05.2022
2035 Rain 21 996 56 10000 5.66 140 21:50 23.05.2022
2036 Clouds 22 997 49 10000 6.17 150 20:46 23.05.2022
2037 Clear 23 997 46 10000 7.72 150 19:55 23.05.2022
2038 Clear 23 997 52 10000 6.17 140 19:24 23.05.2022
2039 Clear 24 998 49 10000 7.72 130 18:41 23.05.2022
2040 Clear 24 998 49 10000 7.72 130 18:41 23.05.2022
2041 Clear 24 999 50 10000 7.72 130 17:56 23.05.2022
2042 Clear 24 1001 46 10000 7.72 120 16:40 23.05.2022
2043 Clear 23 1003 52 10000 7.2 130 14:20 23.05.2022
2044 Clear 20 1005 58 10000 6.17 140 11:57 23.05.2022
2045 Clear 18 1006 63 10000 5.14 130 10:58 23.05.2022
2046 Clear 17 1007 67 10000 5.66 140 09:48 23.05.2022
2047 Clear 15 1007 70 10000 4.12 120 08:50 23.05.2022
2048 Clear 13 1007 75 10000 4.63 120 07:41 23.05.2022
2049 Clear 12 1008 78 10000 4.12 130 06:41 23.05.2022
2050 Clear 11 1009 78 10000 4.12 110 04:40 23.05.2022
2051 Clear 12 1011 77 10000 3.09 80 02:19 23.05.2022
2052 Clear 12 1012 77 10000 3.09 80 01:34 23.05.2022
2053 Clear 12 1012 75 10000 3.09 80 23:42 22.05.2022
2054 Clear 14 1013 68 10000 1.54 100 22:34 22.05.2022
2055 Clear 14 1013 64 10000 1.03 90 21:54 22.05.2022
2056 Clear 16 1013 60 10000 2.06 90 20:51 22.05.2022
2057 Clear 17 1013 59 10000 2.57 90 20:25 22.05.2022
2058 Clear 17 1014 55 10000 2.57 100 19:54 22.05.2022
2059 Clear 17 1014 55 10000 2.57 100 19:54 22.05.2022
2060 Clear 18 1014 54 10000 2.06 230 18:53 22.05.2022
2061 Clear 19 1014 48 10000 1.54 220 18:24 22.05.2022
2062 Clear 19 1015 49 10000 1.54 0 17:32 22.05.2022
2063 Clouds 19 1015 51 10000 3.09 50 16:25 22.05.2022
2064 Clouds 18 1016 53 10000 3.09 340 14:48 22.05.2022
2065 Clouds 17 1017 55 10000 1.54 0 13:38 22.05.2022
2066 Clouds 17 1017 59 10000 1.54 0 12:50 22.05.2022
2067 Clouds 16 1017 62 10000 1.54 0 11:37 22.05.2022
2068 Clouds 14 1018 74 10000 3.09 310 09:43 22.05.2022
2069 Clear 12 1018 88 10000 1.03 0 08:35 22.05.2022
2070 Clouds 9 1018 95 8000 1.03 0 07:21 22.05.2022
2071 Fog 7 1018 94 450 1.03 240 05:44 22.05.2022
2072 Clouds 10 1019 87 10000 2.66 281 01:43 22.05.2022
2073 Clear 10 1019 88 10000 2.57 300 00:43 22.05.2022
2074 Clear 12 1019 79 10000 3.09 300 23:55 21.05.2022
2075 Clear 12 1019 75 10000 3.6 310 23:20 21.05.2022
2076 Clouds 14 1019 72 10000 4.63 300 21:43 21.05.2022
2077 Clouds 15 1019 71 10000 5.66 310 21:25 21.05.2022
2078 Clouds 15 1018 68 10000 5.66 310 20:25 21.05.2022
2079 Clouds 16 1018 66 10000 6.17 310 19:35 21.05.2022
2080 Clouds 18 1018 57 10000 8.23 280 17:51 21.05.2022
2081 Clouds 18 1018 62 10000 8.23 280 16:53 21.05.2022
2082 Clouds 18 1018 61 10000 8.75 270 14:38 21.05.2022
2083 Clouds 17 1018 67 10000 8.23 280 13:53 21.05.2022
2084 Clouds 17 1017 68 10000 9.26 280 12:57 21.05.2022
2085 Clouds 17 1017 70 10000 9.26 280 12:37 21.05.2022
2086 Clouds 16 1016 76 10000 8.23 260 10:45 21.05.2022
2087 Clouds 15 1016 82 10000 8.23 260 09:48 21.05.2022
2088 Clouds 13 1016 92 10000 7.2 240 08:58 21.05.2022
2089 Clouds 13 1016 93 10000 7.2 240 08:34 21.05.2022
2090 Clouds 10 1016 95 10000 4.59 235 05:28 21.05.2022
2091 Clouds 12 1014 92 10000 7.2 290 00:58 21.05.2022
2092 Clouds 13 1012 93 10000 9.77 300 23:22 20.05.2022
2093 Mist 14 1010 94 5000 12.35 300 22:24 20.05.2022
2094 Clouds 14 1009 94 10000 5.66 270 21:55 20.05.2022
2095 Mist 16 1007 93 1800 7.2 280 20:58 20.05.2022
2096 Mist 16 1007 93 1800 7.2 280 20:58 20.05.2022
2097 Rain 16 1007 88 10000 6.17 140 20:29 20.05.2022
2098 Clouds 17 1008 86 5106 3.25 122 19:29 20.05.2022
2099 Drizzle 17 1011 79 10000 3.6 120 18:47 20.05.2022
2100 Rain 19 1012 69 10000 3.6 100 17:47 20.05.2022
2101 Clear 21 1015 54 10000 3.09 120 16:21 20.05.2022
2102 Clear 21 1015 54 10000 3.09 130 15:53 20.05.2022
2103 Clear 20 1018 61 10000 1.54 0 14:31 20.05.2022
2104 Clear 19 1018 65 10000 1.54 0 13:56 20.05.2022
2105 Clouds 17 1020 70 10000 1.54 0 11:51 20.05.2022
2106 Clouds 16 1021 77 10000 1.03 0 10:30 20.05.2022
2107 Clouds 14 1021 85 10000 2.57 280 08:58 20.05.2022
2108 Clear 13 1021 93 10000 1.54 240 07:40 20.05.2022
2109 Clear 11 1021 95 10000 1.03 0 06:38 20.05.2022
2110 Clouds 12 1020 92 10000 3.09 310 05:39 20.05.2022
2111 Clouds 16 1020 97 10000 5.61 279 01:18 20.05.2022
2112 Clouds 17 1018 96 10000 3.09 240 23:28 19.05.2022
2113 Clouds 18 1017 96 10000 4.12 240 22:33 19.05.2022
2114 Clouds 18 1017 95 10000 4.63 230 21:49 19.05.2022
2115 Clouds 18 1017 95 10000 4.63 230 21:49 19.05.2022
2116 Clouds 18 1017 95 10000 4.63 210 21:23 19.05.2022
2117 Clouds 18 1017 93 10000 2.57 210 20:43 19.05.2022
2118 Clear 18 1016 95 10000 1.03 0 19:54 19.05.2022
2119 Clouds 18 1016 94 7000 1.54 330 18:58 19.05.2022
2120 Thunderstorm 21 1017 83 10000 5.66 280 17:35 19.05.2022
2121 Clear 27 1015 50 10000 3.6 170 15:34 19.05.2022
2122 Clear 27 1016 53 10000 1.54 0 14:35 19.05.2022
2123 Clear 27 1016 54 10000 1.54 150 13:59 19.05.2022
2124 Clear 25 1018 57 10000 3.6 250 11:52 19.05.2022
2125 Clear 24 1018 53 10000 5.66 220 10:30 19.05.2022
2126 Clear 19 1018 79 10000 2.57 140 08:33 19.05.2022
2127 Clouds 16 1018 92 10000 3.11 169 06:57 19.05.2022
2128 Clouds 15 1019 92 6000 1.03 0 03:26 19.05.2022
2129 Clear 18 1019 84 10000 2.06 300 00:56 19.05.2022
2130 Clear 20 1019 76 10000 0.51 0 23:21 18.05.2022
2131 Clear 21 1019 71 10000 1.54 260 22:41 18.05.2022
2132 Clear 23 1019 60 10000 3.09 150 21:42 18.05.2022
2133 Clear 24 1019 61 10000 2.57 140 21:20 18.05.2022
2134 Clear 26 1019 55 10000 2.57 140 20:19 18.05.2022
2135 Clear 26 1019 55 10000 2.06 180 18:53 18.05.2022
2136 Clear 26 1019 51 10000 3.09 200 17:42 18.05.2022
2137 Clear 28 1019 43 10000 3.09 190 17:24 18.05.2022
2138 Clear 28 1019 46 10000 3.09 200 16:53 18.05.2022
2139 Clear 28 1020 38 10000 4.12 210 15:45 18.05.2022
2140 Clear 29 1020 45 10000 2.57 0 15:20 18.05.2022
2141 Clear 28 1020 49 10000 3.6 200 14:21 18.05.2022
2142 Clear 26 1021 59 10000 4.63 170 12:54 18.05.2022
2143 Clear 24 1021 61 10000 5.14 180 11:48 18.05.2022
2144 Clear 23 1021 68 10000 4.12 150 11:30 18.05.2022
2145 Clear 22 1021 67 10000 4.12 150 10:43 18.05.2022
2146 Clear 17 1021 88 10000 4.12 130 08:19 18.05.2022
2147 Clear 16 1021 91 10000 3.6 120 07:27 18.05.2022
2148 Clear 15 1021 91 10000 3.09 130 03:40 18.05.2022
2149 Clear 16 1021 87 10000 3.6 120 00:51 18.05.2022
2150 Clear 17 1021 85 10000 3.09 90 23:33 17.05.2022
2151 Clear 19 1020 79 10000 4.12 70 21:21 17.05.2022
2152 Clear 19 1020 77 10000 4.12 60 20:43 17.05.2022
2153 Clouds 20 1020 75 10000 4.63 70 19:41 17.05.2022
2154 Clouds 21 1019 70 10000 3.6 80 19:20 17.05.2022
2155 Clear 23 1019 61 10000 3.09 260 17:34 17.05.2022
2156 Clear 23 1019 61 10000 2.57 0 16:57 17.05.2022
2157 Clouds 23 1020 60 10000 3.09 0 15:59 17.05.2022
2158 Clouds 22 1020 64 10000 3.09 300 14:55 17.05.2022
2159 Clouds 22 1020 69 10000 4.63 310 14:28 17.05.2022
2160 Clouds 21 1020 71 10000 3.09 270 13:24 17.05.2022
2161 Clouds 18 1020 84 10000 3.09 280 10:42 17.05.2022
2162 Clouds 16 1019 90 10000 2.57 260 08:51 17.05.2022
2163 Clouds 14 1019 97 6000 1.54 250 07:56 17.05.2022
2164 Mist 14 1019 96 4200 1.03 240 06:26 17.05.2022
2165 Clouds 16 1018 94 6000 1.54 220 01:34 17.05.2022
2166 Rain 16 1018 93 10000 3.6 270 23:59 16.05.2022
2167 Rain 17 1017 90 10000 5.14 280 22:40 16.05.2022
2168 Rain 17 1017 88 10000 2.94 279 21:31 16.05.2022
2169 Clouds 22 1015 56 10000 3.6 180 20:43 16.05.2022
2170 Clouds 23 1014 53 10000 2.06 150 18:53 16.05.2022
2171 Clouds 24 1014 48 10000 4.12 150 17:34 16.05.2022
2172 Clear 25 1015 39 10000 4.12 170 15:36 16.05.2022
2173 Clear 24 1015 41 10000 5.66 110 13:48 16.05.2022
2174 Clear 23 1016 44 10000 6.17 110 12:46 16.05.2022
2175 Clear 19 1016 56 10000 4.63 120 10:47 16.05.2022
2176 Clear 15 1017 67 10000 4.12 100 08:37 16.05.2022
2177 Clear 11 1017 75 10000 3.6 90 06:32 16.05.2022
2178 Clear 12 1018 67 10000 3.6 90 02:33 16.05.2022
2179 Clear 17 1018 48 10000 5.14 70 22:52 15.05.2022
2180 Clear 18 1018 48 10000 4.63 70 22:28 15.05.2022
2181 Clear 18 1018 48 10000 4.63 70 21:38 15.05.2022
2182 Clear 20 1018 40 10000 2.06 70 20:53 15.05.2022
2183 Clear 22 1019 36 10000 2.06 0 18:53 15.05.2022
2184 Clear 22 1019 37 10000 2.06 0 17:45 15.05.2022
2185 Clear 22 1020 37 10000 2.57 0 15:44 15.05.2022
2186 Clear 20 1021 47 10000 2.57 0 13:49 15.05.2022
2187 Clear 18 1022 55 10000 2.57 150 12:22 15.05.2022
2188 Clear 17 1022 59 10000 2.06 0 11:38 15.05.2022
2189 Clear 17 1022 60 10000 2.06 0 11:38 15.05.2022
2190 Clear 17 1022 60 10000 2.06 0 11:38 15.05.2022
2191 Clear 14 1022 73 10000 2.06 110 10:20 15.05.2022
2192 Clear 9 1022 93 10000 0.51 0 07:46 15.05.2022
2193 Clear 7 1022 92 10000 1.28 88 06:57 15.05.2022
2194 Fog 6 1022 94 1000 1.03 80 04:44 15.05.2022
2195 Clear 10 1022 85 10000 1.03 0 00:48 15.05.2022
2196 Clouds 11 1023 83 10000 2.21 14 23:38 14.05.2022
2197 Clear 12 1022 74 10000 2.57 350 22:45 14.05.2022
2198 Clear 15 1021 58 10000 3.6 10 21:27 14.05.2022
2199 Clear 16 1021 55 10000 4.12 20 20:44 14.05.2022
2200 Clouds 17 1021 59 10000 4.63 350 19:21 14.05.2022
2201 Clouds 17 1021 59 10000 4.63 350 19:21 14.05.2022
2202 Clouds 18 1020 57 10000 5.66 350 18:59 14.05.2022
2203 Clouds 18 1020 56 10000 5.14 330 17:56 14.05.2022
2204 Clouds 19 1020 53 10000 6.17 310 16:37 14.05.2022
2205 Clouds 18 1021 57 10000 6.69 320 14:58 14.05.2022
2206 Clear 18 1021 55 10000 7.72 310 14:30 14.05.2022
2207 Clouds 18 1020 55 10000 6.69 290 12:23 14.05.2022
2208 Clouds 16 1020 62 10000 5.66 290 10:53 14.05.2022
2209 Clouds 16 1020 67 10000 4.63 300 10:20 14.05.2022
2210 Clear 15 1020 71 10000 4.63 290 09:53 14.05.2022
2211 Clear 14 1019 78 10000 3.6 270 08:46 14.05.2022
2212 Clear 10 1018 83 10000 3.09 240 05:43 14.05.2022
2213 Clear 11 1018 79 10000 3.09 210 02:32 14.05.2022
2214 Clouds 11 1018 72 10000 3.97 232 23:36 13.05.2022
2215 Clear 12 1019 66 10000 3.6 270 22:57 13.05.2022
2216 Clear 13 1018 62 10000 4.12 280 22:23 13.05.2022
2217 Clear 14 1018 58 10000 5.66 280 21:38 13.05.2022
2218 Clear 16 1018 48 10000 6.69 270 20:44 13.05.2022
2219 Clear 16 1017 56 10000 7.72 270 20:24 13.05.2022
2220 Clear 17 1017 54 10000 7.72 270 19:25 13.05.2022
2221 Clear 18 1017 53 10000 9.26 270 17:50 13.05.2022
2222 Clouds 17 1017 55 10000 7.72 270 17:27 13.05.2022
2223 Clouds 17 1017 56 10000 8.23 270 16:18 13.05.2022
2224 Clouds 17 1017 55 10000 7.72 280 15:20 13.05.2022
2225 Clouds 17 1017 61 10000 7.72 260 13:29 13.05.2022
2226 Clouds 15 1016 61 10000 7.2 260 12:25 13.05.2022
2227 Clear 15 1016 70 10000 6.17 250 10:53 13.05.2022
2228 Clear 12 1016 76 10000 5.66 240 09:33 13.05.2022
2229 Clear 11 1015 77 10000 5.66 230 08:24 13.05.2022
2230 Clear 11 1015 78 10000 4.12 230 07:42 13.05.2022
2231 Clear 9 1015 83 10000 3.6 190 06:33 13.05.2022
2232 Clear 10 1016 87 10000 2.57 210 02:48 13.05.2022
2233 Clear 10 1017 89 10000 1.54 120 23:56 12.05.2022
2234 Clear 12 1017 81 10000 3.6 10 22:44 12.05.2022
2235 Clear 14 1016 66 10000 2.57 300 21:54 12.05.2022
2236 Clear 17 1016 51 10000 4.63 290 20:27 12.05.2022
2237 Clear 18 1016 45 10000 6.17 270 18:51 12.05.2022
2238 Clear 19 1016 42 10000 5.66 250 17:23 12.05.2022
2239 Clear 18 1016 47 10000 5.66 280 15:55 12.05.2022
2240 Clear 18 1017 43 10000 5.66 260 14:40 12.05.2022
2241 Clear 18 1017 48 10000 5.66 280 13:38 12.05.2022
2242 Clouds 15 1017 69 10000 5.66 260 10:46 12.05.2022
2243 Clear 13 1016 75 10000 5.14 260 09:28 12.05.2022
2244 Clear 13 1016 75 10000 5.14 260 09:28 12.05.2022
2245 Clouds 12 1015 80 10000 5.66 270 08:51 12.05.2022
2246 Clouds 11 1014 84 10000 4.63 260 07:40 12.05.2022
2247 Clouds 10 1014 84 10000 4.63 270 07:40 12.05.2022
2248 Clear 10 1013 87 10000 4.63 270 06:19 12.05.2022
2249 Clouds 14 1008 80 10000 7.2 250 02:56 12.05.2022
2250 Rain 13 1008 84 10000 1.54 140 00:35 12.05.2022
2251 Clear 14 1008 80 10000 3.09 30 22:35 11.05.2022
2252 Clear 15 1008 76 10000 5.14 30 21:50 11.05.2022
2253 Clear 16 1007 70 10000 4.63 10 21:23 11.05.2022
2254 Clear 21 1007 45 10000 7.72 260 18:49 11.05.2022
2255 Clear 23 1007 35 10000 7.72 260 16:55 11.05.2022
2256 Clear 23 1008 40 10000 7.72 260 15:37 11.05.2022
2257 Clear 21 1008 46 10000 8.75 260 14:39 11.05.2022
2258 Clear 21 1008 49 10000 7.2 260 14:18 11.05.2022
2259 Clear 19 1009 66 10000 5.66 240 11:54 11.05.2022
2260 Clear 18 1009 69 10000 4.63 230 11:19 11.05.2022
2261 Clear 14 1010 86 10000 2.06 210 08:46 11.05.2022
2262 Clear 12 1011 91 10000 0.51 0 05:31 11.05.2022
2263 Clear 12 1011 91 10000 0.51 0 05:31 11.05.2022
2264 Clear 11 1013 89 10000 3.09 210 01:23 11.05.2022
2265 Clear 14 1014 91 10000 1.03 150 22:32 10.05.2022
2266 Clear 14 1014 92 10000 2.57 170 21:57 10.05.2022
2267 Rain 16 1013 83 10000 3.6 330 20:58 10.05.2022
2268 Rain 16 1013 86 10000 4.12 320 20:18 10.05.2022
2269 Rain 20 1012 70 10000 7.72 230 18:27 10.05.2022
2270 Rain 23 1012 40 10000 6.17 220 17:34 10.05.2022
2271 Rain 23 1014 49 10000 7.72 240 15:41 10.05.2022
2272 Clear 24 1016 46 10000 6.17 230 12:47 10.05.2022
2273 Clear 22 1017 51 10000 5.14 210 11:51 10.05.2022
2274 Clear 21 1017 57 10000 4.63 200 11:21 10.05.2022
2275 Clear 20 1017 60 10000 3.6 200 10:54 10.05.2022
2276 Clear 17 1017 69 10000 3.09 210 09:26 10.05.2022
2277 Clear 12 1018 79 10000 2.57 140 07:32 10.05.2022
2278 Clear 11 1019 79 10000 1.54 130 04:34 10.05.2022
2279 Clear 13 1021 70 10000 2.06 140 01:34 10.05.2022
2280 Clear 15 1022 65 10000 2.57 140 23:26 09.05.2022
2281 Clear 16 1022 60 10000 2.57 130 22:29 09.05.2022
2282 Clear 18 1022 54 10000 3.6 120 21:21 09.05.2022
2283 Clear 21 1022 43 10000 3.6 140 19:52 09.05.2022
2284 Clear 22 1023 39 10000 3.09 190 17:59 09.05.2022
2285 Clear 22 1024 36 10000 2.06 0 16:49 09.05.2022
2286 Clear 22 1025 36 10000 2.57 0 15:53 09.05.2022
2287 Clear 21 1025 37 10000 3.09 140 15:34 09.05.2022
2288 Clear 21 1025 37 10000 4.12 180 14:33 09.05.2022
2289 Clear 21 1026 38 10000 2.57 130 13:51 09.05.2022
2290 Clear 18 1027 44 10000 4.12 140 12:32 09.05.2022
2291 Clear 17 1027 51 10000 4.12 120 11:43 09.05.2022
2292 Clear 16 1027 54 10000 2.57 110 10:45 09.05.2022
2293 Clear 13 1028 64 10000 2.57 100 09:39 09.05.2022
2294 Clear 7 1028 84 10000 2.06 80 07:56 09.05.2022
2295 Clear 3 1028 91 10000 0.51 0 04:33 09.05.2022
2296 Clear 3 1028 91 10000 0.51 0 04:33 09.05.2022
2297 Clear 3 1028 91 10000 0.51 0 04:33 09.05.2022
2298 Clear 7 1029 83 10000 3.6 30 00:22 09.05.2022
2299 Clear 9 1028 74 10000 3.09 350 22:58 08.05.2022
2300 Clear 9 1028 76 10000 3.09 310 22:27 08.05.2022
2301 Clear 13 1027 58 10000 4.12 350 20:41 08.05.2022
2302 Clear 14 1027 54 10000 3.6 320 19:53 08.05.2022
2303 Clear 14 1027 51 10000 3.6 330 19:27 08.05.2022
2304 Clear 14 1027 54 10000 3.6 330 19:27 08.05.2022
2305 Clear 15 1027 46 10000 3.09 20 18:25 08.05.2022
2306 Clear 15 1027 43 10000 3.6 10 17:21 08.05.2022
2307 Clear 15 1027 45 10000 3.09 320 15:44 08.05.2022
2308 Clear 15 1028 44 10000 4.63 300 15:20 08.05.2022
2309 Clear 14 1028 56 10000 4.12 310 12:45 08.05.2022
2310 Clouds 11 1028 66 10000 3.6 360 10:56 08.05.2022
2311 Clouds 10 1028 71 10000 3.09 330 10:22 08.05.2022
2312 Clouds 10 1028 71 10000 3.6 340 09:51 08.05.2022
2313 Clear 6 1027 88 10000 1.03 0 07:41 08.05.2022
2314 Clouds 5 1027 89 10000 2.52 358 04:56 08.05.2022
2315 Clear 7 1027 84 10000 3.6 350 03:20 08.05.2022
2316 Clear 8 1026 81 10000 5.14 350 00:31 08.05.2022
2317 Clear 9 1026 81 10000 4.63 350 23:54 07.05.2022
2318 Clear 10 1025 83 10000 4.12 340 22:59 07.05.2022
2319 Clear 10 1025 82 10000 4.63 310 22:35 07.05.2022
2320 Clear 11 1024 85 10000 4.12 320 21:55 07.05.2022
2321 Clear 12 1024 76 10000 4.12 360 21:20 07.05.2022
2322 Clouds 15 1023 68 10000 6.17 360 19:59 07.05.2022
2323 Clouds 16 1023 68 10000 5.14 10 18:41 07.05.2022
2324 Clouds 18 1023 67 10000 3.6 330 16:24 07.05.2022
2325 Clouds 19 1022 55 10000 1.54 30 14:51 07.05.2022
2326 Clear 18 1023 55 10000 1.03 0 11:21 07.05.2022
2327 Rain 15 1023 82 10000 0.51 0 09:42 07.05.2022
2328 Rain 13 1022 89 10000 1.03 250 08:30 07.05.2022
2329 Clear 10 1022 91 10000 1.03 190 06:44 07.05.2022
2330 Clear 10 1022 93 10000 0.51 210 06:24 07.05.2022
2331 Clear 10 1022 90 10000 1.54 270 03:54 07.05.2022
2332 Clear 14 1023 72 10000 0.51 50 23:44 06.05.2022
2333 Clear 15 1023 66 10000 2.06 40 22:35 06.05.2022
2334 Clear 17 1023 55 10000 3.6 360 21:52 06.05.2022
2335 Clear 17 1022 59 10000 4.12 360 21:24 06.05.2022
2336 Clear 20 1022 45 10000 2.06 310 19:43 06.05.2022
2337 Clear 19 1022 57 10000 3.6 300 19:21 06.05.2022
2338 Clear 21 1022 50 10000 3.6 300 18:29 06.05.2022
2339 Clear 20 1023 48 10000 3.09 300 17:34 06.05.2022
2340 Clear 19 1023 42 10000 2.06 10 15:51 06.05.2022
2341 Clear 20 1023 43 10000 2.57 290 15:18 06.05.2022
2342 Clear 20 1024 46 10000 2.06 300 13:45 06.05.2022
2343 Clouds 20 1024 50 10000 4.12 260 12:47 06.05.2022
2344 Clear 18 1025 54 10000 2.06 190 11:58 06.05.2022
2345 Clear 16 1025 67 10000 2.06 0 10:41 06.05.2022
2346 Clear 15 1025 69 10000 2.06 170 09:47 06.05.2022
2347 Clear 13 1025 74 10000 2.06 150 09:18 06.05.2022
2348 Clear 8 1025 89 10000 0.51 0 07:40 06.05.2022
2349 Fog 6 1024 91 3100 0.51 90 06:26 06.05.2022
2350 Clouds 6 1024 90 9000 0.51 210 02:58 06.05.2022
2351 Clear 7 1024 89 10000 0.51 60 01:58 06.05.2022
2352 Clear 11 1024 71 10000 2.57 20 22:50 05.05.2022
2353 Clear 15 1023 55 10000 3.6 360 21:49 05.05.2022
2354 Clear 15 1022 56 10000 3.6 20 20:36 05.05.2022
2355 Clear 17 1022 44 10000 4.12 290 18:54 05.05.2022
2356 Clear 18 1022 40 10000 3.6 300 16:40 05.05.2022
2357 Clear 17 1022 41 10000 2.57 310 15:30 05.05.2022
2358 Clear 16 1022 46 10000 2.06 0 13:30 05.05.2022
2359 Clear 15 1022 51 10000 1.54 0 12:56 05.05.2022
2360 Clear 13 1022 60 10000 1.54 0 11:35 05.05.2022
2361 Clear 10 1022 73 10000 1.54 250 09:41 05.05.2022
2362 Clear 10 1022 73 10000 1.54 250 09:41 05.05.2022
2363 Clear 8 1022 80 10000 0.51 0 08:40 05.05.2022
2364 Fog 1 1021 95 2800 1.03 260 06:24 05.05.2022
2365 Clear 3 1020 89 10000 0.51 260 02:25 05.05.2022
2366 Clear 4 1020 86 10000 0.51 50 01:40 05.05.2022
2367 Clear 5 1019 80 10000 1.03 70 00:43 05.05.2022
2368 Clear 7 1019 75 10000 3.09 40 22:57 04.05.2022
2369 Clear 10 1018 65 10000 4.63 340 21:59 04.05.2022
2370 Clear 10 1018 65 10000 4.63 340 21:34 04.05.2022
2371 Clear 12 1018 58 10000 4.63 330 20:52 04.05.2022
2372 Clear 12 1017 57 10000 4.12 360 20:18 04.05.2022
2373 Clear 13 1017 56 10000 4.12 350 19:35 04.05.2022
2374 Clear 14 1017 53 10000 2.06 0 18:43 04.05.2022
2375 Clouds 14 1017 52 10000 2.06 280 18:19 04.05.2022
2376 Clouds 14 1017 52 10000 2.06 0 17:22 04.05.2022
2377 Clouds 14 1018 52 10000 2.57 330 15:34 04.05.2022
2378 Clouds 14 1018 53 10000 3.09 300 14:41 04.05.2022
2379 Clouds 14 1018 54 10000 3.6 310 14:19 04.05.2022
2380 Clouds 13 1019 57 10000 2.57 340 12:50 04.05.2022
2381 Clouds 12 1019 62 10000 2.57 310 11:40 04.05.2022
2382 Clouds 10 1019 65 10000 3.09 320 10:27 04.05.2022
2383 Clouds 8 1019 72 10000 1.03 0 09:22 04.05.2022
2384 Clouds 6 1019 83 10000 0.51 0 07:59 04.05.2022
2385 Clouds 4 1019 92 10000 0.51 230 05:34 04.05.2022
2386 Clear 3 1019 90 10000 0.51 0 02:37 04.05.2022
2387 Clear 6 1019 78 10000 3.09 340 23:20 03.05.2022
2388 Clear 7 1019 73 10000 4.12 10 21:55 03.05.2022
2389 Clear 8 1019 70 10000 4.12 10 21:31 03.05.2022
2390 Clear 9 1019 66 10000 4.12 360 20:52 03.05.2022
2391 Clouds 11 1018 62 10000 3.6 330 19:36 03.05.2022
2392 Clouds 12 1018 62 10000 4.63 330 18:47 03.05.2022
2393 Clouds 13 1018 61 10000 5.14 310 17:22 03.05.2022
2394 Clouds 12 1019 64 10000 4.63 290 16:20 03.05.2022
2395 Clouds 12 1019 67 10000 4.63 310 14:34 03.05.2022
2396 Clouds 12 1019 77 10000 3.6 330 12:46 03.05.2022
2397 Clouds 11 1019 81 10000 3.09 310 11:49 03.05.2022
2398 Clouds 10 1019 86 10000 4.63 310 10:50 03.05.2022
2399 Clouds 8 1018 85 10000 2.06 280 08:33 03.05.2022
2400 Clear 2 1018 91 10000 1.54 230 06:46 03.05.2022
2401 Clear 2 1018 91 10000 1.54 230 06:45 03.05.2022
2402 Clear 3 1018 86 10000 1.03 290 03:26 03.05.2022
2403 Clear 7 1019 65 10000 3.09 350 23:32 02.05.2022
2404 Clear 9 1019 57 10000 4.63 340 22:34 02.05.2022
2405 Clear 12 1018 37 10000 3.09 330 21:48 02.05.2022
2406 Clear 13 1018 47 10000 5.14 350 20:48 02.05.2022
2407 Clear 16 1018 51 10000 5.14 320 18:28 02.05.2022
2408 Clear 16 1018 49 10000 2.57 290 17:44 02.05.2022
2409 Clear 16 1018 49 10000 3.09 300 16:47 02.05.2022
2410 Clear 17 1019 49 10000 2.57 280 15:56 02.05.2022
2411 Clear 17 1019 46 10000 2.06 0 14:56 02.05.2022
2412 Clear 16 1020 45 10000 1.54 0 13:47 02.05.2022
2413 Clear 15 1021 51 10000 2.06 0 12:18 02.05.2022
2414 Clear 12 1021 67 10000 2.57 40 10:20 02.05.2022
2415 Clear 9 1021 78 10000 2.57 50 08:46 02.05.2022
2416 Clear 7 1021 86 10000 3.09 30 07:39 02.05.2022
2417 Clear 7 1022 75 10000 1.54 50 01:58 02.05.2022
2418 Clear 8 1022 75 10000 3.09 40 00:23 02.05.2022
2419 Clear 8 1023 74 10000 2.06 40 23:46 01.05.2022
2420 Clear 10 1023 70 10000 2.57 20 22:20 01.05.2022
2421 Clear 11 1022 64 10000 2.06 50 20:58 01.05.2022
2422 Clouds 12 1022 58 10000 0.51 0 19:49 01.05.2022
2423 Clouds 13 1022 55 10000 1.03 230 18:55 01.05.2022
2424 Clear 13 1022 50 10000 2.06 260 18:22 01.05.2022
2425 Clear 13 1023 55 10000 1.54 310 17:18 01.05.2022
2426 Clear 13 1023 55 10000 2.57 310 16:23 01.05.2022
2427 Clear 13 1023 56 10000 3.09 280 15:23 01.05.2022
2428 Clear 13 1024 60 10000 2.57 320 13:42 01.05.2022
2429 Clouds 10 1025 80 10000 2.06 320 10:53 01.05.2022
2430 Clear 7 1025 91 10000 2.06 290 08:53 01.05.2022
2431 Clear 7 1025 91 10000 2.06 290 08:53 01.05.2022
2432 Clouds 5 1024 93 6000 2.06 220 07:53 01.05.2022
2433 Clear 4 1024 92 10000 1.03 0 03:31 01.05.2022
2434 Clear 7 1025 81 10000 3.6 350 23:49 30.04.2022
2435 Clear 10 1025 62 10000 2.57 320 21:44 30.04.2022
2436 Clear 10 1024 57 10000 4.12 330 20:45 30.04.2022
2437 Clouds 11 1024 56 10000 4.12 320 19:41 30.04.2022
2438 Clouds 13 1024 54 10000 4.63 340 17:45 30.04.2022
2439 Clouds 13 1025 55 10000 3.6 340 16:42 30.04.2022
2440 Clouds 13 1025 55 10000 2.57 330 15:46 30.04.2022
2441 Clouds 12 1025 58 10000 3.6 350 14:43 30.04.2022
2442 Clouds 12 1026 66 10000 4.12 300 12:42 30.04.2022
2443 Clouds 11 1026 66 10000 3.6 350 11:33 30.04.2022
2444 Clouds 11 1026 70 10000 3.6 20 10:44 30.04.2022
2445 Clouds 8 1026 87 10000 2.57 320 09:25 30.04.2022
2446 Clouds 3 1026 93 10000 2.06 270 06:43 30.04.2022
2447 Clear 4 1028 91 10000 2.06 290 01:53 30.04.2022
2448 Clear 6 1028 84 10000 3.09 340 23:37 29.04.2022
2449 Clouds 7 1028 75 10000 4.12 350 22:31 29.04.2022
2450 Clouds 8 1028 74 10000 5.14 360 21:39 29.04.2022
2451 Clear 9 1028 72 10000 4.63 350 20:49 29.04.2022
2452 Clouds 10 1027 65 10000 6.17 340 19:45 29.04.2022
2453 Clouds 12 1028 63 10000 5.66 350 17:59 29.04.2022
2454 Clouds 12 1028 63 10000 5.66 350 17:23 29.04.2022
2455 Clouds 13 1028 60 10000 5.14 340 15:49 29.04.2022
2456 Clear 14 1029 59 10000 3.6 360 14:22 29.04.2022
2457 Clear 13 1029 62 10000 3.09 10 13:21 29.04.2022
2458 Clear 11 1030 67 10000 3.09 20 11:49 29.04.2022
2459 Clear 7 1030 88 10000 4.63 30 08:51 29.04.2022
2460 Clear 4 1030 94 10000 1.03 0 07:28 29.04.2022
2461 Mist 3 1030 95 8000 1.54 250 06:45 29.04.2022
2462 Clear 3 1030 93 10000 1.54 250 04:53 29.04.2022
2463 Clear 4 1031 89 10000 2.57 290 00:45 29.04.2022
2464 Clear 6 1031 82 10000 3.09 340 23:28 28.04.2022
2465 Clear 7 1031 82 10000 4.12 340 22:41 28.04.2022
2466 Clear 8 1031 80 10000 3.6 330 21:47 28.04.2022
2467 Clear 8 1030 76 10000 4.12 330 21:21 28.04.2022
2468 Clear 10 1030 69 10000 4.63 340 20:35 28.04.2022
2469 Clear 11 1030 60 10000 4.63 340 19:45 28.04.2022
2470 Clear 11 1030 60 10000 4.63 340 19:45 28.04.2022
2471 Clear 12 1030 59 10000 5.14 330 19:22 28.04.2022
2472 Clear 13 1030 58 10000 5.66 340 18:36 28.04.2022
2473 Clouds 13 1030 57 10000 4.12 340 17:26 28.04.2022
2474 Clouds 14 1030 60 10000 5.14 310 16:41 28.04.2022
2475 Clouds 14 1030 60 10000 5.14 310 16:19 28.04.2022
2476 Clouds 13 1030 67 10000 6.17 300 15:29 28.04.2022
2477 Clouds 13 1030 65 10000 4.63 330 14:36 28.04.2022
2478 Clouds 13 1030 70 10000 3.6 300 12:55 28.04.2022
2479 Clouds 12 1030 70 10000 3.09 350 11:59 28.04.2022
2480 Clouds 10 1030 76 10000 3.09 310 10:47 28.04.2022
2481 Clouds 10 1030 77 10000 3.09 290 10:26 28.04.2022
2482 Clouds 6 1030 85 10000 1.54 270 08:44 28.04.2022
2483 Clouds 2 1029 93 10000 1.54 240 07:37 28.04.2022
2484 Clouds 2 1029 96 6000 1.54 230 06:33 28.04.2022
2485 Clouds 1 1029 95 9000 1.54 270 05:39 28.04.2022
2486 Clouds 1 1029 94 7000 1.54 270 04:41 28.04.2022
2487 Clouds 5 1029 83 10000 2.41 350 00:36 28.04.2022
2488 Clouds 7 1028 78 10000 2.63 354 22:49 27.04.2022
2489 Clear 8 1027 67 10000 4.63 360 21:57 27.04.2022
2490 Clouds 8 1027 75 10000 3.21 353 21:27 27.04.2022
2491 Clear 10 1027 61 10000 4.63 360 20:43 27.04.2022
2492 Clouds 11 1026 57 10000 4.12 340 19:39 27.04.2022
2493 Clouds 11 1026 57 10000 4.12 340 19:39 27.04.2022
2494 Clouds 11 1026 57 10000 4.12 340 19:39 27.04.2022
2495 Clouds 11 1026 57 10000 4.12 340 19:39 27.04.2022
2496 Clouds 12 1026 59 10000 4.63 350 19:19 27.04.2022
2497 Clouds 12 1026 54 10000 3.6 350 18:35 27.04.2022
2498 Clouds 13 1026 54 10000 5.14 330 17:26 27.04.2022
2499 Clouds 14 1026 53 10000 3.6 290 15:43 27.04.2022
2500 Clouds 12 1026 57 10000 3.09 0 12:31 27.04.2022
2501 Clouds 11 1026 63 10000 2.57 290 11:23 27.04.2022
2502 Clouds 9 1026 71 10000 3.09 330 10:22 27.04.2022
2503 Fog 2 1024 93 2400 1.54 270 07:29 27.04.2022
2504 Mist 2 1023 95 7000 1.54 280 06:30 27.04.2022
2505 Clear 3 1023 89 10000 2.57 300 02:21 27.04.2022
2506 Clear 4 1022 87 10000 2.57 290 00:57 27.04.2022
2507 Clear 6 1022 85 10000 3.09 300 00:27 27.04.2022
2508 Clear 7 1021 82 10000 3.6 340 23:23 26.04.2022
2509 Clear 7 1021 80 10000 4.12 330 22:43 26.04.2022
2510 Clear 8 1021 76 10000 5.66 340 21:57 26.04.2022
2511 Clear 9 1020 70 10000 5.66 340 20:58 26.04.2022
2512 Clear 10 1019 70 10000 5.66 350 20:36 26.04.2022
2513 Clear 12 1018 65 10000 6.69 350 19:35 26.04.2022
2514 Clear 12 1018 64 10000 5.66 330 18:53 26.04.2022
2515 Clear 13 1018 61 10000 6.17 320 18:19 26.04.2022
2516 Clear 13 1018 62 10000 5.66 330 17:34 26.04.2022
2517 Clouds 15 1017 53 10000 2.06 0 14:58 26.04.2022
2518 Clouds 15 1017 55 10000 2.57 0 13:34 26.04.2022
2519 Clear 14 1017 56 10000 3.6 350 12:34 26.04.2022
2520 Clouds 12 1017 64 10000 3.09 20 10:57 26.04.2022
2521 Clouds 10 1016 74 10000 2.06 40 09:50 26.04.2022
2522 Clouds 7 1016 82 10000 3.09 60 08:29 26.04.2022
2523 Clear 6 1015 88 10000 2.06 40 04:38 26.04.2022
2524 Clear 7 1015 87 10000 2.06 50 03:25 26.04.2022
2525 Clear 8 1015 81 10000 4.63 20 00:39 26.04.2022
2526 Clear 9 1015 79 10000 4.63 10 23:44 25.04.2022
2527 Clear 11 1014 66 10000 4.63 10 21:49 25.04.2022
2528 Clear 11 1013 76 10000 2.06 270 20:49 25.04.2022
2529 Clear 12 1013 69 10000 3.6 200 19:39 25.04.2022
2530 Clear 12 1013 69 10000 3.6 200 19:39 25.04.2022
2531 Clouds 15 1013 48 10000 3.09 350 18:25 25.04.2022
2532 Clouds 15 1013 56 10000 2.57 360 17:39 25.04.2022
2533 Clouds 15 1013 56 10000 2.06 60 16:30 25.04.2022
2534 Clouds 14 1013 56 10000 3.09 70 15:19 25.04.2022
2535 Clouds 14 1013 60 10000 2.06 0 14:22 25.04.2022
2536 Clouds 11 1013 70 10000 3.6 90 12:40 25.04.2022
2537 Clouds 8 1012 83 10000 3.6 70 10:29 25.04.2022
2538 Clouds 7 1012 84 10000 3.6 70 09:36 25.04.2022
2539 Clouds 7 1011 86 10000 3.6 60 07:34 25.04.2022
2540 Rain 7 1010 86 10000 3.6 50 05:53 25.04.2022
2541 Clear 6 1009 87 10000 5.66 20 01:27 25.04.2022
2542 Clear 7 1008 89 10000 5.14 30 23:54 24.04.2022
2543 Clouds 7 1009 90 10000 5.24 34 23:20 24.04.2022
2544 Clear 8 1008 85 10000 4.63 20 22:37 24.04.2022
2545 Clear 8 1008 86 10000 6.17 20 21:54 24.04.2022
2546 Clouds 9 1007 85 10000 7.2 20 21:21 24.04.2022
2547 Rain 9 1007 83 10000 5.66 30 20:41 24.04.2022
2548 Rain 10 1007 78 10000 5.14 30 19:57 24.04.2022
2549 Clouds 11 1006 74 10000 5.66 50 18:37 24.04.2022
2550 Rain 12 1006 67 10000 6.69 50 17:41 24.04.2022
2551 Rain 13 1006 63 10000 6.69 40 17:20 24.04.2022
2552 Rain 13 1006 59 10000 7.72 40 16:51 24.04.2022
2553 Clear 14 1006 53 10000 8.23 50 16:23 24.04.2022
2554 Clouds 14 1006 50 10000 7.72 60 15:39 24.04.2022
2555 Clouds 14 1006 49 10000 7.2 60 14:33 24.04.2022
2556 Clouds 14 1006 53 10000 7.72 60 13:26 24.04.2022
2557 Clouds 14 1006 55 10000 7.72 70 12:46 24.04.2022
2558 Clear 13 1006 59 10000 7.2 50 11:49 24.04.2022
2559 Clear 11 1007 67 10000 6.17 50 10:37 24.04.2022
2560 Clear 10 1007 71 10000 7.2 40 09:43 24.04.2022
2561 Clear 8 1007 72 10000 4.63 50 07:42 24.04.2022
2562 Clear 7 1006 77 10000 5.66 60 05:38 24.04.2022
2563 Clear 9 1007 70 10000 5.66 60 01:58 24.04.2022
2564 Clear 10 1007 71 10000 5.66 70 00:45 24.04.2022
2565 Clear 10 1007 69 10000 6.69 60 23:46 23.04.2022
2566 Clear 11 1007 69 10000 5.66 50 23:25 23.04.2022
2567 Clear 12 1007 63 10000 7.72 60 21:58 23.04.2022
2568 Clear 13 1007 59 10000 7.72 60 21:36 23.04.2022
2569 Clear 15 1007 47 10000 6.17 60 20:59 23.04.2022
2570 Clear 16 1007 50 10000 7.72 90 19:56 23.04.2022
2571 Clear 17 1007 43 10000 7.2 80 19:20 23.04.2022
2572 Clear 17 1007 40 10000 7.72 100 18:53 23.04.2022
2573 Clear 17 1007 38 10000 8.23 80 18:31 23.04.2022
2574 Clear 17 1007 40 10000 7.2 80 17:44 23.04.2022
2575 Clear 17 1007 38 10000 7.2 100 16:44 23.04.2022
2576 Clear 17 1008 39 10000 6.69 90 15:36 23.04.2022
2577 Clear 15 1010 43 10000 7.72 100 12:59 23.04.2022
2578 Clear 13 1010 55 10000 8.23 90 11:24 23.04.2022
2579 Clear 10 1011 75 10000 4.63 90 09:39 23.04.2022
2580 Clear 8 1010 83 10000 5.66 70 07:52 23.04.2022
2581 Clear 10 1010 75 10000 5.66 80 03:56 23.04.2022
2582 Clouds 11 1011 82 10000 5.05 73 01:59 23.04.2022
2583 Clouds 13 1010 66 10000 5.66 90 23:34 22.04.2022
2584 Clouds 13 1009 62 10000 5.66 90 22:40 22.04.2022
2585 Clouds 14 1009 58 10000 5.14 80 21:55 22.04.2022
2586 Clouds 14 1009 58 10000 5.14 80 21:37 22.04.2022
2587 Clear 14 1009 64 10000 6.69 70 20:29 22.04.2022
2588 Clouds 15 1009 62 10000 6.17 70 19:23 22.04.2022
2589 Clear 15 1009 60 10000 8.75 70 18:53 22.04.2022
2590 Clear 15 1009 57 10000 9.26 70 18:20 22.04.2022
2591 Clear 16 1008 50 10000 8.23 80 16:53 22.04.2022
2592 Clouds 16 1009 49 10000 7.72 90 15:57 22.04.2022
2593 Clouds 17 1009 52 10000 7.2 100 15:23 22.04.2022
2594 Clouds 17 1009 52 10000 6.69 90 14:37 22.04.2022
2595 Clear 16 1010 56 10000 6.69 80 13:41 22.04.2022
2596 Clear 14 1010 61 10000 6.69 70 12:35 22.04.2022
2597 Clear 12 1011 70 10000 5.66 60 11:23 22.04.2022
2598 Clear 11 1011 71 10000 6.17 70 10:56 22.04.2022
2599 Clear 10 1011 75 10000 4.12 70 10:32 22.04.2022
2600 Clear 9 1011 78 10000 5.66 60 09:54 22.04.2022
2601 Clear 8 1011 81 10000 5.66 50 08:56 22.04.2022
2602 Clear 8 1011 83 10000 5.66 50 08:36 22.04.2022
2603 Clear 6 1011 85 10000 4.12 50 06:21 22.04.2022
2604 Clear 10 1013 79 10000 3.6 60 00:53 22.04.2022
2605 Clear 10 1013 76 10000 6.17 70 23:31 21.04.2022
2606 Clear 11 1013 75 10000 4.63 70 22:36 21.04.2022
2607 Clear 12 1014 70 10000 3.6 90 21:25 21.04.2022
2608 Clear 13 1014 65 10000 6.17 80 20:29 21.04.2022
2609 Clear 15 1013 58 10000 7.72 70 18:49 21.04.2022
2610 Clear 15 1013 57 10000 7.72 70 18:49 21.04.2022
2611 Clear 15 1013 55 10000 6.69 70 18:26 21.04.2022
2612 Clear 16 1013 49 10000 7.2 60 17:19 21.04.2022
2613 Clear 16 1014 47 10000 5.14 70 15:24 21.04.2022
2614 Clear 16 1014 46 10000 5.66 60 14:52 21.04.2022
2615 Clear 16 1014 46 10000 5.14 90 14:18 21.04.2022
2616 Clear 15 1015 48 10000 5.66 50 13:21 21.04.2022
2617 Clouds 15 1015 57 10000 5.15 59 12:22 21.04.2022
2618 Clear 9 1016 70 10000 4.12 60 09:33 21.04.2022
2619 Clear 8 1016 75 10000 4.12 50 08:38 21.04.2022
2620 Clear 5 1016 83 10000 3.09 40 06:44 21.04.2022
2621 Clear 6 1016 78 10000 3.6 50 03:41 21.04.2022
2622 Clear 7 1016 77 10000 3.6 50 03:22 21.04.2022
2623 Clear 8 1016 75 10000 4.12 60 02:44 21.04.2022
2624 Clear 8 1016 75 10000 4.12 60 02:44 21.04.2022
2625 Clear 10 1016 68 10000 4.12 50 00:35 21.04.2022
2626 Clear 10 1016 63 10000 3.09 60 23:37 20.04.2022
2627 Clouds 10 1017 74 10000 3.61 50 23:18 20.04.2022
2628 Clear 11 1016 58 10000 4.12 70 22:34 20.04.2022
2629 Clear 12 1016 54 10000 4.63 70 21:43 20.04.2022
2630 Clear 14 1016 47 10000 4.12 60 20:44 20.04.2022
2631 Clear 14 1016 47 10000 4.12 60 20:44 20.04.2022
2632 Clear 14 1016 53 10000 4.63 50 20:21 20.04.2022
2633 Clear 14 1016 53 10000 4.63 50 20:21 20.04.2022
2634 Clear 15 1016 44 10000 3.6 70 19:44 20.04.2022
2635 Clear 15 1016 45 10000 5.14 60 18:48 20.04.2022
2636 Clear 16 1017 42 10000 5.14 80 17:50 20.04.2022
2637 Clear 16 1017 39 10000 5.14 80 16:39 20.04.2022
2638 Clear 16 1017 38 10000 5.14 80 15:26 20.04.2022
2639 Clear 14 1019 45 10000 4.63 50 12:46 20.04.2022
2640 Clear 12 1019 56 10000 4.63 70 11:42 20.04.2022
2641 Clear 10 1019 63 10000 4.12 60 10:44 20.04.2022
2642 Clear 8 1019 69 10000 3.6 60 09:31 20.04.2022
2643 Clear 7 1019 73 10000 2.57 60 08:40 20.04.2022
2644 Clear 6 1019 78 10000 2.57 60 08:18 20.04.2022
2645 Clear 4 1019 83 10000 3.6 50 06:23 20.04.2022
2646 Clear 6 1019 74 10000 2.57 50 02:34 20.04.2022
2647 Clear 8 1018 67 10000 4.12 60 00:22 20.04.2022
2648 Clear 10 1018 57 10000 3.6 50 23:19 19.04.2022
2649 Clear 11 1017 57 10000 3.6 50 22:24 19.04.2022
2650 Clear 11 1017 43 10000 4.12 50 21:55 19.04.2022
2651 Clear 13 1016 44 10000 4.12 60 20:59 19.04.2022
2652 Clouds 13 1017 47 10000 4.05 47 20:37 19.04.2022
2653 Clear 15 1016 36 10000 5.66 50 19:43 19.04.2022
2654 Clear 16 1015 40 10000 6.17 50 18:37 19.04.2022
2655 Clear 16 1016 42 10000 6.17 70 17:27 19.04.2022
2656 Clear 16 1015 42 10000 6.17 50 16:43 19.04.2022
2657 Clear 16 1016 42 10000 6.69 70 16:21 19.04.2022
2658 Clear 16 1016 45 10000 6.69 70 14:47 19.04.2022
2659 Clear 14 1017 45 10000 5.14 80 13:34 19.04.2022
2660 Clear 14 1017 46 10000 6.69 80 12:50 19.04.2022
2661 Clear 13 1017 53 10000 7.2 70 11:39 19.04.2022
2662 Clear 11 1017 56 10000 3.6 90 10:23 19.04.2022
2663 Clear 8 1017 69 10000 3.6 70 08:54 19.04.2022
2664 Clear 6 1016 74 10000 2.57 60 04:42 19.04.2022
2665 Clear 7 1017 71 10000 2.57 60 03:25 19.04.2022
2666 Clear 9 1017 70 10000 4.63 90 00:27 19.04.2022
2667 Clear 9 1017 67 10000 3.09 80 23:29 18.04.2022
2668 Clear 12 1017 55 10000 2.57 60 21:30 18.04.2022
2669 Clear 13 1017 53 10000 3.6 60 20:54 18.04.2022
2670 Clear 14 1017 47 10000 2.57 90 20:30 18.04.2022
2671 Clear 17 1017 34 10000 1.54 130 19:42 18.04.2022
2672 Clear 17 1017 34 10000 3.09 150 18:56 18.04.2022
2673 Clear 18 1018 33 10000 1.54 0 17:57 18.04.2022
2674 Clear 18 1018 33 10000 1.54 0 17:33 18.04.2022
2675 Clear 17 1018 34 10000 3.09 150 16:50 18.04.2022
2676 Clear 18 1018 32 10000 3.6 140 16:31 18.04.2022
2677 Clear 17 1020 35 10000 3.09 0 14:45 18.04.2022
2678 Clear 16 1020 38 10000 3.6 140 13:36 18.04.2022
2679 Clear 15 1021 42 10000 5.14 130 12:30 18.04.2022
2680 Clear 13 1021 51 10000 5.14 130 11:34 18.04.2022
2681 Clear 12 1022 51 10000 3.6 140 10:31 18.04.2022
2682 Clear 9 1022 66 10000 2.57 140 09:31 18.04.2022
2683 Clear 5 1021 66 10000 3.09 120 07:54 18.04.2022
2684 Clear 3 1022 73 10000 2.06 100 05:41 18.04.2022
2685 Clear 7 1024 64 10000 3.09 100 00:47 18.04.2022
2686 Clear 9 1024 54 10000 2.57 120 22:41 17.04.2022
2687 Clear 11 1025 51 10000 2.57 120 21:46 17.04.2022
2688 Clear 12 1025 46 10000 2.06 130 21:24 17.04.2022
2689 Clear 13 1025 33 10000 2.57 130 20:41 17.04.2022
2690 Clear 15 1025 29 10000 4.63 130 19:38 17.04.2022
2691 Clear 16 1026 28 10000 4.12 130 17:48 17.04.2022
2692 Clear 15 1027 28 10000 3.6 130 16:27 17.04.2022
2693 Clear 15 1028 28 10000 3.09 140 15:26 17.04.2022
2694 Clear 14 1029 31 10000 4.63 150 14:19 17.04.2022
2695 Clear 14 1029 37 10000 4.12 150 13:18 17.04.2022
2696 Clear 13 1030 42 10000 3.09 130 12:27 17.04.2022
2697 Clear 13 1030 43 10000 3.09 130 12:27 17.04.2022
2698 Clear 10 1031 62 10000 3.6 140 10:46 17.04.2022
2699 Clear 9 1031 63 10000 3.09 120 10:28 17.04.2022
2700 Clear 8 1031 67 10000 3.09 140 09:37 17.04.2022
2701 Clear 6 1032 72 10000 2.57 110 08:53 17.04.2022
2702 Clear 3 1032 80 10000 1.54 90 07:53 17.04.2022
2703 Clear 3 1032 83 10000 2.06 110 04:51 17.04.2022
2704 Clear 6 1033 74 10000 2.57 110 01:38 17.04.2022
2705 Clear 5 1035 86 10000 2.84 117 23:57 16.04.2022
2706 Clear 8 1034 62 10000 2.06 70 22:41 16.04.2022
2707 Clear 9 1034 58 10000 1.54 90 21:41 16.04.2022
2708 Clear 12 1033 40 10000 2.06 110 20:35 16.04.2022
2709 Clear 13 1033 44 10000 3.6 130 19:20 16.04.2022
2710 Clear 14 1033 32 10000 3.6 130 18:32 16.04.2022
2711 Clear 14 1034 35 10000 4.63 140 16:41 16.04.2022
2712 Clear 13 1035 36 10000 3.6 110 15:46 16.04.2022
2713 Clear 12 1035 38 10000 4.12 130 14:57 16.04.2022
2714 Clear 12 1035 41 10000 3.6 130 13:58 16.04.2022
2715 Clear 11 1035 42 10000 3.6 130 13:40 16.04.2022
2716 Clear 11 1036 54 10000 3.09 110 12:33 16.04.2022
2717 Clear 8 1036 63 10000 5.14 120 11:19 16.04.2022
2718 Clear 6 1036 74 10000 5.14 120 09:59 16.04.2022
2719 Clear 5 1036 78 10000 5.14 110 09:18 16.04.2022
2720 Clear 5 1035 80 10000 4.63 120 08:31 16.04.2022
2721 Clear 3 1034 83 10000 5.66 90 06:59 16.04.2022
2722 Clear 3 1034 83 10000 5.66 90 06:59 16.04.2022
2723 Clouds 6 1033 83 10000 6.17 80 04:36 16.04.2022
2724 Clouds 8 1031 89 10000 4.63 50 00:38 16.04.2022
2725 Clouds 9 1031 90 10000 4.63 60 23:34 15.04.2022
2726 Clouds 9 1031 91 10000 3.7 66 22:38 15.04.2022
2727 Clouds 9 1030 85 10000 3.09 350 21:59 15.04.2022
2728 Clouds 10 1030 84 10000 3.09 340 21:20 15.04.2022
2729 Clouds 10 1029 83 10000 3.09 360 20:31 15.04.2022
2730 Clouds 10 1029 85 10000 3.1 59 19:41 15.04.2022
2731 Clouds 10 1029 81 10000 3.6 310 18:55 15.04.2022
2732 Clouds 10 1029 79 10000 4.12 310 18:26 15.04.2022
2733 Clouds 11 1028 79 10000 4.63 300 17:56 15.04.2022
2734 Clouds 11 1028 75 10000 3.6 310 17:23 15.04.2022
2735 Clouds 10 1028 81 10000 3.09 290 16:24 15.04.2022
2736 Clouds 10 1028 79 10000 3.09 330 15:40 15.04.2022
2737 Clouds 9 1028 87 10000 4.12 300 13:55 15.04.2022
2738 Clouds 9 1028 85 10000 4.63 320 12:48 15.04.2022
2739 Clouds 8 1027 86 10000 3.6 330 12:21 15.04.2022
2740 Clouds 8 1027 90 10000 4.63 310 11:42 15.04.2022
2741 Clouds 7 1027 90 10000 4.63 330 10:46 15.04.2022
2742 Clouds 7 1026 91 10000 6.17 320 09:59 15.04.2022
2743 Drizzle 7 1026 93 8000 4.12 310 09:22 15.04.2022
2744 Clouds 7 1025 94 10000 4.63 300 08:39 15.04.2022
2745 Clouds 7 1024 91 10000 3.6 310 06:48 15.04.2022
2746 Clouds 8 1023 88 10000 3.6 330 04:43 15.04.2022
2747 Clouds 8 1023 87 10000 3.6 310 00:34 15.04.2022
2748 Clouds 8 1023 89 10000 4.63 310 23:22 14.04.2022
2749 Clear 8 1022 88 10000 4.63 330 22:45 14.04.2022
2750 Clear 8 1022 87 10000 4.12 330 22:26 14.04.2022
2751 Clear 9 1022 87 10000 4.12 340 21:47 14.04.2022
2752 Clouds 13 1020 77 10000 6.17 300 19:41 14.04.2022
2753 Clear 14 1020 74 10000 7.2 300 19:20 14.04.2022
2754 Clear 15 1020 75 10000 5.66 300 17:45 14.04.2022
2755 Clouds 15 1019 70 10000 5.14 310 16:51 14.04.2022
2756 Clear 16 1019 68 10000 7.2 310 15:52 14.04.2022
2757 Clouds 16 1019 67 10000 4.12 250 13:54 14.04.2022
2758 Clouds 16 1019 69 10000 3.6 270 13:21 14.04.2022
2759 Clouds 15 1019 75 10000 4.12 250 12:32 14.04.2022
2760 Clouds 15 1019 82 10000 3.09 240 11:47 14.04.2022
2761 Clouds 14 1020 87 10000 3.09 250 11:18 14.04.2022
2762 Clouds 13 1019 91 10000 3.6 260 10:31 14.04.2022
2763 Clouds 11 1019 96 7000 1.54 250 09:30 14.04.2022
2764 Mist 10 1019 98 5000 2.06 220 08:24 14.04.2022
2765 Clear 10 1019 97 10000 2.06 210 05:58 14.04.2022
2766 Rain 12 1019 94 6000 2.06 170 01:23 14.04.2022
2767 Rain 13 1019 88 10000 2.06 340 22:38 13.04.2022
2768 Drizzle 13 1019 88 10000 2.06 340 22:38 13.04.2022
2769 Rain 14 1018 84 10000 3.09 360 21:43 13.04.2022
2770 Rain 15 1017 80 10000 4.63 340 20:47 13.04.2022
2771 Clear 17 1017 70 10000 5.14 330 19:54 13.04.2022
2772 Clear 18 1016 64 10000 6.17 310 18:43 13.04.2022
2773 Clouds 19 1016 63 10000 6.69 310 17:52 13.04.2022
2774 Clouds 20 1016 61 10000 5.14 320 17:23 13.04.2022
2775 Clouds 21 1015 52 10000 4.12 270 16:24 13.04.2022
2776 Clouds 22 1015 54 10000 3.6 240 15:31 13.04.2022
2777 Clear 22 1015 49 10000 2.06 210 14:46 13.04.2022
2778 Clear 21 1015 53 10000 2.06 220 13:57 13.04.2022
2779 Clear 20 1015 55 10000 2.06 230 12:58 13.04.2022
2780 Clear 19 1015 60 10000 2.06 280 12:19 13.04.2022
2781 Clear 15 1015 64 10000 1.54 190 10:44 13.04.2022
2782 Clear 10 1013 67 10000 1.54 140 08:50 13.04.2022
2783 Clear 9 1013 68 10000 1.54 120 08:31 13.04.2022
2784 Clear 9 1012 67 10000 2.57 140 06:51 13.04.2022
2785 Clear 9 1012 71 10000 2.57 140 06:25 13.04.2022
2786 Clear 12 1012 57 10000 4.12 130 03:31 13.04.2022
2787 Clear 13 1012 53 10000 4.63 110 00:20 13.04.2022
2788 Clear 14 1012 48 10000 4.63 110 22:46 12.04.2022
2789 Clear 14 1012 55 10000 5.14 120 21:57 12.04.2022
2790 Clear 15 1012 53 10000 5.14 120 20:51 12.04.2022
2791 Clear 15 1012 50 10000 5.14 120 20:33 12.04.2022
2792 Clear 17 1011 39 10000 5.14 120 19:48 12.04.2022
2793 Clear 17 1011 49 10000 7.2 110 19:29 12.04.2022
2794 Clear 18 1012 38 10000 7.2 130 17:59 12.04.2022
2795 Clear 18 1012 39 10000 7.2 130 16:58 12.04.2022
2796 Clear 18 1012 38 10000 7.72 140 16:19 12.04.2022
2797 Clear 18 1013 39 10000 8.23 120 15:26 12.04.2022
2798 Clear 17 1013 41 10000 7.72 130 14:21 12.04.2022
2799 Clear 16 1013 40 10000 7.2 130 13:28 12.04.2022
2800 Clear 15 1014 43 10000 7.2 120 12:49 12.04.2022
2801 Clear 12 1015 60 10000 6.17 120 11:46 12.04.2022
2802 Clear 10 1015 68 10000 5.14 120 10:32 12.04.2022
2803 Clear 6 1015 72 10000 5.14 110 08:57 12.04.2022
2804 Clear 5 1015 78 10000 4.12 100 07:51 12.04.2022
2805 Clear 4 1015 80 10000 3.09 80 05:49 12.04.2022
2806 Clear 4 1015 79 10000 4.12 90 04:55 12.04.2022
2807 Clear 6 1017 75 10000 4.12 70 23:53 11.04.2022
2808 Clear 6 1016 74 10000 3.09 80 22:44 11.04.2022
2809 Clear 7 1016 67 10000 2.57 80 21:37 11.04.2022
2810 Clear 8 1016 66 10000 2.57 70 20:56 11.04.2022
2811 Clear 9 1016 60 10000 3.09 80 20:29 11.04.2022
2812 Clear 12 1016 47 10000 2.06 90 19:42 11.04.2022
2813 Clear 12 1016 53 10000 1.54 130 19:18 11.04.2022
2814 Clear 12 1016 53 10000 1.54 130 19:18 11.04.2022
2815 Clear 13 1016 50 10000 0.51 0 18:47 11.04.2022
2816 Clear 13 1017 41 10000 1.54 110 17:56 11.04.2022
2817 Clear 13 1017 41 10000 1.54 0 16:54 11.04.2022
2818 Clear 13 1018 42 10000 2.06 240 15:54 11.04.2022
2819 Clear 12 1018 46 10000 2.06 0 14:24 11.04.2022
2820 Clear 10 1019 50 10000 2.57 210 12:52 11.04.2022
2821 Clear 10 1019 54 10000 1.03 0 12:31 11.04.2022
2822 Clear 9 1020 64 10000 1.03 0 11:31 11.04.2022
2823 Clear 7 1020 83 10000 0.51 0 10:24 11.04.2022
2824 Clear 2 1020 94 10000 0.51 110 08:56 11.04.2022
2825 Clear 0 1019 93 10000 1.03 160 06:24 11.04.2022
2826 Clear 1 1020 88 10000 1.03 180 01:53 11.04.2022
2827 Clear 3 1020 82 10000 2.06 250 22:37 10.04.2022
2828 Clear 3 1020 84 10000 2.57 280 21:55 10.04.2022
2829 Clear 5 1019 78 10000 3.6 300 21:29 10.04.2022
2830 Clear 6 1019 74 10000 4.63 310 20:31 10.04.2022
2831 Clouds 7 1019 70 10000 6.69 300 19:44 10.04.2022
2832 Clouds 8 1019 68 10000 5.66 310 19:20 10.04.2022
2833 Clouds 9 1019 71 10000 5.66 310 18:42 10.04.2022
2834 Clouds 8 1019 70 10000 6.69 260 17:52 10.04.2022
2835 Rain 8 1019 68 10000 6.69 260 17:33 10.04.2022
2836 Clouds 9 1018 61 10000 7.72 310 16:22 10.04.2022
2837 Clouds 7 1018 73 10000 5.14 300 15:19 10.04.2022
2838 Clouds 7 1018 73 10000 7.2 300 13:58 10.04.2022
2839 Clouds 6 1017 80 10000 7.72 280 12:34 10.04.2022
2840 Clouds 7 1017 79 10000 7.2 270 11:46 10.04.2022
2841 Clouds 6 1017 82 10000 8.23 270 11:28 10.04.2022
2842 Clouds 6 1017 82 10000 7.72 270 10:48 10.04.2022
2843 Clouds 5 1016 86 10000 7.72 270 09:55 10.04.2022
2844 Clear 4 1016 86 10000 7.72 260 09:28 10.04.2022
2845 Clear 3 1015 91 10000 6.17 260 08:22 10.04.2022
2846 Clear 2 1015 91 10000 5.66 260 07:21 10.04.2022
2847 Clouds 2 1014 93 10000 4.12 260 05:27 10.04.2022
2848 Clear 2 1013 90 10000 5.66 260 02:21 10.04.2022
2849 Clear 2 1012 89 10000 6.69 270 00:25 10.04.2022
2850 Clouds 3 1012 86 10000 7.2 270 23:43 09.04.2022
2851 Clouds 4 1012 85 10000 4.64 265 22:45 09.04.2022
2852 Clouds 4 1011 82 10000 4.63 260 21:34 09.04.2022
2853 Clouds 5 1010 77 10000 7.2 290 20:48 09.04.2022
2854 Clear 6 1010 74 10000 6.69 290 20:25 09.04.2022
2855 Clouds 6 1010 74 10000 6.69 290 19:41 09.04.2022
2856 Rain 7 1009 75 10000 7.2 290 18:55 09.04.2022
2857 Clouds 7 1009 72 10000 8.75 290 18:19 09.04.2022
2858 Clouds 8 1008 63 10000 9.26 290 17:39 09.04.2022
2859 Clear 8 1008 69 10000 7.72 280 16:50 09.04.2022
2860 Rain 8 1007 72 10000 6.17 270 15:55 09.04.2022
2861 Rain 8 1007 69 10000 7.2 270 15:29 09.04.2022
2862 Rain 8 1007 73 10000 7.2 290 14:44 09.04.2022
2863 Rain 7 1007 73 10000 6.17 300 14:22 09.04.2022
2864 Rain 7 1006 86 10000 8.55 296 13:18 09.04.2022
2865 Rain 6 1006 86 10000 9.26 280 12:41 09.04.2022
2866 Rain 6 1005 85 10000 8.75 270 11:22 09.04.2022
2867 Clouds 6 1004 85 10000 8.75 260 10:21 09.04.2022
2868 Clouds 5 1003 88 10000 7.72 260 09:38 09.04.2022
2869 Clouds 4 1003 91 10000 7.72 260 08:53 09.04.2022
2870 Clouds 2 1002 94 10000 4.63 250 07:21 09.04.2022
2871 Clouds 3 998 92 10000 4.95 279 02:20 09.04.2022
2872 Clouds 4 996 87 10000 4.63 270 23:45 08.04.2022
2873 Clear 4 996 86 10000 4.12 270 22:55 08.04.2022
2874 Clear 5 996 80 10000 4.63 290 21:29 08.04.2022
2875 Clear 5 996 78 10000 5.14 280 20:39 08.04.2022
2876 Clouds 7 995 68 10000 7.2 290 19:20 08.04.2022
2877 Clouds 7 994 75 10000 6.69 260 18:30 08.04.2022
2878 Clouds 8 994 79 10000 3.09 260 17:52 08.04.2022
2879 Clouds 8 994 83 10000 3.6 250 17:26 08.04.2022
2880 Rain 7 995 83 10000 5.14 260 16:49 08.04.2022
2881 Clouds 7 994 80 10000 6.69 250 15:57 08.04.2022
2882 Clouds 7 995 79 10000 5.14 260 15:26 08.04.2022
2883 Rain 7 994 82 10000 7.22 271 14:33 08.04.2022
2884 Clouds 6 995 88 10000 4.63 270 13:48 08.04.2022
2885 Clouds 7 995 81 10000 7.2 250 13:29 08.04.2022
2886 Clouds 7 995 77 10000 7.72 260 12:18 08.04.2022
2887 Clouds 6 995 86 10000 8.23 260 10:37 08.04.2022
2888 Clouds 4 995 90 10000 6.69 260 09:39 08.04.2022
2889 Clouds 4 995 92 10000 7.72 250 08:58 08.04.2022
2890 Clouds 3 996 95 10000 5.94 255 07:31 08.04.2022
2891 Clear 3 993 92 10000 6.69 250 06:38 08.04.2022
2892 Clouds 6 987 90 10000 11.32 280 01:45 08.04.2022
2893 Clouds 6 984 91 10000 12.35 280 00:26 08.04.2022
2894 Clouds 6 982 88 10000 12.86 250 23:38 07.04.2022
2895 Clouds 6 981 88 10000 12.86 250 22:40 07.04.2022
2896 Clouds 7 981 85 10000 10.8 240 22:22 07.04.2022
2897 Clouds 7 981 86 10000 10.8 250 21:56 07.04.2022
2898 Clouds 6 981 86 10000 9.77 240 21:19 07.04.2022
2899 Clouds 7 981 85 10000 8.75 240 20:42 07.04.2022
2900 Clouds 6 980 89 10000 11.83 250 18:58 07.04.2022
2901 Clouds 7 979 85 10000 13.89 260 17:28 07.04.2022
2902 Clouds 10 978 79 10000 11.32 240 16:45 07.04.2022
2903 Clouds 10 978 70 10000 12.35 240 16:25 07.04.2022
2904 Clouds 11 978 71 10000 10.8 250 15:39 07.04.2022
2905 Clouds 9 979 82 10000 8.75 240 13:51 07.04.2022
2906 Clouds 7 979 85 10000 6.69 220 13:23 07.04.2022
2907 Clouds 5 981 95 10000 6.17 240 11:49 07.04.2022
2908 Clouds 4 981 94 6000 10.8 280 10:40 07.04.2022
2909 Clouds 9 982 90 6090 10.47 210 08:43 07.04.2022
2910 Clouds 9 985 88 10000 7.72 220 06:59 07.04.2022
2911 Clouds 9 987 86 10000 7.72 210 04:36 07.04.2022
2912 Clouds 10 990 85 10000 8.75 220 02:32 07.04.2022
2913 Clouds 10 991 85 10000 8.23 220 00:42 07.04.2022
2914 Clouds 9 992 87 10000 8.75 220 23:28 06.04.2022
2915 Clouds 9 992 87 10000 7.72 210 22:44 06.04.2022
2916 Clouds 9 993 89 10000 8.75 220 22:19 06.04.2022
2917 Clouds 10 993 84 10000 10.29 220 20:47 06.04.2022
2918 Clouds 10 993 84 10000 8.75 220 19:59 06.04.2022
2919 Clouds 10 994 85 10000 8.75 210 19:20 06.04.2022
2920 Clouds 10 994 86 10000 8.23 220 18:48 06.04.2022
2921 Clouds 10 995 88 10000 9.26 230 17:36 06.04.2022
2922 Clouds 10 996 87 10000 8.75 230 16:56 06.04.2022
2923 Clouds 10 996 87 10000 9.26 230 16:32 06.04.2022
2924 Clouds 10 996 87 10000 8.23 230 15:43 06.04.2022
2925 Clouds 10 997 84 10000 10.29 230 13:34 06.04.2022
2926 Clouds 10 998 85 10000 9.77 240 12:30 06.04.2022
2927 Clouds 9 998 85 10000 10.29 230 11:44 06.04.2022
2928 Clouds 10 998 86 10000 9.77 230 10:33 06.04.2022
2929 Clouds 9 998 88 10000 7.72 230 09:59 06.04.2022
2930 Clouds 9 998 92 10000 7.2 230 08:59 06.04.2022
2931 Clouds 8 998 93 10000 6.69 230 07:59 06.04.2022
2932 Clouds 9 998 93 10000 7.2 240 06:40 06.04.2022
2933 Clouds 8 1000 93 10000 6.69 250 01:26 06.04.2022
2934 Drizzle 9 1001 95 10000 6.69 260 23:50 05.04.2022
2935 Clouds 9 1001 95 10000 6.69 250 21:58 05.04.2022
2936 Clouds 9 1001 95 10000 5.66 260 21:18 05.04.2022
2937 Clouds 9 1000 95 10000 6.17 260 20:24 05.04.2022
2938 Clouds 8 1000 97 8000 1.03 0 18:45 05.04.2022
2939 Clouds 8 1001 93 10000 2.06 280 17:22 05.04.2022
2940 Clouds 8 1002 93 10000 2.57 270 16:44 05.04.2022
2941 Drizzle 7 1002 95 6000 2.57 310 15:52 05.04.2022
2942 Drizzle 7 1002 92 3400 3.6 310 15:31 05.04.2022
2943 Clouds 8 1003 85 10000 4.63 280 13:59 05.04.2022
2944 Clouds 8 1003 82 10000 4.63 280 12:41 05.04.2022
2945 Clouds 8 1003 81 10000 5.14 270 11:43 05.04.2022
2946 Clouds 8 1003 81 10000 5.66 280 11:25 05.04.2022
2947 Clouds 6 1003 90 10000 5.66 270 09:41 05.04.2022
2948 Clouds 6 1003 91 10000 4.63 260 08:52 05.04.2022
2949 Clouds 5 1001 91 10000 4.63 310 05:28 05.04.2022
2950 Clouds 7 1000 91 10000 7.72 270 00:39 05.04.2022
2951 Clouds 7 1000 88 10000 7.72 280 22:41 04.04.2022
2952 Clouds 7 999 89 10000 7.2 280 21:57 04.04.2022
2953 Clouds 7 999 89 10000 9.26 280 21:21 04.04.2022
2954 Clouds 8 999 89 10000 8.23 280 20:49 04.04.2022
2955 Clouds 8 998 94 10000 7.72 260 19:39 04.04.2022
2956 Clouds 7 998 95 10000 8.75 250 18:59 04.04.2022
2957 Clouds 7 998 93 8000 9.77 250 17:55 04.04.2022
2958 Rain 6 999 92 10000 12.86 240 16:36 04.04.2022
2959 Clouds 5 999 94 10000 10.8 240 15:43 04.04.2022
2960 Clouds 5 999 94 10000 11.32 240 15:25 04.04.2022
2961 Mist 5 1000 92 5000 11.32 240 14:45 04.04.2022
2962 Clouds 5 1001 88 10000 12.86 230 13:22 04.04.2022
2963 Clouds 4 1003 90 10000 12.86 230 11:49 04.04.2022
2964 Clouds 4 1004 85 10000 12.86 220 11:28 04.04.2022
2965 Clouds 4 1008 84 10000 9.26 230 08:29 04.04.2022
2966 Clear 2 1014 88 10000 5.14 230 03:52 04.04.2022
2967 Clear 2 1017 84 10000 3.6 230 00:41 04.04.2022
2968 Clouds 3 1017 82 10000 3.76 252 22:36 03.04.2022
2969 Clear 2 1018 76 10000 2.57 270 21:45 03.04.2022
2970 Clouds 4 1018 73 10000 4.12 310 20:54 03.04.2022
2971 Clear 6 1018 67 10000 5.66 310 19:49 03.04.2022
2972 Clear 7 1018 63 10000 5.14 300 18:32 03.04.2022
2973 Clouds 7 1018 62 10000 3.6 270 17:47 03.04.2022
2974 Clouds 7 1018 64 10000 5.14 260 16:57 03.04.2022
2975 Clouds 7 1018 63 10000 5.14 260 16:39 03.04.2022
2976 Clouds 7 1019 63 10000 6.69 280 14:48 03.04.2022
2977 Clear 7 1020 66 10000 4.63 270 13:53 03.04.2022
2978 Clouds 7 1020 76 10000 5.14 300 12:42 03.04.2022
2979 Clouds 4 1021 88 10000 4.63 280 11:29 03.04.2022
2980 Clear 2 1020 85 10000 4.12 270 09:38 03.04.2022
2981 Clear 1 1020 85 10000 2.57 260 08:36 03.04.2022
2982 Clear -1 1020 86 10000 2.06 270 05:42 03.04.2022
2983 Clear 0 1021 83 10000 1.03 220 02:53 03.04.2022
2984 Clear 2 1021 67 10000 3.09 360 23:21 02.04.2022
2985 Clear 2 1020 64 10000 3.6 350 22:18 02.04.2022
2986 Clear 3 1020 60 10000 3.6 350 21:47 02.04.2022
2987 Clear 3 1020 64 10000 4.63 360 21:19 02.04.2022
2988 Clear 4 1019 64 10000 4.63 350 20:29 02.04.2022
2989 Clear 5 1018 53 10000 5.66 10 18:27 02.04.2022
2990 Clear 7 1018 46 10000 6.17 20 17:53 02.04.2022
2991 Clear 7 1018 43 10000 6.69 20 16:30 02.04.2022
2992 Clear 6 1018 40 10000 6.69 40 15:23 02.04.2022
2993 Clear 7 1018 42 10000 7.2 40 14:51 02.04.2022
2994 Clear 6 1018 45 10000 6.69 50 13:56 02.04.2022
2995 Clear 6 1018 50 10000 8.23 30 13:19 02.04.2022
2996 Clouds 5 1018 55 10000 8.23 40 11:54 02.04.2022
2997 Clear 3 1017 75 10000 5.66 30 09:48 02.04.2022
2998 Clouds 1 1016 80 10000 5.14 20 06:58 02.04.2022
2999 Clear 2 1015 72 10000 5.66 20 03:59 02.04.2022
3000 Clear 3 1014 63 10000 6.17 40 00:27 02.04.2022
3001 Clear 3 1014 62 10000 5.66 40 23:53 01.04.2022
3002 Clear 3 1014 62 10000 8.23 40 22:24 01.04.2022
3003 Clouds 3 1014 66 10000 6.73 40 20:54 01.04.2022
3004 Clouds 3 1013 65 10000 7.45 38 20:32 01.04.2022
3005 Clouds 4 1012 61 10000 9.77 50 19:39 01.04.2022
3006 Clouds 4 1012 60 10000 9.77 40 19:18 01.04.2022
3007 Clouds 4 1011 60 10000 9.26 40 18:35 01.04.2022
3008 Clouds 4 1011 60 10000 10.29 30 17:36 01.04.2022
3009 Clouds 5 1011 57 10000 9.26 40 15:45 01.04.2022
3010 Clouds 5 1010 60 10000 9.77 40 14:47 01.04.2022
3011 Clouds 5 1010 61 10000 8.75 60 13:38 01.04.2022
3012 Clouds 4 1010 65 10000 7.72 50 12:33 01.04.2022
3013 Clear 4 1010 65 10000 8.23 60 11:45 01.04.2022
3014 Clouds 3 1009 68 10000 8.23 50 10:41 01.04.2022
3015 Clouds 2 1009 69 10000 7.2 40 09:35 01.04.2022
3016 Clouds 2 1007 68 10000 6.17 40 07:24 01.04.2022
3017 Clouds 1 1007 71 10000 6.17 50 04:57 01.04.2022
3018 Clouds 1 1007 69 10000 6.17 50 04:39 01.04.2022
3019 Clouds 1 1007 76 10000 6.69 50 02:37 01.04.2022
3020 Clouds 1 1007 78 7000 7.2 60 01:33 01.04.2022
3021 Clouds 2 1006 70 10000 10.29 70 22:27 31.03.2022
3022 Clouds 3 1005 66 10000 10.8 60 21:38 31.03.2022
3023 Clear 3 1004 59 10000 10.8 70 20:51 31.03.2022
3024 Clear 4 1004 53 10000 9.77 80 20:28 31.03.2022
3025 Clear 5 1003 50 10000 9.77 80 19:21 31.03.2022
3026 Clouds 5 1003 59 10000 7.11 75 18:31 31.03.2022
3027 Clouds 6 1002 61 10000 8.23 70 16:47 31.03.2022
3028 Clear 6 1002 63 10000 9.77 70 15:55 31.03.2022
3029 Clouds 6 1002 71 10000 8.23 70 15:26 31.03.2022
3030 Clouds 5 1002 83 10000 8.75 70 14:45 31.03.2022
3031 Clouds 3 1003 90 10000 7.2 60 13:28 31.03.2022
3032 Clouds 2 1002 95 10000 6.69 70 11:31 31.03.2022
3033 Clouds 1 1002 95 8000 6.69 80 10:26 31.03.2022
3034 Clouds 1 1002 95 8000 6.17 80 09:39 31.03.2022
3035 Mist 0 1002 97 3500 4.63 80 07:48 31.03.2022
3036 Clouds 4 1003 92 10000 4.12 50 03:30 31.03.2022
3037 Clouds 4 1004 86 10000 2.38 32 23:25 30.03.2022
3038 Clear 4 1004 84 10000 1.54 50 21:57 30.03.2022
3039 Clouds 4 1004 83 10000 1.54 50 21:31 30.03.2022
3040 Clear 5 1004 81 10000 2.06 70 20:44 30.03.2022
3041 Clouds 5 1004 76 10000 2.57 70 19:48 30.03.2022
3042 Clouds 6 1004 72 10000 3.6 60 18:44 30.03.2022
3043 Clouds 6 1004 72 10000 3.09 50 17:52 30.03.2022
3044 Clouds 6 1004 73 10000 2.57 60 17:23 30.03.2022
3045 Clouds 5 1004 77 10000 2.57 50 16:41 30.03.2022
3046 Clouds 5 1005 82 10000 2.57 40 16:18 30.03.2022
3047 Drizzle 4 1005 91 10000 3.09 20 14:42 30.03.2022
3048 Clouds 4 1006 94 10000 4.12 20 13:23 30.03.2022
3049 Clouds 4 1006 92 10000 2.06 320 12:32 30.03.2022
3050 Clouds 4 1006 92 10000 1.03 0 10:48 30.03.2022
3051 Drizzle 4 1006 92 10000 1.03 270 09:58 30.03.2022
3052 Clouds 3 1006 94 10000 1.54 260 08:28 30.03.2022
3053 Clouds 3 1006 91 10000 1.03 0 07:29 30.03.2022
3054 Clouds 3 1007 90 10000 1.03 210 05:40 30.03.2022
3055 Clear 3 1008 91 10000 1.54 190 02:40 30.03.2022
3056 Clear 4 1009 81 10000 2.57 340 22:43 29.03.2022
3057 Clouds 5 1010 77 10000 3.6 340 21:52 29.03.2022
3058 Clouds 5 1010 77 10000 3.6 340 21:34 29.03.2022
3059 Clouds 6 1010 75 10000 4.63 350 20:30 29.03.2022
3060 Clouds 7 1010 72 10000 4.63 340 19:34 29.03.2022
3061 Clouds 8 1010 70 10000 4.63 340 18:53 29.03.2022
3062 Clouds 8 1011 70 10000 5.14 330 17:52 29.03.2022
3063 Clouds 8 1011 70 10000 4.63 320 17:19 29.03.2022
3064 Clouds 9 1011 68 10000 5.14 320 16:53 29.03.2022
3065 Clouds 9 1012 69 10000 5.14 330 15:41 29.03.2022
3066 Clouds 9 1012 68 10000 5.66 310 14:43 29.03.2022
3067 Clouds 9 1012 68 10000 5.66 310 14:43 29.03.2022
3068 Clouds 9 1013 69 10000 4.63 310 13:36 29.03.2022
3069 Clouds 9 1013 68 10000 4.12 310 12:39 29.03.2022
3070 Clouds 7 1014 77 10000 5.14 300 11:24 29.03.2022
3071 Clouds 7 1014 81 10000 4.12 310 10:20 29.03.2022
3072 Clouds 6 1014 86 10000 2.57 300 08:52 29.03.2022
3073 Clouds 6 1014 88 10000 2.57 280 06:53 29.03.2022
3074 Clouds 6 1016 90 10000 3.09 290 02:52 29.03.2022
3075 Clouds 7 1018 87 10000 4.63 330 23:40 28.03.2022
3076 Clouds 7 1018 88 10000 4.63 340 22:58 28.03.2022
3077 Clouds 7 1018 88 10000 4.63 340 22:58 28.03.2022
3078 Clouds 7 1018 88 10000 4.63 340 22:35 28.03.2022
3079 Clouds 7 1018 87 10000 5.14 350 21:47 28.03.2022
3080 Clouds 8 1018 83 10000 4.12 350 20:41 28.03.2022
3081 Clouds 8 1018 82 10000 3.6 340 19:59 28.03.2022
3082 Clouds 8 1018 81 10000 3.6 340 19:40 28.03.2022
3083 Clouds 9 1019 79 10000 4.12 320 18:51 28.03.2022
3084 Clouds 9 1020 79 10000 3.6 330 17:41 28.03.2022
3085 Clouds 9 1020 77 10000 4.12 340 16:58 28.03.2022
3086 Clouds 9 1021 78 10000 4.12 290 15:38 28.03.2022
3087 Clouds 9 1022 81 10000 2.06 320 14:24 28.03.2022
3088 Clouds 7 1023 81 10000 3.09 280 13:26 28.03.2022
3089 Clouds 6 1024 87 10000 2.57 340 11:53 28.03.2022
3090 Clouds 5 1024 93 10000 3.6 350 10:39 28.03.2022
3091 Clouds 5 1025 93 10000 3.09 340 09:21 28.03.2022
3092 Clouds 5 1025 95 10000 3.09 350 08:45 28.03.2022
3093 Clouds 5 1025 95 8000 3.09 320 08:21 28.03.2022
3094 Clouds 5 1025 95 6000 2.57 310 07:26 28.03.2022
3095 Mist 5 1028 97 5000 3.09 350 02:46 28.03.2022
3096 Clear 6 1029 88 10000 2.57 330 22:57 27.03.2022
3097 Clear 7 1029 84 10000 3.6 350 21:55 27.03.2022
3098 Clear 8 1029 78 10000 4.12 350 21:36 27.03.2022
3099 Clear 9 1029 78 10000 3.6 340 20:42 27.03.2022
3100 Clear 11 1029 74 10000 2.57 290 19:44 27.03.2022
3101 Clear 13 1029 68 10000 3.09 300 18:47 27.03.2022
3102 Clear 14 1029 68 10000 1.54 0 18:25 27.03.2022
3103 Clear 14 1030 67 10000 2.57 20 17:37 27.03.2022
3104 Clear 13 1031 68 10000 3.09 360 15:55 27.03.2022
3105 Clouds 11 1032 75 10000 1.03 0 14:22 27.03.2022
3106 Haze 9 1032 76 5000 1.03 0 13:33 27.03.2022
3107 Mist 7 1033 87 5000 1.54 300 11:46 27.03.2022
3108 Clouds 6 1032 90 9000 1.03 0 10:23 27.03.2022
3109 Clouds 5 1032 93 6000 1.03 0 07:55 27.03.2022
3110 Clouds 6 1032 91 10000 1.54 300 05:18 27.03.2022
3111 Clear 5 1032 92 10000 2.21 332 00:37 27.03.2022
3112 Clouds 6 1033 90 10000 3.6 360 22:58 26.03.2022
3113 Clouds 6 1032 90 10000 4.12 340 22:27 26.03.2022
3114 Clouds 7 1032 89 10000 4.63 310 21:31 26.03.2022
3115 Clouds 8 1031 89 10000 4.12 320 19:46 26.03.2022
3116 Clouds 9 1031 86 10000 4.63 340 18:56 26.03.2022
3117 Clouds 9 1031 85 10000 5.66 350 17:44 26.03.2022
3118 Clouds 9 1031 85 10000 5.66 350 17:44 26.03.2022
3119 Clouds 9 1031 85 10000 5.66 350 17:44 26.03.2022
3120 Clouds 10 1030 84 10000 5.66 340 17:22 26.03.2022
3121 Clouds 13 1030 75 10000 6.69 300 15:52 26.03.2022
3122 Clouds 14 1031 68 10000 8.23 310 14:21 26.03.2022
3123 Clouds 14 1031 66 10000 7.2 310 13:51 26.03.2022
3124 Clouds 14 1031 65 10000 6.69 310 12:41 26.03.2022
3125 Clear 13 1031 68 10000 5.66 300 11:18 26.03.2022
3126 Clear 9 1031 76 7000 3.6 290 09:22 26.03.2022
3127 Mist 6 1031 84 4200 1.03 270 08:27 26.03.2022
3128 Mist 2 1030 93 5000 1.54 250 05:53 26.03.2022
3129 Mist 3 1031 90 5000 1.54 260 03:32 26.03.2022
3130 Clear 5 1031 81 10000 2.06 280 22:57 25.03.2022
3131 Clear 9 1031 66 10000 2.57 340 20:59 25.03.2022
3132 Clear 10 1030 62 10000 3.6 340 20:38 25.03.2022
3133 Clear 11 1030 53 10000 4.63 350 19:27 25.03.2022
3134 Clear 13 1029 45 10000 4.12 340 18:37 25.03.2022
3135 Clear 15 1029 51 10000 4.12 330 17:34 25.03.2022
3136 Clear 16 1030 45 10000 2.57 350 16:41 25.03.2022
3137 Clear 16 1030 46 10000 2.57 340 15:50 25.03.2022
3138 Clear 16 1031 43 10000 2.06 320 13:40 25.03.2022
3139 Clear 15 1031 50 10000 1.54 0 12:20 25.03.2022
3140 Clear 9 1031 72 10000 1.03 0 09:47 25.03.2022
3141 Clouds 8 1031 85 6000 1.03 0 09:19 25.03.2022
3142 Fog 0 1030 100 150 1.03 240 07:48 25.03.2022
3143 Fog 1 1030 91 250 0.51 0 07:21 25.03.2022
3144 Fog 1 1029 94 1500 1.03 230 04:35 25.03.2022
3145 Mist 5 1029 91 5000 0.51 0 00:29 25.03.2022
3146 Clear 6 1029 82 10000 2.06 300 22:29 24.03.2022
3147 Clear 8 1029 73 10000 2.06 310 21:33 24.03.2022
3148 Clear 11 1028 60 10000 2.06 90 19:50 24.03.2022
3149 Clear 14 1028 53 10000 1.03 90 18:49 24.03.2022
3150 Clear 17 1028 45 10000 0.51 0 17:39 24.03.2022
3151 Clear 17 1028 40 10000 1.03 0 16:44 24.03.2022
3152 Clear 17 1029 41 10000 1.54 120 14:59 24.03.2022
3153 Clear 17 1029 38 10000 1.54 120 14:41 24.03.2022
3154 Clear 17 1029 38 10000 1.54 120 14:41 24.03.2022
3155 Clear 17 1029 40 10000 2.06 160 13:54 24.03.2022
3156 Clear 16 1030 41 10000 2.57 150 12:39 24.03.2022
3157 Clear 14 1030 56 10000 2.06 140 11:31 24.03.2022
3158 Clear 9 1030 60 10000 2.06 150 09:36 24.03.2022
3159 Clear 7 1030 72 10000 1.54 80 08:40 24.03.2022
3160 Clear 3 1029 85 8000 1.54 60 06:19 24.03.2022
3161 Clear 6 1030 73 10000 1.54 60 01:28 24.03.2022
3162 Clear 9 1030 64 10000 3.09 80 22:29 23.03.2022
3163 Clear 11 1030 49 10000 1.54 70 21:25 23.03.2022
3164 Clear 11 1030 48 10000 1.54 60 20:47 23.03.2022
3165 Clear 13 1030 38 10000 2.06 70 19:43 23.03.2022
3166 Clear 13 1030 38 10000 2.06 70 19:43 23.03.2022
3167 Clear 16 1030 36 10000 0.51 0 18:22 23.03.2022
3168 Clear 18 1030 30 10000 1.54 150 17:36 23.03.2022
3169 Clear 18 1030 31 10000 1.54 220 16:20 23.03.2022
3170 Clear 17 1031 26 10000 2.06 0 14:50 23.03.2022
3171 Clear 17 1031 27 10000 3.09 160 14:21 23.03.2022
3172 Clear 16 1032 26 10000 3.09 110 12:24 23.03.2022
3173 Clear 11 1032 45 10000 1.03 0 09:38 23.03.2022
3174 Clear 2 1032 73 10000 1.03 50 06:41 23.03.2022
3175 Clear 4 1031 63 10000 1.03 70 04:31 23.03.2022
3176 Clear 8 1032 52 10000 1.54 80 00:29 23.03.2022
3177 Clear 11 1032 49 10000 2.57 90 22:33 22.03.2022
3178 Clear 13 1032 43 10000 2.57 110 21:29 22.03.2022
3179 Clear 11 1031 61 10000 3.09 90 20:39 22.03.2022
3180 Clear 14 1031 47 10000 1.03 0 19:41 22.03.2022
3181 Clear 13 1031 58 10000 0 0 19:18 22.03.2022
3182 Clear 16 1031 50 10000 1.03 190 18:22 22.03.2022
3183 Clear 17 1031 46 10000 2.06 170 17:29 22.03.2022
3184 Clear 18 1031 42 10000 2.57 130 16:21 22.03.2022
3185 Clear 18 1032 41 10000 2.57 150 15:22 22.03.2022
3186 Clear 18 1032 35 10000 2.06 120 14:46 22.03.2022
3187 Clear 18 1032 35 10000 2.57 110 14:27 22.03.2022
3188 Clear 18 1032 38 10000 3.09 150 13:27 22.03.2022
3189 Clear 15 1033 50 10000 1.03 0 11:52 22.03.2022
3190 Clear 15 1033 50 10000 1.03 0 11:52 22.03.2022
3191 Clear 12 1033 59 10000 1.54 140 10:40 22.03.2022
3192 Clear 6 1033 60 10000 2.57 130 08:29 22.03.2022
3193 Clear 4 1032 62 10000 2.06 120 05:25 22.03.2022
3194 Clear 5 1032 61 10000 1.54 110 03:47 22.03.2022
3195 Clear 7 1032 56 10000 2.06 100 00:28 22.03.2022
3196 Clear 9 1032 51 10000 3.6 120 22:42 21.03.2022
3197 Clear 10 1032 50 10000 3.6 110 21:18 21.03.2022
3198 Clear 11 1032 49 10000 3.6 120 20:40 21.03.2022
3199 Clear 11 1032 49 10000 3.6 110 19:58 21.03.2022
3200 Clear 12 1031 48 10000 2.06 100 19:34 21.03.2022
3201 Clear 13 1031 50 10000 4.12 130 18:31 21.03.2022
3202 Clear 15 1031 45 10000 3.6 160 17:19 21.03.2022
3203 Clear 15 1031 44 10000 3.6 130 16:45 21.03.2022
3204 Clear 15 1032 43 10000 3.6 130 15:59 21.03.2022
3205 Clear 15 1032 43 10000 3.09 140 15:20 21.03.2022
3206 Clear 14 1032 40 10000 3.09 140 14:26 21.03.2022
3207 Clear 13 1032 41 10000 3.09 130 12:43 21.03.2022
3208 Clear 12 1032 48 10000 4.63 140 11:54 21.03.2022
3209 Clear 10 1032 51 10000 5.14 130 10:44 21.03.2022
3210 Clear 6 1033 58 10000 3.6 130 08:56 21.03.2022
3211 Clear 6 1032 57 10000 2.57 120 06:59 21.03.2022
3212 Clear 5 1031 56 10000 4.12 120 03:29 21.03.2022
3213 Clear 7 1031 50 10000 1.54 150 00:35 21.03.2022
3214 Clear 9 1030 39 10000 6.17 120 22:55 20.03.2022
3215 Clear 10 1030 38 10000 6.69 120 21:57 20.03.2022
3216 Clear 10 1030 37 10000 7.2 120 21:30 20.03.2022
3217 Clear 11 1030 36 10000 7.2 120 20:47 20.03.2022
3218 Clear 11 1030 36 10000 7.2 120 20:24 20.03.2022
3219 Clear 11 1030 35 10000 6.69 110 19:43 20.03.2022
3220 Clear 12 1030 34 10000 7.2 120 18:44 20.03.2022
3221 Clear 12 1029 37 10000 8.23 120 17:38 20.03.2022
3222 Clear 13 1029 36 10000 10.29 120 16:59 20.03.2022
3223 Clear 13 1029 36 10000 10.8 120 15:56 20.03.2022
3224 Clear 13 1030 30 10000 11.32 120 14:36 20.03.2022
3225 Clear 12 1031 32 10000 11.32 120 13:31 20.03.2022
3226 Clear 10 1032 45 10000 8.75 110 11:51 20.03.2022
3227 Clear 6 1034 60 10000 6.17 100 09:58 20.03.2022
3228 Clear 2 1035 77 10000 6.17 90 07:51 20.03.2022
3229 Clear 2 1036 82 10000 4.63 80 05:49 20.03.2022
3230 Clear 3 1038 85 10000 6.17 70 03:18 20.03.2022
3231 Clear 4 1039 82 10000 6.17 70 00:51 20.03.2022
3232 Clear 5 1040 80 10000 6.69 60 23:37 19.03.2022
3233 Clear 6 1040 80 10000 7.2 60 21:58 19.03.2022
3234 Clear 6 1041 78 10000 7.2 60 21:25 19.03.2022
3235 Clear 8 1041 66 10000 7.2 60 19:22 19.03.2022
3236 Clear 9 1040 63 10000 7.72 70 18:38 19.03.2022
3237 Clear 10 1041 52 10000 7.2 80 17:48 19.03.2022
3238 Clear 11 1041 52 10000 9.77 80 16:46 19.03.2022
3239 Clear 12 1042 52 10000 8.23 70 15:26 19.03.2022
3240 Clear 11 1043 49 10000 8.75 70 13:45 19.03.2022
3241 Clear 11 1044 51 10000 7.72 70 12:43 19.03.2022
3242 Clear 11 1045 56 10000 6.69 70 12:20 19.03.2022
3243 Clear 10 1045 64 10000 5.14 80 11:45 19.03.2022
3244 Clear 5 1046 77 10000 3.6 60 09:22 19.03.2022
3245 Clear 2 1047 90 10000 2.06 70 04:53 19.03.2022
3246 Clear 4 1047 88 10000 1.54 60 02:33 19.03.2022
3247 Clear 6 1047 84 10000 3.6 60 23:52 18.03.2022
3248 Clear 6 1046 83 10000 4.12 40 22:58 18.03.2022
3249 Clear 7 1046 78 10000 4.63 30 22:21 18.03.2022
3250 Clouds 8 1046 82 10000 3.33 15 20:26 18.03.2022
3251 Clouds 8 1045 86 10000 3.49 10 19:25 18.03.2022
3252 Clouds 11 1044 75 10000 3.6 20 18:58 18.03.2022
3253 Clouds 13 1044 65 10000 3.6 50 16:56 18.03.2022
3254 Clouds 13 1044 64 10000 3.6 50 16:34 18.03.2022
3255 Clouds 14 1044 61 10000 1.54 0 14:29 18.03.2022
3256 Clear 13 1044 60 10000 1.03 0 13:41 18.03.2022
3257 Clouds 11 1044 74 10000 1.54 310 11:43 18.03.2022
3258 Clouds 8 1043 81 10000 1.54 230 10:27 18.03.2022
3259 Clear 3 1042 87 10000 0.51 0 08:50 18.03.2022
3260 Mist -1 1041 94 10000 1.54 150 07:26 18.03.2022
3261 Fog -1 1040 94 1000 1.03 180 05:20 18.03.2022
3262 Clear 0 1038 96 10000 1.03 120 01:55 18.03.2022
3263 Clear 0 1037 95 10000 0.51 220 00:20 18.03.2022
3264 Clear 1 1037 92 10000 0.51 260 22:54 17.03.2022
3265 Clear 2 1037 89 10000 1.03 270 22:20 17.03.2022
3266 Clear 2 1036 90 10000 1.03 250 21:46 17.03.2022
3267 Clear 3 1035 86 10000 2.06 310 20:58 17.03.2022
3268 Clear 4 1034 82 10000 2.57 310 20:30 17.03.2022
3269 Clear 5 1034 79 10000 2.57 310 19:39 17.03.2022
3270 Clear 7 1033 73 10000 4.63 310 18:55 17.03.2022
3271 Clear 9 1032 69 10000 6.17 320 17:47 17.03.2022
3272 Clouds 10 1030 66 10000 7.2 300 16:29 17.03.2022
3273 Clouds 10 1030 71 10000 5.66 290 15:43 17.03.2022
3274 Clouds 10 1030 73 10000 5.66 290 15:21 17.03.2022
3275 Clouds 8 1029 83 10000 8.23 300 13:48 17.03.2022
3276 Clouds 8 1027 87 10000 6.17 280 12:48 17.03.2022
3277 Clouds 8 1026 90 10000 6.69 270 11:47 17.03.2022
3278 Clouds 8 1025 91 10000 5.14 270 11:22 17.03.2022
3279 Clouds 7 1023 91 7000 3.09 170 09:47 17.03.2022
3280 Clouds 8 1022 83 10000 5.66 150 08:31 17.03.2022
3281 Clear 8 1021 78 10000 5.66 140 07:32 17.03.2022
3282 Clear 8 1021 77 10000 6.69 130 05:39 17.03.2022
3283 Clear 8 1021 77 10000 6.69 130 05:39 17.03.2022
3284 Clear 9 1023 75 10000 4.63 120 00:45 17.03.2022
3285 Clear 9 1023 75 10000 5.66 120 22:59 16.03.2022
3286 Clear 8 1023 75 10000 5.66 120 22:40 16.03.2022
3287 Clear 8 1023 75 10000 6.17 120 22:19 16.03.2022
3288 Clear 9 1024 69 10000 4.63 110 21:29 16.03.2022
3289 Clear 10 1024 63 10000 5.14 110 19:27 16.03.2022
3290 Clear 11 1024 62 10000 5.14 110 18:58 16.03.2022
3291 Clear 11 1024 58 10000 5.66 110 18:24 16.03.2022
3292 Clear 12 1025 55 10000 5.66 110 17:37 16.03.2022
3293 Clear 13 1025 58 10000 5.66 120 16:50 16.03.2022
3294 Clear 13 1026 61 10000 5.14 120 15:53 16.03.2022
3295 Clear 13 1026 58 10000 5.66 140 14:24 16.03.2022
3296 Clear 12 1027 65 10000 6.69 120 13:24 16.03.2022
3297 Clear 11 1028 82 10000 4.12 130 11:53 16.03.2022
3298 Clouds 9 1028 87 10000 4.12 120 11:20 16.03.2022
3299 Clear 7 1028 92 10000 4.63 110 10:18 16.03.2022
3300 Clouds 5 1027 96 8000 2.06 110 08:51 16.03.2022
3301 Clouds 5 1026 95 9000 2.06 80 04:45 16.03.2022
3302 Clear 5 1025 93 10000 0.51 160 00:48 16.03.2022
3303 Clear 7 1024 92 10000 3.09 80 22:38 15.03.2022
3304 Clear 7 1025 91 10000 2.57 70 21:52 15.03.2022
3305 Clear 7 1024 88 10000 3.6 70 20:18 15.03.2022
3306 Clouds 9 1024 81 10000 2.06 50 18:54 15.03.2022
3307 Clear 10 1024 86 10000 3.09 40 16:57 15.03.2022
3308 Clear 10 1024 85 10000 2.57 40 16:28 15.03.2022
3309 Clear 11 1024 84 10000 1.54 70 14:58 15.03.2022
3310 Clear 10 1024 84 10000 1.54 70 14:39 15.03.2022
3311 Clear 10 1025 88 10000 1.54 90 13:38 15.03.2022
3312 Clouds 8 1026 93 8000 2.57 60 12:24 15.03.2022
3313 Clouds 6 1027 96 6000 1.54 90 11:31 15.03.2022
3314 Mist 5 1027 95 4000 1.54 150 09:40 15.03.2022
3315 Fog 3 1027 93 2000 0.51 120 08:42 15.03.2022
3316 Fog 1 1028 100 600 1.54 150 07:51 15.03.2022
3317 Fog 1 1027 98 900 1.03 0 07:28 15.03.2022
3318 Fog 1 1028 98 400 1.54 140 03:30 15.03.2022
3319 Fog 3 1028 97 400 0 0 23:44 14.03.2022
3320 Fog 3 1028 97 400 0 0 23:23 14.03.2022
3321 Fog 4 1028 97 400 1.03 170 22:26 14.03.2022
3322 Fog 5 1028 97 800 1.54 190 21:30 14.03.2022
3323 Mist 6 1027 95 4000 2.57 200 20:48 14.03.2022
3324 Clouds 6 1027 97 6000 2.06 200 20:20 14.03.2022
3325 Clouds 8 1026 96 10000 1.19 227 18:55 14.03.2022
3326 Clouds 9 1025 95 8000 4.12 260 17:54 14.03.2022
3327 Clouds 9 1025 94 10000 5.14 270 16:58 14.03.2022
3328 Clouds 9 1024 94 8000 3.09 240 15:56 14.03.2022
3329 Clouds 9 1024 92 9000 3.09 200 14:40 14.03.2022
3330 Clouds 8 1023 93 10000 2.57 250 12:29 14.03.2022
3331 Mist 6 1023 91 4500 2.06 220 10:54 14.03.2022
3332 Clouds 5 1022 90 10000 2.06 200 09:52 14.03.2022
3333 Clouds 4 1022 86 10000 1.54 220 09:22 14.03.2022
3334 Clouds 4 1022 81 10000 1.54 190 08:55 14.03.2022
3335 Clouds 4 1021 61 10000 2.06 160 07:34 14.03.2022
3336 Clear 5 1020 54 10000 2.06 130 05:46 14.03.2022
3337 Clear 6 1018 49 10000 2.57 130 01:55 14.03.2022
3338 Clear 6 1018 48 10000 4.12 130 01:28 14.03.2022
3339 Clear 8 1018 39 10000 5.66 120 22:44 13.03.2022
3340 Clear 8 1017 38 10000 4.63 110 21:31 13.03.2022
3341 Clear 9 1017 37 10000 5.14 110 20:56 13.03.2022
3342 Clear 9 1017 36 10000 5.14 100 20:31 13.03.2022
3343 Clear 10 1017 35 10000 4.12 100 19:52 13.03.2022
3344 Clear 10 1017 35 10000 3.6 110 19:28 13.03.2022
3345 Clear 11 1016 34 10000 5.14 110 18:59 13.03.2022
3346 Clear 11 1016 32 10000 5.14 110 18:35 13.03.2022
3347 Clear 13 1016 30 10000 4.12 120 17:46 13.03.2022
3348 Clear 14 1016 28 10000 5.66 140 17:20 13.03.2022
3349 Clear 14 1016 33 10000 6.69 130 16:30 13.03.2022
3350 Clear 14 1016 33 10000 7.2 140 15:47 13.03.2022
3351 Clear 13 1016 32 10000 6.17 130 14:56 13.03.2022
3352 Clear 13 1016 28 10000 6.69 120 13:45 13.03.2022
3353 Clear 12 1017 30 10000 5.66 130 12:57 13.03.2022
3354 Clear 10 1017 39 10000 5.66 130 11:53 13.03.2022
3355 Clear 10 1017 39 10000 5.66 130 11:32 13.03.2022
3356 Clear 7 1018 47 10000 5.14 130 10:47 13.03.2022
3357 Clear 5 1018 49 10000 4.12 120 10:24 13.03.2022
3358 Clear 4 1018 52 10000 4.63 130 09:41 13.03.2022
3359 Clear 2 1018 50 10000 3.6 110 08:47 13.03.2022
3360 Clear 1 1018 59 10000 3.6 110 07:47 13.03.2022
3361 Clear 1 1017 59 10000 2.57 120 05:42 13.03.2022
3362 Clear 3 1018 54 10000 3.6 110 02:43 13.03.2022
3363 Clear 5 1018 52 10000 3.6 120 00:20 13.03.2022
3364 Clear 6 1019 42 10000 4.63 110 22:37 12.03.2022
3365 Clear 8 1019 47 10000 5.66 110 20:54 12.03.2022
3366 Clear 8 1019 51 10000 4.12 100 19:56 12.03.2022
3367 Clear 9 1019 44 10000 4.12 100 19:38 12.03.2022
3368 Clear 11 1019 42 10000 3.6 100 18:27 12.03.2022
3369 Clear 12 1019 41 10000 4.12 110 17:34 12.03.2022
3370 Clear 13 1019 45 10000 4.12 140 16:24 12.03.2022
3371 Clear 13 1019 44 10000 4.12 130 15:24 12.03.2022
3372 Clear 12 1019 43 10000 5.66 130 14:51 12.03.2022
3373 Clear 11 1020 38 10000 5.66 140 13:47 12.03.2022
3374 Clear 9 1020 42 10000 6.17 130 11:57 12.03.2022
3375 Clear 9 1020 41 10000 6.17 130 11:38 12.03.2022
3376 Clear 7 1020 44 10000 5.66 130 10:58 12.03.2022
3377 Clear 4 1020 45 10000 6.17 130 09:46 12.03.2022
3378 Clear 3 1020 48 10000 6.17 130 09:20 12.03.2022
3379 Clear 1 1019 51 10000 6.69 130 07:29 12.03.2022
3380 Clear 2 1018 50 10000 6.17 120 03:54 12.03.2022
3381 Clear 4 1019 42 10000 5.66 130 00:21 12.03.2022
3382 Clear 4 1019 47 10000 6.69 120 23:19 11.03.2022
3383 Clear 6 1019 39 10000 7.2 120 21:43 11.03.2022
3384 Clear 6 1019 38 10000 6.69 130 20:57 11.03.2022
3385 Clear 6 1019 38 10000 6.69 130 20:37 11.03.2022
3386 Clear 6 1019 38 10000 6.69 130 20:37 11.03.2022
3387 Clear 7 1018 34 10000 8.23 120 19:52 11.03.2022
3388 Clear 7 1018 34 10000 7.72 120 19:26 11.03.2022
3389 Clear 9 1018 32 10000 8.23 120 17:34 11.03.2022
3390 Clear 10 1018 30 10000 10.8 120 16:42 11.03.2022
3391 Clear 9 1019 37 10000 10.29 120 15:57 11.03.2022
3392 Clear 9 1019 30 10000 8.75 120 14:21 11.03.2022
3393 Clear 8 1021 34 10000 9.26 120 12:53 11.03.2022
3394 Clear 7 1021 37 10000 9.26 120 12:21 11.03.2022
3395 Clear 7 1021 46 10000 9.26 110 11:55 11.03.2022
3396 Clear 4 1022 57 10000 6.69 130 10:18 11.03.2022
3397 Clear 1 1023 67 10000 6.17 120 08:57 11.03.2022
3398 Clear 1 1023 68 10000 6.69 120 08:24 11.03.2022
3399 Clear 1 1023 70 10000 6.17 120 07:46 11.03.2022
3400 Clear 1 1023 71 10000 6.17 110 05:49 11.03.2022
3401 Clear 2 1023 70 10000 5.66 120 04:22 11.03.2022
3402 Clear 6 1024 66 10000 6.69 120 23:49 10.03.2022
3403 Clear 7 1024 67 10000 7.2 120 22:31 10.03.2022
3404 Clear 8 1025 61 10000 6.69 120 21:48 10.03.2022
3405 Clear 8 1024 61 10000 5.66 120 21:20 10.03.2022
3406 Clear 9 1025 47 10000 5.66 110 19:48 10.03.2022
3407 Clear 9 1025 49 10000 6.17 110 18:56 10.03.2022
3408 Clear 11 1025 45 10000 6.69 120 17:36 10.03.2022
3409 Clear 13 1025 44 10000 6.17 130 16:31 10.03.2022
3410 Clear 14 1025 44 10000 6.17 120 15:20 10.03.2022
3411 Clear 13 1026 41 10000 5.66 130 13:30 10.03.2022
3412 Clear 12 1027 44 10000 4.63 140 12:34 10.03.2022
3413 Clear 10 1027 55 10000 5.66 140 11:20 10.03.2022
3414 Clear 4 1027 63 10000 4.63 130 09:27 10.03.2022
3415 Clear 1 1027 71 10000 2.06 130 07:43 10.03.2022
3416 Clear 2 1026 70 10000 2.57 120 04:47 10.03.2022
3417 Clear 2 1026 68 10000 1.54 110 01:53 10.03.2022
3418 Clear 5 1025 57 10000 3.6 120 23:29 09.03.2022
3419 Clear 6 1025 50 10000 3.6 110 21:54 09.03.2022
3420 Clear 7 1025 49 10000 3.6 110 21:34 09.03.2022
3421 Clear 7 1024 45 10000 3.09 120 19:56 09.03.2022
3422 Clear 11 1023 32 10000 3.09 120 18:34 09.03.2022
3423 Clear 12 1023 35 10000 5.66 140 17:27 09.03.2022
3424 Clear 13 1023 32 10000 5.14 120 16:34 09.03.2022
3425 Clear 13 1024 36 10000 5.66 140 15:31 09.03.2022
3426 Clear 12 1024 40 10000 3.6 130 13:54 09.03.2022
3427 Clear 11 1025 42 10000 3.6 140 12:56 09.03.2022
3428 Clear 11 1025 47 10000 3.6 140 12:18 09.03.2022
3429 Clear 9 1025 53 10000 2.57 140 11:36 09.03.2022
3430 Clear 7 1025 61 10000 2.06 130 10:39 09.03.2022
3431 Clear 2 1025 71 10000 2.57 130 08:59 09.03.2022
3432 Clear 0 1024 77 10000 2.06 130 08:25 09.03.2022
3433 Clear 0 1024 78 10000 2.57 120 03:50 09.03.2022
3434 Clear 1 1024 75 10000 2.06 110 00:47 09.03.2022
3435 Clear 3 1024 72 10000 2.57 140 23:18 08.03.2022
3436 Clear 3 1024 70 10000 3.6 130 22:44 08.03.2022
3437 Clear 5 1023 66 10000 3.09 110 21:24 08.03.2022
3438 Clear 4 1023 66 10000 3.6 120 20:49 08.03.2022
3439 Clear 5 1023 63 10000 3.09 120 19:53 08.03.2022
3440 Clear 7 1023 59 10000 4.12 120 18:45 08.03.2022
3441 Clear 9 1023 55 10000 5.14 130 17:40 08.03.2022
3442 Clear 10 1023 43 10000 6.17 140 16:33 08.03.2022
3443 Clear 10 1024 54 10000 5.14 130 14:21 08.03.2022
3444 Clear 9 1025 53 10000 4.63 130 12:44 08.03.2022
3445 Clear 8 1025 66 10000 3.6 140 11:53 08.03.2022
3446 Clear 8 1025 66 10000 3.6 140 11:34 08.03.2022
3447 Clear 4 1026 69 10000 2.06 150 10:22 08.03.2022
3448 Clear -1 1026 81 10000 1.03 0 08:28 08.03.2022
3449 Clear -2 1025 89 10000 1.03 110 05:47 08.03.2022
3450 Clear -1 1027 85 10000 0.51 0 00:43 08.03.2022
3451 Clear 0 1027 83 10000 0 0 22:24 07.03.2022
3452 Clear 1 1026 79 10000 0.51 0 21:35 07.03.2022
3453 Clear 1 1026 76 10000 0.51 0 20:54 07.03.2022
3454 Clear 3 1026 67 10000 0.51 0 20:22 07.03.2022
3455 Clear 3 1026 72 10000 1.03 60 19:38 07.03.2022
3456 Clear 5 1026 56 10000 1.54 80 18:47 07.03.2022
3457 Clouds 6 1026 65 10000 3.09 70 17:58 07.03.2022
3458 Clouds 8 1026 49 10000 3.6 80 16:56 07.03.2022
3459 Clouds 8 1026 51 10000 1.54 80 16:30 07.03.2022
3460 Clear 7 1028 61 10000 3.6 40 14:40 07.03.2022
3461 Clouds 4 1028 80 10000 1.03 0 12:33 07.03.2022
3462 Fog 0 1029 100 200 0.51 0 10:45 07.03.2022
3463 Fog 0 1028 100 150 0.51 0 10:24 07.03.2022
3464 Fog -1 1028 97 100 1.54 270 07:24 07.03.2022
3465 Clear -2 1028 94 10000 1.54 280 00:24 07.03.2022
3466 Clear -2 1028 94 10000 1.03 320 23:58 06.03.2022
3467 Clear -2 1027 91 10000 1.03 330 23:18 06.03.2022
3468 Clear -1 1027 89 10000 1.03 310 22:24 06.03.2022
3469 Clouds 0 1027 84 10000 2.57 350 20:56 06.03.2022
3470 Clouds 1 1027 83 10000 2.57 350 20:28 06.03.2022
3471 Clouds 2 1027 73 10000 2.57 30 19:31 06.03.2022
3472 Clouds 3 1026 74 10000 4.12 30 18:25 06.03.2022
3473 Clouds 5 1026 69 10000 4.63 40 17:22 06.03.2022
3474 Clouds 5 1026 69 10000 4.12 50 16:52 06.03.2022
3475 Clouds 5 1026 69 10000 4.63 30 16:24 06.03.2022
3476 Clouds 5 1026 66 10000 5.14 60 15:23 06.03.2022
3477 Clouds 5 1027 64 10000 3.6 20 14:41 06.03.2022
3478 Clouds 4 1027 54 10000 4.63 30 13:48 06.03.2022
3479 Clouds 4 1028 55 10000 4.63 360 12:36 06.03.2022
3480 Clouds 4 1027 68 10000 3.09 40 11:30 06.03.2022
3481 Clouds 2 1027 72 10000 3.6 60 10:33 06.03.2022
3482 Clouds 0 1027 83 10000 4.63 40 08:51 06.03.2022
3483 Clouds 0 1027 85 10000 3.09 30 08:27 06.03.2022
3484 Clouds -1 1026 87 10000 3.09 40 07:18 06.03.2022
3485 Clear 0 1025 87 10000 3.6 40 01:37 06.03.2022
3486 Clear 0 1025 86 10000 3.6 50 00:34 06.03.2022
3487 Clear 0 1025 84 10000 3.6 40 23:56 05.03.2022
3488 Clear 0 1025 82 10000 2.06 50 23:18 05.03.2022
3489 Clear 0 1025 81 10000 2.06 70 22:31 05.03.2022
3490 Clear 0 1025 81 10000 2.06 70 22:31 05.03.2022
3491 Clouds 1 1024 77 10000 2.06 90 21:25 05.03.2022
3492 Clouds 3 1024 65 10000 2.06 90 19:59 05.03.2022
3493 Clouds 3 1023 64 10000 2.06 100 19:18 05.03.2022
3494 Clouds 4 1023 58 10000 3.09 100 18:37 05.03.2022
3495 Clouds 6 1023 54 10000 4.12 110 17:31 05.03.2022
3496 Clouds 6 1023 62 10000 3.6 130 16:18 05.03.2022
3497 Clouds 6 1023 63 10000 3.09 130 14:53 05.03.2022
3498 Clouds 6 1023 63 10000 3.09 130 14:35 05.03.2022
3499 Clouds 6 1023 63 10000 3.09 130 14:35 05.03.2022
3500 Clouds 6 1024 53 10000 4.12 120 13:37 05.03.2022
3501 Clouds 5 1024 56 10000 5.66 120 12:35 05.03.2022
3502 Clear 4 1024 74 10000 5.14 120 11:20 05.03.2022
3503 Clear 3 1024 76 10000 5.66 120 10:52 05.03.2022
3504 Clear 0 1024 83 10000 3.09 90 09:30 05.03.2022
3505 Clear -2 1024 87 10000 3.6 80 08:24 05.03.2022
3506 Clear -3 1024 90 10000 3.09 90 06:33 05.03.2022
3507 Clear -3 1024 90 10000 3.09 80 05:22 05.03.2022
3508 Clear -1 1024 88 10000 2.06 90 00:30 05.03.2022
3509 Clouds 0 1024 85 10000 2.06 100 22:45 04.03.2022
3510 Clouds 0 1024 84 10000 1.54 120 22:25 04.03.2022
3511 Clouds 1 1024 84 10000 1.54 140 21:43 04.03.2022
3512 Clouds 1 1024 83 10000 1.54 140 20:39 04.03.2022
3513 Clouds 2 1024 83 10000 1.03 150 19:37 04.03.2022
3514 Clouds 2 1024 80 10000 3.09 140 18:56 04.03.2022
3515 Clouds 3 1024 78 10000 4.12 130 18:33 04.03.2022
3516 Clouds 4 1024 77 10000 5.66 110 17:29 04.03.2022
3517 Clouds 5 1024 74 10000 4.63 130 15:54 04.03.2022
3518 Clouds 6 1024 75 10000 4.63 110 15:25 04.03.2022
3519 Clouds 5 1024 73 10000 5.14 130 13:36 04.03.2022
3520 Clouds 4 1025 75 10000 4.12 110 12:47 04.03.2022
3521 Clouds 2 1025 80 10000 4.63 120 11:37 04.03.2022
3522 Clouds 2 1025 80 10000 4.63 120 11:37 04.03.2022
3523 Clouds 1 1025 91 10000 3.6 120 10:26 04.03.2022
3524 Clouds 0 1024 95 10000 3.6 110 09:28 04.03.2022
3525 Clear -1 1024 96 10000 2.06 90 07:49 04.03.2022
3526 Clear -1 1023 96 10000 2.57 70 06:26 04.03.2022
3527 Clouds -1 1023 95 10000 2.57 90 02:26 04.03.2022
3528 Clear 0 1023 92 10000 3.6 120 23:43 03.03.2022
3529 Clear 1 1023 93 10000 2.57 90 22:18 03.03.2022
3530 Clear 1 1023 91 10000 2.57 90 21:36 03.03.2022
3531 Clear 1 1022 90 10000 3.6 90 20:50 03.03.2022
3532 Clear 3 1022 86 10000 4.63 80 19:34 03.03.2022
3533 Clear 4 1021 83 10000 5.14 70 18:44 03.03.2022
3534 Clear 6 1021 73 10000 5.14 70 17:43 03.03.2022
3535 Clear 6 1021 80 10000 6.17 60 17:24 03.03.2022
3536 Clear 7 1021 76 10000 4.63 80 15:47 03.03.2022
3537 Clear 7 1021 74 10000 4.12 60 14:51 03.03.2022
3538 Clear 7 1021 74 10000 4.63 60 14:32 03.03.2022
3539 Clear 6 1022 66 10000 3.6 60 12:44 03.03.2022
3540 Clear 4 1022 83 10000 2.06 60 11:32 03.03.2022
3541 Clear 2 1022 80 9000 2.57 70 10:40 03.03.2022
3542 Mist 0 1022 91 4800 1.03 80 08:45 03.03.2022
3543 Clouds -1 1022 93 5000 3.6 70 06:58 03.03.2022
3544 Clouds -2 1022 95 8000 2.06 70 06:33 03.03.2022
3545 Clear 1 1023 86 10000 2.57 80 01:21 03.03.2022
3546 Clear 2 1023 83 10000 3.09 60 23:28 02.03.2022
3547 Clear 2 1023 81 10000 2.57 70 22:49 02.03.2022
3548 Clear 3 1023 81 10000 2.06 50 21:25 02.03.2022
3549 Clear 4 1023 79 10000 2.57 60 20:44 02.03.2022
3550 Clear 5 1023 65 10000 3.09 50 19:56 02.03.2022
3551 Clear 5 1023 65 10000 3.09 40 19:34 02.03.2022
3552 Clear 5 1023 70 10000 3.09 50 18:44 02.03.2022
3553 Clear 8 1023 52 10000 3.09 60 17:59 02.03.2022
3554 Clear 9 1023 53 10000 3.09 60 17:23 02.03.2022
3555 Clear 9 1024 52 10000 4.12 60 16:45 02.03.2022
3556 Clear 9 1024 52 10000 4.12 60 16:45 02.03.2022
3557 Clear 9 1025 61 10000 2.57 50 14:44 02.03.2022
3558 Clear 9 1025 53 10000 2.06 70 13:24 02.03.2022
3559 Clear 8 1026 53 10000 2.57 60 12:43 02.03.2022
3560 Clear 7 1026 64 10000 2.06 80 11:47 02.03.2022
3561 Clear 6 1026 67 10000 2.06 60 11:24 02.03.2022
3562 Clear 3 1026 76 10000 2.06 80 09:42 02.03.2022
3563 Clear 1 1026 88 10000 2.06 70 08:59 02.03.2022
3564 Clear 1 1026 88 10000 1.54 90 07:39 02.03.2022
3565 Clear 1 1026 87 10000 2.06 80 06:51 02.03.2022
3566 Clear 3 1028 81 10000 2.06 50 02:54 02.03.2022
3567 Clear 4 1028 79 10000 1.54 70 00:29 02.03.2022
3568 Clear 4 1028 78 10000 1.03 0 22:48 01.03.2022
3569 Clear 4 1028 77 10000 1.54 90 22:21 01.03.2022
3570 Clear 5 1028 76 10000 1.54 60 21:25 01.03.2022
3571 Clear 5 1028 77 10000 1.54 110 20:32 01.03.2022
3572 Clear 5 1028 78 10000 1.03 110 19:45 01.03.2022
3573 Clear 5 1028 75 10000 1.54 100 18:51 01.03.2022
3574 Clear 6 1028 73 10000 2.06 110 18:21 01.03.2022
3575 Clear 7 1028 71 10000 3.09 130 17:37 01.03.2022
3576 Clear 8 1028 68 10000 2.06 120 16:35 01.03.2022
3577 Clear 9 1028 67 10000 2.57 140 15:45 01.03.2022
3578 Clear 9 1029 64 10000 3.09 150 14:41 01.03.2022
3579 Clear 9 1029 64 10000 3.09 150 14:23 01.03.2022
3580 Clear 8 1029 66 10000 2.57 180 13:26 01.03.2022
3581 Clear 8 1029 67 10000 3.6 180 12:35 01.03.2022
3582 Clear 8 1029 67 10000 3.6 180 12:35 01.03.2022
3583 Clear 5 1029 75 10000 2.57 150 10:52 01.03.2022
3584 Clear 1 1029 82 10000 4.12 140 09:27 01.03.2022
3585 Clear 0 1029 85 10000 3.6 140 08:19 01.03.2022
3586 Clear -1 1029 85 10000 3.09 140 06:28 01.03.2022
3587 Clear 0 1030 83 10000 2.06 120 02:57 01.03.2022
3588 Clear 1 1030 80 10000 4.12 130 00:47 01.03.2022
3589 Clear 1 1031 81 10000 4.63 130 23:36 28.02.2022
3590 Clear 2 1031 79 10000 5.66 130 22:38 28.02.2022
3591 Clear 2 1031 80 10000 5.14 130 21:43 28.02.2022
3592 Clear 3 1031 77 10000 6.17 130 20:46 28.02.2022
3593 Clear 4 1031 74 10000 5.66 130 19:51 28.02.2022
3594 Clear 5 1031 70 10000 5.14 130 18:50 28.02.2022
3595 Clear 6 1031 64 10000 5.66 140 17:43 28.02.2022
3596 Clear 8 1032 60 10000 4.63 150 17:21 28.02.2022
3597 Clear 8 1032 61 10000 6.17 140 16:21 28.02.2022
3598 Clear 9 1033 59 10000 5.66 150 14:33 28.02.2022
3599 Clear 9 1033 56 10000 5.14 140 13:56 28.02.2022
3600 Clear 8 1033 59 10000 5.14 130 13:24 28.02.2022
3601 Clear 7 1033 72 10000 4.12 140 12:25 28.02.2022
3602 Clear 5 1033 76 10000 4.63 140 11:19 28.02.2022
3603 Clear 3 1033 77 10000 3.6 130 10:23 28.02.2022
3604 Clear 2 1033 81 10000 3.09 130 09:51 28.02.2022
3605 Clear 1 1033 88 10000 3.6 130 09:23 28.02.2022
3606 Clear -1 1033 91 10000 2.57 130 08:21 28.02.2022
3607 Clear -1 1033 88 10000 2.57 140 06:31 28.02.2022
3608 Clear 0 1033 85 10000 4.63 130 04:31 28.02.2022
3609 Clear 1 1034 84 10000 3.6 110 01:24 28.02.2022
3610 Clear 2 1033 75 10000 2.57 110 22:55 27.02.2022
3611 Clear 2 1033 82 10000 2.57 110 22:32 27.02.2022
3612 Clear 3 1033 71 10000 3.09 110 21:42 27.02.2022
3613 Clear 4 1034 75 10000 3.09 110 20:51 27.02.2022
3614 Clear 4 1034 67 10000 2.57 110 20:22 27.02.2022
3615 Clear 4 1034 74 10000 2.57 100 19:50 27.02.2022
3616 Clear 5 1033 72 10000 3.6 120 19:24 27.02.2022
3617 Clear 6 1033 59 10000 4.12 120 18:37 27.02.2022
3618 Clear 6 1033 75 10000 5.66 130 17:53 27.02.2022
3619 Clear 8 1034 55 10000 6.17 140 16:31 27.02.2022
3620 Clouds 8 1034 56 10000 6.17 130 15:42 27.02.2022
3621 Clouds 7 1035 70 10000 6.69 140 12:53 27.02.2022
3622 Clouds 6 1036 78 10000 6.17 140 12:29 27.02.2022
3623 Clear 4 1036 85 10000 4.12 130 10:47 27.02.2022
3624 Clear 2 1036 87 10000 4.12 140 09:58 27.02.2022
3625 Clear 1 1036 88 10000 2.57 130 09:29 27.02.2022
3626 Clear 0 1036 89 10000 3.6 120 09:00 27.02.2022
3627 Clear 0 1035 88 10000 3.6 110 06:43 27.02.2022
3628 Clear -1 1035 89 10000 2.57 100 05:36 27.02.2022
3629 Clear 1 1035 81 10000 3.09 100 00:52 27.02.2022
3630 Clear 1 1035 85 10000 2.06 100 22:56 26.02.2022
3631 Clear 2 1035 86 10000 0.51 80 21:44 26.02.2022
3632 Clear 2 1035 85 10000 0.51 60 20:52 26.02.2022
3633 Clear 3 1035 81 10000 1.03 30 20:19 26.02.2022
3634 Clear 4 1035 79 10000 0.51 0 19:46 26.02.2022
3635 Clear 5 1034 77 10000 0.51 100 19:19 26.02.2022
3636 Clouds 6 1034 75 10000 2.57 80 17:46 26.02.2022
3637 Clouds 9 1034 55 10000 1.54 0 16:51 26.02.2022
3638 Clouds 8 1034 68 10000 1.03 0 15:57 26.02.2022
3639 Clouds 9 1034 69 10000 2.06 280 15:23 26.02.2022
3640 Clouds 9 1035 69 10000 1.03 0 14:54 26.02.2022
3641 Clouds 9 1035 69 10000 1.03 0 14:36 26.02.2022
3642 Clouds 8 1035 73 10000 2.06 290 13:19 26.02.2022
3643 Clouds 7 1035 81 10000 3.09 290 12:29 26.02.2022
3644 Clouds 6 1035 86 10000 2.06 260 11:28 26.02.2022
3645 Clouds 5 1034 91 10000 2.06 290 10:51 26.02.2022
3646 Clouds 1 1033 98 10000 1.54 290 08:59 26.02.2022
3647 Clouds 0 1033 96 10000 2.57 270 07:43 26.02.2022
3648 Clouds 4 1028 90 10000 4.63 280 01:53 26.02.2022
3649 Clouds 3 1026 88 10000 5.14 270 23:31 25.02.2022
3650 Clouds 4 1025 88 10000 4.63 290 21:48 25.02.2022
3651 Clouds 4 1024 89 10000 5.14 300 21:29 25.02.2022
3652 Clouds 4 1023 88 10000 5.14 290 20:33 25.02.2022
3653 Clouds 4 1022 89 10000 5.14 300 19:41 25.02.2022
3654 Clouds 5 1019 91 10000 8.23 320 17:35 25.02.2022
3655 Clouds 5 1018 90 6000 10.29 320 16:45 25.02.2022
3656 Clouds 6 1017 86 10000 9.77 280 15:49 25.02.2022
3657 Clouds 6 1016 84 10000 9.77 270 15:23 25.02.2022
3658 Clouds 6 1016 84 10000 9.26 270 14:49 25.02.2022
3659 Clouds 6 1016 83 10000 8.75 270 14:18 25.02.2022
3660 Clouds 5 1015 90 10000 6.69 260 13:20 25.02.2022
3661 Clouds 5 1014 89 10000 8.75 250 11:52 25.02.2022
3662 Clouds 5 1014 88 10000 8.75 240 11:18 25.02.2022
3663 Clouds 3 1014 93 10000 8.23 240 10:23 25.02.2022
3664 Clouds 4 1013 90 10000 8.75 230 09:41 25.02.2022
3665 Clouds 3 1013 88 10000 8.23 230 07:48 25.02.2022
3666 Clouds 3 1012 88 10000 7.72 230 06:51 25.02.2022
3667 Clouds 3 1012 88 10000 8.23 230 05:38 25.02.2022
3668 Clear 2 1010 90 10000 7.2 250 01:23 25.02.2022
3669 Clouds 3 1008 91 10000 6.69 250 22:31 24.02.2022
3670 Clouds 3 1007 93 10000 7.2 250 21:43 24.02.2022
3671 Clouds 3 1007 93 10000 7.72 270 21:21 24.02.2022
3672 Clouds 4 1006 91 10000 8.75 270 20:44 24.02.2022
3673 Clouds 4 1004 92 10000 8.23 270 19:31 24.02.2022
3674 Clouds 4 1003 92 10000 10.29 280 18:20 24.02.2022
3675 Clouds 4 1001 94 5000 16.98 270 17:54 24.02.2022
3676 Clouds 8 999 80 10000 7.72 210 17:20 24.02.2022
3677 Clouds 10 1001 69 10000 8.75 210 16:28 24.02.2022
3678 Clouds 10 1001 73 10000 8.23 210 15:43 24.02.2022
3679 Clouds 10 1003 73 10000 7.2 210 14:45 24.02.2022
3680 Clouds 10 1004 75 10000 8.23 210 13:59 24.02.2022
3681 Clouds 10 1004 76 10000 8.23 210 13:37 24.02.2022
3682 Clouds 9 1007 77 10000 7.72 210 11:38 24.02.2022
3683 Clouds 8 1008 79 10000 6.69 210 10:32 24.02.2022
3684 Clouds 7 1010 80 10000 4.12 210 08:43 24.02.2022
3685 Clouds 7 1011 80 10000 5.14 210 07:22 24.02.2022
3686 Clouds 7 1012 77 10000 4.63 210 05:40 24.02.2022
3687 Clear 7 1016 80 10000 4.12 190 00:32 24.02.2022
3688 Clouds 8 1018 71 10000 4.63 210 22:25 23.02.2022
3689 Clouds 7 1019 79 10000 2.57 200 20:48 23.02.2022
3690 Clear 6 1019 79 10000 3.6 210 20:28 23.02.2022
3691 Clouds 7 1020 76 10000 2.57 210 19:36 23.02.2022
3692 Clouds 8 1020 65 10000 4.63 220 18:31 23.02.2022
3693 Clouds 10 1020 60 10000 6.69 240 16:43 23.02.2022
3694 Clouds 10 1022 59 10000 8.75 240 14:33 23.02.2022
3695 Clouds 10 1023 73 10000 7.72 260 12:37 23.02.2022
3696 Clouds 8 1022 84 10000 6.17 260 11:23 23.02.2022
3697 Clouds 6 1022 88 10000 6.17 260 10:30 23.02.2022
3698 Clouds 4 1022 92 10000 5.14 240 08:57 23.02.2022
3699 Clouds 4 1021 92 10000 4.63 260 07:57 23.02.2022
3700 Clouds 5 1017 90 10000 7.72 270 03:48 23.02.2022
3701 Clear 5 1014 92 10000 6.69 270 00:19 23.02.2022
3702 Clear 5 1014 90 10000 7.2 270 23:35 22.02.2022
3703 Clouds 6 1013 93 10000 7.95 283 22:31 22.02.2022
3704 Clouds 6 1011 90 10000 9.26 290 21:49 22.02.2022
3705 Clouds 6 1010 90 10000 8.75 290 21:28 22.02.2022
3706 Clouds 7 1009 87 10000 9.77 300 20:51 22.02.2022
3707 Clouds 7 1009 94 10000 9.77 292 20:29 22.02.2022
3708 Clouds 7 1009 94 10000 9.77 292 20:29 22.02.2022
3709 Clouds 8 1007 96 10000 8.75 230 19:36 22.02.2022
3710 Clouds 8 1007 96 7000 8.23 230 19:18 22.02.2022
3711 Clouds 7 1008 96 8000 7.72 220 17:46 22.02.2022
3712 Clouds 7 1009 94 10000 6.69 220 17:20 22.02.2022
3713 Clouds 7 1009 93 10000 6.69 220 16:36 22.02.2022
3714 Clouds 6 1011 95 9000 6.17 210 15:39 22.02.2022
3715 Clouds 7 1012 85 10000 6.17 220 14:44 22.02.2022
3716 Clouds 7 1015 84 10000 6.69 250 12:21 22.02.2022
3717 Clouds 5 1015 88 10000 6.69 260 10:39 22.02.2022
3718 Clouds 3 1013 89 10000 5.66 270 07:52 22.02.2022
3719 Clouds 3 1013 88 10000 6.17 270 07:26 22.02.2022
3720 Clear 4 1011 88 10000 7.2 290 04:30 22.02.2022
3721 Clouds 5 1008 89 10000 6.69 300 01:44 22.02.2022
3722 Clouds 5 1004 92 10000 8.23 290 22:44 21.02.2022
3723 Clouds 6 1002 92 10000 7.2 290 21:31 21.02.2022
3724 Clouds 6 1001 91 10000 6.17 270 20:34 21.02.2022
3725 Clouds 5 998 92 10000 7.2 290 18:46 21.02.2022
3726 Clouds 5 993 93 10000 6.69 290 16:56 21.02.2022
3727 Clouds 4 990 94 8000 9.26 230 14:52 21.02.2022
3728 Clouds 3 990 93 10000 9.77 220 14:21 21.02.2022
3729 Clouds 3 991 95 10000 9.77 210 13:20 21.02.2022
3730 Clouds 4 992 92 10000 9.77 230 12:23 21.02.2022
3731 Clouds 4 992 86 10000 11.83 250 10:58 21.02.2022
3732 Clouds 4 991 90 10000 11.83 240 09:34 21.02.2022
3733 Clouds 4 990 88 10000 9.26 260 05:35 21.02.2022
3734 Clouds 10 984 93 10000 13.89 220 23:41 20.02.2022
3735 Clouds 10 988 93 10000 12.86 220 22:21 20.02.2022
3736 Clouds 9 989 94 10000 11.83 220 21:42 20.02.2022
3737 Clouds 9 991 94 10000 9.26 220 20:53 20.02.2022
3738 Clouds 9 991 93 10000 9.26 220 20:33 20.02.2022
3739 Clouds 9 993 93 10000 10.8 220 19:32 20.02.2022
3740 Clouds 9 994 93 8000 10.29 230 18:50 20.02.2022
3741 Clouds 9 995 96 7000 9.77 230 18:31 20.02.2022
3742 Clouds 9 996 96 7000 9.26 230 17:48 20.02.2022
3743 Clouds 9 998 93 7000 9.77 240 15:37 20.02.2022
3744 Clouds 9 999 94 7000 9.77 240 14:41 20.02.2022
3745 Clouds 8 1000 94 10000 8.75 230 13:23 20.02.2022
3746 Clouds 6 1001 96 8000 6.69 210 12:25 20.02.2022
3747 Clouds 4 1003 96 6000 5.66 180 10:38 20.02.2022
3748 Clouds 3 1003 96 6000 5.66 180 10:19 20.02.2022
3749 Clouds 3 1007 93 10000 5.66 220 08:25 20.02.2022
3750 Clouds 4 1003 93 10000 5.66 200 00:54 20.02.2022
3751 Clouds 4 1003 93 10000 5.66 200 00:54 20.02.2022
3752 Clouds 4 1003 93 10000 7.2 180 00:30 20.02.2022
3753 Clouds 4 1005 93 10000 5.14 180 22:47 19.02.2022
3754 Clouds 4 1006 92 10000 3.6 190 22:22 19.02.2022
3755 Clouds 4 1007 91 10000 6.69 220 21:25 19.02.2022
3756 Clouds 5 1008 78 10000 9.26 240 19:53 19.02.2022
3757 Clouds 5 1008 77 10000 6.17 220 19:30 19.02.2022
3758 Clear 5 1008 78 10000 6.17 230 18:33 19.02.2022
3759 Clouds 6 1008 68 10000 7.72 230 17:36 19.02.2022
3760 Clear 7 1009 63 10000 8.23 250 16:28 19.02.2022
3761 Clouds 6 1009 77 10000 9.77 250 15:18 19.02.2022
3762 Clouds 6 1009 79 10000 11.83 240 14:49 19.02.2022
3763 Clouds 6 1009 82 10000 10.8 260 13:45 19.02.2022
3764 Clouds 5 1008 86 10000 10.8 250 11:38 19.02.2022
3765 Clouds 4 1006 93 10000 10.29 250 09:55 19.02.2022
3766 Clouds 3 1001 93 10000 11.32 270 06:58 19.02.2022
3767 Clouds 4 995 91 10000 14.4 260 03:54 19.02.2022
3768 Clouds 6 989 71 10000 16.98 250 23:33 18.02.2022
3769 Clouds 6 987 79 8000 14.92 260 21:50 18.02.2022
3770 Clouds 6 986 84 5000 18.52 250 20:51 18.02.2022
3771 Clouds 8 984 76 10000 16.46 240 19:53 18.02.2022
3772 Clouds 9 983 73 10000 14.92 230 18:50 18.02.2022
3773 Clouds 9 984 68 10000 14.4 230 18:22 18.02.2022
3774 Clouds 9 985 72 10000 13.89 240 17:51 18.02.2022
3775 Clouds 9 989 93 10000 9.26 200 14:54 18.02.2022
3776 Clouds 8 992 95 10000 7.2 190 13:55 18.02.2022
3777 Clouds 7 994 96 7000 8.23 170 12:53 18.02.2022
3778 Clouds 6 994 95 7000 8.23 170 12:33 18.02.2022
3779 Clouds 6 998 94 10000 6.69 150 11:29 18.02.2022
3780 Clouds 5 1000 94 10000 4.63 150 10:23 18.02.2022
3781 Clear 4 1006 91 10000 3.09 210 06:57 18.02.2022
3782 Clear 4 1007 90 10000 3.09 230 05:41 18.02.2022
3783 Clear 6 1006 74 10000 7.72 260 23:34 17.02.2022
3784 Clouds 6 1006 74 10000 10.29 270 21:46 17.02.2022
3785 Clouds 6 1005 76 10000 9.77 270 21:20 17.02.2022
3786 Clouds 6 1005 77 10000 11.32 270 20:38 17.02.2022
3787 Clouds 6 1004 75 10000 11.83 270 19:50 17.02.2022
3788 Clouds 7 1003 75 10000 11.32 280 18:52 17.02.2022
3789 Clouds 7 1002 74 10000 13.38 280 17:55 17.02.2022
3790 Clouds 7 1001 79 10000 13.38 280 16:42 17.02.2022
3791 Clouds 8 999 70 10000 14.4 280 15:38 17.02.2022
3792 Clouds 8 999 72 10000 13.89 280 14:28 17.02.2022
3793 Clouds 6 997 87 5000 17.49 270 12:43 17.02.2022
3794 Clouds 6 995 84 9000 11.32 280 11:27 17.02.2022
3795 Clouds 7 991 83 10000 16.46 280 09:18 17.02.2022
3796 Clouds 9 985 69 10000 19.03 280 04:20 17.02.2022
3797 Clouds 11 981 90 6000 16.46 250 23:21 16.02.2022
3798 Clouds 11 983 94 5000 13.38 230 21:45 16.02.2022
3799 Clouds 11 986 92 8000 9.26 230 19:57 16.02.2022
3800 Clouds 11 988 85 10000 9.26 230 18:43 16.02.2022
3801 Clouds 12 988 87 10000 10.29 230 17:53 16.02.2022
3802 Clouds 12 991 88 10000 8.23 250 15:40 16.02.2022
3803 Clouds 12 991 90 10000 9.77 250 15:19 16.02.2022
3804 Clouds 11 990 96 10000 9.26 240 13:31 16.02.2022
3805 Clouds 10 990 96 8000 9.77 230 12:20 16.02.2022
3806 Mist 9 991 96 5000 10.29 220 11:28 16.02.2022
3807 Mist 8 991 96 4200 9.26 210 10:34 16.02.2022
3808 Clouds 8 995 96 7000 6.69 210 08:24 16.02.2022
3809 Clouds 7 997 95 10000 5.14 190 06:29 16.02.2022
3810 Clouds 6 1002 94 9000 7.72 210 23:45 15.02.2022
3811 Clouds 6 1002 91 10000 8.23 210 22:33 15.02.2022
3812 Clouds 6 1003 89 10000 8.23 210 21:48 15.02.2022
3813 Clouds 6 1003 88 10000 8.23 210 21:29 15.02.2022
3814 Clouds 6 1004 83 10000 8.75 200 20:56 15.02.2022
3815 Clouds 6 1004 79 10000 7.72 190 19:59 15.02.2022
3816 Clouds 7 1005 72 10000 6.69 190 19:21 15.02.2022
3817 Clear 7 1005 72 10000 6.17 200 18:23 15.02.2022
3818 Clouds 7 1006 71 10000 7.72 210 17:50 15.02.2022
3819 Clouds 7 1006 70 10000 6.17 220 17:21 15.02.2022
3820 Clouds 9 1007 73 10000 8.23 220 15:32 15.02.2022
3821 Clouds 8 1008 81 10000 6.69 230 13:28 15.02.2022
3822 Clouds 8 1009 84 10000 6.69 240 12:53 15.02.2022
3823 Clouds 7 1008 85 10000 6.69 230 11:40 15.02.2022
3824 Clouds 6 1008 91 10000 5.66 230 09:52 15.02.2022
3825 Clouds 6 1006 91 10000 5.14 230 06:59 15.02.2022
3826 Clouds 6 1005 90 10000 5.66 240 05:32 15.02.2022
3827 Clear 7 1002 80 10000 7.72 220 23:34 14.02.2022
3828 Clear 7 1002 83 10000 4.63 210 21:55 14.02.2022
3829 Clouds 7 1002 83 10000 4.12 210 20:50 14.02.2022
3830 Clouds 8 1002 82 10000 5.14 210 19:45 14.02.2022
3831 Clouds 8 1002 82 10000 5.14 210 19:45 14.02.2022
3832 Clouds 8 1002 84 10000 5.79 215 19:26 14.02.2022
3833 Clouds 10 1001 72 10000 5.14 210 18:23 14.02.2022
3834 Clouds 10 1001 75 10000 7.2 220 17:27 14.02.2022
3835 Clouds 10 1000 76 10000 7.2 220 16:25 14.02.2022
3836 Clouds 11 999 79 10000 7.72 230 14:42 14.02.2022
3837 Clouds 12 998 73 10000 6.17 210 13:34 14.02.2022
3838 Clouds 11 999 69 10000 8.23 200 12:56 14.02.2022
3839 Clouds 11 998 72 10000 8.23 190 11:55 14.02.2022
3840 Clouds 11 998 72 10000 7.72 200 11:37 14.02.2022
3841 Clear 8 998 75 10000 8.75 190 09:25 14.02.2022
3842 Clear 7 998 77 10000 6.69 170 07:34 14.02.2022
3843 Clear 7 998 77 10000 5.14 160 06:54 14.02.2022
3844 Clear 7 1003 74 10000 8.23 180 22:44 13.02.2022
3845 Clear 7 1004 75 10000 7.2 170 22:26 13.02.2022
3846 Clear 6 1004 75 10000 6.69 170 21:48 13.02.2022
3847 Clear 6 1005 75 10000 5.66 170 20:42 13.02.2022
3848 Clear 6 1006 71 10000 5.66 160 19:57 13.02.2022
3849 Clear 6 1006 66 10000 4.12 160 18:57 13.02.2022
3850 Clear 6 1007 66 10000 4.63 150 18:38 13.02.2022
3851 Clear 7 1008 63 10000 5.66 180 16:53 13.02.2022
3852 Clear 7 1009 64 10000 5.66 200 15:51 13.02.2022
3853 Clear 7 1010 65 10000 7.72 190 14:50 13.02.2022
3854 Clear 7 1012 67 10000 7.2 200 13:27 13.02.2022
3855 Clear 6 1012 67 10000 5.66 200 12:40 13.02.2022
3856 Clear 3 1013 71 10000 5.66 200 10:43 13.02.2022
3857 Clear 3 1013 72 10000 5.66 190 10:23 13.02.2022
3858 Clear 1 1014 80 10000 3.09 170 08:55 13.02.2022
3859 Clear 1 1019 82 10000 5.14 200 01:26 13.02.2022
3860 Clear 1 1019 81 10000 5.14 180 00:21 13.02.2022
3861 Clear 1 1020 83 10000 4.12 160 22:55 12.02.2022
3862 Clear 1 1021 83 10000 4.12 150 22:30 12.02.2022
3863 Clear 1 1022 82 10000 3.6 150 20:55 12.02.2022
3864 Clear 1 1022 82 10000 3.09 150 20:24 12.02.2022
3865 Clear 2 1023 76 10000 3.6 160 18:54 12.02.2022
3866 Clear 2 1023 75 10000 3.6 160 18:36 12.02.2022
3867 Clear 4 1023 66 10000 4.63 180 17:40 12.02.2022
3868 Clear 5 1024 69 10000 5.14 200 16:46 12.02.2022
3869 Clear 5 1025 67 10000 7.2 200 15:59 12.02.2022
3870 Clear 5 1026 67 10000 6.69 200 15:23 12.02.2022
3871 Clear 5 1027 66 10000 5.66 200 14:30 12.02.2022
3872 Clear 3 1029 78 10000 4.12 190 11:34 12.02.2022
3873 Clear 2 1030 84 10000 3.6 190 10:34 12.02.2022
3874 Clear 0 1030 90 10000 2.06 200 09:38 12.02.2022
3875 Clear -1 1030 90 10000 2.57 180 08:48 12.02.2022
3876 Clear -2 1031 93 10000 1.54 180 07:50 12.02.2022
3877 Clouds -1 1032 91 10000 2.57 210 05:31 12.02.2022
3878 Clouds 0 1033 94 10000 1.03 190 02:20 12.02.2022
3879 Clear -1 1033 95 10000 1.03 0 00:31 12.02.2022
3880 Clouds -1 1033 95 10000 2.06 240 22:27 11.02.2022
3881 Clouds 0 1032 94 10000 1.54 240 21:43 11.02.2022
3882 Clear 1 1032 89 10000 2.06 270 20:38 11.02.2022
3883 Clouds 2 1031 85 10000 3.6 300 19:33 11.02.2022
3884 Clouds 3 1031 85 10000 3.6 290 18:58 11.02.2022
3885 Clouds 4 1029 75 10000 5.14 320 17:28 11.02.2022
3886 Clouds 4 1029 72 10000 5.66 330 16:58 11.02.2022
3887 Clouds 5 1028 69 10000 8.75 330 15:33 11.02.2022
3888 Clouds 5 1025 80 10000 10.8 340 14:38 11.02.2022
3889 Clouds 5 1025 81 10000 10.8 340 14:20 11.02.2022
3890 Clouds 5 1024 86 10000 7.72 330 13:50 11.02.2022
3891 Clouds 5 1024 87 10000 7.2 350 13:31 11.02.2022
3892 Clouds 5 1020 95 7110 8.92 340 11:27 11.02.2022
3893 Clouds 5 1016 96 7000 7.2 260 09:39 11.02.2022
3894 Clouds 4 1015 96 7000 6.17 230 08:40 11.02.2022
3895 Clouds 4 1015 95 8000 6.17 220 08:22 11.02.2022
3896 Clouds 3 1015 93 9000 6.17 210 06:33 11.02.2022
3897 Clear 2 1018 91 10000 4.12 230 02:25 11.02.2022
3898 Clear 3 1018 91 10000 4.12 230 00:46 11.02.2022
3899 Clear 3 1018 89 10000 4.12 250 22:45 10.02.2022
3900 Clear 4 1019 88 10000 3.09 260 21:45 10.02.2022
3901 Clear 4 1018 86 10000 3.09 250 20:54 10.02.2022
3902 Clear 4 1018 85 10000 3.6 270 20:29 10.02.2022
3903 Clouds 5 1018 87 10000 2.57 270 19:25 10.02.2022
3904 Clouds 5 1018 88 10000 3.09 270 18:44 10.02.2022
3905 Clouds 6 1017 84 8000 5.14 260 17:26 10.02.2022
3906 Clouds 7 1017 83 10000 5.66 250 16:50 10.02.2022
3907 Clouds 7 1017 80 10000 5.14 270 15:47 10.02.2022
3908 Clouds 8 1017 80 10000 6.69 280 15:28 10.02.2022
3909 Clouds 8 1017 81 10000 6.17 270 14:47 10.02.2022
3910 Clouds 8 1017 84 10000 6.17 270 14:23 10.02.2022
3911 Clouds 7 1017 87 10000 4.12 260 13:26 10.02.2022
3912 Clouds 7 1017 94 10000 3.6 260 12:27 10.02.2022
3913 Rain 7 1017 94 9000 3.09 260 11:33 10.02.2022
3914 Clouds 7 1017 96 7000 3.6 280 10:43 10.02.2022
3915 Clouds 6 1017 96 7000 2.06 270 09:50 10.02.2022
3916 Drizzle 6 1017 98 5000 2.06 280 09:18 10.02.2022
3917 Clouds 7 1016 96 2000 4.63 220 06:50 10.02.2022
3918 Clouds 7 1018 98 1800 2.57 210 04:23 10.02.2022
3919 Drizzle 7 1020 96 2800 1.03 220 01:48 10.02.2022
3920 Clouds 6 1021 98 8000 0.51 0 00:44 10.02.2022
3921 Clouds 6 1021 98 8000 1.54 220 00:25 10.02.2022
3922 Clouds 7 1021 98 10000 2.57 230 22:58 09.02.2022
3923 Clouds 7 1021 98 10000 2.57 230 22:34 09.02.2022
3924 Clouds 7 1021 98 10000 2.57 240 21:49 09.02.2022
3925 Clouds 7 1021 98 10000 3.6 250 21:28 09.02.2022
3926 Clouds 8 1022 96 10000 5.14 280 20:47 09.02.2022
3927 Clouds 8 1022 96 10000 5.14 280 20:24 09.02.2022
3928 Clouds 8 1022 98 3200 4.63 280 19:44 09.02.2022
3929 Clouds 8 1022 98 3500 4.12 270 19:22 09.02.2022
3930 Drizzle 8 1021 98 2000 5.14 240 17:35 09.02.2022
3931 Drizzle 9 1021 95 4500 6.17 240 16:32 09.02.2022
3932 Drizzle 9 1021 95 4500 6.17 250 15:33 09.02.2022
3933 Clouds 9 1021 93 10000 6.69 250 14:25 09.02.2022
3934 Clouds 9 1021 86 10000 7.72 250 12:28 09.02.2022
3935 Clouds 9 1021 86 10000 7.2 240 10:47 09.02.2022
3936 Clouds 9 1021 88 10000 5.66 230 09:59 09.02.2022
3937 Clouds 8 1021 89 10000 6.17 230 09:23 09.02.2022
3938 Clouds 8 1021 91 10000 6.17 230 08:58 09.02.2022
3939 Clouds 8 1021 93 10000 6.17 220 07:34 09.02.2022
3940 Clouds 8 1022 95 10000 5.66 230 05:30 09.02.2022
3941 Drizzle 8 1023 95 10000 5.66 240 03:50 09.02.2022
3942 Drizzle 9 1023 96 7000 7.72 240 00:23 09.02.2022
3943 Drizzle 9 1023 96 3800 6.17 240 23:31 08.02.2022
3944 Drizzle 9 1023 96 4500 6.69 250 22:46 08.02.2022
3945 Drizzle 9 1023 96 3800 5.66 240 22:21 08.02.2022
3946 Drizzle 9 1023 96 3800 5.66 240 22:21 08.02.2022
3947 Drizzle 9 1023 96 3800 5.66 240 22:21 08.02.2022
3948 Drizzle 9 1023 96 4500 6.69 250 21:38 08.02.2022
3949 Drizzle 9 1023 96 4200 6.69 250 21:20 08.02.2022
3950 Drizzle 9 1023 96 8000 6.17 250 20:42 08.02.2022
3951 Drizzle 9 1023 96 4500 5.14 250 19:46 08.02.2022
3952 Drizzle 9 1022 96 10000 7.2 260 18:35 08.02.2022
3953 Clouds 9 1022 96 10000 6.69 260 17:38 08.02.2022
3954 Clouds 9 1022 96 8000 6.69 260 16:29 08.02.2022
3955 Clouds 9 1021 95 10000 7.72 260 15:29 08.02.2022
3956 Clouds 9 1021 93 10000 8.75 260 14:31 08.02.2022
3957 Clouds 9 1021 94 10000 8.75 250 13:20 08.02.2022
3958 Drizzle 9 1021 93 10000 8.75 260 11:33 08.02.2022
3959 Clouds 9 1020 92 10000 8.23 250 10:23 08.02.2022
3960 Clouds 9 1020 92 10000 8.23 250 09:44 08.02.2022
3961 Clouds 7 1020 95 10000 6.17 240 07:46 08.02.2022
3962 Clouds 6 1021 97 8000 5.66 230 05:37 08.02.2022
3963 Clouds 5 1021 92 10000 7.2 240 04:39 08.02.2022
3964 Clouds 5 1021 92 10000 7.2 240 04:21 08.02.2022
3965 Clouds 5 1021 91 10000 7.2 230 03:36 08.02.2022
3966 Clouds 5 1022 89 10000 8.23 240 03:18 08.02.2022
3967 Clouds 5 1022 88 10000 6.69 240 02:58 08.02.2022
3968 Clouds 5 1022 88 10000 6.69 240 02:36 08.02.2022
3969 Clouds 5 1022 87 10000 5.66 230 02:18 08.02.2022
3970 Clouds 5 1022 85 10000 6.17 240 01:43 08.02.2022
3971 Clouds 4 1023 87 10000 5.14 230 01:24 08.02.2022
3972 Clear 4 1023 85 10000 5.14 240 00:53 08.02.2022
3973 Clear 4 1023 86 10000 5.14 240 23:54 07.02.2022
3974 Clear 4 1023 86 10000 5.14 240 23:36 07.02.2022
3975 Clear 4 1023 86 10000 5.14 240 23:18 07.02.2022
3976 Clear 4 1023 91 10000 3.6 240 22:19 07.02.2022
3977 Clear 4 1023 91 10000 4.63 250 21:55 07.02.2022
3978 Clouds 4 1023 91 10000 4.63 250 21:29 07.02.2022
3979 Clear 4 1023 91 10000 5.14 260 20:56 07.02.2022
3980 Clear 4 1023 91 10000 5.14 260 20:38 07.02.2022
3981 Clear 4 1023 87 10000 6.17 270 19:49 07.02.2022
3982 Clouds 4 1023 89 10000 6.69 280 19:31 07.02.2022
3983 Clouds 5 1022 82 10000 8.75 280 17:52 07.02.2022
3984 Clouds 6 1021 77 10000 7.2 290 16:53 07.02.2022
3985 Clouds 7 1020 73 10000 10.8 300 15:49 07.02.2022
3986 Clouds 7 1019 75 10000 9.77 300 14:55 07.02.2022
3987 Clouds 6 1018 80 10000 6.69 300 13:28 07.02.2022
3988 Clouds 5 1018 86 10000 7.72 310 12:42 07.02.2022
3989 Rain 5 1017 84 10000 8.23 290 11:58 07.02.2022
3990 Clouds 6 1017 80 10000 8.23 290 11:35 07.02.2022
3991 Clouds 5 1015 83 10000 8.23 280 10:50 07.02.2022
3992 Clouds 5 1014 86 10000 7.2 280 10:30 07.02.2022
3993 Clouds 4 1014 88 10000 5.14 290 09:53 07.02.2022
3994 Clouds 3 1013 90 9000 8.75 320 09:18 07.02.2022
3995 Clouds 3 1012 89 10000 5.66 280 08:36 07.02.2022
3996 Clouds 4 1008 90 10000 6.69 290 06:54 07.02.2022
3997 Clouds 4 1008 89 10000 6.69 290 06:34 07.02.2022
3998 Clouds 3 1001 90 10000 8.23 270 02:59 07.02.2022
3999 Clouds 2 998 90 10000 6.69 290 00:45 07.02.2022
4000 Clouds 2 998 91 10000 6.69 290 00:45 07.02.2022
4001 Clouds 3 997 92 10000 7.2 290 23:47 06.02.2022
4002 Rain 3 996 93 10000 9.26 260 22:48 06.02.2022
4003 Clouds 3 995 92 10000 9.77 270 21:55 06.02.2022
4004 Clouds 3 995 92 10000 9.77 270 21:35 06.02.2022
4005 Clouds 3 994 91 10000 8.75 260 20:54 06.02.2022
4006 Clouds 3 994 90 10000 8.75 260 20:31 06.02.2022
4007 Clouds 4 994 93 10000 7.72 270 19:38 06.02.2022
4008 Clouds 3 994 95 10000 4.63 270 18:40 06.02.2022
4009 Rain 5 993 93 10000 7.2 260 17:56 06.02.2022
4010 Clouds 5 994 94 10000 8.23 260 17:19 06.02.2022
4011 Clouds 5 994 92 6000 9.77 280 16:38 06.02.2022
4012 Clouds 4 993 96 10000 5.66 250 15:49 06.02.2022
4013 Clouds 4 993 96 10000 3.6 240 15:27 06.02.2022
4014 Rain 4 993 98 10000 2.57 270 14:45 06.02.2022
4015 Rain 7 992 94 8000 10.29 230 13:26 06.02.2022
4016 Rain 8 993 96 8000 7.72 220 12:58 06.02.2022
4017 Rain 8 996 96 10000 8.75 230 11:35 06.02.2022
4018 Rain 8 998 96 10000 7.72 230 10:31 06.02.2022
4019 Clouds 8 999 94 10000 8.75 240 08:59 06.02.2022
4020 Clouds 7 999 94 10000 8.23 230 08:30 06.02.2022
4021 Rain 7 1001 96 10000 10.29 240 05:33 06.02.2022
4022 Clouds 6 1005 95 10000 10.29 230 02:50 06.02.2022
4023 Clouds 6 1005 95 10000 10.29 230 02:24 06.02.2022
4024 Clouds 6 1007 93 10000 9.26 240 00:29 06.02.2022
4025 Clouds 5 1009 92 10000 10.29 230 22:36 05.02.2022
4026 Clouds 5 1010 92 10000 10.29 230 21:32 05.02.2022
4027 Clouds 5 1011 85 10000 9.77 230 20:25 05.02.2022
4028 Clouds 6 1012 81 10000 9.77 230 19:48 05.02.2022
4029 Clouds 6 1012 79 10000 9.26 230 18:59 05.02.2022
4030 Clouds 6 1013 79 10000 6.69 230 17:45 05.02.2022
4031 Clouds 6 1014 79 10000 8.23 240 17:27 05.02.2022
4032 Clouds 6 1014 79 10000 8.23 240 15:42 05.02.2022
4033 Clouds 6 1014 79 10000 8.75 240 15:22 05.02.2022
4034 Clouds 6 1015 84 10000 10.29 250 12:54 05.02.2022
4035 Clouds 6 1015 85 10000 10.29 250 12:33 05.02.2022
4036 Clouds 5 1015 89 10000 7.2 250 10:53 05.02.2022
4037 Clouds 4 1015 91 10000 7.72 250 10:25 05.02.2022
4038 Clouds 3 1015 91 10000 6.69 250 09:46 05.02.2022
4039 Clouds 2 1014 93 10000 6.69 250 08:20 05.02.2022
4040 Clouds 3 1013 94 10000 6.69 250 06:58 05.02.2022
4041 Clouds 3 1011 92 10000 7.72 260 04:55 05.02.2022
4042 Clouds 3 1009 93 10000 8.75 270 01:19 05.02.2022
4043 Rain 3 1009 96 10000 8.23 255 00:54 05.02.2022
4044 Clouds 3 1008 93 10000 7.2 250 23:59 04.02.2022
4045 Clouds 3 1008 93 10000 7.2 250 23:33 04.02.2022
4046 Clouds 3 1007 95 10000 7.72 260 22:18 04.02.2022
4047 Clouds 3 1006 93 10000 5.66 280 21:36 04.02.2022
4048 Clouds 3 1006 95 10000 7.2 270 21:18 04.02.2022
4049 Clouds 3 1005 95 10000 6.69 280 20:20 04.02.2022
4050 Rain 4 1001 92 10000 9.77 310 18:27 04.02.2022
4051 Clouds 9 1001 83 10000 9.26 220 15:55 04.02.2022
4052 Clouds 9 1002 83 10000 9.26 220 14:56 04.02.2022
4053 Clouds 9 1003 84 10000 9.77 230 13:55 04.02.2022
4054 Clouds 9 1004 84 10000 9.26 220 12:43 04.02.2022
4055 Clouds 9 1005 85 10000 7.72 220 11:43 04.02.2022
4056 Clouds 8 1006 89 10000 6.69 210 10:48 04.02.2022
4057 Clouds 7 1007 92 10000 6.17 220 08:49 04.02.2022
4058 Clouds 7 1008 93 10000 5.14 220 06:58 04.02.2022
4059 Clouds 7 1009 94 10000 4.12 220 02:51 04.02.2022
4060 Clouds 6 1009 96 8000 4.63 240 01:56 04.02.2022
4061 Clouds 6 1009 95 10000 3.6 230 23:32 03.02.2022
4062 Clouds 6 1010 95 10000 3.6 240 22:48 03.02.2022
4063 Clouds 6 1010 96 10000 5.14 230 21:50 03.02.2022
4064 Clouds 6 1010 94 10000 5.66 230 20:43 03.02.2022
4065 Clouds 7 1010 93 10000 4.63 220 20:20 03.02.2022
4066 Clouds 6 1010 93 10000 5.14 220 19:34 03.02.2022
4067 Clouds 7 1010 94 10000 4.63 220 18:44 03.02.2022
4068 Clouds 7 1010 95 6000 4.12 220 17:47 03.02.2022
4069 Clouds 7 1011 95 6000 4.12 240 16:39 03.02.2022
4070 Clouds 8 1012 90 10000 5.14 220 14:54 03.02.2022
4071 Clouds 7 1013 93 10000 6.17 220 13:18 03.02.2022
4072 Drizzle 8 1014 96 7000 5.66 230 11:43 03.02.2022
4073 Drizzle 8 1014 96 3800 4.63 230 08:40 03.02.2022
4074 Drizzle 7 1015 98 4200 4.63 230 07:20 03.02.2022
4075 Clear 3 1019 91 10000 2.06 210 00:33 03.02.2022
4076 Clear 3 1019 93 10000 1.54 210 23:45 02.02.2022
4077 Clear 2 1019 93 10000 2.06 220 22:36 02.02.2022
4078 Clear 2 1019 91 10000 3.09 220 21:37 02.02.2022
4079 Clear 2 1019 90 10000 2.06 220 20:56 02.02.2022
4080 Clear 3 1019 89 10000 2.06 250 20:00 02.02.2022
4081 Clear 3 1019 89 10000 2.06 250 19:41 02.02.2022
4082 Clouds 4 1019 85 10000 3.6 300 18:53 02.02.2022
4083 Clouds 4 1019 85 10000 4.12 290 18:22 02.02.2022
4084 Clouds 6 1018 78 10000 6.17 310 17:20 02.02.2022
4085 Clouds 6 1018 75 10000 6.17 310 16:47 02.02.2022
4086 Clouds 6 1016 74 10000 10.8 310 14:18 02.02.2022
4087 Clouds 6 1014 79 10000 9.26 310 12:26 02.02.2022
4088 Clouds 6 1014 81 10000 7.72 300 11:42 02.02.2022
4089 Clouds 6 1013 82 10000 10.29 300 11:23 02.02.2022
4090 Clouds 5 1010 84 10000 8.75 300 07:59 02.02.2022
4091 Clouds 6 1006 86 10000 11.32 290 01:36 02.02.2022
4092 Clouds 7 1004 84 10000 13.38 300 21:59 01.02.2022
4093 Clouds 7 1004 82 10000 11.32 300 20:49 01.02.2022
4094 Clouds 7 1003 88 10000 11.83 300 18:55 01.02.2022
4095 Clouds 8 1003 92 10000 9.77 290 16:44 01.02.2022
4096 Clouds 7 1003 96 8000 8.23 260 15:30 01.02.2022
4097 Drizzle 5 1006 96 3800 9.77 240 12:49 01.02.2022
4098 Drizzle 4 1008 95 3500 7.72 230 11:48 01.02.2022
4099 Clouds 3 1013 93 10000 5.66 240 08:34 01.02.2022
4100 Clouds 3 1014 93 10000 2.06 240 00:28 01.02.2022
4101 Clouds 2 1014 95 10000 2.57 260 23:36 31.01.2022
4102 Clouds 2 1014 95 10000 2.57 290 22:30 31.01.2022
4103 Clouds 3 1014 93 10000 3.09 310 21:34 31.01.2022
4104 Clouds 2 1012 93 10000 4.12 320 20:34 31.01.2022
4105 Clouds 3 1012 93 10000 4.12 340 19:46 31.01.2022
4106 Clouds 3 1009 92 10000 3.6 350 18:31 31.01.2022
4107 Clouds 3 1008 93 10000 4.12 360 17:55 31.01.2022
4108 Clouds 3 1007 95 10000 4.63 20 16:58 31.01.2022
4109 Clouds 3 1006 95 10000 4.12 20 16:20 31.01.2022
4110 Drizzle 4 1004 95 3000 3.6 40 14:49 31.01.2022
4111 Drizzle 5 1002 94 7000 4.63 290 12:57 31.01.2022
4112 Clouds 5 1001 93 10000 5.66 280 12:36 31.01.2022
4113 Clouds 4 1000 93 10000 4.63 270 10:58 31.01.2022
4114 Clouds 4 1000 93 10000 4.63 270 10:38 31.01.2022
4115 Clouds 2 1000 97 8000 1.54 270 09:36 31.01.2022
4116 Rain 1 1000 97 7000 1.54 210 08:54 31.01.2022
4117 Snow 1 1001 93 7000 2.57 190 08:20 31.01.2022
4118 Clouds 1 1001 94 7000 5.14 180 07:29 31.01.2022
4119 Snow 2 1005 89 10000 4.63 180 05:24 31.01.2022
4120 Clouds 3 1017 84 10000 3.09 230 00:23 31.01.2022
4121 Clouds 3 1020 83 10000 4.12 250 22:31 30.01.2022
4122 Clouds 3 1021 83 10000 3.6 240 21:45 30.01.2022
4123 Clouds 4 1022 83 10000 4.59 253 21:24 30.01.2022
4124 Clouds 3 1022 82 10000 4.57 253 20:51 30.01.2022
4125 Clouds 3 1022 79 10000 4.63 270 20:31 30.01.2022
4126 Clouds 4 1022 77 10000 5.14 270 19:55 30.01.2022
4127 Clouds 5 1023 72 10000 6.17 280 18:51 30.01.2022
4128 Clouds 5 1023 71 10000 6.17 290 18:22 30.01.2022
4129 Clouds 5 1023 70 10000 6.17 300 17:31 30.01.2022
4130 Clouds 5 1024 73 10000 9.77 300 16:43 30.01.2022
4131 Clouds 6 1023 70 10000 9.26 310 16:23 30.01.2022
4132 Clouds 6 1024 71 10000 8.75 300 15:55 30.01.2022
4133 Clouds 6 1024 69 10000 8.75 300 15:33 30.01.2022
4134 Clouds 7 1023 68 10000 10.8 320 14:48 30.01.2022
4135 Clouds 7 1023 67 10000 10.29 310 13:49 30.01.2022
4136 Clouds 7 1023 67 10000 10.8 310 12:46 30.01.2022
4137 Clouds 6 1022 72 10000 12.86 300 11:23 30.01.2022
4138 Clouds 6 1022 70 10000 9.77 310 10:26 30.01.2022
4139 Clouds 6 1021 69 10000 10.8 300 09:23 30.01.2022
4140 Clouds 6 1020 67 10000 10.8 300 08:32 30.01.2022
4141 Clouds 6 1017 77 10000 12.86 280 02:55 30.01.2022
4142 Clouds 6 1017 77 10000 13.38 290 01:54 30.01.2022
4143 Clouds 6 1016 78 10000 12.86 280 23:49 29.01.2022
4144 Clouds 7 1016 72 10000 13.38 300 22:58 29.01.2022
4145 Clouds 8 1015 74 10000 11.83 290 21:35 29.01.2022
4146 Clouds 7 1014 74 10000 14.92 290 21:00 29.01.2022
4147 Clouds 8 1014 75 10000 13.38 290 20:20 29.01.2022
4148 Clouds 8 1013 81 10000 14.4 290 19:33 29.01.2022
4149 Clouds 9 1012 80 10000 14.4 290 18:51 29.01.2022
4150 Clouds 10 1011 81 10000 13.38 280 17:56 29.01.2022
4151 Clouds 11 1011 82 10000 11.32 270 17:19 29.01.2022
4152 Drizzle 10 1011 89 10000 12.35 260 15:35 29.01.2022
4153 Clouds 10 1013 88 10000 11.83 260 13:58 29.01.2022
4154 Clouds 10 1013 89 10000 11.83 260 13:36 29.01.2022
4155 Clouds 9 1014 93 10000 11.32 260 13:18 29.01.2022
4156 Clouds 8 1016 94 10000 8.75 250 11:39 29.01.2022
4157 Drizzle 8 1017 96 4000 7.72 250 10:34 29.01.2022
4158 Drizzle 7 1018 95 3300 8.75 250 08:20 29.01.2022
4159 Rain 6 1022 94 8000 6.69 230 03:25 29.01.2022
4160 Clouds 5 1026 89 10000 6.69 230 00:32 29.01.2022
4161 Clouds 5 1027 86 10000 4.63 220 23:32 28.01.2022
4162 Clouds 5 1027 86 10000 5.14 220 23:32 28.01.2022
4163 Clouds 5 1027 84 10000 4.12 210 22:48 28.01.2022
4164 Clouds 5 1028 83 10000 3.6 210 22:19 28.01.2022
4165 Clear 4 1029 84 10000 3.09 210 20:41 28.01.2022
4166 Clouds 5 1030 81 10000 3.09 220 19:59 28.01.2022
4167 Clouds 5 1030 82 10000 3.67 229 19:18 28.01.2022
4168 Clouds 5 1031 79 10000 3.09 240 18:35 28.01.2022
4169 Clouds 6 1031 76 10000 4.12 280 16:39 28.01.2022
4170 Clouds 7 1031 73 10000 5.14 300 14:59 28.01.2022
4171 Clouds 7 1031 71 10000 7.72 310 13:23 28.01.2022
4172 Clouds 7 1030 72 10000 6.69 310 12:26 28.01.2022
4173 Clouds 5 1029 76 10000 6.17 310 10:32 28.01.2022
4174 Clouds 5 1028 79 10000 6.17 310 09:47 28.01.2022
4175 Clouds 4 1027 83 10000 7.2 300 07:43 28.01.2022
4176 Clouds 4 1026 87 10000 8.23 300 06:31 28.01.2022
4177 Clouds 4 1023 86 10000 8.23 300 03:52 28.01.2022
4178 Clouds 5 1021 84 10000 8.23 290 02:29 28.01.2022
4179 Clouds 4 1021 86 10000 8.23 290 01:57 28.01.2022
4180 Clouds 4 1021 86 10000 8.23 290 01:57 28.01.2022
4181 Clouds 4 1021 84 10000 7.2 290 01:29 28.01.2022
4182 Clouds 4 1019 87 10000 8.23 290 22:39 27.01.2022
4183 Clouds 5 1018 88 10000 9.26 280 21:41 27.01.2022
4184 Clouds 5 1018 85 10000 8.23 280 21:21 27.01.2022
4185 Clouds 6 1017 83 10000 9.77 290 19:47 27.01.2022
4186 Clouds 6 1016 85 6000 13.38 310 18:22 27.01.2022
4187 Clouds 7 1016 85 10000 8.7 286 17:18 27.01.2022
4188 Clouds 8 1015 92 7000 9.26 280 14:24 27.01.2022
4189 Clouds 7 1016 96 5000 8.23 260 12:53 27.01.2022
4190 Clouds 7 1016 96 4700 8.75 260 12:20 27.01.2022
4191 Mist 5 1016 96 3300 9.77 240 09:51 27.01.2022
4192 Clouds 5 1017 95 2800 9.77 240 08:41 27.01.2022
4193 Drizzle 4 1017 95 5000 9.26 240 07:58 27.01.2022
4194 Clouds 5 1020 88 6000 9.26 240 03:34 27.01.2022
4195 Mist 5 1023 92 5000 5.66 230 00:25 27.01.2022
4196 Mist 4 1025 95 4500 6.17 240 22:31 26.01.2022
4197 Drizzle 4 1025 95 4800 4.63 230 21:44 26.01.2022
4198 Mist 4 1025 95 5000 5.66 230 20:57 26.01.2022
4199 Drizzle 4 1026 93 5000 5.66 240 20:33 26.01.2022
4200 Mist 4 1026 93 5000 6.17 240 19:49 26.01.2022
4201 Mist 4 1026 93 5000 5.66 240 18:52 26.01.2022
4202 Mist 4 1026 93 5000 5.66 240 18:52 26.01.2022
4203 Mist 4 1026 93 5000 5.66 240 18:24 26.01.2022
4204 Mist 4 1027 95 5000 5.66 250 17:39 26.01.2022
4205 Mist 3 1027 95 5000 5.14 250 17:19 26.01.2022
4206 Mist 3 1027 95 4500 5.14 250 16:25 26.01.2022
4207 Drizzle 3 1027 95 3000 6.17 240 15:23 26.01.2022
4208 Drizzle 2 1029 94 3800 4.63 240 12:52 26.01.2022
4209 Clouds 2 1029 92 6000 5.14 230 10:57 26.01.2022
4210 Drizzle 2 1029 95 5000 4.63 240 09:59 26.01.2022
4211 Drizzle 2 1029 95 5000 4.63 240 09:40 26.01.2022
4212 Drizzle 3 1029 93 7000 4.12 230 07:28 26.01.2022
4213 Mist 3 1031 95 3800 2.57 240 00:42 26.01.2022
4214 Drizzle 3 1031 95 3800 2.57 250 23:44 25.01.2022
4215 Mist 4 1031 95 4000 2.57 260 22:50 25.01.2022
4216 Drizzle 4 1032 95 4000 2.57 260 22:20 25.01.2022
4217 Drizzle 4 1032 95 4500 3.09 260 21:35 25.01.2022
4218 Drizzle 4 1032 95 4500 2.57 260 20:46 25.01.2022
4219 Drizzle 4 1032 95 4500 2.57 260 19:59 25.01.2022
4220 Drizzle 4 1032 95 4500 2.57 260 19:40 25.01.2022
4221 Mist 4 1032 94 5000 2.57 260 18:20 25.01.2022
4222 Mist 4 1032 94 5000 2.57 260 17:40 25.01.2022
4223 Mist 4 1032 94 5000 3.6 270 16:35 25.01.2022
4224 Mist 4 1032 93 5000 4.12 250 15:44 25.01.2022
4225 Drizzle 4 1032 93 5000 3.6 260 15:26 25.01.2022
4226 Drizzle 4 1032 94 4400 3.6 260 14:57 25.01.2022
4227 Drizzle 4 1033 94 4700 2.57 250 13:18 25.01.2022
4228 Mist 4 1033 91 4700 1.54 260 10:00 25.01.2022
4229 Mist 4 1033 91 4700 0.51 0 08:32 25.01.2022
4230 Mist 3 1033 90 4700 2.06 250 07:28 25.01.2022
4231 Mist 3 1033 90 5000 2.06 250 05:55 25.01.2022
4232 Clouds 4 1034 87 7000 2.06 260 01:34 25.01.2022
4233 Clouds 4 1034 86 7000 2.57 290 23:36 24.01.2022
4234 Clouds 4 1034 86 7000 2.57 300 23:18 24.01.2022
4235 Clouds 4 1034 85 8000 2.06 300 22:59 24.01.2022
4236 Clouds 4 1034 85 8000 2.06 300 22:41 24.01.2022
4237 Clouds 4 1034 85 10000 2.57 270 21:45 24.01.2022
4238 Clouds 4 1034 85 10000 2.06 280 21:27 24.01.2022
4239 Clouds 4 1034 85 10000 2.57 300 20:29 24.01.2022
4240 Clouds 5 1034 83 10000 3.09 310 19:39 24.01.2022
4241 Clouds 4 1034 84 10000 2.06 300 18:55 24.01.2022
4242 Clouds 5 1034 85 10000 1.54 310 17:44 24.01.2022
4243 Clouds 5 1034 85 10000 2.06 320 17:23 24.01.2022
4244 Clouds 5 1033 85 10000 1.54 310 16:32 24.01.2022
4245 Clouds 5 1033 85 10000 2.06 310 15:52 24.01.2022
4246 Clouds 6 1034 84 10000 2.57 310 14:27 24.01.2022
4247 Clouds 6 1034 86 10000 2.06 250 12:36 24.01.2022
4248 Clouds 6 1035 87 10000 1.54 250 11:53 24.01.2022
4249 Clouds 5 1035 89 10000 1.54 230 10:25 24.01.2022
4250 Clouds 5 1035 89 10000 2.57 240 09:47 24.01.2022
4251 Clouds 5 1035 87 10000 1.54 230 08:24 24.01.2022
4252 Clouds 5 1035 88 10000 3.09 260 02:51 24.01.2022
4253 Clouds 5 1035 90 10000 2.57 250 01:29 24.01.2022
4254 Clouds 5 1035 91 10000 1.54 250 00:34 24.01.2022
4255 Clouds 5 1035 93 10000 1.54 260 23:49 23.01.2022
4256 Clouds 6 1035 92 10000 2.06 260 22:27 23.01.2022
4257 Clouds 6 1035 91 10000 2.06 260 21:44 23.01.2022
4258 Clouds 6 1035 91 10000 2.57 270 21:24 23.01.2022
4259 Clouds 6 1035 92 10000 1.54 250 20:30 23.01.2022
4260 Clouds 6 1035 92 10000 3.09 270 19:21 23.01.2022
4261 Clouds 6 1035 92 10000 1.54 270 18:44 23.01.2022
4262 Clouds 7 1035 92 10000 2.57 290 17:34 23.01.2022
4263 Clouds 7 1035 92 10000 3.6 290 16:45 23.01.2022
4264 Clouds 7 1034 94 10000 2.59 273 14:59 23.01.2022
4265 Clouds 7 1034 94 10000 2.96 272 14:21 23.01.2022
4266 Clouds 7 1035 93 10000 3.09 270 12:54 23.01.2022
4267 Clouds 7 1035 93 10000 3.6 280 12:22 23.01.2022
4268 Clouds 7 1035 94 10000 4.12 270 11:52 23.01.2022
4269 Clouds 6 1035 96 10000 4.12 280 11:18 23.01.2022
4270 Clouds 6 1035 96 9000 3.6 290 10:27 23.01.2022
4271 Clouds 6 1034 96 10000 3.09 280 09:51 23.01.2022
4272 Clouds 5 1034 98 6000 3.09 280 08:53 23.01.2022
4273 Clouds 5 1033 96 10000 3.09 260 05:56 23.01.2022
4274 Clouds 5 1033 96 6000 2.06 270 01:52 23.01.2022
4275 Clouds 5 1033 98 10000 3.09 270 01:26 23.01.2022
4276 Clouds 5 1032 96 10000 2.57 290 00:23 23.01.2022
4277 Clouds 5 1032 98 10000 3.09 280 23:56 22.01.2022
4278 Clouds 5 1032 96 10000 3.09 290 22:46 22.01.2022
4279 Drizzle 5 1032 94 10000 3.6 290 21:36 22.01.2022
4280 Clouds 6 1032 94 10000 3.6 280 20:21 22.01.2022
4281 Clouds 6 1031 95 10000 2.57 300 18:56 22.01.2022
4282 Clouds 6 1031 96 10000 3.09 290 18:24 22.01.2022
4283 Clouds 6 1031 95 10000 3.6 290 17:40 22.01.2022
4284 Clouds 6 1031 96 10000 3.98 295 16:56 22.01.2022
4285 Clouds 7 1030 95 10000 5.14 310 15:53 22.01.2022
4286 Clouds 6 1030 94 10000 5.14 310 15:26 22.01.2022
4287 Drizzle 7 1030 94 9000 6.69 310 13:51 22.01.2022
4288 Clouds 7 1030 96 10000 5.14 300 12:53 22.01.2022
4289 Drizzle 7 1030 96 7000 6.69 310 12:29 22.01.2022
4290 Drizzle 7 1030 96 5000 5.66 300 11:44 22.01.2022
4291 Drizzle 6 1030 98 2400 3.6 290 10:29 22.01.2022
4292 Drizzle 6 1029 98 2500 3.6 300 09:59 22.01.2022
4293 Clouds 6 1029 96 10000 4.63 300 08:53 22.01.2022
4294 Drizzle 6 1029 98 7000 4.12 300 07:56 22.01.2022
4295 Drizzle 7 1028 96 1900 5.66 310 04:53 22.01.2022
4296 Drizzle 7 1027 96 6000 6.17 310 01:49 22.01.2022
4297 Drizzle 6 1027 98 4000 6.69 290 23:46 21.01.2022
4298 Drizzle 6 1027 98 2800 7.72 290 22:41 21.01.2022
4299 Drizzle 6 1027 98 2400 7.2 300 20:32 21.01.2022
4300 Clouds 6 1027 96 2000 6.17 280 18:41 21.01.2022
4301 Clouds 5 1027 95 3800 4.12 240 17:45 21.01.2022
4302 Clouds 5 1028 93 10000 5.66 280 15:47 21.01.2022
4303 Clouds 5 1028 93 10000 4.63 280 14:37 21.01.2022
4304 Clouds 4 1029 95 10000 5.52 308 12:40 21.01.2022
4305 Clouds 3 1029 96 10000 5.66 290 11:29 21.01.2022
4306 Clouds 2 1029 95 10000 4.63 290 10:22 21.01.2022
4307 Clouds 1 1029 95 10000 4.63 280 08:50 21.01.2022
4308 Clouds 1 1028 94 6000 3.6 280 07:26 21.01.2022
4309 Clouds 0 1027 90 10000 3.33 294 00:59 21.01.2022
4310 Clear -1 1027 83 10000 3.6 280 22:46 20.01.2022
4311 Clear 0 1026 87 10000 2.57 300 21:48 20.01.2022
4312 Clouds 1 1025 81 10000 4.63 320 20:57 20.01.2022
4313 Clouds 2 1025 81 10000 4.63 330 19:40 20.01.2022
4314 Clouds 2 1024 78 10000 6.69 330 19:18 20.01.2022
4315 Clouds 2 1022 85 10000 8.23 300 17:32 20.01.2022
4316 Snow 2 1022 87 10000 9.26 310 15:46 20.01.2022
4317 Clouds 2 1021 88 10000 8.75 300 15:26 20.01.2022
4318 Clouds 3 1021 83 10000 9.26 310 13:54 20.01.2022
4319 Clouds 3 1021 83 10000 10.29 320 12:44 20.01.2022
4320 Clouds 3 1021 86 10000 5.66 300 12:26 20.01.2022
4321 Snow 1 1021 91 10000 8.23 300 10:58 20.01.2022
4322 Clouds 1 1020 86 10000 7.72 290 09:43 20.01.2022
4323 Clouds 1 1020 85 10000 6.69 300 08:36 20.01.2022
4324 Clouds 2 1018 89 10000 8.73 314 06:19 20.01.2022
4325 Clear 4 1017 81 10000 7.2 300 23:56 19.01.2022
4326 Clouds 4 1016 87 10000 7.72 290 22:38 19.01.2022
4327 Rain 5 1015 94 10000 8.75 270 21:33 19.01.2022
4328 Drizzle 5 1015 98 6000 7.2 260 20:55 19.01.2022
4329 Mist 5 1014 96 4600 7.2 260 20:30 19.01.2022
4330 Drizzle 4 1015 97 2500 8.23 240 18:49 19.01.2022
4331 Mist 4 1015 95 4200 7.72 240 17:51 19.01.2022
4332 Drizzle 4 1016 95 3400 7.72 240 17:18 19.01.2022
4333 Drizzle 4 1016 95 3400 7.72 240 17:18 19.01.2022
4334 Drizzle 4 1016 95 3400 7.72 240 17:18 19.01.2022
4335 Clouds 4 1017 91 7000 6.17 220 15:31 19.01.2022
4336 Clouds 4 1020 90 10000 5.14 220 13:25 19.01.2022
4337 Clouds 3 1022 93 9000 5.14 240 11:58 19.01.2022
4338 Clouds 3 1022 93 9000 5.14 240 11:38 19.01.2022
4339 Mist 3 1024 94 4200 2.06 180 09:35 19.01.2022
4340 Mist 2 1025 96 3500 1.54 190 08:33 19.01.2022
4341 Clouds 3 1027 95 10000 3.09 190 05:20 19.01.2022
4342 Clouds 5 1033 91 10000 5.14 230 00:21 19.01.2022
4343 Clouds 5 1034 90 10000 4.12 240 23:18 18.01.2022
4344 Clouds 5 1034 90 10000 4.12 240 23:18 18.01.2022
4345 Clouds 5 1035 91 10000 3.09 230 21:45 18.01.2022
4346 Clouds 5 1035 89 10000 2.57 220 20:34 18.01.2022
4347 Clouds 5 1035 92 10000 2.57 230 19:49 18.01.2022
4348 Clouds 6 1036 90 10000 2.57 220 19:31 18.01.2022
4349 Clouds 6 1036 90 10000 3.09 240 18:19 18.01.2022
4350 Clouds 6 1036 90 10000 3.6 270 17:32 18.01.2022
4351 Clouds 6 1036 89 10000 5.14 270 16:22 18.01.2022
4352 Clouds 6 1036 89 10000 5.14 260 15:25 18.01.2022
4353 Clouds 7 1037 88 10000 4.63 260 14:22 18.01.2022
4354 Clouds 7 1037 91 10000 3.6 250 11:37 18.01.2022
4355 Clouds 7 1037 92 10000 2.57 260 10:30 18.01.2022
4356 Clouds 6 1036 95 10000 3.09 280 08:29 18.01.2022
4357 Clouds 6 1036 95 10000 3.6 280 07:44 18.01.2022
4358 Clouds 6 1034 89 10000 4.12 320 00:42 18.01.2022
4359 Clouds 6 1034 91 10000 3.6 300 22:46 17.01.2022
4360 Clouds 5 1033 90 10000 4.12 300 21:44 17.01.2022
4361 Clouds 5 1033 90 10000 3.6 290 21:24 17.01.2022
4362 Clouds 6 1031 86 10000 6.17 330 18:51 17.01.2022
4363 Clouds 6 1030 84 10000 5.14 320 18:26 17.01.2022
4364 Clouds 6 1030 82 10000 7.2 330 17:22 17.01.2022
4365 Clouds 7 1028 83 10000 11.32 330 15:58 17.01.2022
4366 Clouds 8 1027 83 10000 9.26 320 14:58 17.01.2022
4367 Clouds 8 1027 84 10000 9.26 330 14:32 17.01.2022
4368 Clouds 8 1026 86 10000 11.32 320 13:18 17.01.2022
4369 Clouds 8 1025 96 5000 8.75 300 12:22 17.01.2022
4370 Clouds 7 1024 95 10000 10.29 290 10:53 17.01.2022
4371 Drizzle 7 1024 93 10000 9.77 280 09:53 17.01.2022
4372 Clouds 6 1024 95 10000 10.29 280 08:44 17.01.2022
4373 Clouds 6 1023 88 10000 10.8 280 07:20 17.01.2022
4374 Clouds 6 1024 87 10000 7.2 270 01:52 17.01.2022
4375 Drizzle 6 1023 95 8000 6.17 300 23:44 16.01.2022
4376 Clouds 6 1022 95 7000 6.69 270 21:21 16.01.2022
4377 Clouds 6 1022 93 10000 6.69 260 20:28 16.01.2022
4378 Clouds 6 1021 92 10000 7.2 260 18:46 16.01.2022
4379 Clouds 6 1020 90 10000 6.69 250 17:50 16.01.2022
4380 Clouds 6 1020 93 10000 6.69 250 16:54 16.01.2022
4381 Drizzle 6 1020 93 9000 6.17 260 15:40 16.01.2022
4382 Mist 5 1020 95 5000 6.17 250 14:29 16.01.2022
4383 Mist 5 1020 96 5000 6.69 250 13:33 16.01.2022
4384 Mist 4 1020 96 4500 5.66 240 12:21 16.01.2022
4385 Mist 3 1020 96 2500 5.66 240 11:27 16.01.2022
4386 Mist 3 1019 96 3000 5.14 230 10:27 16.01.2022
4387 Mist 3 1019 96 3200 5.66 230 09:58 16.01.2022
4388 Mist 3 1020 95 3200 5.14 230 09:37 16.01.2022
4389 Mist 3 1020 95 3200 5.14 230 09:19 16.01.2022
4390 Mist 2 1020 95 5000 6.17 250 06:35 16.01.2022
4391 Mist 3 1023 95 5000 3.6 180 00:19 16.01.2022
4392 Clouds 4 1023 94 7000 4.63 170 22:50 15.01.2022
4393 Clouds 4 1025 94 10000 2.57 170 21:21 15.01.2022
4394 Clouds 5 1025 92 10000 3.09 180 20:44 15.01.2022
4395 Clouds 5 1025 92 10000 3.09 190 20:22 15.01.2022
4396 Clouds 5 1025 92 10000 2.57 190 19:27 15.01.2022
4397 Clouds 5 1026 91 10000 3.09 180 18:18 15.01.2022
4398 Clouds 5 1026 91 10000 2.57 180 16:49 15.01.2022
4399 Clouds 6 1027 89 10000 3.6 180 14:38 15.01.2022
4400 Clouds 6 1029 92 10000 2.06 200 12:40 15.01.2022
4401 Clouds 5 1029 96 8000 1.03 0 11:26 15.01.2022
4402 Mist 4 1030 98 4800 1.03 0 09:46 15.01.2022
4403 Fog 4 1030 98 400 1.54 220 04:46 15.01.2022
4404 Clouds 6 1032 96 10000 2.06 290 23:21 14.01.2022
4405 Clouds 6 1033 94 10000 3.09 340 21:18 14.01.2022
4406 Clouds 6 1032 96 10000 2.57 310 20:25 14.01.2022
4407 Clouds 7 1032 96 10000 2.57 300 19:50 14.01.2022
4408 Drizzle 7 1032 98 5000 3.6 300 18:41 14.01.2022
4409 Drizzle 7 1032 95 3500 5.14 280 17:39 14.01.2022
4410 Drizzle 7 1032 95 2500 5.14 270 16:43 14.01.2022
4411 Drizzle 7 1032 95 2000 4.63 280 15:32 14.01.2022
4412 Mist 7 1032 95 5000 5.66 270 14:28 14.01.2022
4413 Clouds 7 1033 93 8000 5.14 270 12:58 14.01.2022
4414 Clouds 7 1033 91 9000 5.14 270 11:53 14.01.2022
4415 Clouds 6 1033 91 9000 4.63 280 10:39 14.01.2022
4416 Clouds 6 1032 92 10000 5.66 280 08:53 14.01.2022
4417 Clouds 6 1032 92 10000 5.66 270 07:32 14.01.2022
4418 Clouds 6 1034 89 10000 6.17 290 02:27 14.01.2022
4419 Clouds 6 1034 92 10000 5.66 280 00:22 14.01.2022
4420 Clouds 6 1035 94 9000 4.12 260 21:47 13.01.2022
4421 Clouds 6 1035 95 8000 4.63 250 21:29 13.01.2022
4422 Clouds 5 1035 96 6000 4.63 230 19:58 13.01.2022
4423 Clouds 5 1036 96 6000 4.12 240 19:29 13.01.2022
4424 Mist 5 1036 96 5000 4.63 240 18:40 13.01.2022
4425 Mist 5 1036 96 3500 4.63 240 16:57 13.01.2022
4426 Clouds 5 1036 96 6000 5.66 250 15:45 13.01.2022
4427 Clouds 5 1036 96 7000 5.66 250 15:26 13.01.2022
4428 Mist 5 1037 96 4000 5.66 240 13:29 13.01.2022
4429 Mist 5 1037 98 3500 6.69 260 11:38 13.01.2022
4430 Mist 4 1037 98 3000 5.66 250 09:24 13.01.2022
4431 Mist 4 1037 98 2800 6.69 260 08:52 13.01.2022
4432 Mist 4 1036 98 1500 6.17 250 08:18 13.01.2022
4433 Mist 4 1037 98 1200 5.66 250 07:20 13.01.2022
4434 Mist 4 1037 98 1600 5.14 250 05:21 13.01.2022
4435 Mist 4 1037 98 1500 5.14 250 04:55 13.01.2022
4436 Mist 4 1038 98 1500 4.12 240 01:41 13.01.2022
4437 Mist 4 1038 96 5000 5.14 250 23:54 12.01.2022
4438 Mist 4 1038 96 5000 5.14 250 23:34 12.01.2022
4439 Clouds 4 1038 96 8000 5.14 260 22:49 12.01.2022
4440 Clouds 4 1038 96 9000 3.6 250 21:54 12.01.2022
4441 Clouds 4 1038 96 9000 3.09 220 21:21 12.01.2022
4442 Clouds 4 1038 94 9000 3.6 240 20:53 12.01.2022
4443 Clouds 4 1038 96 10000 5.14 270 19:28 12.01.2022
4444 Clouds 4 1037 96 10000 5.66 250 18:28 12.01.2022
4445 Clouds 4 1038 94 10000 4.12 270 16:59 12.01.2022
4446 Clouds 5 1037 96 10000 4.12 250 15:58 12.01.2022
4447 Clouds 5 1037 94 10000 4.63 270 14:47 12.01.2022
4448 Clouds 5 1038 96 6000 1.54 250 12:58 12.01.2022
4449 Clouds 5 1038 96 6000 1.54 250 12:58 12.01.2022
4450 Mist 3 1037 98 3500 2.57 260 09:59 12.01.2022
4451 Mist 3 1036 98 3000 2.57 270 08:36 12.01.2022
4452 Mist 3 1035 98 3000 2.57 240 07:34 12.01.2022
4453 Mist 3 1035 98 2600 2.57 240 06:49 12.01.2022
4454 Clear 3 1034 89 10000 1.54 210 23:31 11.01.2022
4455 Clear 3 1034 89 10000 2.06 210 22:49 11.01.2022
4456 Clear 2 1034 91 10000 2.06 180 22:21 11.01.2022
4457 Clear 2 1034 91 10000 1.54 180 20:51 11.01.2022
4458 Clear 2 1033 91 10000 2.57 160 19:48 11.01.2022
4459 Clear 2 1033 92 10000 2.06 150 18:31 11.01.2022
4460 Clear 2 1033 94 10000 2.06 140 17:24 11.01.2022
4461 Clear 2 1033 94 10000 2.57 150 16:37 11.01.2022
4462 Clear 2 1033 95 10000 2.57 150 15:36 11.01.2022
4463 Clear 2 1033 95 10000 2.57 150 14:42 11.01.2022
4464 Clouds 2 1033 96 6000 4.12 140 13:55 11.01.2022
4465 Clouds 2 1033 96 6000 4.12 140 13:34 11.01.2022
4466 Clear 3 1033 96 10000 3.5 200 12:43 11.01.2022
4467 Fog 0 1033 100 700 2.06 150 11:43 11.01.2022
4468 Fog -1 1033 98 400 2.57 130 09:29 11.01.2022
4469 Fog -1 1032 98 450 1.54 130 07:18 11.01.2022
4470 Fog 0 1030 98 800 1.03 150 00:32 11.01.2022
4471 Fog 0 1030 98 900 1.03 150 23:43 10.01.2022
4472 Fog 1 1029 98 700 1.54 160 23:22 10.01.2022
4473 Fog 1 1029 98 450 1.03 0 22:19 10.01.2022
4474 Fog 1 1029 98 300 1.54 170 21:54 10.01.2022
4475 Fog 2 1029 98 500 0.51 0 21:21 10.01.2022
4476 Fog 2 1028 98 650 0.51 80 20:57 10.01.2022
4477 Fog 2 1028 98 350 1.03 100 20:28 10.01.2022
4478 Fog 2 1028 98 400 2.06 70 19:44 10.01.2022
4479 Fog 2 1027 96 2000 1.03 120 19:21 10.01.2022
4480 Clouds 3 1027 96 10000 1.03 70 18:50 10.01.2022
4481 Clouds 3 1026 95 10000 1.03 280 17:56 10.01.2022
4482 Clouds 4 1025 93 10000 1.54 280 16:42 10.01.2022
4483 Clouds 5 1024 92 10000 2.06 270 15:49 10.01.2022
4484 Clouds 5 1022 93 10000 1.54 310 14:34 10.01.2022
4485 Clouds 4 1021 96 10000 2.57 280 12:22 10.01.2022
4486 Clouds 3 1020 96 10000 2.06 260 11:25 10.01.2022
4487 Clouds 1 1018 96 7000 2.57 230 09:53 10.01.2022
4488 Clouds 1 1016 98 10000 2.06 260 08:22 10.01.2022
4489 Clouds 2 1013 98 10000 2.57 260 05:50 10.01.2022
4490 Clouds 3 1008 96 10000 2.57 270 01:33 10.01.2022
4491 Clouds 3 1008 96 10000 2.57 260 00:33 10.01.2022
4492 Clouds 3 1007 95 10000 2.57 260 23:43 09.01.2022
4493 Clouds 3 1005 96 10000 3.09 250 22:42 09.01.2022
4494 Clouds 3 1004 96 10000 3.6 250 21:47 09.01.2022
4495 Clouds 3 1004 96 10000 3.09 240 21:24 09.01.2022
4496 Clouds 3 1003 96 10000 3.09 240 20:55 09.01.2022
4497 Clouds 3 1003 96 10000 3.09 240 20:37 09.01.2022
4498 Clouds 4 1003 94 10000 4.12 250 20:18 09.01.2022
4499 Clouds 4 1002 94 10000 4.12 260 19:37 09.01.2022
4500 Clouds 4 1001 96 10000 4.12 250 19:18 09.01.2022
4501 Clouds 4 1001 94 10000 4.63 250 18:37 09.01.2022
4502 Clouds 4 1000 94 10000 4.63 250 17:48 09.01.2022
4503 Clouds 5 999 94 10000 4.63 260 17:29 09.01.2022
4504 Clouds 5 999 96 10000 4.63 260 16:40 09.01.2022
4505 Clouds 5 998 94 10000 6.17 260 15:40 09.01.2022
4506 Clouds 5 997 96 10000 6.69 260 14:58 09.01.2022
4507 Clouds 5 996 96 10000 7.72 270 14:24 09.01.2022
4508 Clouds 5 996 93 10000 7.72 260 13:48 09.01.2022
4509 Clouds 5 994 94 10000 7.72 280 11:56 09.01.2022
4510 Clouds 5 993 96 10000 7.2 280 11:26 09.01.2022
4511 Rain 3 992 96 9000 2.57 240 09:55 09.01.2022
4512 Rain 2 991 95 10000 3.09 200 08:59 09.01.2022
4513 Rain 2 989 95 10000 3.6 170 06:57 09.01.2022
4514 Clouds 3 990 88 10000 7.2 160 01:30 09.01.2022
4515 Clouds 3 991 86 10000 7.2 160 00:38 09.01.2022
4516 Clouds 3 992 86 10000 7.72 160 23:34 08.01.2022
4517 Clouds 3 993 88 10000 7.2 160 22:48 08.01.2022
4518 Clouds 2 996 91 10000 6.69 160 21:28 08.01.2022
4519 Clouds 2 996 91 10000 7.2 160 20:44 08.01.2022
4520 Clouds 2 996 91 10000 7.2 160 20:44 08.01.2022
4521 Clouds 2 997 91 10000 7.72 160 20:22 08.01.2022
4522 Clouds 3 999 85 10000 8.75 170 19:22 08.01.2022
4523 Clouds 3 1002 88 10000 5.66 170 17:38 08.01.2022
4524 Clouds 3 1003 88 10000 5.14 180 16:57 08.01.2022
4525 Clouds 3 1005 88 10000 6.69 200 15:34 08.01.2022
4526 Clouds 4 1005 88 10000 5.66 210 14:25 08.01.2022
4527 Clear 3 1008 92 10000 5.66 230 11:43 08.01.2022
4528 Clear 1 1008 94 10000 5.14 230 10:43 08.01.2022
4529 Clear 1 1008 95 10000 4.63 220 10:23 08.01.2022
4530 Clear 1 1008 95 10000 4.63 220 10:23 08.01.2022
4531 Clouds 1 1008 95 10000 4.12 220 09:34 08.01.2022
4532 Clouds 1 1008 95 10000 5.14 240 07:18 08.01.2022
4533 Clouds 1 1008 95 10000 3.09 220 01:49 08.01.2022
4534 Clouds 1 1008 94 10000 4.63 220 00:23 08.01.2022
4535 Clouds 2 1008 92 10000 5.14 220 22:21 07.01.2022
4536 Clouds 3 1007 94 10000 3.6 200 20:35 07.01.2022
4537 Clouds 3 1007 95 10000 3.6 180 19:34 07.01.2022
4538 Clouds 3 1007 94 10000 2.57 180 18:50 07.01.2022
4539 Clouds 2 1007 94 10000 2.06 190 18:26 07.01.2022
4540 Clouds 3 1008 92 10000 3.6 210 17:24 07.01.2022
4541 Clouds 4 1008 90 10000 5.14 220 15:55 07.01.2022
4542 Clouds 4 1008 93 10000 6.17 220 13:52 07.01.2022
4543 Clouds 4 1008 93 10000 6.17 220 13:18 07.01.2022
4544 Clouds 3 1008 96 10000 6.17 220 12:25 07.01.2022
4545 Clouds 2 1009 95 10000 5.14 200 07:31 07.01.2022
4546 Clear 2 1013 91 10000 5.14 180 02:54 07.01.2022
4547 Clear 2 1014 91 10000 4.12 190 01:52 07.01.2022
4548 Clear 2 1014 92 10000 4.12 190 01:27 07.01.2022
4549 Clear 2 1015 91 10000 4.12 190 00:55 07.01.2022
4550 Clear 2 1016 94 10000 4.12 200 22:46 06.01.2022
4551 Clear 2 1016 91 10000 3.6 210 21:23 06.01.2022
4552 Clear 2 1017 91 10000 3.09 210 20:20 06.01.2022
4553 Clear 1 1017 90 10000 3.09 210 19:40 06.01.2022
4554 Clouds 2 1017 91 10000 2.57 210 17:53 06.01.2022
4555 Clear 2 1017 91 10000 2.57 230 17:32 06.01.2022
4556 Clouds 3 1017 90 10000 2.57 220 16:40 06.01.2022
4557 Clouds 4 1017 88 10000 3.09 240 15:45 06.01.2022
4558 Clouds 4 1017 86 10000 4.63 250 15:24 06.01.2022
4559 Clouds 4 1017 86 10000 3.6 260 14:21 06.01.2022
4560 Clouds 4 1017 87 10000 3.09 250 13:47 06.01.2022
4561 Clear 3 1017 90 10000 2.06 230 12:43 06.01.2022
4562 Clear 2 1016 93 10000 1.03 0 11:41 06.01.2022
4563 Clear 1 1016 93 10000 1.03 0 11:21 06.01.2022
4564 Clouds 0 1015 96 10000 2.43 226 08:51 06.01.2022
4565 Clouds 3 1008 94 8000 7.2 320 00:43 06.01.2022
4566 Rain 4 1006 93 10000 7.2 280 23:36 05.01.2022
4567 Rain 3 1006 93 10000 4.12 310 22:56 05.01.2022
4568 Clouds 4 1005 92 10000 5.66 270 22:31 05.01.2022
4569 Clouds 4 1005 90 9000 8.23 310 21:47 05.01.2022
4570 Clouds 4 1004 89 10000 7.2 290 20:50 05.01.2022
4571 Clouds 5 1004 88 10000 7.2 290 20:18 05.01.2022
4572 Clouds 5 1002 91 10000 8.75 290 18:42 05.01.2022
4573 Clouds 5 1000 91 10000 8.23 280 17:23 05.01.2022
4574 Clouds 5 999 90 10000 8.23 290 16:38 05.01.2022
4575 Clouds 6 997 87 10000 7.72 290 15:21 05.01.2022
4576 Clouds 4 997 94 10000 8.23 260 13:51 05.01.2022
4577 Clouds 4 996 95 10000 7.72 250 12:59 05.01.2022
4578 Clouds 3 996 91 10000 9.26 240 10:32 05.01.2022
4579 Clear 2 995 87 10000 8.23 230 07:45 05.01.2022
4580 Clear 2 995 87 10000 7.72 230 06:24 05.01.2022
4581 Clouds 3 996 92 10000 5.14 250 00:58 05.01.2022
4582 Clear 3 996 91 10000 4.63 250 23:28 04.01.2022
4583 Clear 3 996 91 10000 4.12 240 22:46 04.01.2022
4584 Clear 3 995 92 10000 5.14 240 21:24 04.01.2022
4585 Clear 3 995 94 10000 4.12 250 19:20 04.01.2022
4586 Clouds 4 995 94 10000 3.09 270 17:51 04.01.2022
4587 Clouds 4 994 94 10000 3.09 290 16:43 04.01.2022
4588 Clouds 5 994 92 10000 3.6 310 16:23 04.01.2022
4589 Clouds 6 993 95 10000 5.66 310 14:54 04.01.2022
4590 Clouds 6 993 95 10000 5.66 310 14:34 04.01.2022
4591 Clouds 7 993 93 10000 5.14 260 13:27 04.01.2022
4592 Clouds 8 993 91 10000 4.63 220 10:41 04.01.2022
4593 Clouds 8 994 91 10000 4.63 220 09:47 04.01.2022
4594 Clouds 8 994 91 10000 4.63 220 08:32 04.01.2022
4595 Clouds 8 999 90 10000 5.14 220 02:52 04.01.2022
4596 Clouds 8 1000 86 10000 4.63 230 00:41 04.01.2022
4597 Clouds 8 1001 87 10000 5.14 240 23:34 03.01.2022
4598 Clouds 8 1002 88 10000 6.17 240 21:52 03.01.2022
4599 Clouds 8 1002 88 10000 5.66 230 21:34 03.01.2022
4600 Clouds 8 1003 86 10000 5.66 240 20:26 03.01.2022
4601 Clouds 8 1003 85 10000 5.66 250 18:54 03.01.2022
4602 Clouds 8 1003 85 10000 9.26 260 18:28 03.01.2022
4603 Clouds 9 1004 80 10000 7.2 240 16:59 03.01.2022
4604 Clouds 10 1004 79 10000 8.23 240 15:50 03.01.2022
4605 Clouds 10 1005 80 10000 7.72 240 14:31 03.01.2022
4606 Clouds 10 1006 86 10000 6.69 240 12:49 03.01.2022
4607 Clouds 10 1006 84 10000 7.72 250 11:50 03.01.2022
4608 Clouds 10 1007 83 10000 7.72 240 10:37 03.01.2022
4609 Clouds 9 1007 87 10000 7.2 240 08:54 03.01.2022
4610 Clouds 9 1007 90 10000 7.2 250 07:51 03.01.2022
4611 Rain 8 1005 96 10000 8.06 276 01:55 03.01.2022
4612 Rain 10 1005 88 10000 2.57 200 23:22 02.01.2022
4613 Clouds 10 1006 87 10000 4.12 220 22:56 02.01.2022
4614 Clouds 10 1007 86 10000 3.6 220 21:52 02.01.2022
4615 Clouds 10 1007 85 10000 4.63 250 20:45 02.01.2022
4616 Clouds 11 1008 83 10000 5.14 250 20:25 02.01.2022
4617 Clouds 11 1008 83 10000 5.14 250 19:31 02.01.2022
4618 Clouds 11 1008 83 10000 5.66 260 18:55 02.01.2022
4619 Clouds 11 1008 81 10000 8.75 260 17:56 02.01.2022
4620 Clouds 11 1008 81 10000 8.75 260 17:38 02.01.2022
4621 Clouds 11 1007 79 10000 8.75 260 17:20 02.01.2022
4622 Clouds 12 1007 80 10000 11.32 260 16:27 02.01.2022
4623 Clouds 12 1006 82 10000 9.26 240 14:41 02.01.2022
4624 Clouds 13 1006 84 10000 9.77 240 13:25 02.01.2022
4625 Clouds 12 1007 89 10000 7.72 220 12:31 02.01.2022
4626 Clouds 12 1008 92 10000 7.2 220 11:41 02.01.2022
4627 Rain 12 1008 90 10000 7.72 220 10:53 02.01.2022
4628 Clouds 12 1009 92 10000 6.17 210 09:56 02.01.2022
4629 Clouds 11 1011 93 10000 6.69 230 07:34 02.01.2022
4630 Rain 11 1016 92 10000 4.12 220 02:51 02.01.2022
4631 Clear 12 1017 87 10000 3.6 220 23:42 01.01.2022
4632 Clear 12 1017 87 10000 6.17 180 23:24 01.01.2022
4633 Clear 12 1018 87 10000 4.12 190 22:25 01.01.2022
4634 Clear 12 1018 87 10000 4.12 190 21:45 01.01.2022
4635 Clear 12 1018 87 10000 4.63 190 21:21 01.01.2022
4636 Clear 12 1019 87 10000 4.63 190 20:25 01.01.2022
4637 Clear 12 1019 87 10000 4.12 180 19:34 01.01.2022
4638 Clear 12 1020 89 10000 4.63 200 18:51 01.01.2022
4639 Clear 13 1020 87 10000 4.12 210 17:38 01.01.2022
4640 Clear 13 1021 88 10000 3.6 210 16:34 01.01.2022
4641 Clear 13 1021 87 10000 3.6 210 15:37 01.01.2022
4642 Clouds 13 1021 91 10000 5.14 230 14:25 01.01.2022
4643 Clouds 13 1021 90 10000 4.63 220 13:41 01.01.2022
4644 Clouds 12 1022 92 10000 3.09 220 12:25 01.01.2022
4645 Clouds 12 1022 92 8000 3.6 230 11:25 01.01.2022
4646 Clouds 12 1022 92 8000 4.12 230 10:58 01.01.2022
4647 Clouds 12 1022 92 6000 4.63 240 09:48 01.01.2022
4648 Clouds 12 1022 93 6000 4.63 250 08:39 01.01.2022
4649 Clouds 12 1021 93 7000 3.6 250 07:57 01.01.2022
4650 Clouds 12 1021 93 7000 3.6 250 07:38 01.01.2022
4651 Clouds 11 1021 93 10000 5.66 260 06:44 01.01.2022
4652 Clouds 12 1020 92 10000 5.14 260 05:24 01.01.2022
4653 Clouds 12 1020 92 10000 5.14 250 04:35 01.01.2022
4654 Clouds 12 1018 96 10000 6.69 260 00:23 01.01.2022
4655 Drizzle 12 1017 96 10000 7.2 260 22:30 31.12.2021
4656 Drizzle 12 1017 96 10000 7.2 260 21:47 31.12.2021
4657 Clouds 12 1016 96 6000 7.2 260 19:48 31.12.2021
4658 Mist 12 1015 96 5000 6.17 260 19:28 31.12.2021
4659 Clouds 12 1014 94 10000 7.72 260 18:18 31.12.2021
4660 Clouds 12 1014 96 10000 8.23 260 17:28 31.12.2021
4661 Clouds 12 1013 96 9000 8.23 250 16:56 31.12.2021
4662 Clouds 12 1013 96 9000 6.69 240 16:18 31.12.2021
4663 Clouds 12 1013 95 10000 6.17 240 15:50 31.12.2021
4664 Clouds 12 1012 95 6000 6.69 240 15:28 31.12.2021
4665 Clouds 13 1012 87 10000 6.69 240 14:41 31.12.2021
4666 Clouds 13 1013 86 10000 8.75 250 13:56 31.12.2021
4667 Clouds 13 1013 85 10000 8.23 240 13:23 31.12.2021
4668 Clouds 13 1013 88 10000 8.73 248 12:33 31.12.2021
4669 Clouds 13 1013 85 10000 8.23 240 11:42 31.12.2021
4670 Clouds 14 1013 82 10000 8.75 240 11:19 31.12.2021
4671 Clouds 13 1013 85 10000 9.77 240 10:30 31.12.2021
4672 Clouds 13 1013 85 10000 6.69 240 09:35 31.12.2021
4673 Clouds 13 1013 90 10000 7.2 230 08:56 31.12.2021
4674 Clouds 13 1013 90 10000 7.2 240 08:25 31.12.2021
4675 Clouds 13 1013 91 10000 7.2 230 06:39 31.12.2021
4676 Drizzle 12 1013 97 4000 6.69 240 23:23 30.12.2021
4677 Drizzle 12 1013 99 6000 6.69 240 22:33 30.12.2021
4678 Drizzle 12 1013 99 3300 6.17 240 21:51 30.12.2021
4679 Drizzle 12 1013 99 3300 6.17 240 21:33 30.12.2021
4680 Drizzle 12 1013 99 8000 6.69 250 20:44 30.12.2021
4681 Drizzle 12 1013 99 4500 6.17 250 20:24 30.12.2021
4682 Drizzle 12 1012 99 4000 6.17 250 19:43 30.12.2021
4683 Drizzle 12 1012 99 3500 6.69 250 18:29 30.12.2021
4684 Mist 12 1012 99 3800 7.72 250 17:45 30.12.2021
4685 Mist 12 1011 99 2000 7.2 250 16:19 30.12.2021
4686 Mist 12 1010 99 2500 6.69 250 15:42 30.12.2021
4687 Mist 12 1010 97 2000 7.2 250 14:38 30.12.2021
4688 Mist 12 1009 97 1600 8.23 250 13:33 30.12.2021
4689 Mist 12 1009 99 3000 6.69 240 12:40 30.12.2021
4690 Clouds 11 1009 99 10000 5.14 230 10:58 30.12.2021
4691 Mist 10 1009 99 3500 3.09 210 09:58 30.12.2021
4692 Clouds 10 1009 96 9000 2.57 230 08:58 30.12.2021
4693 Clouds 9 1009 96 10000 4.12 240 06:52 30.12.2021
4694 Clear 9 1008 96 10000 5.66 240 03:43 30.12.2021
4695 Clear 8 1008 99 10000 5.14 240 03:23 30.12.2021
4696 Clouds 8 1005 96 4200 3.09 210 23:50 29.12.2021
4697 Mist 7 1004 99 2500 2.57 190 23:23 29.12.2021
4698 Mist 7 1004 99 2300 3.6 170 22:22 29.12.2021
4699 Mist 7 1004 99 2300 3.6 170 22:22 29.12.2021
4700 Mist 7 1004 99 2500 5.14 150 21:43 29.12.2021
4701 Clouds 7 1004 96 5000 4.12 140 20:39 29.12.2021
4702 Clouds 7 1004 96 5000 2.57 150 19:50 29.12.2021
4703 Rain 7 1004 96 7000 3.09 160 18:57 29.12.2021
4704 Clouds 7 1005 99 6000 2.57 180 17:57 29.12.2021
4705 Clouds 7 1005 99 6000 2.57 180 17:28 29.12.2021
4706 Mist 7 1006 99 5000 2.06 200 16:49 29.12.2021
4707 Mist 7 1005 99 5000 2.57 190 16:19 29.12.2021
4708 Mist 7 1005 99 1500 2.06 220 14:46 29.12.2021
4709 Clouds 7 1005 99 7000 2.57 250 12:49 29.12.2021
4710 Clouds 6 1005 99 7000 3.6 260 12:27 29.12.2021
4711 Mist 6 1004 99 3500 2.57 260 10:38 29.12.2021
4712 Fog 5 1002 99 700 2.06 250 08:37 29.12.2021
4713 Mist 5 1001 99 1700 1.54 250 06:48 29.12.2021
4714 Fog 5 1000 99 900 2.57 250 06:27 29.12.2021
4715 Drizzle 5 1000 99 1700 2.06 270 05:50 29.12.2021
4716 Mist 5 998 99 3200 1.03 240 03:46 29.12.2021
4717 Clouds 5 995 96 10000 2.06 250 00:28 29.12.2021
4718 Clouds 5 995 99 10000 2.06 250 23:56 28.12.2021
4719 Clouds 6 994 96 10000 2.57 230 22:56 28.12.2021
4720 Clouds 6 993 99 10000 2.57 220 22:24 28.12.2021
4721 Clouds 6 992 99 10000 2.06 220 21:54 28.12.2021
4722 Clouds 6 992 99 10000 2.57 200 21:28 28.12.2021
4723 Clouds 6 991 96 10000 3.6 220 19:52 28.12.2021
4724 Clouds 6 990 98 10000 2.57 170 18:53 28.12.2021
4725 Rain 6 990 96 10000 3.09 150 18:25 28.12.2021
4726 Rain 6 990 96 3800 5.14 120 17:29 28.12.2021
4727 Rain 6 990 96 10000 5.14 130 15:53 28.12.2021
4728 Rain 6 990 95 10000 4.63 130 15:29 28.12.2021
4729 Clear 6 990 93 10000 4.63 120 14:55 28.12.2021
4730 Clear 6 990 93 10000 4.63 120 14:37 28.12.2021
4731 Clouds 6 991 93 10000 4.12 130 14:18 28.12.2021
4732 Clouds 5 992 93 10000 5.14 130 13:37 28.12.2021
4733 Clouds 5 993 93 10000 4.63 130 12:56 28.12.2021
4734 Clouds 5 993 95 10000 4.63 130 12:20 28.12.2021
4735 Clouds 3 994 96 10000 4.63 140 10:19 28.12.2021
4736 Clouds 3 995 96 8000 3.6 130 07:33 28.12.2021
4737 Clouds 3 997 96 10000 5.14 130 03:37 28.12.2021
4738 Clouds 2 999 95 10000 5.14 120 23:40 27.12.2021
4739 Clouds 2 999 93 10000 3.6 120 22:21 27.12.2021
4740 Clouds 2 1000 92 10000 3.6 120 21:31 27.12.2021
4741 Clouds 1 1000 94 10000 3.09 110 20:39 27.12.2021
4742 Clouds 1 1000 94 10000 4.12 120 19:49 27.12.2021
4743 Clouds 1 1000 94 10000 4.12 110 19:27 27.12.2021
4744 Clouds 1 1001 91 10000 3.6 100 17:54 27.12.2021
4745 Clouds 1 1001 91 10000 3.6 100 17:54 27.12.2021
4746 Clouds 1 1001 91 10000 3.09 130 17:29 27.12.2021
4747 Clouds 1 1001 88 10000 3.6 110 16:26 27.12.2021
4748 Clouds 0 1001 91 10000 4.12 110 15:49 27.12.2021
4749 Clouds 0 1001 91 7000 3.09 120 14:26 27.12.2021
4750 Clouds -1 1002 93 6000 4.12 120 13:31 27.12.2021
4751 Clouds -1 1003 88 7000 4.12 120 11:34 27.12.2021
4752 Clouds -2 1003 87 8000 5.14 110 10:27 27.12.2021
4753 Clouds -2 1003 87 10000 3.6 120 09:38 27.12.2021
4754 Clouds -2 1003 74 10000 4.63 120 07:35 27.12.2021
4755 Clouds -3 1004 82 10000 4.63 110 06:30 27.12.2021
4756 Clouds -3 1006 77 10000 5.66 110 01:59 27.12.2021
4757 Clouds -4 1007 74 10000 5.14 110 23:52 26.12.2021
4758 Clouds -3 1007 74 10000 5.14 110 23:34 26.12.2021
4759 Clouds -4 1008 77 10000 6.69 110 21:48 26.12.2021
4760 Clouds -4 1009 69 10000 5.14 110 20:31 26.12.2021
4761 Clear -4 1009 68 10000 5.14 120 19:31 26.12.2021
4762 Clear -3 1009 65 10000 5.66 110 18:23 26.12.2021
4763 Clear -2 1010 67 10000 5.14 110 15:56 26.12.2021
4764 Clear -2 1010 60 10000 5.14 100 14:27 26.12.2021
4765 Clear -2 1011 61 10000 5.66 110 13:40 26.12.2021
4766 Clear -3 1011 64 10000 5.66 110 13:18 26.12.2021
4767 Clear -4 1012 67 10000 4.63 110 12:27 26.12.2021
4768 Clear -7 1012 74 10000 3.09 100 10:22 26.12.2021
4769 Clear -8 1012 82 10000 4.36 95 09:19 26.12.2021
4770 Clear -9 1012 78 10000 4.12 90 08:40 26.12.2021
4771 Clear -9 1012 79 10000 3.6 80 07:34 26.12.2021
4772 Clear -7 1013 90 10000 2.57 100 01:24 26.12.2021
4773 Clear -7 1014 90 10000 1.54 100 23:53 25.12.2021
4774 Clear -7 1014 93 10000 3.04 103 23:27 25.12.2021
4775 Clear -7 1014 90 10000 2.57 100 22:23 25.12.2021
4776 Clear -6 1014 89 10000 3.09 80 20:57 25.12.2021
4777 Clear -5 1014 86 10000 2.06 90 19:26 25.12.2021
4778 Clear -5 1014 86 10000 2.06 110 18:55 25.12.2021
4779 Clear -4 1014 77 10000 2.57 90 17:33 25.12.2021
4780 Clear -4 1014 78 10000 3.09 90 16:36 25.12.2021
4781 Clear -2 1014 72 10000 2.57 120 15:18 25.12.2021
4782 Clear -2 1014 73 10000 3.6 120 13:30 25.12.2021
4783 Clear -3 1014 75 10000 2.57 100 11:51 25.12.2021
4784 Clear -6 1013 85 10000 2.57 60 09:54 25.12.2021
4785 Clear -7 1013 86 10000 2.57 60 09:34 25.12.2021
4786 Clear -6 1011 82 10000 3.6 80 04:34 25.12.2021
4787 Clear -3 1010 70 10000 5.66 70 01:25 25.12.2021
4788 Clear -2 1009 70 10000 6.69 70 23:42 24.12.2021
4789 Clouds 0 1006 92 10000 5.14 40 19:50 24.12.2021
4790 Snow 0 1005 95 10000 4.63 50 19:24 24.12.2021
4791 Clouds 2 1003 94 7000 2.06 10 16:59 24.12.2021
4792 Clouds 3 1003 96 6000 1.54 300 16:23 24.12.2021
4793 Clouds 3 1002 96 6000 2.06 300 15:48 24.12.2021
4794 Clouds 3 1002 96 5000 2.06 310 15:20 24.12.2021
4795 Clouds 3 1001 94 4500 2.57 340 14:31 24.12.2021
4796 Clouds 3 1001 96 6000 2.06 330 13:44 24.12.2021
4797 Clouds 3 1000 96 4500 4.12 340 12:49 24.12.2021
4798 Clouds 3 1000 96 4800 4.63 360 12:23 24.12.2021
4799 Clouds 3 1000 96 3800 4.63 360 11:40 24.12.2021
4800 Clouds 4 999 96 3500 3.6 330 11:18 24.12.2021
4801 Clouds 4 999 96 2700 4.63 320 10:33 24.12.2021
4802 Drizzle 6 998 96 2700 2.57 320 08:38 24.12.2021
4803 Drizzle 6 998 96 2800 4.12 280 07:58 24.12.2021
4804 Drizzle 6 998 99 2000 4.63 260 06:18 24.12.2021
4805 Clouds 4 1000 99 5000 6.69 250 00:21 24.12.2021
4806 Clouds 4 1000 99 4500 6.17 250 23:39 23.12.2021
4807 Clouds 4 1001 96 4000 6.17 260 22:50 23.12.2021
4808 Clouds 3 1001 99 3500 6.69 250 22:22 23.12.2021
4809 Rain 3 1001 99 2200 6.17 250 21:39 23.12.2021
4810 Mist 2 1002 96 3500 6.17 230 20:27 23.12.2021
4811 Rain 1 1003 96 7000 5.14 230 19:28 23.12.2021
4812 Rain 1 1004 96 4800 4.63 230 18:18 23.12.2021
4813 Rain 1 1004 96 4500 5.66 210 17:29 23.12.2021
4814 Snow 0 1005 96 6000 3.09 210 16:26 23.12.2021
4815 Mist 0 1006 96 4800 3.6 220 15:40 23.12.2021
4816 Mist 0 1006 99 4500 4.12 230 15:22 23.12.2021
4817 Mist 0 1007 96 5000 4.12 220 14:40 23.12.2021
4818 Snow 0 1008 90 10000 3.6 210 13:31 23.12.2021
4819 Snow 0 1010 93 10000 2.06 180 11:49 23.12.2021
4820 Clouds -1 1011 96 10000 1.03 0 09:53 23.12.2021
4821 Clouds -1 1011 96 10000 1.03 0 09:53 23.12.2021
4822 Clouds -1 1011 96 10000 1.03 0 09:34 23.12.2021
4823 Clear -2 1012 96 10000 1.03 0 08:28 23.12.2021
4824 Snow -2 1014 96 10000 1.54 130 05:39 23.12.2021
4825 Clear -3 1017 96 10000 1.03 0 02:56 23.12.2021
4826 Mist -3 1020 99 5000 1.03 130 22:53 22.12.2021
4827 Mist -3 1020 98 4500 1.54 130 22:19 22.12.2021
4828 Mist -3 1021 98 3500 1.03 150 21:37 22.12.2021
4829 Mist -3 1021 98 3000 2.06 140 21:19 22.12.2021
4830 Mist -3 1021 98 2800 1.54 130 20:40 22.12.2021
4831 Mist -3 1022 98 1800 2.06 130 19:57 22.12.2021
4832 Mist -3 1023 98 2000 1.54 130 18:55 22.12.2021
4833 Mist -3 1023 98 2800 1.54 130 17:38 22.12.2021
4834 Mist -3 1024 98 4000 1.54 120 16:25 22.12.2021
4835 Clouds -2 1024 93 6000 1.54 150 15:21 22.12.2021
4836 Mist -3 1026 93 4500 1.54 140 12:59 22.12.2021
4837 Mist -4 1026 93 5000 1.54 160 11:50 22.12.2021
4838 Mist -4 1026 93 3200 2.06 170 09:53 22.12.2021
4839 Mist -5 1026 99 1100 2.06 170 08:34 22.12.2021
4840 Fog -5 1027 94 800 1.54 170 07:21 22.12.2021
4841 Fog -5 1027 94 500 1.54 150 05:39 22.12.2021
4842 Fog -5 1027 93 600 1.54 150 05:20 22.12.2021
4843 Fog -5 1027 93 600 1.54 140 04:42 22.12.2021
4844 Fog -5 1027 93 600 2.06 140 03:54 22.12.2021
4845 Fog -5 1027 93 600 1.54 140 03:31 22.12.2021
4846 Mist -5 1027 95 1100 2.06 150 23:57 21.12.2021
4847 Fog -5 1027 98 1000 2.06 150 22:44 21.12.2021
4848 Fog -5 1027 98 400 2.06 170 22:24 21.12.2021
4849 Fog -4 1027 98 350 2.06 160 21:42 21.12.2021
4850 Mist -4 1027 98 1200 2.57 170 20:44 21.12.2021
4851 Fog -4 1027 98 3000 1.54 190 20:20 21.12.2021
4852 Fog -3 1027 98 3000 1.54 190 20:20 21.12.2021
4853 Fog -3 1027 98 400 2.06 150 19:41 21.12.2021
4854 Fog -3 1026 98 200 1.54 150 18:36 21.12.2021
4855 Fog -2 1026 95 200 1.54 150 17:59 21.12.2021
4856 Fog -2 1026 95 200 1.54 150 17:40 21.12.2021
4857 Clear 1 1026 92 10000 1.54 160 15:46 21.12.2021
4858 Clear 1 1026 93 10000 0.51 0 14:59 21.12.2021
4859 Clear 0 1026 95 10000 1.03 0 13:44 21.12.2021
4860 Mist 0 1027 95 5000 0.51 0 12:58 21.12.2021
4861 Fog -4 1027 93 800 0.51 0 10:55 21.12.2021
4862 Fog -6 1027 100 250 1.03 230 09:57 21.12.2021
4863 Fog -6 1027 93 200 1.54 250 09:18 21.12.2021
4864 Fog -4 1027 93 300 0.51 220 07:50 21.12.2021
4865 Fog -5 1027 97 300 1.03 230 07:25 21.12.2021
4866 Fog -4 1027 93 700 1.03 230 04:48 21.12.2021
4867 Fog -4 1027 98 500 1.54 240 02:39 21.12.2021
4868 Fog -2 1028 94 800 0.51 290 23:58 20.12.2021
4869 Fog -2 1028 94 900 1.03 250 22:49 20.12.2021
4870 Fog -2 1028 97 4000 1.54 240 22:28 20.12.2021
4871 Clear -1 1028 97 10000 1.03 0 21:43 20.12.2021
4872 Clear -1 1028 97 10000 1.54 280 21:23 20.12.2021
4873 Clear -1 1028 94 10000 2.57 310 20:42 20.12.2021
4874 Clear 0 1028 94 10000 1.54 290 19:48 20.12.2021
4875 Clear 0 1028 94 10000 2.57 310 19:29 20.12.2021
4876 Clear 0 1028 94 10000 1.54 290 18:49 20.12.2021
4877 Clear 1 1028 90 10000 2.57 300 17:52 20.12.2021
4878 Clear 2 1028 90 10000 2.57 310 16:56 20.12.2021
4879 Clear 3 1028 90 10000 2.57 310 16:36 20.12.2021
4880 Clear 4 1028 86 10000 3.09 310 15:47 20.12.2021
4881 Clear 4 1028 85 10000 2.57 300 14:42 20.12.2021
4882 Clear 3 1028 92 10000 3.6 310 12:51 20.12.2021
4883 Clear 1 1028 98 10000 1.54 260 11:19 20.12.2021
4884 Mist -2 1028 95 1800 1.03 300 09:47 20.12.2021
4885 Fog -2 1027 98 800 1.54 290 08:58 20.12.2021
4886 Fog -2 1027 98 800 1.54 290 08:40 20.12.2021
4887 Fog -2 1027 98 800 1.54 290 07:49 20.12.2021
4888 Fog -2 1027 100 10000 1.54 280 06:47 20.12.2021
4889 Fog -1 1027 98 10000 1.54 310 03:42 20.12.2021
4890 Clear 2 1026 95 10000 2.06 340 23:51 19.12.2021
4891 Clear 4 1026 92 10000 2.06 320 22:45 19.12.2021
4892 Clouds 5 1025 91 10000 3.09 340 21:49 19.12.2021
4893 Clouds 5 1025 88 10000 3.6 350 21:26 19.12.2021
4894 Clouds 6 1025 85 10000 4.12 340 20:30 19.12.2021
4895 Clouds 6 1025 84 10000 6.69 350 19:46 19.12.2021
4896 Clouds 7 1025 82 10000 6.17 340 18:58 19.12.2021
4897 Clouds 7 1024 80 10000 6.17 340 18:27 19.12.2021
4898 Clouds 7 1024 82 10000 7.72 340 17:49 19.12.2021
4899 Clouds 8 1024 83 10000 7.2 320 17:18 19.12.2021
4900 Clouds 8 1024 86 10000 7.2 310 16:25 19.12.2021
4901 Clouds 8 1025 89 10000 6.17 300 15:31 19.12.2021
4902 Drizzle 8 1025 90 10000 5.66 310 14:59 19.12.2021
4903 Drizzle 8 1025 91 10000 5.66 310 14:36 19.12.2021
4904 Clouds 8 1026 89 10000 6.69 300 13:22 19.12.2021
4905 Clouds 8 1026 89 10000 6.17 300 12:33 19.12.2021
4906 Drizzle 8 1027 91 10000 6.69 300 11:44 19.12.2021
4907 Drizzle 7 1028 94 8000 7.2 310 10:58 19.12.2021
4908 Drizzle 7 1028 95 10000 7.2 290 10:25 19.12.2021
4909 Drizzle 7 1028 95 10000 6.17 290 09:37 19.12.2021
4910 Clouds 7 1029 95 10000 6.17 310 07:50 19.12.2021
4911 Clouds 7 1030 91 10000 7.2 300 04:45 19.12.2021
4912 Clouds 7 1032 91 10000 5.66 300 01:19 19.12.2021
4913 Clouds 7 1032 91 10000 5.66 300 00:52 19.12.2021
4914 Clouds 8 1033 89 10000 5.66 290 22:36 18.12.2021
4915 Clouds 8 1034 92 10000 5.66 290 21:57 18.12.2021
4916 Clouds 8 1034 92 10000 5.66 290 21:35 18.12.2021
4917 Clouds 8 1034 92 10000 4.63 300 20:44 18.12.2021
4918 Clouds 8 1034 93 10000 5.66 310 19:54 18.12.2021
4919 Clouds 8 1035 92 10000 5.14 300 19:20 18.12.2021
4920 Clouds 8 1035 95 10000 5.66 300 18:21 18.12.2021
4921 Clouds 8 1035 96 10000 5.66 300 17:48 18.12.2021
4922 Clouds 8 1035 97 10000 4.25 288 16:26 18.12.2021
4923 Clouds 9 1035 93 10000 4.63 290 15:26 18.12.2021
4924 Clouds 9 1036 94 10000 4.63 300 14:32 18.12.2021
4925 Clouds 8 1036 96 10000 3.09 300 13:21 18.12.2021
4926 Drizzle 8 1037 96 5000 4.12 300 11:22 18.12.2021
4927 Drizzle 7 1038 100 2500 4.12 290 09:40 18.12.2021
4928 Mist 7 1038 99 3300 4.12 290 08:47 18.12.2021
4929 Mist 7 1038 99 3000 4.12 280 08:19 18.12.2021
4930 Clouds 7 1039 96 10000 3.6 290 03:42 18.12.2021
4931 Clouds 7 1039 96 10000 3.6 330 00:28 18.12.2021
4932 Clouds 7 1039 96 10000 4.12 320 23:44 17.12.2021
4933 Clouds 8 1039 96 10000 4.12 320 21:57 17.12.2021
4934 Clouds 8 1039 96 10000 4.12 330 21:19 17.12.2021
4935 Clouds 8 1039 96 10000 4.12 320 20:40 17.12.2021
4936 Clouds 8 1039 96 10000 4.63 330 19:24 17.12.2021
4937 Clouds 8 1039 96 10000 4.12 330 18:38 17.12.2021
4938 Clouds 8 1039 96 10000 3.09 320 17:31 17.12.2021
4939 Drizzle 8 1039 96 4500 2.57 290 16:49 17.12.2021
4940 Clouds 8 1039 96 10000 1.54 290 16:22 17.12.2021
4941 Clouds 8 1039 93 10000 3.09 320 15:25 17.12.2021
4942 Clouds 8 1039 93 10000 2.57 300 14:40 17.12.2021
4943 Clouds 8 1039 92 10000 2.57 330 13:21 17.12.2021
4944 Clouds 8 1039 93 10000 4.12 310 11:50 17.12.2021
4945 Clouds 7 1039 96 10000 2.57 300 10:37 17.12.2021
4946 Clouds 7 1039 98 10000 2.57 300 09:34 17.12.2021
4947 Clouds 7 1039 98 10000 1.54 280 08:30 17.12.2021
4948 Clouds 7 1038 96 10000 1.54 300 06:47 17.12.2021
4949 Drizzle 8 1039 95 8000 4.12 300 02:54 17.12.2021
4950 Clouds 8 1039 95 10000 2.06 300 23:47 16.12.2021
4951 Clouds 8 1039 95 10000 2.06 280 22:24 16.12.2021
4952 Clouds 8 1039 95 10000 1.54 250 21:51 16.12.2021
4953 Clouds 8 1039 92 10000 1.03 0 21:30 16.12.2021
4954 Clouds 8 1038 92 10000 1.54 300 20:31 16.12.2021
4955 Clouds 9 1038 92 10000 1.03 310 19:49 16.12.2021
4956 Clouds 9 1038 92 10000 1.54 320 18:41 16.12.2021
4957 Drizzle 9 1038 95 10000 2.57 310 17:57 16.12.2021
4958 Clouds 9 1037 92 10000 3.6 300 17:31 16.12.2021
4959 Clouds 9 1037 92 10000 4.12 310 16:23 16.12.2021
4960 Clouds 9 1036 95 10000 2.57 300 14:54 16.12.2021
4961 Clouds 9 1036 96 10000 3.09 290 13:43 16.12.2021
4962 Mist 9 1036 96 3000 3.09 260 11:46 16.12.2021
4963 Drizzle 9 1036 96 2000 2.57 280 11:18 16.12.2021
4964 Drizzle 9 1035 96 1800 2.06 270 10:27 16.12.2021
4965 Drizzle 8 1034 98 3800 3.09 280 08:37 16.12.2021
4966 Clouds 8 1032 95 10000 3.09 270 06:22 16.12.2021
4967 Clouds 7 1031 94 10000 3.09 220 02:59 16.12.2021
4968 Clouds 7 1031 91 10000 3.6 230 23:35 15.12.2021
4969 Clouds 7 1030 91 10000 2.57 210 22:48 15.12.2021
4970 Clouds 7 1030 87 10000 3.09 230 21:58 15.12.2021
4971 Clouds 7 1030 87 10000 3.09 230 21:28 15.12.2021
4972 Clouds 7 1030 89 10000 3.6 240 20:31 15.12.2021
4973 Clouds 7 1030 92 10000 2.57 250 19:52 15.12.2021
4974 Clouds 8 1029 93 10000 3.09 250 18:40 15.12.2021
4975 Clouds 8 1029 90 10000 3.6 250 17:57 15.12.2021
4976 Clouds 9 1029 91 10000 5.02 267 17:39 15.12.2021
4977 Clouds 9 1028 89 10000 3.6 240 16:35 15.12.2021
4978 Clouds 10 1028 89 10000 4.63 250 15:47 15.12.2021
4979 Clouds 10 1028 89 10000 4.12 240 15:29 15.12.2021
4980 Clouds 10 1028 90 9000 4.12 240 14:44 15.12.2021
4981 Clouds 10 1028 92 8000 5.14 240 13:27 15.12.2021
4982 Mist 10 1028 94 5000 5.14 240 10:58 15.12.2021
4983 Clouds 10 1027 94 6000 5.14 230 09:31 15.12.2021
4984 Clouds 10 1027 96 6000 5.66 230 07:52 15.12.2021
4985 Mist 9 1027 99 2500 4.63 230 03:58 15.12.2021
4986 Drizzle 9 1026 96 2500 3.09 210 23:47 14.12.2021
4987 Drizzle 8 1026 99 3000 3.09 210 22:55 14.12.2021
4988 Drizzle 8 1026 99 3000 3.09 210 22:37 14.12.2021
4989 Mist 8 1026 99 4000 3.09 230 21:25 14.12.2021
4990 Mist 8 1026 98 2500 3.6 220 20:20 14.12.2021
4991 Drizzle 8 1026 98 5000 3.09 240 19:21 14.12.2021
4992 Drizzle 8 1026 98 4000 3.6 230 18:38 14.12.2021
4993 Drizzle 8 1025 98 2800 3.6 220 17:51 14.12.2021
4994 Drizzle 8 1025 98 2000 3.6 220 16:43 14.12.2021
4995 Drizzle 8 1025 98 1600 3.09 230 15:54 14.12.2021
4996 Drizzle 8 1025 98 4500 4.12 250 13:58 14.12.2021
4997 Clouds 8 1025 93 6000 5.14 250 12:47 14.12.2021
4998 Clouds 8 1025 94 9000 5.14 250 11:25 14.12.2021
4999 Clouds 8 1025 92 10000 4.63 250 10:45 14.12.2021
5000 Clouds 8 1025 91 10000 4.12 240 09:54 14.12.2021
5001 Clouds 8 1024 91 10000 4.12 240 08:48 14.12.2021
5002 Clouds 8 1024 88 10000 3.6 240 08:21 14.12.2021
5003 Clouds 8 1024 87 10000 4.63 230 06:40 14.12.2021
5004 Clouds 8 1025 92 10000 3.6 210 23:42 13.12.2021
5005 Clouds 8 1025 90 10000 4.12 210 22:24 13.12.2021
5006 Clouds 8 1025 93 10000 3.6 210 21:39 13.12.2021
5007 Clouds 9 1026 93 10000 3.09 220 20:51 13.12.2021
5008 Clouds 9 1026 93 10000 3.09 220 20:51 13.12.2021
5009 Clouds 9 1026 93 10000 2.57 220 20:21 13.12.2021
5010 Clouds 9 1026 93 10000 3.6 210 19:49 13.12.2021
5011 Clouds 9 1026 93 10000 4.12 230 17:27 13.12.2021
5012 Clouds 9 1026 93 10000 4.12 220 16:32 13.12.2021
5013 Clouds 9 1025 94 10000 4.12 220 15:43 13.12.2021
5014 Clouds 9 1025 96 10000 3.09 220 14:42 13.12.2021
5015 Clouds 9 1026 98 10000 4.68 224 13:37 13.12.2021
5016 Clouds 9 1025 98 10000 4.97 225 12:40 13.12.2021
5017 Clouds 9 1025 98 10000 4.84 228 11:52 13.12.2021
5018 Clouds 9 1026 94 10000 3.09 220 11:29 13.12.2021
5019 Clouds 10 1026 96 10000 3.09 220 10:37 13.12.2021
5020 Clouds 10 1025 96 7000 4.12 250 08:44 13.12.2021
5021 Mist 10 1024 96 5000 3.6 240 06:55 13.12.2021
5022 Mist 10 1023 96 3500 3.09 230 05:19 13.12.2021
5023 Mist 9 1022 99 2300 3.09 230 00:27 13.12.2021
5024 Mist 9 1022 96 3400 3.6 230 21:59 12.12.2021
5025 Drizzle 9 1021 96 3000 3.6 240 21:29 12.12.2021
5026 Mist 8 1021 99 2800 3.09 230 19:36 12.12.2021
5027 Drizzle 8 1020 96 3000 4.12 240 18:23 12.12.2021
5028 Drizzle 8 1019 96 3000 3.6 230 16:47 12.12.2021
5029 Drizzle 7 1019 99 2200 3.6 230 16:22 12.12.2021
5030 Drizzle 7 1019 96 3000 4.12 230 15:28 12.12.2021
5031 Drizzle 7 1019 96 2200 4.63 230 14:54 12.12.2021
5032 Drizzle 7 1018 96 3000 5.66 230 14:19 12.12.2021
5033 Clouds 6 1018 96 10000 4.63 230 12:51 12.12.2021
5034 Drizzle 6 1018 96 4000 4.63 210 12:23 12.12.2021
5035 Drizzle 6 1018 96 4000 4.63 210 12:23 12.12.2021
5036 Drizzle 5 1018 96 6000 5.66 220 11:43 12.12.2021
5037 Drizzle 5 1019 96 8000 5.14 200 10:44 12.12.2021
5038 Drizzle 5 1019 96 8000 5.14 200 10:44 12.12.2021
5039 Drizzle 5 1018 96 4400 5.66 200 10:21 12.12.2021
5040 Drizzle 4 1018 96 3400 6.69 170 08:50 12.12.2021
5041 Clouds 4 1019 96 9000 5.14 170 07:30 12.12.2021
5042 Clouds 4 1019 93 9000 3.6 200 05:56 12.12.2021
5043 Mist 4 1019 96 5000 3.09 190 04:53 12.12.2021
5044 Mist 3 1020 96 4500 3.09 180 02:52 12.12.2021
5045 Mist 2 1020 95 2800 5.14 240 23:28 11.12.2021
5046 Mist 1 1019 98 2500 4.12 240 22:21 11.12.2021
5047 Mist 1 1019 98 2500 4.12 240 21:47 11.12.2021
5048 Mist 0 1018 97 2800 3.6 220 20:20 11.12.2021
5049 Clouds 1 1018 94 6000 6.17 220 19:21 11.12.2021
5050 Clouds 1 1018 94 6000 6.17 220 19:21 11.12.2021
5051 Clear 1 1017 90 10000 5.66 220 18:49 11.12.2021
5052 Clear 2 1017 86 10000 4.63 220 17:56 11.12.2021
5053 Clear 3 1015 84 10000 4.63 220 16:40 11.12.2021
5054 Clear 4 1015 80 10000 4.63 230 15:46 11.12.2021
5055 Clear 5 1014 79 10000 4.63 230 14:54 11.12.2021
5056 Clouds 4 1013 86 10000 2.57 230 12:42 11.12.2021
5057 Clouds 2 1013 92 9000 2.57 220 11:24 11.12.2021
5058 Mist 0 1012 96 4500 2.06 250 09:45 11.12.2021
5059 Mist 0 1012 96 4500 2.06 250 09:45 11.12.2021
5060 Mist 0 1012 96 4500 2.06 250 09:45 11.12.2021
5061 Mist 0 1012 96 4500 2.06 250 09:45 11.12.2021
5062 Clear 1 1009 95 10000 2.57 210 07:30 11.12.2021
5063 Clouds 2 1003 91 10000 1.54 60 00:51 11.12.2021
5064 Clouds 2 1002 88 10000 1.54 40 23:49 10.12.2021
5065 Clouds 3 1002 87 10000 0.51 0 23:18 10.12.2021
5066 Clouds 3 1001 81 10000 1.03 110 21:52 10.12.2021
5067 Clouds 3 999 81 10000 2.57 100 20:57 10.12.2021
5068 Clouds 3 998 84 10000 3.09 80 19:21 10.12.2021
5069 Clouds 3 997 86 10000 4.12 90 17:55 10.12.2021
5070 Clouds 4 996 85 10000 3.6 80 16:55 10.12.2021
5071 Clouds 4 996 85 10000 2.57 90 16:19 10.12.2021
5072 Clouds 4 996 83 10000 3.09 100 15:39 10.12.2021
5073 Clouds 4 996 83 10000 2.57 100 15:20 10.12.2021
5074 Clouds 5 995 82 10000 3.6 120 13:51 10.12.2021
5075 Clouds 4 995 85 10000 2.57 120 13:26 10.12.2021
5076 Clouds 4 995 87 10000 3.09 140 12:34 10.12.2021
5077 Clear 3 996 92 10000 4.63 120 11:28 10.12.2021
5078 Clear 3 996 91 10000 4.63 120 11:28 10.12.2021
5079 Clear 2 996 95 10000 2.57 100 09:54 10.12.2021
5080 Clouds 3 996 92 10000 3.6 110 08:52 10.12.2021
5081 Clouds 3 997 91 10000 4.63 120 06:22 10.12.2021
5082 Clouds 3 999 91 10000 3.6 140 02:48 10.12.2021
5083 Clouds 4 1001 89 10000 3.09 150 23:54 09.12.2021
5084 Clouds 4 1002 89 10000 3.6 170 23:20 09.12.2021
5085 Clouds 4 1002 89 10000 3.09 180 22:24 09.12.2021
5086 Clouds 4 1002 89 10000 3.6 190 21:59 09.12.2021
5087 Clouds 3 1003 92 10000 2.57 180 20:44 09.12.2021
5088 Clouds 3 1003 89 10000 3.09 150 20:22 09.12.2021
5089 Clouds 3 1003 89 10000 1.54 150 19:21 09.12.2021
5090 Clouds 3 1003 89 10000 3.09 170 18:48 09.12.2021
5091 Clouds 3 1003 90 10000 2.57 190 17:56 09.12.2021
5092 Mist 3 1003 96 5000 3.6 140 17:26 09.12.2021
5093 Mist 3 1003 96 4500 2.06 140 16:55 09.12.2021
5094 Mist 3 1003 96 5000 2.57 130 15:46 09.12.2021
5095 Mist 3 1003 96 4000 3.09 160 14:50 09.12.2021
5096 Mist 2 1003 96 2000 3.6 140 13:25 09.12.2021
5097 Mist 2 1004 96 1800 3.6 140 12:42 09.12.2021
5098 Fog 1 1004 98 600 3.6 130 11:24 09.12.2021
5099 Fog 1 1004 98 800 3.6 150 09:44 09.12.2021
5100 Mist 1 1003 96 3800 3.09 120 06:51 09.12.2021
5101 Clouds 1 1003 93 10000 2.57 140 03:43 09.12.2021
5102 Clouds 2 1002 95 10000 1.54 140 23:46 08.12.2021
5103 Clouds 2 1002 95 10000 2.06 130 23:26 08.12.2021
5104 Clouds 2 1002 93 10000 2.57 130 22:50 08.12.2021
5105 Clear 2 1002 95 10000 4.12 130 21:46 08.12.2021
5106 Clear 2 1001 95 10000 3.6 110 21:28 08.12.2021
5107 Clear 2 1001 95 10000 3.09 110 20:18 08.12.2021
5108 Clear 3 1001 92 10000 4.12 120 19:37 08.12.2021
5109 Clear 3 1000 92 10000 4.63 120 18:53 08.12.2021
5110 Clear 3 1000 92 10000 4.63 120 18:53 08.12.2021
5111 Clear 3 1000 89 10000 3.6 130 17:52 08.12.2021
5112 Clear 5 999 87 10000 2.57 140 15:59 08.12.2021
5113 Clouds 5 999 87 10000 3.6 160 15:31 08.12.2021
5114 Clouds 5 999 87 10000 4.12 160 14:52 08.12.2021
5115 Clouds 5 998 88 10000 4.67 192 12:39 08.12.2021
5116 Clouds 4 998 92 10000 5.66 140 10:36 08.12.2021
5117 Clouds 3 997 92 10000 6.17 140 09:31 08.12.2021
5118 Clouds 2 996 95 10000 5.66 140 07:34 08.12.2021
5119 Snow 1 996 94 8000 7.2 130 04:58 08.12.2021
5120 Clear 2 1001 92 10000 6.69 110 23:56 07.12.2021
5121 Clouds 2 1002 94 10000 6.17 130 22:37 07.12.2021
5122 Clouds 2 1003 95 6000 6.17 120 21:24 07.12.2021
5123 Clouds 3 1005 94 8000 5.66 130 20:25 07.12.2021
5124 Clouds 4 1006 94 9000 3.6 140 18:57 07.12.2021
5125 Clouds 4 1007 95 9000 4.12 150 18:19 07.12.2021
5126 Clouds 4 1007 95 8000 4.12 130 17:20 07.12.2021
5127 Clouds 4 1007 95 8000 3.09 150 16:37 07.12.2021
5128 Clouds 4 1008 95 8000 3.6 160 15:59 07.12.2021
5129 Clouds 4 1008 95 8000 3.09 160 14:37 07.12.2021
5130 Clouds 3 1008 96 6000 3.6 180 13:29 07.12.2021
5131 Mist 3 1008 96 5000 3.09 160 12:21 07.12.2021
5132 Mist 2 1008 96 5000 3.09 170 10:48 07.12.2021
5133 Mist 1 1008 96 4000 2.57 150 09:20 07.12.2021
5134 Snow 1 1006 95 6000 3.6 140 06:40 07.12.2021
5135 Snow 1 1006 95 5000 3.6 120 05:47 07.12.2021
5136 Clouds 1 1005 92 10000 5.14 120 02:35 07.12.2021
5137 Clouds 1 1008 92 10000 6.17 130 23:21 06.12.2021
5138 Clouds 1 1008 92 10000 6.17 130 22:40 06.12.2021
5139 Clear 1 1009 95 10000 6.69 130 21:59 06.12.2021
5140 Clouds 1 1009 95 10000 6.17 130 21:27 06.12.2021
5141 Clouds 1 1010 95 10000 5.66 120 20:32 06.12.2021
5142 Clouds 1 1010 95 10000 5.66 120 20:32 06.12.2021
5143 Clouds 1 1010 95 10000 5.66 120 20:32 06.12.2021
5144 Clouds 1 1011 95 10000 5.66 130 19:24 06.12.2021
5145 Clouds 1 1011 92 10000 5.66 130 18:40 06.12.2021
5146 Clouds 2 1011 92 10000 4.63 130 17:54 06.12.2021
5147 Clouds 2 1012 93 10000 4.12 130 17:33 06.12.2021
5148 Clouds 2 1013 93 10000 3.6 130 15:51 06.12.2021
5149 Clouds 2 1014 95 10000 3.09 140 14:38 06.12.2021
5150 Clouds 2 1014 92 10000 4.12 150 13:23 06.12.2021
5151 Clouds 2 1014 94 9000 4.12 140 12:37 06.12.2021
5152 Clouds 1 1015 94 10000 4.12 120 10:23 06.12.2021
5153 Clouds 1 1015 96 10000 2.57 80 07:40 06.12.2021
5154 Clouds 1 1013 94 10000 3.09 50 02:26 06.12.2021
5155 Clouds 1 1010 96 10000 4.12 60 22:25 05.12.2021
5156 Snow 1 1010 96 10000 3.6 50 21:25 05.12.2021
5157 Snow 1 1010 96 10000 4.12 50 20:52 05.12.2021
5158 Rain 1 1009 96 10000 4.12 50 20:18 05.12.2021
5159 Clouds 1 1008 96 10000 3.6 50 19:24 05.12.2021
5160 Clouds 2 1008 98 10000 2.06 50 18:29 05.12.2021
5161 Clouds 2 1007 99 10000 3.09 60 17:49 05.12.2021
5162 Clouds 2 1007 99 10000 2.57 60 17:20 05.12.2021
5163 Clouds 2 1006 99 10000 3.09 50 16:28 05.12.2021
5164 Clouds 2 1005 99 9000 2.57 60 15:59 05.12.2021
5165 Clouds 3 1004 96 7000 3.6 50 14:48 05.12.2021
5166 Drizzle 3 1004 98 6000 1.54 40 14:29 05.12.2021
5167 Drizzle 3 1004 96 4500 2.06 60 13:35 05.12.2021
5168 Drizzle 3 1003 99 6000 1.54 70 12:45 05.12.2021
5169 Clouds 2 1003 96 4000 2.06 90 12:26 05.12.2021
5170 Clouds 2 1003 96 6000 2.06 110 11:44 05.12.2021
5171 Rain 2 1002 98 6000 1.54 120 10:43 05.12.2021
5172 Rain 1 1001 98 10000 1.54 200 09:47 05.12.2021
5173 Mist 1 998 96 4000 1.03 0 06:31 05.12.2021
5174 Snow 0 996 98 2700 1.03 130 01:29 05.12.2021
5175 Snow 0 996 98 2300 1.03 0 23:22 04.12.2021
5176 Snow 0 995 98 1200 1.03 0 21:51 04.12.2021
5177 Clouds 2 995 96 6000 3.09 160 20:47 04.12.2021
5178 Clouds 3 995 96 9000 3.09 140 19:54 04.12.2021
5179 Rain 3 995 96 8000 4.12 130 19:30 04.12.2021
5180 Rain 4 995 93 10000 3.09 130 17:58 04.12.2021
5181 Clouds 4 995 93 10000 3.09 130 17:36 04.12.2021
5182 Clouds 4 995 93 10000 3.6 120 16:47 04.12.2021
5183 Clouds 4 995 96 10000 4.12 120 16:29 04.12.2021
5184 Clouds 4 996 96 10000 4.12 140 14:23 04.12.2021
5185 Drizzle 4 997 96 3200 4.12 140 11:45 04.12.2021
5186 Drizzle 4 998 96 3500 3.09 150 11:25 04.12.2021
5187 Drizzle 4 998 96 4000 3.6 150 10:42 04.12.2021
5188 Clouds 4 998 96 9000 2.57 150 08:42 04.12.2021
5189 Clouds 4 998 96 10000 3.6 200 06:24 04.12.2021
5190 Clouds 4 998 96 10000 3.6 210 04:41 04.12.2021
5191 Clouds 4 1000 96 5000 7.2 230 23:49 03.12.2021
5192 Clouds 4 1000 96 5000 7.2 230 23:49 03.12.2021
5193 Drizzle 4 1000 96 7000 7.72 220 22:57 03.12.2021
5194 Drizzle 4 1000 96 7000 7.72 220 22:38 03.12.2021
5195 Clouds 4 1000 96 10000 7.72 220 21:25 03.12.2021
5196 Drizzle 4 1000 93 10000 8.23 220 20:46 03.12.2021
5197 Drizzle 3 1001 96 7000 8.75 230 19:40 03.12.2021
5198 Clouds 3 1001 95 8000 7.72 220 18:28 03.12.2021
5199 Clouds 3 1001 95 4200 8.23 220 17:58 03.12.2021
5200 Clouds 2 1003 90 10000 6.69 210 14:47 03.12.2021
5201 Clouds 2 1005 95 8000 6.69 210 12:54 03.12.2021
5202 Snow 2 1006 93 8000 6.69 210 11:38 03.12.2021
5203 Clouds 1 1007 96 10000 6.17 220 10:32 03.12.2021
5204 Clear 0 1007 95 10000 4.63 220 08:25 03.12.2021
5205 Clear 0 1007 96 10000 5.66 220 07:40 03.12.2021
5206 Clear -1 1007 96 10000 3.09 240 04:26 03.12.2021
5207 Clear -1 1007 95 10000 3.6 240 00:48 03.12.2021
5208 Clear -1 1006 96 10000 3.6 240 23:47 02.12.2021
5209 Clouds -1 1006 98 7000 3.6 240 21:57 02.12.2021
5210 Clear -1 1006 97 10000 3.1 256 21:30 02.12.2021
5211 Clear -1 1006 97 10000 3.09 256 20:40 02.12.2021
5212 Clear 0 1005 97 10000 2.81 263 19:43 02.12.2021
5213 Clear -1 1005 96 10000 2.57 240 18:34 02.12.2021
5214 Clear 1 1002 94 10000 1.54 260 15:52 02.12.2021
5215 Rain 1 1001 95 10000 2.57 260 15:28 02.12.2021
5216 Clouds 1 1001 95 10000 3.09 280 14:48 02.12.2021
5217 Rain 2 1000 95 10000 2.01 345 12:53 02.12.2021
5218 Snow 1 1000 90 7000 6.17 360 12:19 02.12.2021
5219 Clouds 1 998 98 10000 2.57 240 10:38 02.12.2021
5220 Snow 1 997 95 10000 1.03 0 09:25 02.12.2021
5221 Clouds 1 995 89 10000 3.09 300 06:45 02.12.2021
5222 Clouds 3 991 89 10000 9.77 280 00:55 02.12.2021
5223 Clouds 4 989 87 10000 9.77 290 23:30 01.12.2021
5224 Clouds 5 988 81 10000 11.83 280 22:25 01.12.2021
5225 Clouds 5 987 80 10000 12.35 280 21:36 01.12.2021
5226 Clouds 6 984 82 10000 14.4 270 19:59 01.12.2021
5227 Clouds 6 984 81 10000 14.4 270 19:36 01.12.2021
5228 Clouds 7 982 81 10000 13.89 260 17:50 01.12.2021
5229 Clouds 7 982 81 10000 13.38 250 16:58 01.12.2021
5230 Clouds 8 982 85 10000 10.8 250 15:37 01.12.2021
5231 Clouds 9 982 84 10000 13.38 230 14:24 01.12.2021
5232 Clouds 9 983 86 10000 11.32 240 13:36 01.12.2021
5233 Drizzle 9 986 93 8000 9.26 210 10:43 01.12.2021
5234 Clouds 8 987 95 6000 9.26 210 09:59 01.12.2021
5235 Clouds 8 988 93 8000 8.75 210 08:51 01.12.2021
5236 Clouds 9 989 94 10000 8.75 210 07:56 01.12.2021
5237 Drizzle 9 990 96 6000 8.23 210 07:19 01.12.2021
5238 Rain 7 995 99 10000 3.6 170 03:53 01.12.2021
5239 Rain 6 996 99 6000 5.14 160 03:19 01.12.2021
5240 Clouds 6 1002 95 10000 2.06 200 23:59 30.11.2021
5241 Rain 5 1003 98 10000 2.57 210 23:28 30.11.2021
5242 Clouds 5 1003 94 10000 3.6 240 22:29 30.11.2021
5243 Clouds 5 1003 91 10000 3.09 270 20:46 30.11.2021
5244 Clouds 5 1003 90 10000 4.63 260 20:24 30.11.2021
5245 Clouds 6 1003 88 10000 5.14 270 19:39 30.11.2021
5246 Clouds 6 1002 85 10000 5.14 270 18:52 30.11.2021
5247 Clouds 6 1002 78 10000 7.72 290 17:45 30.11.2021
5248 Clouds 7 1001 80 10000 7.2 290 15:57 30.11.2021
5249 Clouds 7 1000 80 10000 8.75 290 14:34 30.11.2021
5250 Clouds 7 999 81 10000 8.75 290 13:41 30.11.2021
5251 Clouds 7 999 85 10000 9.26 290 12:54 30.11.2021
5252 Clouds 7 999 88 10000 8.75 290 11:59 30.11.2021
5253 Clouds 7 998 88 10000 7.2 280 11:25 30.11.2021
5254 Clouds 7 998 95 10000 7.2 270 10:36 30.11.2021
5255 Clouds 6 998 96 4000 7.72 250 08:57 30.11.2021
5256 Clouds 6 998 96 4000 7.72 250 08:32 30.11.2021
5257 Clouds 5 998 96 10000 8.75 240 07:59 30.11.2021
5258 Clouds 4 998 96 7000 9.26 240 06:38 30.11.2021
5259 Rain 3 1005 95 10000 6.17 220 01:50 30.11.2021
5260 Rain 3 1006 95 10000 5.66 220 01:28 30.11.2021
5261 Clear 2 1007 95 10000 3.09 230 23:51 29.11.2021
5262 Clear 2 1008 95 10000 3.09 220 23:20 29.11.2021
5263 Clear 2 1008 95 10000 3.09 210 22:42 29.11.2021
5264 Clouds 2 1008 95 10000 3.09 220 22:23 29.11.2021
5265 Clear 2 1008 95 10000 3.6 220 21:21 29.11.2021
5266 Clouds 2 1009 95 10000 3.09 230 20:54 29.11.2021
5267 Clouds 3 1009 94 10000 3.09 230 20:21 29.11.2021
5268 Clouds 3 1009 92 10000 2.57 240 19:42 29.11.2021
5269 Clouds 3 1009 94 10000 2.57 270 19:21 29.11.2021
5270 Clouds 3 1008 82 10000 1.19 295 18:42 29.11.2021
5271 Clouds 2 1008 87 10000 2.29 338 17:22 29.11.2021
5272 Clouds 2 1008 87 10000 2.29 338 16:54 29.11.2021
5273 Clouds 3 1007 86 10000 2.76 332 16:25 29.11.2021
5274 Clouds 4 1007 87 10000 2.5 329 14:52 29.11.2021
5275 Clouds 4 1006 88 10000 2.92 326 14:29 29.11.2021
5276 Clouds 4 1006 87 10000 3.13 325 13:25 29.11.2021
5277 Clouds 4 1005 81 10000 2.55 335 12:20 29.11.2021
5278 Clouds 4 1005 81 10000 2.55 335 11:31 29.11.2021
5279 Clouds 2 1004 84 10000 1.93 303 10:27 29.11.2021
5280 Clouds 2 1003 93 10000 3.09 350 08:30 29.11.2021
5281 Clouds 2 1000 93 10000 1.54 50 05:54 29.11.2021
5282 Clouds 3 998 93 10000 4.63 300 01:31 29.11.2021
5283 Clouds 3 998 93 10000 3.6 290 00:36 29.11.2021
5284 Clouds 3 997 93 10000 3.09 260 23:42 28.11.2021
5285 Clouds 3 997 87 10000 3.09 250 22:30 28.11.2021
5286 Clouds 3 997 93 10000 3.09 260 21:41 28.11.2021
5287 Clouds 3 997 93 10000 3.6 270 20:51 28.11.2021
5288 Clouds 2 997 93 10000 2.57 250 19:54 28.11.2021
5289 Clouds 4 997 93 10000 2.57 240 18:45 28.11.2021
5290 Clouds 4 996 93 10000 1.54 230 18:26 28.11.2021
5291 Clouds 4 996 93 10000 1.54 220 17:49 28.11.2021
5292 Clouds 4 996 93 10000 2.57 220 17:27 28.11.2021
5293 Clouds 4 996 87 8000 2.57 200 16:28 28.11.2021
5294 Clouds 4 996 87 8000 2.57 200 16:28 28.11.2021
5295 Clouds 4 996 93 10000 2.57 220 15:52 28.11.2021
5296 Clouds 4 996 87 10000 2.06 220 14:56 28.11.2021
5297 Clouds 4 996 87 10000 3.6 250 14:30 28.11.2021
5298 Clouds 4 996 87 10000 3.6 260 12:58 28.11.2021
5299 Clouds 4 996 93 6000 3.09 260 11:57 28.11.2021
5300 Mist 3 996 93 4000 3.09 270 10:53 28.11.2021
5301 Mist 3 996 93 3500 3.09 270 10:20 28.11.2021
5302 Mist 2 995 100 3800 2.57 240 09:36 28.11.2021
5303 Clouds 2 994 93 7000 2.57 270 06:29 28.11.2021
5304 Clouds 2 994 93 10000 3.09 240 23:33 27.11.2021
5305 Clouds 3 993 93 10000 3.6 240 20:44 27.11.2021
5306 Clouds 3 992 93 10000 2.06 240 18:57 27.11.2021
5307 Mist 4 990 93 4000 2.57 200 16:52 27.11.2021
5308 Clouds 4 990 93 6000 1.54 140 15:55 27.11.2021
5309 Clouds 4 989 93 9000 2.57 130 13:47 27.11.2021
5310 Clouds 4 988 87 8000 3.09 130 12:31 27.11.2021
5311 Clouds 4 988 87 8000 4.12 130 10:42 27.11.2021
5312 Clouds 3 987 93 8000 4.12 130 09:53 27.11.2021
5313 Clouds 3 987 93 8000 4.12 120 08:43 27.11.2021
5314 Clouds 3 985 93 10000 4.63 120 05:18 27.11.2021
5315 Drizzle 3 985 93 9000 5.14 140 01:57 27.11.2021
5316 Drizzle 3 985 93 10000 6.17 130 23:36 26.11.2021
5317 Clouds 3 986 93 10000 6.69 150 22:25 26.11.2021
5318 Clouds 4 986 81 10000 6.69 140 21:37 26.11.2021
5319 Clouds 4 987 81 10000 6.17 150 20:59 26.11.2021
5320 Clouds 4 987 75 10000 7.72 150 20:29 26.11.2021
5321 Clouds 4 987 75 10000 6.17 150 19:49 26.11.2021
5322 Clouds 4 988 81 10000 6.17 160 18:41 26.11.2021
5323 Clouds 4 989 81 10000 5.66 170 17:23 26.11.2021
5324 Clouds 5 990 81 10000 5.66 180 15:59 26.11.2021
5325 Clouds 5 993 88 10000 6.17 190 13:36 26.11.2021
5326 Clouds 5 994 90 10000 5.66 200 12:55 26.11.2021
5327 Clouds 4 996 95 10000 4.12 200 10:42 26.11.2021
5328 Clouds 4 997 96 8000 3.6 200 09:29 26.11.2021
5329 Clouds 4 998 96 7000 3.09 210 08:47 26.11.2021
5330 Drizzle 3 998 96 9000 4.12 220 08:19 26.11.2021
5331 Clouds 3 1000 98 9000 4.12 220 06:29 26.11.2021
5332 Clouds 3 1001 95 7000 3.6 210 04:52 26.11.2021
5333 Clouds 2 1002 98 10000 3.6 230 03:32 26.11.2021
5334 Clear 3 1005 95 10000 2.57 220 23:29 25.11.2021
5335 Clouds 3 1006 97 10000 3.83 255 21:58 25.11.2021
5336 Clouds 3 1006 97 10000 3.89 254 20:41 25.11.2021
5337 Clouds 4 1007 97 10000 4.03 256 19:21 25.11.2021
5338 Clouds 4 1006 97 10000 4.15 245 18:19 25.11.2021
5339 Mist 5 1006 95 5000 4.12 240 17:27 25.11.2021
5340 Clouds 5 1006 95 6000 4.63 240 16:41 25.11.2021
5341 Mist 6 1007 95 5000 5.14 240 15:58 25.11.2021
5342 Clouds 6 1007 95 4200 5.14 250 14:30 25.11.2021
5343 Clouds 6 1008 93 3800 5.14 250 12:55 25.11.2021
5344 Clouds 6 1008 89 9000 5.14 250 11:56 25.11.2021
5345 Clouds 5 1009 90 7000 4.12 240 10:34 25.11.2021
5346 Clear 4 1010 89 10000 2.57 210 06:36 25.11.2021
5347 Clouds 5 1013 83 10000 1.03 0 02:58 25.11.2021
5348 Clouds 6 1014 70 10000 3.09 200 00:37 25.11.2021
5349 Clouds 6 1016 81 10000 2.06 170 22:29 24.11.2021
5350 Clouds 5 1016 87 10000 1.54 170 21:48 24.11.2021
5351 Clouds 6 1016 83 10000 0.51 0 21:22 24.11.2021
5352 Clouds 6 1017 86 10000 1.03 0 20:27 24.11.2021
5353 Clouds 6 1017 86 10000 1.03 0 20:27 24.11.2021
5354 Clouds 6 1017 85 10000 3.6 160 19:40 24.11.2021
5355 Clouds 6 1018 85 10000 2.06 200 18:19 24.11.2021
5356 Clouds 7 1019 81 10000 4.12 180 16:47 24.11.2021
5357 Clouds 7 1020 79 10000 3.09 230 15:21 24.11.2021
5358 Clouds 7 1020 86 10000 3.76 222 14:30 24.11.2021
5359 Clouds 8 1021 85 10000 4.12 210 13:35 24.11.2021
5360 Clouds 7 1022 98 10000 3.16 225 11:36 24.11.2021
5361 Clouds 7 1023 96 10000 3.09 220 11:18 24.11.2021
5362 Clouds 7 1023 96 10000 3.09 230 10:36 24.11.2021
5363 Clouds 7 1024 96 10000 4.12 220 09:35 24.11.2021
5364 Drizzle 6 1024 98 6000 2.57 240 07:41 24.11.2021
5365 Mist 6 1025 96 3800 1.54 240 06:20 24.11.2021
5366 Clouds 5 1026 98 6000 1.54 260 03:44 24.11.2021
5367 Clouds 5 1027 98 10000 2.06 230 23:36 23.11.2021
5368 Clouds 5 1027 98 10000 1.54 270 22:39 23.11.2021
5369 Fog 5 1027 95 6000 2.06 230 21:46 23.11.2021
5370 Fog 5 1027 98 6000 1.54 250 20:47 23.11.2021
5371 Clouds 6 1027 95 10000 1.03 250 19:37 23.11.2021
5372 Clouds 7 1027 95 10000 1.54 290 18:37 23.11.2021
5373 Clouds 7 1027 98 10000 1.54 280 17:57 23.11.2021
5374 Clouds 7 1027 94 10000 2.57 280 16:54 23.11.2021
5375 Clouds 7 1027 94 10000 2.57 280 16:54 23.11.2021
5376 Clouds 9 1027 89 10000 4.12 290 15:57 23.11.2021
5377 Clouds 9 1027 88 10000 4.63 290 15:19 23.11.2021
5378 Clouds 9 1027 91 10000 3.6 280 13:43 23.11.2021
5379 Clouds 8 1028 96 10000 3.09 250 10:41 23.11.2021
5380 Clouds 7 1027 98 10000 2.57 270 09:57 23.11.2021
5381 Clouds 6 1027 98 9000 1.54 260 08:44 23.11.2021
5382 Clouds 6 1026 95 10000 3.09 260 05:57 23.11.2021
5383 Clouds 6 1026 95 10000 3.6 260 03:42 23.11.2021
5384 Clouds 4 1027 93 10000 2.06 250 00:28 23.11.2021
5385 Clear 4 1027 91 10000 2.06 240 23:20 22.11.2021
5386 Clear 3 1027 94 10000 2.57 240 22:32 22.11.2021
5387 Clouds 4 1027 93 10000 1.03 250 21:48 22.11.2021
5388 Clouds 4 1027 93 10000 2.57 250 21:29 22.11.2021
5389 Clouds 4 1027 93 10000 2.57 260 20:50 22.11.2021
5390 Clouds 4 1027 90 10000 2.06 240 19:47 22.11.2021
5391 Clouds 4 1027 92 10000 3.03 258 19:18 22.11.2021
5392 Clouds 4 1027 88 10000 1.03 250 18:37 22.11.2021
5393 Clear 5 1027 85 10000 3.1 261 17:18 22.11.2021
5394 Clouds 6 1027 76 10000 2.06 250 15:43 22.11.2021
5395 Clouds 7 1026 73 10000 2.57 280 13:57 22.11.2021
5396 Clear 5 1026 89 10000 1.54 290 11:50 22.11.2021
5397 Clear 3 1026 96 10000 2.06 260 10:39 22.11.2021
5398 Clear 0 1025 95 10000 2.06 290 09:26 22.11.2021
5399 Clear -1 1025 100 10000 2.06 290 08:39 22.11.2021
5400 Clear 2 1021 95 10000 4.12 10 04:33 22.11.2021
5401 Clouds 6 1016 91 10000 4.63 20 23:26 21.11.2021
5402 Clouds 6 1016 91 10000 5.14 20 22:48 21.11.2021
5403 Clouds 6 1015 91 10000 4.63 10 21:51 21.11.2021
5404 Clouds 5 1014 91 10000 3.09 330 20:42 21.11.2021
5405 Clouds 5 1013 97 10000 1.54 310 19:46 21.11.2021
5406 Clouds 5 1011 93 10000 1.03 230 18:24 21.11.2021
5407 Clouds 6 1011 92 10000 1.03 0 17:38 21.11.2021
5408 Clouds 8 1010 88 10000 2.92 308 15:49 21.11.2021
5409 Rain 9 1009 79 10000 4.63 290 14:45 21.11.2021
5410 Clouds 10 1009 75 10000 5.66 300 13:46 21.11.2021
5411 Clouds 10 1009 83 10000 6.69 280 12:37 21.11.2021
5412 Clouds 9 1009 91 10000 4.12 270 11:43 21.11.2021
5413 Clouds 8 1009 95 10000 3.6 270 11:24 21.11.2021
5414 Clouds 8 1009 98 10000 3.6 270 10:18 21.11.2021
5415 Clouds 8 1009 98 10000 2.06 270 08:42 21.11.2021
5416 Clouds 8 1009 98 10000 2.06 270 08:23 21.11.2021
5417 Clouds 8 1009 98 10000 3.09 270 07:47 21.11.2021
5418 Drizzle 9 1009 95 3300 4.12 260 05:55 21.11.2021
5419 Drizzle 9 1009 95 3800 5.66 240 05:25 21.11.2021
5420 Clouds 9 1010 94 10000 5.66 230 03:19 21.11.2021
5421 Clouds 9 1010 94 10000 5.14 230 02:52 21.11.2021
5422 Drizzle 9 1012 94 10000 5.14 240 00:59 21.11.2021
5423 Drizzle 9 1013 95 10000 5.66 260 23:56 20.11.2021
5424 Mist 9 1014 95 4400 5.14 240 21:49 20.11.2021
5425 Drizzle 9 1014 95 4400 4.63 240 21:28 20.11.2021
5426 Drizzle 9 1016 98 3000 4.63 240 19:22 20.11.2021
5427 Drizzle 9 1016 98 3000 4.63 230 18:45 20.11.2021
5428 Drizzle 9 1017 95 3500 5.14 230 18:19 20.11.2021
5429 Drizzle 10 1018 92 6000 5.14 220 16:59 20.11.2021
5430 Clouds 10 1019 85 10000 6.17 230 14:49 20.11.2021
5431 Clouds 11 1020 86 10000 6.17 240 14:28 20.11.2021
5432 Clouds 11 1020 85 10000 5.14 240 13:32 20.11.2021
5433 Clouds 11 1023 91 10000 5.14 240 11:20 20.11.2021
5434 Clouds 11 1023 92 10000 4.63 240 09:53 20.11.2021
5435 Clouds 11 1024 92 10000 4.63 240 08:25 20.11.2021
5436 Clouds 11 1024 92 10000 4.63 260 05:30 20.11.2021
5437 Clouds 11 1024 92 10000 4.63 250 04:51 20.11.2021
5438 Clouds 11 1025 92 10000 5.14 260 03:25 20.11.2021
5439 Clouds 11 1026 94 10000 5.66 270 00:42 20.11.2021
5440 Clouds 11 1026 91 10000 5.66 260 23:44 19.11.2021
5441 Clouds 11 1026 91 10000 5.66 270 22:53 19.11.2021
5442 Clouds 12 1025 88 10000 6.69 270 21:22 19.11.2021
5443 Clouds 12 1025 88 10000 6.69 270 20:39 19.11.2021
5444 Clouds 12 1025 88 10000 7.72 270 20:20 19.11.2021
5445 Clouds 12 1025 87 10000 9.26 270 19:43 19.11.2021
5446 Clouds 12 1025 87 10000 6.69 260 18:44 19.11.2021
5447 Clouds 12 1025 86 10000 5.66 260 17:39 19.11.2021
5448 Clouds 13 1025 83 10000 6.69 270 16:22 19.11.2021
5449 Clouds 13 1025 82 10000 7.2 270 14:51 19.11.2021
5450 Clouds 12 1025 92 10000 5.66 250 10:56 19.11.2021
5451 Clouds 12 1025 92 10000 5.14 250 10:23 19.11.2021
5452 Drizzle 12 1024 95 10000 5.66 260 08:32 19.11.2021
5453 Clouds 12 1023 96 10000 6.17 270 04:58 19.11.2021
5454 Drizzle 12 1023 96 8000 6.17 260 03:19 19.11.2021
5455 Drizzle 11 1023 96 6000 7.2 260 23:53 18.11.2021
5456 Drizzle 11 1024 96 4500 7.72 250 22:49 18.11.2021
5457 Drizzle 10 1023 96 6000 8.23 250 20:57 18.11.2021
5458 Drizzle 10 1023 95 6000 8.23 250 20:39 18.11.2021
5459 Drizzle 10 1023 95 5000 8.23 250 20:19 18.11.2021
5460 Drizzle 9 1023 98 7000 7.72 240 19:36 18.11.2021
5461 Drizzle 9 1023 98 4000 7.2 240 18:37 18.11.2021
5462 Clouds 10 1023 92 10000 7.72 240 17:52 18.11.2021
5463 Clouds 10 1023 87 10000 7.2 250 16:47 18.11.2021
5464 Clouds 10 1022 86 10000 6.69 240 15:56 18.11.2021
5465 Clouds 10 1022 84 10000 8.23 240 14:57 18.11.2021
5466 Clouds 10 1024 86 10000 6.69 240 12:55 18.11.2021
5467 Clouds 10 1024 86 10000 6.17 240 11:44 18.11.2021
5468 Clear 9 1024 90 10000 6.17 230 11:25 18.11.2021
5469 Clear 9 1024 91 10000 5.66 230 10:24 18.11.2021
5470 Clouds 7 1024 95 10000 4.63 230 08:44 18.11.2021
5471 Clear 7 1023 95 10000 4.63 230 06:49 18.11.2021
5472 Clouds 6 1023 95 10000 4.12 230 05:46 18.11.2021
5473 Clouds 5 1022 94 10000 4.12 240 01:27 18.11.2021
5474 Clear 5 1022 94 10000 4.12 240 23:46 17.11.2021
5475 Clouds 6 1022 91 10000 5.14 240 22:40 17.11.2021
5476 Clouds 6 1022 91 10000 5.14 240 22:40 17.11.2021
5477 Clouds 6 1021 91 10000 4.63 240 22:19 17.11.2021
5478 Clouds 6 1021 91 10000 4.12 240 21:36 17.11.2021
5479 Clouds 7 1020 87 10000 5.14 260 20:18 17.11.2021
5480 Clouds 8 1019 93 10000 3.78 251 17:36 17.11.2021
5481 Clouds 8 1018 92 10000 4.63 240 16:45 17.11.2021
5482 Clouds 8 1017 96 6000 6.17 240 13:49 17.11.2021
5483 Clouds 7 1017 96 5000 5.66 250 12:39 17.11.2021
5484 Clouds 7 1017 93 6000 6.17 230 11:28 17.11.2021
5485 Drizzle 6 1017 93 4700 5.14 210 09:58 17.11.2021
5486 Drizzle 5 1017 96 4700 4.12 210 09:23 17.11.2021
5487 Clouds 5 1017 93 7000 4.63 180 07:41 17.11.2021
5488 Drizzle 4 1018 92 5000 3.09 240 03:31 17.11.2021
5489 Drizzle 4 1019 92 6000 1.03 210 00:46 17.11.2021
5490 Drizzle 4 1020 93 8000 2.06 220 22:41 16.11.2021
5491 Drizzle 4 1020 92 6000 3.09 230 20:20 16.11.2021
5492 Drizzle 4 1021 92 6000 2.06 210 19:57 16.11.2021
5493 Drizzle 4 1021 92 7000 1.54 220 18:53 16.11.2021
5494 Drizzle 4 1021 89 9000 1.54 230 18:29 16.11.2021
5495 Clouds 4 1021 89 10000 1.54 190 17:31 16.11.2021
5496 Clouds 4 1021 89 10000 1.03 0 16:32 16.11.2021
5497 Drizzle 5 1021 89 8000 1.54 160 15:49 16.11.2021
5498 Drizzle 5 1022 89 8000 1.54 190 14:31 16.11.2021
5499 Clouds 5 1024 88 9000 2.06 110 11:22 16.11.2021
5500 Clouds 5 1024 87 9000 1.54 100 09:45 16.11.2021
5501 Clouds 5 1024 87 10000 1.03 0 08:26 16.11.2021
5502 Clouds 5 1025 87 10000 1.03 0 07:31 16.11.2021
5503 Clouds 5 1026 84 10000 3.09 110 01:38 16.11.2021
5504 Clouds 5 1027 84 10000 2.57 120 23:20 15.11.2021
5505 Clouds 5 1027 84 10000 3.09 90 22:30 15.11.2021
5506 Clouds 6 1027 84 10000 3.6 80 21:53 15.11.2021
5507 Clouds 6 1027 84 10000 3.09 110 21:28 15.11.2021
5508 Clouds 6 1027 83 10000 3.6 90 19:42 15.11.2021
5509 Clouds 6 1027 83 7000 2.57 100 18:33 15.11.2021
5510 Clouds 6 1027 83 7000 3.6 120 16:20 15.11.2021
5511 Clouds 6 1027 83 7000 3.6 110 15:41 15.11.2021
5512 Clouds 6 1027 83 7000 4.12 120 15:23 15.11.2021
5513 Clouds 6 1028 84 6000 3.6 110 13:29 15.11.2021
5514 Clouds 5 1029 84 6000 4.12 120 11:21 15.11.2021
5515 Clouds 5 1029 86 6000 4.12 120 09:28 15.11.2021
5516 Clouds 6 1028 75 8000 4.12 90 07:52 15.11.2021
5517 Drizzle 6 1028 92 9000 3.6 110 05:21 15.11.2021
5518 Drizzle 7 1029 89 7000 3.09 110 23:57 14.11.2021
5519 Clouds 7 1029 88 8000 3.09 100 22:37 14.11.2021
5520 Clouds 7 1028 88 9000 2.57 90 19:59 14.11.2021
5521 Clouds 8 1028 85 9000 3.6 80 19:18 14.11.2021
5522 Clouds 8 1027 85 9000 4.63 70 18:54 14.11.2021
5523 Clouds 8 1027 85 9000 4.63 70 18:36 14.11.2021
5524 Clouds 8 1027 87 9000 4.12 70 18:18 14.11.2021
5525 Drizzle 8 1027 88 8000 4.12 80 17:57 14.11.2021
5526 Drizzle 8 1027 89 8000 4.12 80 17:39 14.11.2021
5527 Drizzle 8 1027 89 10000 4.63 60 17:21 14.11.2021
5528 Clouds 8 1027 89 10000 4.12 80 16:49 14.11.2021
5529 Clouds 8 1026 89 10000 2.57 80 16:21 14.11.2021
5530 Clouds 8 1026 89 10000 2.57 90 15:46 14.11.2021
5531 Clouds 8 1026 90 10000 4.12 70 15:18 14.11.2021
5532 Clouds 9 1026 88 10000 4.63 60 14:32 14.11.2021
5533 Clouds 9 1025 90 10000 3.09 80 13:59 14.11.2021
5534 Clouds 9 1025 90 10000 3.09 80 13:40 14.11.2021
5535 Clouds 9 1025 90 7000 2.57 70 12:45 14.11.2021
5536 Clouds 9 1025 93 7000 2.57 70 12:18 14.11.2021
5537 Clouds 8 1024 94 7000 3.6 70 10:50 14.11.2021
5538 Clouds 8 1024 96 6000 3.09 60 10:27 14.11.2021
5539 Drizzle 8 1023 94 4200 3.09 60 08:57 14.11.2021
5540 Clouds 8 1021 94 6000 2.57 70 07:28 14.11.2021
5541 Mist 8 1018 94 5000 2.57 60 02:20 14.11.2021
5542 Clouds 8 1017 94 8000 1.54 110 22:27 13.11.2021
5543 Clouds 8 1016 93 7000 2.06 110 21:57 13.11.2021
5544 Clouds 8 1016 93 6000 2.06 100 21:27 13.11.2021
5545 Mist 8 1015 93 4800 2.57 110 20:24 13.11.2021
5546 Drizzle 8 1015 96 4500 1.54 100 18:48 13.11.2021
5547 Drizzle 8 1014 93 5000 1.54 120 18:26 13.11.2021
5548 Drizzle 8 1013 96 5000 1.54 120 16:48 13.11.2021
5549 Mist 8 1013 96 5000 2.57 160 15:41 13.11.2021
5550 Drizzle 8 1012 96 7000 2.57 150 14:36 13.11.2021
5551 Clouds 8 1012 93 10000 2.57 170 13:46 13.11.2021
5552 Mist 8 1012 93 5000 2.57 160 12:38 13.11.2021
5553 Mist 7 1012 96 4700 3.09 160 11:39 13.11.2021
5554 Drizzle 7 1011 93 5000 3.6 150 10:48 13.11.2021
5555 Drizzle 7 1011 93 7000 3.09 160 10:29 13.11.2021
5556 Clouds 7 1011 93 10000 3.09 160 09:42 13.11.2021
5557 Clouds 7 1011 90 10000 3.6 160 09:18 13.11.2021
5558 Clouds 7 1010 90 10000 3.6 150 08:40 13.11.2021
5559 Clouds 7 1010 92 10000 3.09 140 06:55 13.11.2021
5560 Drizzle 7 1009 88 10000 4.12 170 04:34 13.11.2021
5561 Clouds 7 1010 81 10000 3.09 140 02:27 13.11.2021
5562 Clear 6 1011 84 10000 4.63 140 23:27 12.11.2021
5563 Clear 6 1012 87 10000 4.12 140 21:51 12.11.2021
5564 Clear 7 1012 84 10000 3.6 140 20:20 12.11.2021
5565 Clear 7 1013 84 10000 4.63 150 19:31 12.11.2021
5566 Clear 7 1013 82 10000 4.63 140 18:53 12.11.2021
5567 Clear 7 1014 86 10000 3.09 150 17:36 12.11.2021
5568 Clouds 9 1015 82 10000 4.12 150 15:51 12.11.2021
5569 Clouds 9 1017 84 10000 5.66 150 13:26 12.11.2021
5570 Clouds 9 1018 90 10000 4.63 150 11:23 12.11.2021
5571 Clouds 8 1019 92 6000 4.12 140 09:55 12.11.2021
5572 Mist 8 1019 93 5000 4.12 140 08:50 12.11.2021
5573 Mist 8 1021 96 4000 2.06 150 06:35 12.11.2021
5574 Mist 8 1023 95 4000 2.06 210 23:55 11.11.2021
5575 Mist 8 1023 96 4000 2.57 190 22:49 11.11.2021
5576 Mist 9 1023 93 4500 2.57 190 21:57 11.11.2021
5577 Mist 9 1023 93 5000 2.06 200 20:52 11.11.2021
5578 Clouds 9 1023 93 6000 3.09 220 19:48 11.11.2021
5579 Clouds 9 1023 93 6000 2.06 220 18:27 11.11.2021
5580 Clouds 9 1023 93 6000 2.06 220 18:27 11.11.2021
5581 Clouds 9 1023 92 6000 2.06 230 17:41 11.11.2021
5582 Clouds 10 1023 88 8000 4.12 240 15:29 11.11.2021
5583 Clouds 10 1023 88 9000 5.14 240 14:39 11.11.2021
5584 Clouds 10 1023 88 9000 4.63 240 14:21 11.11.2021
5585 Clouds 10 1023 89 9000 5.14 240 13:35 11.11.2021
5586 Clouds 10 1023 88 8000 4.63 230 12:27 11.11.2021
5587 Clouds 9 1023 93 7000 2.57 220 09:59 11.11.2021
5588 Drizzle 9 1023 93 6000 2.57 210 09:23 11.11.2021
5589 Clouds 8 1023 93 8000 1.54 210 07:33 11.11.2021
5590 Clouds 8 1023 93 10000 1.54 200 00:40 11.11.2021
5591 Clouds 8 1024 90 10000 1.03 230 22:46 10.11.2021
5592 Clouds 8 1024 90 10000 1.03 220 21:54 10.11.2021
5593 Clouds 8 1024 90 10000 1.03 220 21:54 10.11.2021
5594 Clouds 8 1024 88 10000 2.06 230 20:57 10.11.2021
5595 Clouds 8 1024 88 10000 2.06 210 20:25 10.11.2021
5596 Clouds 9 1024 88 10000 2.57 210 19:45 10.11.2021
5597 Clouds 9 1024 85 10000 2.06 190 17:39 10.11.2021
5598 Clouds 9 1023 81 10000 1.03 220 16:21 10.11.2021
5599 Clouds 9 1023 80 10000 2.06 250 14:25 10.11.2021
5600 Clouds 9 1023 80 10000 1.54 230 13:40 10.11.2021
5601 Clouds 8 1024 80 10000 2.06 200 12:39 10.11.2021
5602 Clouds 6 1024 87 10000 1.54 180 09:41 10.11.2021
5603 Clouds 4 1024 89 10000 1.03 0 08:45 10.11.2021
5604 Clear 3 1024 93 10000 2.06 190 07:22 10.11.2021
5605 Clear 3 1024 93 10000 1.54 190 05:59 10.11.2021
5606 Clear 2 1024 94 10000 2.57 170 04:59 10.11.2021
5607 Clear 4 1025 89 10000 0.51 0 22:45 09.11.2021
5608 Clear 5 1026 87 10000 1.03 170 21:47 09.11.2021
5609 Clear 6 1026 82 10000 1.54 170 20:20 09.11.2021
5610 Clear 7 1026 81 10000 1.54 170 19:20 09.11.2021
5611 Clear 9 1025 73 10000 3.09 190 17:30 09.11.2021
5612 Clear 11 1025 68 10000 4.63 200 15:38 09.11.2021
5613 Clear 11 1026 70 10000 5.66 200 13:59 09.11.2021
5614 Clear 11 1026 71 10000 5.14 210 12:50 09.11.2021
5615 Clear 11 1027 77 10000 5.66 210 11:38 09.11.2021
5616 Clear 11 1027 77 10000 5.66 210 11:38 09.11.2021
5617 Clear 9 1027 85 10000 3.6 210 10:43 09.11.2021
5618 Clear 7 1026 96 10000 2.57 180 09:24 09.11.2021
5619 Clouds 6 1026 96 8000 2.57 190 08:19 09.11.2021
5620 Clouds 8 1025 95 10000 2.57 180 05:45 09.11.2021
5621 Clouds 8 1024 95 10000 1.54 210 02:22 09.11.2021
5622 Clouds 8 1024 95 10000 1.03 0 01:43 09.11.2021
5623 Clouds 8 1024 95 10000 2.57 230 23:36 08.11.2021
5624 Clouds 8 1023 95 10000 3.6 240 22:49 08.11.2021
5625 Clouds 8 1023 95 10000 3.09 240 21:55 08.11.2021
5626 Clouds 8 1023 93 10000 2.57 230 20:53 08.11.2021
5627 Clouds 8 1022 95 10000 2.06 250 19:49 08.11.2021
5628 Clouds 8 1022 93 10000 2.57 260 18:25 08.11.2021
5629 Drizzle 10 1020 90 10000 5.14 270 16:22 08.11.2021
5630 Clouds 10 1020 90 10000 5.14 260 14:58 08.11.2021
5631 Clouds 10 1020 89 10000 5.14 260 14:38 08.11.2021
5632 Clouds 9 1019 93 10000 7.2 260 13:31 08.11.2021
5633 Clouds 9 1019 86 10000 6.69 250 11:56 08.11.2021
5634 Clouds 8 1019 89 10000 5.66 240 10:52 08.11.2021
5635 Clouds 7 1019 92 10000 5.14 230 09:39 08.11.2021
5636 Clouds 6 1018 95 10000 3.09 230 08:54 08.11.2021
5637 Clouds 6 1017 97 10000 4.76 258 07:29 08.11.2021
5638 Clouds 7 1016 91 10000 5.66 250 03:56 08.11.2021
5639 Clouds 7 1016 93 10000 6.17 250 03:28 08.11.2021
5640 Clouds 8 1014 91 10000 7.2 260 23:46 07.11.2021
5641 Clouds 8 1013 90 10000 8.23 260 21:48 07.11.2021
5642 Clouds 8 1012 89 10000 8.23 250 20:54 07.11.2021
5643 Clouds 8 1012 87 10000 7.2 260 19:40 07.11.2021
5644 Clouds 8 1011 80 10000 7.2 270 18:22 07.11.2021
5645 Clouds 9 1010 85 10000 7.14 265 16:54 07.11.2021
5646 Clouds 10 1010 75 10000 7.72 270 15:54 07.11.2021
5647 Clouds 10 1010 75 10000 9.26 270 14:29 07.11.2021
5648 Clouds 11 1010 71 10000 9.77 260 13:35 07.11.2021
5649 Clouds 10 1010 79 10000 7.2 260 11:43 07.11.2021
5650 Clouds 9 1010 87 10000 7.2 260 09:57 07.11.2021
5651 Clouds 9 1010 90 10000 7.2 260 08:31 07.11.2021
5652 Clouds 9 1011 93 10000 10.29 230 02:41 07.11.2021
5653 Clouds 10 1015 85 10000 8.75 220 23:38 06.11.2021
5654 Rain 10 1016 84 10000 8.23 220 22:48 06.11.2021
5655 Clouds 10 1017 84 10000 8.75 220 21:34 06.11.2021
5656 Clouds 10 1017 83 10000 7.2 220 20:52 06.11.2021
5657 Clouds 10 1019 81 10000 7.2 220 18:56 06.11.2021
5658 Clouds 10 1021 84 10000 6.17 220 16:47 06.11.2021
5659 Clouds 10 1021 84 10000 6.17 220 16:47 06.11.2021
5660 Clouds 10 1021 84 10000 6.69 220 15:21 06.11.2021
5661 Clouds 9 1023 88 10000 7.2 220 13:38 06.11.2021
5662 Clouds 9 1024 89 10000 6.17 230 12:28 06.11.2021
5663 Clouds 8 1024 91 10000 6.69 230 09:39 06.11.2021
5664 Clouds 8 1024 89 10000 6.17 230 07:57 06.11.2021
5665 Clear 7 1024 92 10000 4.63 250 02:40 06.11.2021
5666 Clouds 7 1024 89 10000 3.6 250 23:38 05.11.2021
5667 Clouds 7 1024 92 10000 4.12 250 22:50 05.11.2021
5668 Clouds 8 1024 94 10000 3.6 250 21:54 05.11.2021
5669 Clouds 8 1023 92 10000 4.63 240 20:20 05.11.2021
5670 Clouds 7 1023 93 10000 4.12 240 19:49 05.11.2021
5671 Clouds 8 1022 94 10000 5 253 18:41 05.11.2021
5672 Clouds 8 1022 88 10000 3.6 240 17:31 05.11.2021
5673 Clouds 11 1021 82 10000 5.14 260 15:48 05.11.2021
5674 Clouds 11 1020 74 10000 4.63 250 13:55 05.11.2021
5675 Clouds 10 1019 82 10000 4.63 280 11:42 05.11.2021
5676 Clouds 7 1016 95 10000 3.09 260 08:41 05.11.2021
5677 Clouds 7 1016 95 10000 3.09 270 07:39 05.11.2021
5678 Clouds 7 1013 95 10000 2.57 250 05:33 05.11.2021
5679 Clear 7 1012 93 10000 3.09 270 02:26 05.11.2021
5680 Clouds 7 1011 92 10000 3.09 280 00:53 05.11.2021
5681 Clouds 7 1010 89 10000 4.12 290 23:25 04.11.2021
5682 Clouds 8 1009 87 10000 4.12 290 22:20 04.11.2021
5683 Clouds 8 1008 87 10000 4.12 300 21:43 04.11.2021
5684 Clear 8 1008 87 10000 3.6 300 21:19 04.11.2021
5685 Clouds 8 1007 88 10000 4.63 290 20:23 04.11.2021
5686 Clouds 8 1007 88 10000 5.14 290 19:48 04.11.2021
5687 Clouds 8 1007 87 10000 5.14 300 19:19 04.11.2021
5688 Clouds 8 1006 86 10000 5.66 310 18:20 04.11.2021
5689 Clouds 8 1005 92 10000 3.69 326 17:26 04.11.2021
5690 Clouds 9 1004 85 10000 4.12 320 15:34 04.11.2021
5691 Clouds 8 1004 94 10000 3.76 340 13:40 04.11.2021
5692 Clouds 8 1003 93 8000 3.6 30 09:50 04.11.2021
5693 Clouds 7 1003 93 7000 2.57 30 08:31 04.11.2021
5694 Clouds 7 1003 97 10000 2.33 55 07:35 04.11.2021
5695 Clouds 7 1002 95 8000 2.57 30 06:22 04.11.2021
5696 Clouds 7 1003 92 10000 1.54 60 22:54 03.11.2021
5697 Rain 7 1003 92 10000 2.06 110 21:51 03.11.2021
5698 Rain 7 1003 91 10000 2.06 110 21:33 03.11.2021
5699 Rain 7 1003 91 10000 2.57 120 20:38 03.11.2021
5700 Rain 7 1003 91 10000 2.06 100 20:19 03.11.2021
5701 Rain 7 1002 88 10000 1.54 90 19:19 03.11.2021
5702 Rain 8 1002 88 10000 1.03 60 18:25 03.11.2021
5703 Rain 8 1002 87 10000 1.03 80 17:41 03.11.2021
5704 Clear 8 1002 86 10000 1.03 0 16:31 03.11.2021
5705 Clear 9 1002 85 10000 1.54 100 15:47 03.11.2021
5706 Clear 9 1002 82 10000 2.06 140 15:28 03.11.2021
5707 Clear 9 1002 80 10000 2.06 140 15:28 03.11.2021
5708 Clear 9 1002 83 10000 2.06 140 12:42 03.11.2021
5709 Clouds 8 1002 93 10000 2.34 202 11:28 03.11.2021
5710 Clear 8 1002 86 10000 1.54 190 10:49 03.11.2021
5711 Clouds 7 1002 92 6000 3.09 180 09:34 03.11.2021
5712 Mist 7 1001 93 5000 1.54 180 08:37 03.11.2021
5713 Mist 6 1001 95 5000 2.06 180 07:39 03.11.2021
5714 Clouds 7 1002 95 10000 2.95 204 05:45 03.11.2021
5715 Clouds 7 1000 92 10000 2.57 170 04:21 03.11.2021
5716 Clouds 7 1000 92 10000 2.06 150 00:55 03.11.2021
5717 Clouds 6 1000 92 10000 2.57 130 22:52 02.11.2021
5718 Clouds 6 1000 92 10000 2.57 130 22:52 02.11.2021
5719 Clouds 5 1000 94 10000 1.03 0 21:47 02.11.2021
5720 Clear 5 1000 94 10000 1.54 100 20:35 02.11.2021
5721 Clear 6 1000 91 10000 1.54 160 19:56 02.11.2021
5722 Clear 7 1000 88 10000 1.54 140 19:20 02.11.2021
5723 Clouds 8 999 86 10000 1.54 150 18:27 02.11.2021
5724 Clouds 9 999 85 10000 1.54 150 17:43 02.11.2021
5725 Clouds 10 999 83 10000 1.54 190 16:34 02.11.2021
5726 Clouds 11 999 75 10000 1.54 210 15:48 02.11.2021
5727 Clouds 11 999 77 10000 3.6 230 14:51 02.11.2021
5728 Clouds 11 999 77 10000 3.6 190 13:29 02.11.2021
5729 Clouds 11 999 77 10000 3.09 170 12:46 02.11.2021
5730 Clouds 10 999 81 10000 2.57 220 11:38 02.11.2021
5731 Clear 9 1000 85 10000 2.57 170 10:54 02.11.2021
5732 Clear 8 1000 87 10000 2.57 160 10:32 02.11.2021
5733 Clear 7 1000 90 10000 2.57 150 09:40 02.11.2021
5734 Clear 4 999 94 10000 2.57 120 07:45 02.11.2021
5735 Clear 5 999 94 10000 2.06 150 04:39 02.11.2021
5736 Clear 5 999 90 10000 1.03 0 03:20 02.11.2021
5737 Clear 7 1000 82 10000 3.09 170 23:39 01.11.2021
5738 Clear 7 1000 82 10000 3.09 140 21:46 01.11.2021
5739 Clear 7 1000 83 10000 3.09 140 20:44 01.11.2021
5740 Clear 8 1000 84 10000 2.57 170 19:58 01.11.2021
5741 Clear 8 1000 83 10000 2.57 170 19:38 01.11.2021
5742 Clear 9 999 80 10000 4.12 160 18:23 01.11.2021
5743 Clouds 10 999 76 10000 3.09 170 17:36 01.11.2021
5744 Clouds 12 999 71 10000 4.12 200 16:52 01.11.2021
5745 Clouds 12 999 70 10000 4.63 200 16:20 01.11.2021
5746 Clouds 13 999 67 10000 5.14 210 15:29 01.11.2021
5747 Clouds 12 999 69 10000 7.2 220 14:45 01.11.2021
5748 Clouds 12 999 70 10000 7.2 220 14:25 01.11.2021
5749 Clouds 13 998 64 10000 8.23 210 13:50 01.11.2021
5750 Clouds 12 998 74 10000 7.2 200 12:36 01.11.2021
5751 Clouds 12 998 73 10000 8.23 200 11:30 01.11.2021
5752 Clouds 11 998 84 10000 5.14 200 10:19 01.11.2021
5753 Clouds 9 998 89 10000 4.63 190 08:18 01.11.2021
5754 Clear 9 997 89 10000 4.12 180 07:45 01.11.2021
5755 Clear 11 997 90 10000 4.12 210 03:49 01.11.2021
5756 Clouds 12 998 89 10000 5.14 200 01:43 01.11.2021
5757 Rain 15 994 81 10000 5.66 150 22:48 31.10.2021
5758 Rain 15 996 80 10000 7.2 140 20:50 31.10.2021
5759 Clouds 15 998 83 10000 6.17 120 19:22 31.10.2021
5760 Clear 15 998 86 10000 5.66 140 18:41 31.10.2021
5761 Clouds 14 999 84 10000 5.66 130 17:52 31.10.2021
5762 Clouds 15 1002 82 10000 4.63 140 15:51 31.10.2021
5763 Clouds 15 1003 79 10000 6.17 140 14:39 31.10.2021
5764 Clouds 14 1005 84 10000 4.63 130 12:50 31.10.2021
5765 Clouds 13 1006 91 8000 3.6 140 11:42 31.10.2021
5766 Clouds 12 1006 96 10000 4.81 166 10:47 31.10.2021
5767 Mist 10 1007 96 4000 2.57 130 09:22 31.10.2021
5768 Fog 9 1007 95 3800 1.54 130 08:37 31.10.2021
5769 Clouds 12 1005 92 10000 4.12 210 02:19 31.10.2021
5770 Clouds 11 1003 94 10000 3.6 180 23:41 30.10.2021
5771 Clouds 12 1002 79 10000 3.6 170 21:36 30.10.2021
5772 Clouds 11 1002 80 10000 3.6 160 20:52 30.10.2021
5773 Clouds 12 1002 78 10000 4.63 150 19:23 30.10.2021
5774 Clouds 12 1002 80 10000 4.63 130 17:42 30.10.2021
5775 Rain 12 1003 74 10000 4.12 120 15:26 30.10.2021
5776 Clear 11 1004 77 10000 4.12 130 13:56 30.10.2021
5777 Clear 11 1004 80 10000 5.14 110 13:21 30.10.2021
5778 Rain 10 1005 79 10000 4.63 120 12:57 30.10.2021
5779 Rain 10 1005 84 10000 3.09 130 11:49 30.10.2021
5780 Rain 10 1005 83 10000 4.12 130 10:32 30.10.2021
5781 Clear 9 1006 87 10000 3.09 120 08:54 30.10.2021
5782 Clear 9 1006 90 10000 2.57 120 07:42 30.10.2021
5783 Clear 9 1006 87 10000 2.57 140 05:44 30.10.2021
5784 Clear 11 1007 81 10000 3.6 160 01:57 30.10.2021
5785 Clear 11 1007 81 10000 3.6 140 22:54 29.10.2021
5786 Clear 11 1007 80 10000 3.6 140 22:32 29.10.2021
5787 Clear 11 1007 82 10000 2.57 150 20:47 29.10.2021
5788 Clear 12 1006 80 10000 5.14 130 20:26 29.10.2021
5789 Clear 13 1006 78 10000 4.63 150 18:49 29.10.2021
5790 Clear 16 1007 70 10000 6.17 150 17:24 29.10.2021
5791 Clear 17 1008 65 10000 7.2 160 15:22 29.10.2021
5792 Clear 13 1009 73 10000 4.12 150 12:29 29.10.2021
5793 Clear 10 1010 81 10000 3.09 130 10:46 29.10.2021
5794 Clear 6 1010 90 10000 2.06 140 08:47 29.10.2021
5795 Clear 9 1012 85 10000 2.57 140 00:46 29.10.2021
5796 Clear 9 1013 87 10000 2.06 170 23:46 28.10.2021
5797 Clear 10 1013 81 10000 3.09 150 22:20 28.10.2021
5798 Clear 11 1013 77 10000 4.12 150 20:57 28.10.2021
5799 Clear 12 1013 77 10000 3.6 140 19:52 28.10.2021
5800 Clear 14 1014 75 10000 3.6 140 18:30 28.10.2021
5801 Clear 15 1014 73 10000 4.12 150 17:27 28.10.2021
5802 Clear 16 1015 69 10000 5.14 160 16:37 28.10.2021
5803 Clear 16 1016 71 10000 4.12 170 14:40 28.10.2021
5804 Clear 15 1017 77 10000 3.6 170 13:32 28.10.2021
5805 Clear 14 1018 81 10000 3.6 160 12:49 28.10.2021
5806 Clear 12 1018 87 10000 3.09 140 11:37 28.10.2021
5807 Clear 9 1019 95 10000 3.09 150 10:23 28.10.2021
5808 Clear 8 1019 95 10000 3.6 140 09:37 28.10.2021
5809 Clouds 8 1019 95 9000 3.09 140 08:36 28.10.2021
5810 Clear 8 1019 95 10000 3.09 140 07:41 28.10.2021
5811 Clouds 10 1020 93 6000 1.03 0 01:37 28.10.2021
5812 Clear 12 1020 86 10000 3.09 200 22:49 27.10.2021
5813 Clouds 13 1020 85 10000 2.57 200 21:53 27.10.2021
5814 Clouds 14 1020 83 10000 3.6 200 21:20 27.10.2021
5815 Clouds 14 1020 84 10000 2.57 200 20:43 27.10.2021
5816 Clouds 14 1020 83 10000 2.06 200 19:46 27.10.2021
5817 Clouds 14 1020 81 10000 3.6 220 18:56 27.10.2021
5818 Clouds 15 1020 80 10000 4.12 230 17:49 27.10.2021
5819 Clouds 15 1020 80 10000 7.72 240 16:25 27.10.2021
5820 Clouds 15 1020 84 10000 5.14 230 15:25 27.10.2021
5821 Clouds 14 1021 89 8000 6.17 220 14:24 27.10.2021
5822 Drizzle 14 1021 92 7000 6.17 220 11:18 27.10.2021
5823 Clouds 14 1020 93 7000 5.66 230 10:37 27.10.2021
5824 Drizzle 13 1020 95 6000 4.12 210 09:28 27.10.2021
5825 Mist 13 1019 95 5000 3.6 210 07:46 27.10.2021
5826 Clouds 13 1019 91 10000 5.14 220 05:49 27.10.2021
5827 Clouds 13 1019 88 10000 6.17 230 01:26 27.10.2021
5828 Clouds 13 1019 82 10000 6.69 220 00:54 27.10.2021
5829 Clouds 13 1019 85 10000 6.17 220 23:55 26.10.2021
5830 Clouds 13 1019 86 10000 4.63 220 22:47 26.10.2021
5831 Clouds 12 1019 86 10000 5.14 220 22:27 26.10.2021
5832 Clouds 12 1018 86 10000 5.66 220 21:51 26.10.2021
5833 Clouds 12 1019 91 10000 3.6 210 19:59 26.10.2021
5834 Clouds 12 1019 92 10000 2.06 200 19:22 26.10.2021
5835 Clouds 11 1018 94 4500 5.14 230 18:25 26.10.2021
5836 Clouds 14 1018 78 10000 6.17 230 15:51 26.10.2021
5837 Clouds 13 1018 80 10000 6.17 240 14:18 26.10.2021
5838 Clouds 12 1018 91 10000 4.12 220 11:23 26.10.2021
5839 Clouds 11 1017 95 10000 4.63 230 09:27 26.10.2021
5840 Clouds 10 1016 95 10000 3.6 230 07:23 26.10.2021
5841 Clouds 11 1016 89 10000 2.57 200 00:31 26.10.2021
5842 Clouds 11 1016 87 10000 2.57 200 23:48 25.10.2021
5843 Clouds 11 1016 87 10000 2.06 210 22:35 25.10.2021
5844 Clouds 11 1016 87 10000 2.57 190 21:47 25.10.2021
5845 Clouds 11 1016 87 10000 2.57 210 21:23 25.10.2021
5846 Clouds 12 1016 83 10000 2.06 180 19:44 25.10.2021
5847 Clouds 12 1016 84 10000 3.09 200 19:24 25.10.2021
5848 Clouds 12 1016 85 10000 2.57 200 18:42 25.10.2021
5849 Clouds 12 1016 81 10000 2.57 170 17:42 25.10.2021
5850 Clouds 12 1017 85 10000 3.6 190 15:31 25.10.2021
5851 Clouds 10 1018 84 10000 3.6 190 13:29 25.10.2021
5852 Clouds 8 1017 87 10000 1.54 0 11:25 25.10.2021
5853 Clear 3 1018 94 10000 2.06 160 09:23 25.10.2021
5854 Clear 2 1018 94 10000 2.57 170 07:26 25.10.2021
5855 Clear 3 1018 93 10000 1.03 160 05:24 25.10.2021
5856 Clear 5 1019 86 10000 3.09 140 00:52 25.10.2021
5857 Clear 4 1019 88 10000 3.09 140 00:34 25.10.2021
5858 Clear 4 1020 87 10000 3.09 140 00:34 25.10.2021
5859 Clear 4 1020 87 10000 3.09 140 00:34 25.10.2021
5860 Clear 5 1020 87 10000 2.06 130 23:44 24.10.2021
5861 Clear 6 1020 85 10000 3.09 160 22:39 24.10.2021
5862 Clear 6 1019 82 10000 4.63 150 22:20 24.10.2021
5863 Clear 6 1019 81 10000 4.12 140 21:33 24.10.2021
5864 Clear 7 1020 82 10000 0.51 0 20:42 24.10.2021
5865 Clear 8 1021 80 10000 3.09 120 19:49 24.10.2021
5866 Clear 10 1022 73 10000 3.6 140 18:30 24.10.2021
5867 Clear 11 1022 71 10000 3.6 140 17:48 24.10.2021
5868 Clear 12 1023 65 10000 5.66 150 15:57 24.10.2021
5869 Clear 12 1024 66 10000 6.17 170 15:20 24.10.2021
5870 Clear 11 1025 71 10000 3.09 140 13:23 24.10.2021
5871 Clear 9 1026 79 10000 3.09 140 12:26 24.10.2021
5872 Clear 8 1026 83 10000 3.6 140 11:36 24.10.2021
5873 Clear 6 1026 83 10000 4.12 140 10:40 24.10.2021
5874 Clear 3 1027 95 10000 2.06 120 08:43 24.10.2021
5875 Clear 5 1028 89 10000 1.54 150 02:58 24.10.2021
5876 Clear 4 1028 91 10000 1.03 0 23:55 23.10.2021
5877 Clear 4 1028 91 10000 2.06 160 22:54 23.10.2021
5878 Clear 6 1028 87 10000 2.06 200 20:59 23.10.2021
5879 Clear 7 1028 84 10000 2.06 210 19:36 23.10.2021
5880 Clear 8 1027 81 10000 2.57 220 18:44 23.10.2021
5881 Clouds 11 1027 71 10000 1.54 260 17:46 23.10.2021
5882 Clouds 11 1027 70 10000 3.09 290 17:18 23.10.2021
5883 Clouds 12 1027 68 10000 4.63 250 15:57 23.10.2021
5884 Clouds 11 1026 78 10000 5.14 270 13:35 23.10.2021
5885 Clouds 6 1019 92 10000 5.66 260 00:45 23.10.2021
5886 Clouds 6 1018 89 10000 5.14 260 23:41 22.10.2021
5887 Clouds 6 1016 86 10000 5.66 260 21:37 22.10.2021
5888 Clouds 6 1014 85 10000 4.63 270 19:33 22.10.2021
5889 Clouds 8 1012 83 10000 6.69 290 18:25 22.10.2021
5890 Clouds 9 1010 84 10000 7.2 280 16:44 22.10.2021
5891 Rain 9 1008 91 10000 9.26 270 14:45 22.10.2021
5892 Rain 9 1007 90 6000 12.35 250 12:41 22.10.2021
5893 Clouds 9 1006 83 10000 11.32 240 10:57 22.10.2021
5894 Clouds 9 1006 84 10000 11.32 240 10:33 22.10.2021
5895 Clouds 8 1006 84 10000 10.8 240 09:34 22.10.2021
5896 Clouds 7 1007 86 10000 9.26 230 07:40 22.10.2021
5897 Clouds 7 1007 86 10000 9.26 230 07:21 22.10.2021
5898 Clouds 7 1007 86 10000 9.26 230 07:21 22.10.2021
5899 Clear 6 1008 89 10000 7.2 250 01:41 22.10.2021
5900 Clouds 6 1008 88 10000 7.2 250 23:50 21.10.2021
5901 Clouds 6 1007 88 10000 6.17 250 22:44 21.10.2021
5902 Clouds 6 1006 87 10000 5.66 240 21:38 21.10.2021
5903 Clouds 6 1004 87 10000 6.17 260 20:24 21.10.2021
5904 Clouds 7 1004 85 10000 7.72 280 19:55 21.10.2021
5905 Clouds 7 1003 85 10000 6.69 260 19:25 21.10.2021
5906 Clouds 7 1002 88 10000 6.69 250 18:34 21.10.2021
5907 Clouds 7 1001 92 10000 4.63 270 17:53 21.10.2021
5908 Clouds 8 1000 94 10000 8.29 292 16:50 21.10.2021
5909 Rain 9 998 90 10000 6.69 260 15:33 21.10.2021
5910 Rain 8 997 93 4800 8.75 280 14:57 21.10.2021
5911 Rain 9 997 97 10000 7.61 275 14:37 21.10.2021
5912 Rain 10 991 93 10000 10.8 260 11:59 21.10.2021
5913 Rain 10 985 92 10000 14.4 280 09:55 21.10.2021
5914 Rain 11 983 91 9000 8.23 210 08:20 21.10.2021
5915 Clouds 12 984 88 10000 14.4 230 06:54 21.10.2021
5916 Clouds 13 994 91 10000 3.6 210 00:51 21.10.2021
5917 Clouds 13 996 89 10000 5.66 230 22:41 20.10.2021
5918 Clouds 14 997 91 10000 8.47 225 21:50 20.10.2021
5919 Rain 15 997 88 10000 7.2 220 21:18 20.10.2021
5920 Rain 15 997 86 10000 7.2 220 20:39 20.10.2021
5921 Clouds 15 997 86 10000 7.72 220 20:21 20.10.2021
5922 Clouds 16 998 81 10000 8.75 210 19:26 20.10.2021
5923 Clouds 17 998 81 10000 8.23 210 18:45 20.10.2021
5924 Clouds 17 998 81 10000 8.23 210 18:45 20.10.2021
5925 Clouds 17 999 81 10000 9.26 220 17:39 20.10.2021
5926 Clouds 17 999 80 10000 10.8 230 15:26 20.10.2021
5927 Clear 16 1003 79 10000 6.17 210 10:21 20.10.2021
5928 Clear 14 1005 83 10000 4.63 210 07:43 20.10.2021
5929 Clear 15 1009 90 10000 4.12 210 02:41 20.10.2021
5930 Clouds 16 1010 89 10000 7.2 220 00:34 20.10.2021
5931 Clouds 17 1011 92 10000 6.69 220 23:32 19.10.2021
5932 Clouds 16 1012 95 10000 5.14 220 21:40 19.10.2021
5933 Clouds 16 1012 95 10000 5.14 210 20:36 19.10.2021
5934 Clouds 16 1012 96 10000 5.14 210 20:18 19.10.2021
5935 Drizzle 16 1012 96 9000 5.14 210 19:37 19.10.2021
5936 Clouds 16 1012 96 10000 5.14 210 18:47 19.10.2021
5937 Drizzle 16 1013 96 4200 5.14 210 17:56 19.10.2021
5938 Drizzle 15 1014 95 3800 4.63 200 15:31 19.10.2021
5939 Drizzle 14 1015 95 4500 3.6 190 14:46 19.10.2021
5940 Drizzle 14 1015 95 4500 3.6 190 14:46 19.10.2021
5941 Mist 14 1015 95 4500 4.12 190 13:57 19.10.2021
5942 Clouds 14 1016 88 10000 5.14 200 12:24 19.10.2021
5943 Clouds 14 1016 88 10000 4.63 190 11:31 19.10.2021
5944 Clouds 12 1016 88 10000 4.12 190 09:55 19.10.2021
5945 Clouds 11 1017 88 10000 3.09 190 08:57 19.10.2021
5946 Clear 11 1019 87 10000 2.06 150 04:25 19.10.2021
5947 Clear 10 1020 89 10000 2.57 170 00:23 19.10.2021
5948 Clear 9 1020 89 10000 2.57 170 23:49 18.10.2021
5949 Clear 10 1020 86 10000 3.09 160 23:18 18.10.2021
5950 Clear 10 1020 88 10000 4.12 140 22:31 18.10.2021
5951 Clear 10 1020 88 10000 4.12 140 22:31 18.10.2021
5952 Clear 11 1021 84 10000 2.57 140 20:57 18.10.2021
5953 Clear 11 1021 85 10000 2.57 140 20:33 18.10.2021
5954 Clear 11 1021 83 10000 1.54 130 19:50 18.10.2021
5955 Clear 11 1021 83 10000 1.54 150 19:28 18.10.2021
5956 Clear 12 1021 80 10000 1.54 180 18:52 18.10.2021
5957 Clear 14 1022 71 10000 3.09 200 15:25 18.10.2021
5958 Clear 13 1023 76 10000 3.09 180 12:55 18.10.2021
5959 Clear 11 1023 81 10000 2.57 220 10:36 18.10.2021
5960 Clear 10 1022 80 10000 3.09 200 09:28 18.10.2021
5961 Clear 10 1021 82 10000 3.09 230 02:30 18.10.2021
5962 Clear 10 1021 82 10000 2.57 220 23:30 17.10.2021
5963 Clouds 11 1020 79 10000 3.09 220 21:52 17.10.2021
5964 Clouds 11 1020 78 10000 3.09 220 21:00 17.10.2021
5965 Clouds 11 1020 78 10000 3.09 220 20:38 17.10.2021
5966 Clouds 11 1020 77 10000 3.09 210 19:39 17.10.2021
5967 Clouds 11 1019 78 10000 3.71 222 18:58 17.10.2021
5968 Clear 12 1019 73 10000 3.09 210 17:34 17.10.2021
5969 Clear 12 1019 74 10000 3.09 230 15:42 17.10.2021
5970 Clear 12 1019 74 10000 4.12 220 14:24 17.10.2021
5971 Clear 12 1019 73 10000 4.12 230 13:42 17.10.2021
5972 Clouds 11 1019 76 10000 3.6 220 11:58 17.10.2021
5973 Clouds 10 1019 81 10000 3.6 220 10:43 17.10.2021
5974 Clouds 9 1019 83 10000 2.57 230 09:41 17.10.2021
5975 Clouds 9 1018 84 10000 2.57 240 07:19 17.10.2021
5976 Clear 9 1019 77 10000 3.6 210 00:55 17.10.2021
5977 Clear 9 1019 78 10000 3.6 210 00:23 17.10.2021
5978 Clear 8 1020 83 10000 2.57 210 21:52 16.10.2021
5979 Clear 9 1020 79 10000 2.57 210 20:32 16.10.2021
5980 Clear 10 1020 78 10000 3.09 200 19:55 16.10.2021
5981 Clear 10 1020 78 10000 3.09 200 19:37 16.10.2021
5982 Clouds 10 1020 78 10000 3.09 200 19:18 16.10.2021
5983 Clouds 10 1020 77 10000 3.6 210 18:42 16.10.2021
5984 Clouds 10 1020 78 10000 3.6 220 18:19 16.10.2021
5985 Clouds 11 1020 75 10000 3.6 210 17:28 16.10.2021
5986 Clouds 11 1021 75 10000 4.63 230 15:38 16.10.2021
5987 Clouds 10 1021 91 10000 3.68 266 12:30 16.10.2021
5988 Clouds 9 1021 92 10000 2.06 230 10:49 16.10.2021
5989 Clouds 7 1021 98 10000 1.03 0 08:54 16.10.2021
5990 Clouds 6 1020 94 10000 1.54 250 01:27 16.10.2021
5991 Clouds 7 1020 98 10000 2.06 230 23:59 15.10.2021
5992 Clouds 7 1019 96 10000 1.54 230 23:25 15.10.2021
5993 Clouds 8 1019 94 10000 2.57 270 22:20 15.10.2021
5994 Clouds 8 1019 92 10000 2.06 260 21:32 15.10.2021
5995 Clear 9 1019 92 10000 3.31 277 20:52 15.10.2021
5996 Clear 9 1018 92 10000 3.26 280 20:18 15.10.2021
5997 Clouds 11 1017 83 10000 4.12 300 18:45 15.10.2021
5998 Clouds 11 1016 79 10000 5.14 290 17:59 15.10.2021
5999 Clouds 14 1015 66 10000 7.72 300 15:45 15.10.2021
6000 Clouds 13 1014 72 10000 7.2 300 13:39 15.10.2021
6001 Clouds 11 1013 93 10000 5.14 290 11:46 15.10.2021
6002 Rain 10 1012 95 9000 4.63 300 10:58 15.10.2021
6003 Rain 11 1011 92 6000 6.69 310 10:19 15.10.2021
6004 Clouds 12 1010 89 10000 7.2 220 06:57 15.10.2021
6005 Clouds 13 1013 85 10000 7.2 230 02:31 15.10.2021
6006 Clouds 13 1015 86 10000 6.17 240 00:22 15.10.2021
6007 Clouds 12 1016 88 10000 3.6 220 22:54 14.10.2021
6008 Clouds 12 1017 84 10000 4.63 230 21:46 14.10.2021
6009 Clouds 13 1017 81 10000 4.63 240 21:19 14.10.2021
6010 Clouds 13 1018 83 10000 4.63 230 20:20 14.10.2021
6011 Clouds 13 1018 84 10000 3.6 250 19:42 14.10.2021
6012 Clouds 13 1018 81 10000 4.63 240 18:26 14.10.2021
6013 Clouds 14 1019 77 10000 5.66 260 16:57 14.10.2021
6014 Clouds 14 1019 75 10000 6.17 260 16:21 14.10.2021
6015 Clouds 14 1019 83 10000 7.2 270 14:44 14.10.2021
6016 Clouds 14 1020 83 10000 6.17 260 14:26 14.10.2021
6017 Clouds 13 1020 89 10000 6.69 260 12:35 14.10.2021
6018 Drizzle 13 1020 94 10000 7.2 260 11:26 14.10.2021
6019 Clouds 11 1021 97 10000 4.77 273 08:26 14.10.2021
6020 Clouds 11 1021 99 10000 4.51 270 05:52 14.10.2021
6021 Clouds 10 1022 96 10000 6.11 244 00:41 14.10.2021
6022 Clouds 10 1023 91 10000 5.66 260 22:40 13.10.2021
6023 Clear 10 1023 91 10000 2.57 230 21:36 13.10.2021
6024 Clouds 10 1023 91 10000 2.57 260 20:45 13.10.2021
6025 Rain 11 1023 87 10000 3.6 260 19:24 13.10.2021
6026 Rain 11 1023 89 10000 3.6 270 18:38 13.10.2021
6027 Clouds 11 1023 88 10000 3.09 250 16:37 13.10.2021
6028 Clouds 12 1023 90 10000 2.06 280 14:47 13.10.2021
6029 Clouds 11 1023 92 10000 4.63 290 14:25 13.10.2021
6030 Rain 10 1023 91 10000 4.63 290 12:48 13.10.2021
6031 Clouds 10 1022 94 10000 2.57 250 11:37 13.10.2021
6032 Clouds 7 1022 96 10000 1.54 250 10:18 13.10.2021
6033 Fog 3 1021 98 500 0.51 0 07:53 13.10.2021
6034 Fog 4 1020 98 600 1.54 240 04:50 13.10.2021
6035 Clouds 5 1020 96 10000 1.43 342 02:22 13.10.2021
6036 Fog 5 1019 98 10000 1.54 250 23:38 12.10.2021
6037 Clear 6 1019 98 10000 2.06 300 22:53 12.10.2021
6038 Clear 6 1019 98 10000 2.06 300 22:34 12.10.2021
6039 Clouds 7 1018 97 10000 2.57 290 20:54 12.10.2021
6040 Clouds 7 1017 94 10000 3.09 290 20:31 12.10.2021
6041 Clouds 8 1017 94 10000 2.57 290 19:45 12.10.2021
6042 Clouds 10 1017 80 10000 4.12 300 18:26 12.10.2021
6043 Clouds 11 1016 80 10000 5.14 310 17:29 12.10.2021
6044 Clouds 11 1016 76 10000 5.66 320 16:24 12.10.2021
6045 Clouds 11 1016 81 10000 5.66 300 15:35 12.10.2021
6046 Clouds 12 1016 79 10000 3.6 290 14:20 12.10.2021
6047 Clouds 10 1016 86 10000 5.66 300 13:41 12.10.2021
6048 Clouds 11 1016 92 8000 3.6 340 11:31 12.10.2021
6049 Clouds 11 1016 92 8000 3.6 340 11:30 12.10.2021
6050 Clouds 10 1017 96 10000 3.09 290 09:41 12.10.2021
6051 Clouds 9 1016 98 8000 3.6 290 08:31 12.10.2021
6052 Rain 9 1017 96 8000 4.12 300 06:46 12.10.2021
6053 Rain 9 1018 93 10000 5.66 260 04:52 12.10.2021
6054 Clouds 9 1018 95 10000 5.14 250 04:28 12.10.2021
6055 Clouds 9 1021 93 10000 3.6 270 23:59 11.10.2021
6056 Rain 9 1021 92 10000 3.6 270 23:37 11.10.2021
6057 Clear 8 1022 94 10000 3.6 260 22:52 11.10.2021
6058 Clouds 9 1022 92 10000 3.09 270 21:32 11.10.2021
6059 Clouds 9 1022 91 10000 3.09 270 20:31 11.10.2021
6060 Clouds 11 1022 88 10000 4.12 300 19:36 11.10.2021
6061 Clouds 11 1022 87 10000 5.14 290 18:23 11.10.2021
6062 Clouds 14 1022 73 10000 6.69 300 16:41 11.10.2021
6063 Clouds 14 1022 75 10000 7.2 300 16:21 11.10.2021
6064 Clouds 14 1022 78 10000 6.17 290 15:45 11.10.2021
6065 Clouds 14 1023 74 10000 6.17 280 14:54 11.10.2021
6066 Clouds 15 1023 77 10000 6.69 270 14:22 11.10.2021
6067 Clouds 14 1023 75 10000 5.66 270 13:35 11.10.2021
6068 Clouds 13 1023 84 10000 4.63 280 11:25 11.10.2021
6069 Clouds 10 1023 95 10000 3.09 260 09:47 11.10.2021
6070 Clouds 10 1023 95 10000 2.57 280 08:40 11.10.2021
6071 Clouds 8 1023 94 8000 1.03 0 01:47 11.10.2021
6072 Clouds 7 1023 94 8000 0.51 0 01:20 11.10.2021
6073 Clouds 7 1024 97 8000 0.51 260 00:42 11.10.2021
6074 Fog 6 1024 96 700 0.51 0 23:35 10.10.2021
6075 Mist 7 1025 95 3000 1.03 200 21:51 10.10.2021
6076 Mist 7 1025 92 3500 1.03 0 21:26 10.10.2021
6077 Clouds 8 1025 91 7000 1.03 280 20:41 10.10.2021
6078 Clear 9 1025 90 10000 1.54 300 20:20 10.10.2021
6079 Clear 9 1024 86 10000 1.03 260 19:49 10.10.2021
6080 Clear 10 1024 83 10000 1.54 260 19:31 10.10.2021
6081 Clear 12 1024 74 10000 2.06 240 18:23 10.10.2021
6082 Clear 14 1026 64 10000 3.09 210 15:54 10.10.2021
6083 Clear 14 1026 64 10000 3.09 210 15:36 10.10.2021
6084 Clear 12 1026 69 10000 2.57 150 13:42 10.10.2021
6085 Clear 10 1027 73 10000 2.06 180 12:44 10.10.2021
6086 Clear 10 1027 72 10000 2.57 140 12:22 10.10.2021
6087 Clear 7 1027 76 10000 2.57 160 10:33 10.10.2021
6088 Clear 4 1027 89 10000 1.03 0 09:27 10.10.2021
6089 Clear 4 1027 87 10000 2.57 120 08:52 10.10.2021
6090 Clear 3 1028 89 10000 1.54 90 06:36 10.10.2021
6091 Clear 6 1029 82 10000 2.57 130 02:28 10.10.2021
6092 Clear 7 1030 82 10000 2.57 110 00:54 10.10.2021
6093 Clear 8 1030 79 10000 3.09 110 23:52 09.10.2021
6094 Clear 10 1030 74 10000 4.12 110 22:26 09.10.2021
6095 Clear 10 1030 70 10000 3.09 100 21:30 09.10.2021
6096 Clear 10 1030 69 10000 3.09 100 20:43 09.10.2021
6097 Clear 11 1030 67 10000 2.57 100 19:42 09.10.2021
6098 Clear 13 1030 59 10000 3.09 110 18:57 09.10.2021
6099 Clear 14 1030 55 10000 3.09 110 18:27 09.10.2021
6100 Clear 15 1031 51 10000 4.12 110 16:28 09.10.2021
6101 Clear 15 1031 58 10000 4.63 120 14:57 09.10.2021
6102 Clear 14 1032 65 10000 4.63 120 13:40 09.10.2021
6103 Clear 13 1032 68 10000 4.63 100 12:37 09.10.2021
6104 Clear 11 1032 76 10000 4.63 120 11:33 09.10.2021
6105 Clear 9 1032 86 10000 3.09 90 10:38 09.10.2021
6106 Clear 7 1032 92 10000 2.06 80 09:35 09.10.2021
6107 Clear 5 1031 100 10000 3.09 80 08:28 09.10.2021
6108 Clear 6 1031 96 10000 2.57 90 07:37 09.10.2021
6109 Mist 7 1031 100 5000 2.06 60 05:28 09.10.2021
6110 Mist 10 1032 98 3500 3.09 60 02:49 09.10.2021
6111 Clouds 10 1032 98 6000 3.6 80 00:58 09.10.2021
6112 Clear 10 1032 97 10000 3.09 70 23:36 08.10.2021
6113 Clear 11 1032 94 10000 3.6 70 22:53 08.10.2021
6114 Clear 12 1032 93 10000 3.6 80 21:50 08.10.2021
6115 Clouds 13 1032 84 10000 3.09 80 20:36 08.10.2021
6116 Clouds 15 1031 75 10000 3.09 60 18:50 08.10.2021
6117 Clouds 17 1031 65 10000 3.09 110 17:28 08.10.2021
6118 Clouds 17 1031 65 10000 2.57 110 16:48 08.10.2021
6119 Clouds 18 1032 64 10000 3.09 110 16:22 08.10.2021
6120 Clouds 17 1033 66 10000 3.09 80 13:56 08.10.2021
6121 Clear 16 1033 69 10000 2.57 80 12:48 08.10.2021
6122 Clear 13 1033 85 10000 1.03 0 11:31 08.10.2021
6123 Clear 10 1033 93 10000 1.03 0 10:32 08.10.2021
6124 Fog 5 1032 98 450 1.03 150 07:34 08.10.2021
6125 Clear 9 1031 94 10000 1.54 60 23:33 07.10.2021
6126 Clear 9 1030 94 10000 2.06 80 22:58 07.10.2021
6127 Clouds 11 1030 91 10000 0.51 0 21:34 07.10.2021
6128 Clouds 12 1030 90 10000 0.51 280 20:58 07.10.2021
6129 Clouds 14 1030 85 10000 1.54 240 19:46 07.10.2021
6130 Clouds 14 1029 85 10000 1.03 0 19:27 07.10.2021
6131 Clouds 14 1029 81 10000 1.54 170 17:49 07.10.2021
6132 Clouds 15 1029 80 10000 2.06 170 17:18 07.10.2021
6133 Clouds 15 1028 72 10000 2.06 150 15:24 07.10.2021
6134 Clouds 15 1028 76 10000 2.57 160 13:45 07.10.2021
6135 Clouds 15 1028 76 10000 2.57 160 13:27 07.10.2021
6136 Clouds 14 1028 79 10000 1.54 0 12:39 07.10.2021
6137 Clouds 12 1027 91 10000 2.06 110 10:49 07.10.2021
6138 Clouds 10 1027 93 10000 2.06 100 10:19 07.10.2021
6139 Clouds 9 1026 95 10000 0 0 08:56 07.10.2021
6140 Clouds 9 1026 95 10000 0 0 08:35 07.10.2021
6141 Clouds 9 1025 98 10000 0.51 0 07:42 07.10.2021
6142 Clouds 9 1025 95 10000 1.54 80 06:59 07.10.2021
6143 Clouds 11 1022 92 10000 2.06 100 02:24 07.10.2021
6144 Clouds 11 1020 95 10000 2.06 120 23:40 06.10.2021
6145 Clouds 11 1019 96 10000 2.78 128 22:46 06.10.2021
6146 Clouds 11 1019 95 10000 2.57 130 21:53 06.10.2021
6147 Clouds 11 1018 96 10000 3.09 140 20:35 06.10.2021
6148 Clouds 12 1017 92 10000 3.6 150 19:48 06.10.2021
6149 Clouds 12 1016 90 10000 3.6 140 18:39 06.10.2021
6150 Clouds 13 1015 85 10000 4.63 150 16:55 06.10.2021
6151 Clouds 13 1014 80 10000 6.17 190 15:26 06.10.2021
6152 Clouds 13 1013 73 10000 7.2 190 13:54 06.10.2021
6153 Clouds 13 1012 76 10000 5.14 180 12:59 06.10.2021
6154 Clouds 13 1012 76 10000 5.14 180 12:40 06.10.2021
6155 Clouds 13 1012 76 10000 5.66 180 12:21 06.10.2021
6156 Clouds 12 1010 85 10000 5.66 200 09:59 06.10.2021
6157 Clouds 12 1010 84 10000 5.66 200 09:39 06.10.2021
6158 Clouds 11 1009 87 10000 5.66 190 08:42 06.10.2021
6159 Clouds 11 1009 90 10000 5.66 200 07:44 06.10.2021
6160 Clear 11 1007 90 10000 5.14 200 05:26 06.10.2021
6161 Rain 13 1005 90 10000 2.57 210 00:26 06.10.2021
6162 Clouds 13 1005 90 10000 4.12 200 23:57 05.10.2021
6163 Rain 13 1005 90 10000 4.12 200 23:38 05.10.2021
6164 Rain 13 1005 90 10000 4.63 200 23:20 05.10.2021
6165 Rain 13 1004 89 10000 4.12 160 22:27 05.10.2021
6166 Rain 13 1004 89 10000 4.12 160 22:27 05.10.2021
6167 Rain 13 1004 86 10000 4.63 150 21:47 05.10.2021
6168 Rain 13 1004 86 10000 4.63 130 20:41 05.10.2021
6169 Clear 13 1004 86 10000 4.63 120 20:23 05.10.2021
6170 Clear 13 1004 83 10000 4.12 120 19:43 05.10.2021
6171 Clouds 14 1004 80 10000 4.63 130 18:54 05.10.2021
6172 Clouds 16 1005 73 10000 5.14 140 16:38 05.10.2021
6173 Clouds 14 1007 79 10000 5.14 150 14:36 05.10.2021
6174 Clouds 14 1007 80 10000 4.63 140 13:35 05.10.2021
6175 Clear 13 1008 86 10000 4.12 130 12:47 05.10.2021
6176 Clear 13 1009 87 10000 4.12 130 12:18 05.10.2021
6177 Clear 11 1009 91 10000 3.09 130 11:19 05.10.2021
6178 Clear 9 1011 95 10000 2.06 100 09:26 05.10.2021
6179 Clear 9 1013 94 10000 1.54 130 04:47 05.10.2021
6180 Clear 10 1015 88 10000 3.6 140 23:53 04.10.2021
6181 Clear 11 1015 86 10000 3.6 150 22:38 04.10.2021
6182 Clear 12 1016 83 10000 3.09 170 20:29 04.10.2021
6183 Clouds 15 1015 66 10000 3.6 190 18:34 04.10.2021
6184 Clouds 15 1015 66 10000 3.6 190 18:34 04.10.2021
6185 Clouds 17 1015 63 10000 6.17 200 16:34 04.10.2021
6186 Clouds 17 1015 68 10000 6.69 190 15:31 04.10.2021
6187 Clouds 17 1015 68 10000 6.69 190 15:31 04.10.2021
6188 Clouds 16 1016 72 10000 5.14 190 14:43 04.10.2021
6189 Clear 15 1016 76 10000 4.63 190 13:57 04.10.2021
6190 Clear 15 1016 78 10000 4.63 190 13:25 04.10.2021
6191 Clouds 14 1015 84 10000 3.6 190 12:28 04.10.2021
6192 Clouds 13 1015 88 10000 3.6 200 11:31 04.10.2021
6193 Clear 12 1015 88 10000 3.09 190 10:23 04.10.2021
6194 Clear 10 1014 94 10000 2.57 190 08:42 04.10.2021
6195 Clear 10 1013 92 10000 3.6 190 07:37 04.10.2021
6196 Clear 11 1011 94 10000 4.12 200 01:56 04.10.2021
6197 Clouds 12 1009 92 10000 3.6 230 22:41 03.10.2021
6198 Clouds 12 1007 95 10000 3.6 250 21:42 03.10.2021
6199 Clouds 12 1005 97 10000 3.09 270 21:23 03.10.2021
6200 Clouds 14 1003 91 10000 7.2 270 20:21 03.10.2021
6201 Rain 17 1001 82 10000 6.69 210 19:30 03.10.2021
6202 Clouds 20 999 73 10000 4.63 190 18:28 03.10.2021
6203 Rain 20 999 71 10000 5.66 180 17:28 03.10.2021
6204 Rain 20 998 74 10000 8.75 170 14:48 03.10.2021
6205 Rain 19 998 74 10000 10.29 170 14:27 03.10.2021
6206 Rain 19 998 77 10000 8.23 180 13:34 03.10.2021
6207 Rain 19 998 78 10000 7.72 170 12:41 03.10.2021
6208 Rain 19 998 77 10000 8.23 170 10:52 03.10.2021
6209 Clouds 19 997 72 10000 10.8 180 09:34 03.10.2021
6210 Clouds 17 997 77 10000 8.75 170 03:36 03.10.2021
6211 Clouds 16 1002 77 10000 7.2 150 22:46 02.10.2021
6212 Clouds 15 1004 82 10000 5.66 140 21:30 02.10.2021
6213 Clouds 15 1005 86 10000 4.09 143 19:54 02.10.2021
6214 Clouds 15 1006 81 10000 4.12 140 18:56 02.10.2021
6215 Clouds 16 1007 81 10000 5.14 150 18:18 02.10.2021
6216 Clouds 16 1007 80 10000 6.17 150 17:36 02.10.2021
6217 Clouds 16 1009 73 10000 5.66 180 15:53 02.10.2021
6218 Clear 11 1017 75 10000 6.17 180 06:59 01.10.2021
6219 Clouds 16 1022 58 10000 7.72 240 15:37 30.09.2021
6220 Clouds 15 1022 65 10000 9.26 250 13:51 30.09.2021
6221 Clouds 13 1022 76 10000 9.77 250 11:38 30.09.2021
6222 Clouds 12 1022 84 10000 7.72 240 10:46 30.09.2021
6223 Clear 10 1021 86 10000 7.72 240 09:44 30.09.2021
6224 Clouds 9 1020 90 10000 6.69 230 08:30 30.09.2021
6225 Clouds 9 1020 91 10000 7.72 230 07:34 30.09.2021
6226 Clouds 9 1019 91 10000 7.72 240 05:18 30.09.2021
6227 Clouds 10 1016 93 10000 8.75 230 01:20 30.09.2021
6228 Rain 10 1016 93 10000 8.23 230 00:23 30.09.2021
6229 Clouds 10 1016 92 10000 9.26 230 22:37 29.09.2021
6230 Clouds 10 1015 91 10000 7.72 230 21:25 29.09.2021
6231 Clouds 10 1015 92 10000 7.72 220 20:27 29.09.2021
6232 Clouds 11 1014 92 10000 6.69 230 19:51 29.09.2021
6233 Clouds 11 1014 92 10000 7.2 240 18:50 29.09.2021
6234 Clouds 11 1013 89 10000 7.72 240 17:41 29.09.2021
6235 Clouds 13 1012 90 10000 5.66 230 16:48 29.09.2021
6236 Rain 13 1012 87 10000 5.66 200 15:58 29.09.2021
6237 Rain 14 1012 82 10000 4.12 190 14:39 29.09.2021
6238 Clouds 15 1013 79 10000 3.6 200 13:58 29.09.2021
6239 Rain 16 1013 77 10000 6.17 190 13:22 29.09.2021
6240 Clouds 16 1013 74 10000 4.63 180 12:35 29.09.2021
6241 Clear 13 1014 93 10000 4.12 140 10:50 29.09.2021
6242 Clear 11 1014 95 10000 3.6 120 09:53 29.09.2021
6243 Clear 11 1014 94 10000 3.6 120 09:34 29.09.2021
6244 Clear 10 1015 93 10000 2.06 140 07:39 29.09.2021
6245 Clear 10 1017 92 10000 3.6 130 04:39 29.09.2021
6246 Clear 11 1020 92 10000 2.06 130 23:29 28.09.2021
6247 Clouds 11 1021 93 10000 2.34 156 22:24 28.09.2021
6248 Clear 12 1021 91 10000 2.57 120 21:45 28.09.2021
6249 Clear 13 1021 87 10000 2.57 140 20:44 28.09.2021
6250 Clouds 14 1021 83 10000 1.54 140 19:47 28.09.2021
6251 Clouds 16 1021 76 10000 2.57 160 18:51 28.09.2021
6252 Clouds 17 1021 72 10000 3.09 170 18:18 28.09.2021
6253 Clouds 18 1021 66 10000 3.09 170 16:41 28.09.2021
6254 Clouds 18 1022 71 10000 3.6 210 14:37 28.09.2021
6255 Clouds 17 1023 77 10000 3.6 180 13:22 28.09.2021
6256 Clouds 16 1023 81 10000 3.09 200 12:22 28.09.2021
6257 Clouds 15 1023 87 10000 3.09 190 11:47 28.09.2021
6258 Clouds 14 1023 90 10000 2.57 210 11:23 28.09.2021
6259 Clouds 13 1023 93 10000 3.09 220 10:26 28.09.2021
6260 Clear 11 1022 96 10000 1.54 220 09:25 28.09.2021
6261 Clear 10 1022 98 10000 0.51 200 08:43 28.09.2021
6262 Fog 9 1022 98 10000 1.54 210 07:49 28.09.2021
6263 Fog 10 1021 98 10000 1.54 210 06:23 28.09.2021
6264 Clouds 12 1019 100 10000 2.57 250 01:29 28.09.2021
6265 Clouds 14 1018 93 10000 4.12 260 00:28 28.09.2021
6266 Clouds 15 1017 94 10000 3.6 260 23:48 27.09.2021
6267 Rain 15 1017 93 10000 3.6 260 23:23 27.09.2021
6268 Rain 15 1016 90 10000 6.69 260 22:20 27.09.2021
6269 Rain 18 1014 83 10000 3.09 200 20:54 27.09.2021
6270 Rain 19 1013 82 10000 4.12 170 20:24 27.09.2021
6271 Rain 19 1013 79 10000 3.6 170 19:36 27.09.2021
6272 Clouds 20 1013 73 10000 3.6 170 18:52 27.09.2021
6273 Clouds 20 1013 73 10000 3.6 170 18:52 27.09.2021
6274 Clouds 21 1013 73 10000 4.12 170 17:37 27.09.2021
6275 Clouds 21 1013 71 10000 4.63 190 16:56 27.09.2021
6276 Clouds 21 1013 72 10000 4.63 190 16:33 27.09.2021
6277 Clouds 21 1013 71 10000 5.66 180 15:36 27.09.2021
6278 Clouds 21 1013 73 10000 6.17 180 13:49 27.09.2021
6279 Clouds 20 1014 79 10000 4.63 200 12:22 27.09.2021
6280 Clouds 19 1014 88 10000 3.6 200 10:48 27.09.2021
6281 Clouds 17 1014 93 8000 2.57 170 09:40 27.09.2021
6282 Clouds 15 1014 100 8000 2.57 160 07:54 27.09.2021
6283 Clear 17 1015 96 10000 2.06 210 03:34 27.09.2021
6284 Clouds 17 1015 95 10000 2.06 190 23:49 26.09.2021
6285 Clear 18 1015 94 10000 0 0 21:57 26.09.2021
6286 Clear 18 1015 92 10000 0 0 21:27 26.09.2021
6287 Clear 18 1014 91 10000 0 0 20:30 26.09.2021
6288 Clouds 19 1014 87 10000 0 0 19:54 26.09.2021
6289 Clouds 21 1014 82 10000 0 0 19:26 26.09.2021
6290 Clouds 21 1014 80 10000 0 0 19:26 26.09.2021
6291 Clouds 21 1014 82 10000 0 0 19:26 26.09.2021
6292 Clouds 21 1014 80 10000 0 0 19:26 26.09.2021
6293 Clouds 21 1014 77 10000 1.03 210 18:41 26.09.2021
6294 Clouds 22 1014 75 10000 2.57 210 17:48 26.09.2021
6295 Clear 22 1014 75 10000 2.57 190 17:20 26.09.2021
6296 Clear 22 1014 73 10000 3.09 170 16:23 26.09.2021
6297 Clear 22 1014 75 10000 3.09 140 15:47 26.09.2021
6298 Clear 21 1014 71 10000 1.54 180 14:23 26.09.2021
6299 Clear 21 1015 71 10000 2.57 150 13:43 26.09.2021
6300 Clear 20 1015 75 10000 3.09 130 12:31 26.09.2021
6301 Clear 19 1015 75 10000 2.57 130 11:56 26.09.2021
6302 Clear 19 1015 77 10000 2.57 130 11:32 26.09.2021
6303 Clear 16 1015 87 10000 3.09 120 09:52 26.09.2021
6304 Clear 15 1015 91 10000 2.57 110 08:54 26.09.2021
6305 Clear 15 1016 93 10000 2.57 80 01:28 26.09.2021
6306 Clear 16 1016 90 10000 2.06 70 00:20 26.09.2021
6307 Clear 16 1016 87 10000 2.57 60 22:42 25.09.2021
6308 Clear 17 1016 88 10000 2.57 50 22:23 25.09.2021
6309 Clear 17 1016 87 10000 2.57 40 21:49 25.09.2021
6310 Clouds 17 1016 89 10000 3.09 20 20:53 25.09.2021
6311 Clouds 18 1016 86 10000 0 0 19:54 25.09.2021
6312 Clouds 19 1015 83 10000 0 0 18:39 25.09.2021
6313 Clouds 20 1015 82 10000 2.57 220 17:46 25.09.2021
6314 Clouds 20 1015 82 10000 3.6 240 14:49 25.09.2021
6315 Clouds 20 1015 81 10000 4.12 250 13:56 25.09.2021
6316 Clouds 20 1015 80 10000 4.12 250 12:48 25.09.2021
6317 Clouds 19 1015 84 10000 5.14 250 11:40 25.09.2021
6318 Clouds 17 1014 92 10000 5.14 240 10:24 25.09.2021
6319 Clouds 16 1014 93 10000 3.6 230 09:25 25.09.2021
6320 Clouds 16 1013 95 10000 4.12 240 07:52 25.09.2021
6321 Clouds 17 1013 84 10000 5.14 250 01:34 25.09.2021
6322 Clouds 17 1013 86 10000 4.12 240 23:33 24.09.2021
6323 Clouds 18 1013 86 10000 5.14 240 21:41 24.09.2021
6324 Clear 18 1012 86 10000 5.14 240 20:33 24.09.2021
6325 Clouds 18 1012 86 10000 5.14 220 19:44 24.09.2021
6326 Clouds 18 1012 85 10000 5.66 230 18:32 24.09.2021
6327 Clouds 19 1012 82 10000 5.14 230 17:53 24.09.2021
6328 Clouds 19 1012 81 10000 5.14 230 17:35 24.09.2021
6329 Clouds 19 1012 81 10000 6.69 230 16:45 24.09.2021
6330 Clouds 18 1013 82 10000 6.69 260 13:55 24.09.2021
6331 Clouds 17 1013 85 10000 6.69 250 12:45 24.09.2021
6332 Clouds 17 1013 87 10000 6.17 250 12:27 24.09.2021
6333 Clouds 16 1013 91 10000 6.17 250 11:50 24.09.2021
6334 Clouds 15 1014 93 10000 4.12 250 10:24 24.09.2021
6335 Clouds 13 1014 94 10000 3.09 250 08:29 24.09.2021
6336 Clouds 12 1014 94 10000 4.12 260 07:32 24.09.2021
6337 Clouds 12 1014 94 10000 3.09 240 06:44 24.09.2021
6338 Clouds 11 1014 93 10000 3.6 250 04:53 24.09.2021
6339 Clouds 14 1013 88 10000 7.2 270 22:46 23.09.2021
6340 Clouds 13 1013 92 10000 7.2 270 22:19 23.09.2021
6341 Clouds 14 1012 91 10000 7.72 280 21:44 23.09.2021
6342 Clouds 14 1012 95 10000 7.2 280 20:33 23.09.2021
6343 Clouds 15 1012 92 10000 10.29 290 19:18 23.09.2021
6344 Clouds 17 1011 83 9000 9.26 260 17:45 23.09.2021
6345 Clouds 17 1012 83 10000 7.72 250 15:21 23.09.2021
6346 Clouds 17 1012 83 10000 7.72 250 14:59 23.09.2021
6347 Clouds 17 1012 81 10000 9.26 240 13:45 23.09.2021
6348 Clouds 17 1013 78 10000 9.26 250 13:19 23.09.2021
6349 Clouds 17 1013 78 10000 9.26 260 12:48 23.09.2021
6350 Clouds 16 1014 81 10000 9.26 260 12:22 23.09.2021
6351 Clouds 15 1014 86 10000 8.23 250 11:23 23.09.2021
6352 Clear 15 1015 86 10000 5.14 230 10:20 23.09.2021
6353 Clear 14 1015 86 10000 5.66 230 09:51 23.09.2021
6354 Clouds 12 1016 85 10000 5.14 220 07:44 23.09.2021
6355 Clear 12 1021 94 10000 2.57 220 01:43 23.09.2021
6356 Clear 14 1022 89 10000 3.6 210 22:58 22.09.2021
6357 Clear 14 1023 89 10000 3.09 220 22:28 22.09.2021
6358 Clear 14 1023 88 10000 2.57 220 21:52 22.09.2021
6359 Clear 14 1023 88 10000 2.57 220 21:32 22.09.2021
6360 Clear 14 1023 89 10000 2.06 210 20:39 22.09.2021
6361 Clear 16 1024 79 10000 2.57 240 19:29 22.09.2021
6362 Clear 18 1024 72 10000 3.6 250 18:37 22.09.2021
6363 Clear 19 1024 72 10000 3.55 253 17:43 22.09.2021
6364 Clear 20 1025 69 10000 4.6 270 16:37 22.09.2021
6365 Clouds 19 1026 69 10000 4.12 240 15:18 22.09.2021
6366 Clouds 18 1027 73 10000 5.66 260 13:48 22.09.2021
6367 Clouds 16 1028 84 10000 4.63 250 11:46 22.09.2021
6368 Clouds 15 1028 92 10000 3.6 240 10:44 22.09.2021
6369 Clouds 12 1028 96 6000 2.06 240 09:21 22.09.2021
6370 Fog 11 1028 98 200 1.03 0 08:22 22.09.2021
6371 Fog 11 1027 98 500 1.54 220 06:57 22.09.2021
6372 Fog 11 1028 98 600 1.03 190 05:53 22.09.2021
6373 Fog 11 1028 98 800 1.03 250 05:32 22.09.2021
6374 Mist 12 1028 95 3500 1.54 270 03:48 22.09.2021
6375 Clouds 12 1028 96 9000 1.03 250 00:21 22.09.2021
6376 Clouds 13 1028 94 10000 2.57 260 22:52 21.09.2021
6377 Clouds 14 1028 90 10000 4.12 260 21:33 21.09.2021
6378 Clouds 14 1027 89 10000 4.12 293 20:24 21.09.2021
6379 Clouds 15 1027 89 10000 5.11 300 19:20 21.09.2021
6380 Clouds 15 1027 92 10000 5.41 283 17:35 21.09.2021
6381 Clouds 16 1028 74 10000 5.66 260 16:34 21.09.2021
6382 Clear 16 1028 71 10000 5.14 250 15:38 21.09.2021
6383 Clear 16 1028 69 10000 5.66 260 14:57 21.09.2021
6384 Clear 15 1028 72 10000 4.63 250 13:56 21.09.2021
6385 Clear 15 1028 72 10000 4.63 250 13:36 21.09.2021
6386 Clouds 13 1028 78 10000 3.09 250 11:45 21.09.2021
6387 Clouds 11 1028 87 10000 2.57 240 09:58 21.09.2021
6388 Clear 10 1027 93 10000 1.03 220 08:27 21.09.2021
6389 Clear 9 1027 93 10000 1.03 240 06:41 21.09.2021
6390 Clear 8 1026 93 10000 0.51 0 23:59 20.09.2021
6391 Clear 12 1026 76 10000 1.54 30 22:25 20.09.2021
6392 Clear 13 1026 67 10000 1.54 20 21:38 20.09.2021
6393 Clear 13 1025 67 10000 3.09 30 20:31 20.09.2021
6394 Clear 13 1024 72 10000 3.09 50 19:30 20.09.2021
6395 Clouds 14 1024 69 10000 4.12 30 17:47 20.09.2021
6396 Clouds 14 1023 64 10000 4.63 20 16:43 20.09.2021
6397 Clouds 14 1023 67 10000 2.36 54 15:50 20.09.2021
6398 Clouds 15 1023 58 10000 2.06 0 15:32 20.09.2021
6399 Clouds 15 1023 57 10000 4.12 70 14:24 20.09.2021
6400 Clouds 14 1023 61 10000 3.6 90 12:35 20.09.2021
6401 Clear 14 1023 67 10000 4.12 70 11:44 20.09.2021
6402 Clear 12 1022 83 10000 3.09 70 10:24 20.09.2021
6403 Clear 12 1022 86 10000 2.57 60 09:43 20.09.2021
6404 Clear 11 1022 87 10000 2.06 70 09:20 20.09.2021
6405 Clear 11 1021 90 10000 2.06 50 08:27 20.09.2021
6406 Clouds 12 1020 89 10000 2.75 77 01:43 20.09.2021
6407 Clear 12 1019 85 10000 2.06 70 22:46 19.09.2021
6408 Clouds 13 1019 81 10000 1.54 90 21:45 19.09.2021
6409 Clouds 13 1018 81 10000 2.06 80 20:53 19.09.2021
6410 Clouds 13 1018 77 10000 2.06 90 19:41 19.09.2021
6411 Clouds 14 1018 71 10000 3.09 80 18:32 19.09.2021
6412 Clouds 15 1018 68 10000 3.6 120 17:23 19.09.2021
6413 Clouds 15 1018 63 10000 3.09 110 16:32 19.09.2021
6414 Clouds 15 1018 65 10000 4.63 110 15:31 19.09.2021
6415 Clouds 15 1018 65 10000 4.63 100 14:48 19.09.2021
6416 Clouds 15 1019 67 10000 5.66 100 13:46 19.09.2021
6417 Clouds 14 1019 75 10000 4.12 110 12:52 19.09.2021
6418 Clouds 14 1019 81 10000 4.12 90 11:39 19.09.2021
6419 Clouds 14 1019 82 10000 4.12 90 11:20 19.09.2021
6420 Clouds 12 1018 88 10000 4.63 80 09:50 19.09.2021
6421 Clouds 11 1018 90 10000 4.63 80 08:49 19.09.2021
6422 Clouds 11 1018 90 10000 4.12 70 06:43 19.09.2021
6423 Clouds 15 1018 82 10000 5.14 80 00:20 19.09.2021
6424 Clouds 15 1018 89 10000 3.09 60 22:54 18.09.2021
6425 Clouds 15 1018 90 10000 2.06 90 21:26 18.09.2021
6426 Clouds 15 1018 89 10000 3.6 80 20:45 18.09.2021
6427 Clouds 16 1018 86 10000 3.6 70 19:41 18.09.2021
6428 Clouds 16 1017 85 10000 5.14 70 19:21 18.09.2021
6429 Clouds 16 1017 85 10000 4.63 70 18:38 18.09.2021
6430 Clouds 17 1017 83 10000 2.57 60 17:59 18.09.2021
6431 Clouds 18 1017 76 10000 3.09 20 16:34 18.09.2021
6432 Clouds 18 1018 79 10000 1.54 0 13:51 18.09.2021
6433 Clouds 17 1018 80 10000 1.03 0 13:31 18.09.2021
6434 Clouds 17 1018 83 10000 1.54 0 12:51 18.09.2021
6435 Clouds 16 1018 88 10000 1.03 0 11:42 18.09.2021
6436 Clouds 14 1017 93 10000 1.03 0 10:37 18.09.2021
6437 Clouds 13 1017 93 10000 1.54 280 09:52 18.09.2021
6438 Clouds 12 1017 96 10000 1.54 250 09:21 18.09.2021
6439 Clouds 10 1016 95 10000 1.54 270 07:36 18.09.2021
6440 Clear 10 1017 95 10000 2.38 316 00:42 18.09.2021
6441 Clear 10 1016 94 10000 2.44 322 23:53 17.09.2021
6442 Clear 11 1016 94 10000 2.54 327 22:42 17.09.2021
6443 Clear 11 1016 93 10000 2.71 326 22:21 17.09.2021
6444 Clear 13 1015 86 10000 3.09 340 21:27 17.09.2021
6445 Clouds 15 1015 78 10000 3.6 360 19:29 17.09.2021
6446 Clouds 17 1014 72 10000 4.63 340 17:55 17.09.2021
6447 Clouds 17 1015 71 10000 4.63 290 16:33 17.09.2021
6448 Clouds 17 1015 75 10000 5.14 300 14:32 17.09.2021
6449 Clouds 16 1015 90 10000 4.12 300 11:30 17.09.2021
6450 Clouds 14 1015 96 10000 2.57 260 09:24 17.09.2021
6451 Clouds 13 1015 97 10000 3.54 300 07:36 17.09.2021
6452 Clouds 13 1015 98 10000 3.6 270 04:25 17.09.2021
6453 Clouds 16 1015 86 10000 4.63 260 23:41 16.09.2021
6454 Clouds 15 1015 88 10000 4.12 280 22:41 16.09.2021
6455 Clouds 15 1015 88 10000 5.14 280 22:23 16.09.2021
6456 Clouds 16 1014 85 10000 5.66 280 21:27 16.09.2021
6457 Clouds 16 1014 87 10000 3.6 290 20:28 16.09.2021
6458 Clouds 17 1014 81 10000 7.2 290 18:38 16.09.2021
6459 Clouds 17 1013 85 10000 7.72 270 17:59 16.09.2021
6460 Clouds 18 1013 77 10000 7.2 270 15:31 16.09.2021
6461 Clouds 19 1013 76 10000 9.77 290 14:35 16.09.2021
6462 Clouds 18 1013 83 10000 7.72 280 13:23 16.09.2021
6463 Clouds 17 1013 86 10000 6.69 290 12:40 16.09.2021
6464 Clouds 17 1013 86 10000 5.66 270 11:46 16.09.2021
6465 Clouds 16 1013 91 10000 5.66 250 10:50 16.09.2021
6466 Clouds 16 1013 92 10000 4.63 250 10:21 16.09.2021
6467 Clouds 14 1012 96 10000 5.14 240 08:45 16.09.2021
6468 Drizzle 14 1012 96 6000 4.63 240 07:47 16.09.2021
6469 Clouds 14 1012 93 10000 4.12 230 06:56 16.09.2021
6470 Clouds 14 1012 93 10000 4.12 230 06:32 16.09.2021
6471 Clouds 15 1012 88 10000 4.12 250 03:22 16.09.2021
6472 Clouds 16 1011 96 10000 5.14 250 00:46 16.09.2021
6473 Clouds 16 1011 96 10000 2.57 270 23:24 15.09.2021
6474 Clouds 16 1010 94 10000 4.63 270 22:26 15.09.2021
6475 Clouds 17 1010 94 10000 5.14 270 21:31 15.09.2021
6476 Clouds 18 1009 98 10000 1.54 250 20:34 15.09.2021
6477 Clouds 19 1009 96 10000 1.54 260 19:33 15.09.2021
6478 Clouds 19 1008 94 10000 1.54 180 18:41 15.09.2021
6479 Clouds 20 1009 94 10000 1.03 0 17:39 15.09.2021
6480 Clouds 19 1009 96 8000 0.51 0 16:29 15.09.2021
6481 Mist 18 1009 98 3300 1.03 0 15:22 15.09.2021
6482 Rain 18 1009 96 3500 1.54 100 14:41 15.09.2021
6483 Rain 18 1010 96 4500 1.03 0 13:45 15.09.2021
6484 Rain 18 1010 96 4800 1.03 0 13:27 15.09.2021
6485 Rain 18 1010 96 5000 1.54 120 12:33 15.09.2021
6486 Rain 18 1010 96 6000 1.03 0 11:50 15.09.2021
6487 Rain 17 1010 98 7000 1.03 0 10:57 15.09.2021
6488 Rain 17 1010 96 7000 2.06 140 10:30 15.09.2021
6489 Rain 17 1010 93 10000 1.54 140 08:47 15.09.2021
6490 Rain 17 1010 92 10000 1.54 120 07:26 15.09.2021
6491 Clear 18 1012 83 10000 3.6 110 00:55 15.09.2021
6492 Clouds 18 1013 82 10000 3.6 80 22:24 14.09.2021
6493 Clouds 19 1013 81 10000 3.09 80 21:21 14.09.2021
6494 Clouds 19 1014 79 10000 2.06 90 20:18 14.09.2021
6495 Clear 22 1014 69 10000 3.09 120 18:57 14.09.2021
6496 Clear 23 1014 63 10000 3.6 110 17:33 14.09.2021
6497 Clouds 23 1014 60 10000 3.6 100 16:37 14.09.2021
6498 Clouds 22 1015 64 10000 4.12 90 14:52 14.09.2021
6499 Clouds 22 1015 64 10000 4.12 90 14:52 14.09.2021
6500 Clouds 22 1016 65 10000 4.12 100 14:19 14.09.2021
6501 Clear 18 1017 79 10000 3.6 110 11:46 14.09.2021
6502 Clear 16 1017 87 10000 3.09 100 10:25 14.09.2021
6503 Clear 14 1017 91 10000 2.57 70 09:48 14.09.2021
6504 Clear 11 1017 95 10000 2.57 50 07:51 14.09.2021
6505 Clear 11 1018 94 10000 1.03 40 02:20 14.09.2021
6506 Clouds 13 1019 89 10000 1.03 60 23:27 13.09.2021
6507 Clouds 14 1019 87 10000 3.09 30 22:27 13.09.2021
6508 Clouds 14 1019 84 10000 2.06 60 21:55 13.09.2021
6509 Clouds 13 1019 88 10000 2.06 60 21:32 13.09.2021
6510 Clouds 16 1018 79 10000 2.57 40 19:35 13.09.2021
6511 Clouds 17 1018 77 10000 2.57 20 18:44 13.09.2021
6512 Clouds 18 1018 72 10000 3.09 310 17:27 13.09.2021
6513 Clouds 19 1018 71 10000 2.57 290 16:49 13.09.2021
6514 Clouds 19 1019 69 10000 1.54 290 14:43 13.09.2021
6515 Clouds 17 1019 78 10000 2.06 280 11:44 13.09.2021
6516 Clouds 16 1019 87 10000 2.06 300 10:40 13.09.2021
6517 Clouds 14 1017 96 10000 1.03 0 07:58 13.09.2021
6518 Clear 13 1017 95 10000 2.57 240 00:34 13.09.2021
6519 Clear 14 1017 91 10000 2.57 270 22:51 12.09.2021
6520 Clear 15 1017 89 10000 3.09 280 22:22 12.09.2021
6521 Clouds 17 1016 87 10000 3.09 290 20:53 12.09.2021
6522 Clouds 17 1016 88 10000 1.54 300 20:19 12.09.2021
6523 Clouds 18 1015 84 10000 3.6 310 19:30 12.09.2021
6524 Clouds 18 1016 81 10000 4.12 310 18:55 12.09.2021
6525 Clouds 19 1016 76 10000 4.12 260 17:50 12.09.2021
6526 Clouds 20 1016 75 10000 3.6 250 15:55 12.09.2021
6527 Clouds 21 1016 75 10000 6.69 260 14:47 12.09.2021
6528 Clouds 20 1016 82 10000 5.66 240 12:42 12.09.2021
6529 Clouds 18 1016 93 10000 3.6 240 10:30 12.09.2021
6530 Clouds 17 1016 96 6000 2.57 250 08:39 12.09.2021
6531 Mist 16 1015 96 4500 2.06 220 07:26 12.09.2021
6532 Clouds 17 1016 98 10000 2.57 240 00:47 12.09.2021
6533 Clouds 17 1015 95 10000 5.14 240 22:39 11.09.2021
6534 Clouds 18 1015 89 10000 5.14 230 21:39 11.09.2021
6535 Clouds 19 1015 85 10000 3.09 220 19:39 11.09.2021
6536 Clouds 20 1015 84 10000 4.12 230 18:28 11.09.2021
6537 Clouds 20 1015 81 10000 5.14 240 17:28 11.09.2021
6538 Clouds 20 1015 82 10000 5.14 240 15:36 11.09.2021
6539 Clouds 20 1015 81 10000 6.17 230 13:23 11.09.2021
6540 Clouds 19 1015 81 10000 5.14 230 11:44 11.09.2021
6541 Clouds 19 1015 90 10000 4.63 230 10:35 11.09.2021
6542 Mist 17 1014 98 3500 4.63 240 08:54 11.09.2021
6543 Mist 17 1014 96 3800 2.06 180 07:44 11.09.2021
6544 Mist 18 1014 96 5000 2.57 240 04:23 11.09.2021
6545 Clouds 18 1013 94 10000 0.51 0 22:43 10.09.2021
6546 Clouds 17 1013 95 10000 2.06 250 22:18 10.09.2021
6547 Clouds 19 1013 93 10000 4.12 260 21:40 10.09.2021
6548 Thunderstorm 20 1012 88 10000 1.03 0 19:32 10.09.2021
6549 Clouds 23 1011 80 10000 2.57 170 17:58 10.09.2021
6550 Clouds 25 1012 76 10000 2.06 170 16:28 10.09.2021
6551 Clouds 21 1013 83 10000 2.06 220 13:32 10.09.2021
6552 Mist 18 1012 94 5000 1.54 170 10:54 10.09.2021
6553 Mist 18 1011 98 2000 1.03 240 08:26 10.09.2021
6554 Thunderstorm 18 1011 98 2800 1.03 210 07:43 10.09.2021
6555 Clear 18 1010 87 10000 1.54 170 00:40 10.09.2021
6556 Clear 20 1010 79 10000 0 0 21:56 09.09.2021
6557 Clear 21 1009 73 10000 0 0 20:48 09.09.2021
6558 Clear 21 1009 73 10000 0 0 20:28 09.09.2021
6559 Clear 25 1009 57 10000 1.54 250 18:46 09.09.2021
6560 Clear 26 1009 52 10000 1.54 220 17:51 09.09.2021
6561 Clear 27 1009 45 10000 3.09 180 16:39 09.09.2021
6562 Clear 27 1010 46 10000 3.6 160 15:26 09.09.2021
6563 Clear 24 1011 58 10000 3.09 90 12:33 09.09.2021
6564 Clear 21 1011 68 10000 3.09 130 11:23 09.09.2021
6565 Clear 17 1011 77 10000 1.54 110 09:39 09.09.2021
6566 Clear 13 1011 92 10000 2.06 80 07:56 09.09.2021
6567 Clear 13 1012 92 10000 1.54 80 06:20 09.09.2021
6568 Clear 16 1014 77 10000 3.09 80 00:43 09.09.2021
6569 Clear 18 1015 69 10000 2.57 100 21:49 08.09.2021
6570 Clear 21 1015 60 10000 2.57 90 20:57 08.09.2021
6571 Clear 24 1015 43 10000 2.57 120 19:47 08.09.2021
6572 Clear 24 1016 47 10000 3.09 120 18:49 08.09.2021
6573 Clear 25 1016 49 10000 4.12 100 18:27 08.09.2021
6574 Clear 25 1016 48 10000 3.6 110 17:52 08.09.2021
6575 Clear 26 1017 47 10000 3.6 110 16:24 08.09.2021
6576 Clear 25 1019 50 10000 3.6 100 13:53 08.09.2021
6577 Clear 24 1019 57 10000 4.12 140 12:42 08.09.2021
6578 Clouds 24 1019 61 10000 3.18 131 12:24 08.09.2021
6579 Clear 21 1020 69 10000 3.09 120 11:26 08.09.2021
6580 Clear 19 1020 77 10000 3.09 130 10:32 08.09.2021
6581 Clear 18 1020 77 10000 3.09 130 09:57 08.09.2021
6582 Clear 12 1020 94 10000 1.54 90 07:47 08.09.2021
6583 Clear 12 1021 97 10000 1.03 100 07:29 08.09.2021
6584 Clear 15 1022 90 10000 1.54 60 23:41 07.09.2021
6585 Clear 17 1022 86 10000 1.03 90 22:30 07.09.2021
6586 Clear 18 1022 81 10000 1.54 100 20:50 07.09.2021
6587 Clear 21 1022 72 10000 2.06 70 19:40 07.09.2021
6588 Clear 22 1023 64 10000 1.54 70 18:39 07.09.2021
6589 Clear 23 1023 61 10000 0.51 0 17:41 07.09.2021
6590 Clear 24 1024 59 10000 1.03 0 15:57 07.09.2021
6591 Clear 23 1024 59 10000 1.03 0 15:33 07.09.2021
6592 Clouds 22 1024 69 10000 0.49 116 13:54 07.09.2021
6593 Clear 21 1025 70 10000 1.54 130 12:28 07.09.2021
6594 Clear 18 1025 75 10000 1.03 0 11:26 07.09.2021
6595 Clear 17 1025 82 10000 1.03 0 10:37 07.09.2021
6596 Clouds 13 1025 95 8000 0 0 08:18 07.09.2021
6597 Clouds 12 1024 97 7000 0.51 0 06:43 07.09.2021
6598 Clouds 12 1024 97 6000 1.03 230 02:43 07.09.2021
6599 Clouds 12 1024 96 6000 0 0 02:25 07.09.2021
6600 Clear 13 1025 94 10000 0 0 00:23 07.09.2021
6601 Clear 14 1025 88 10000 0.51 0 23:31 06.09.2021
6602 Clear 15 1025 85 10000 1.03 0 22:53 06.09.2021
6603 Clear 15 1024 82 10000 2.57 10 22:28 06.09.2021
6604 Clear 18 1024 76 10000 3.6 10 20:37 06.09.2021
6605 Clear 19 1024 69 10000 2.57 300 19:22 06.09.2021
6606 Clear 19 1024 69 10000 2.57 300 19:22 06.09.2021
6607 Clear 19 1024 69 10000 2.57 300 19:22 06.09.2021
6608 Clear 20 1024 67 10000 2.57 300 18:46 06.09.2021
6609 Rain 20 1024 67 10000 3.09 300 18:18 06.09.2021
6610 Clear 21 1024 62 10000 3.09 290 17:35 06.09.2021
6611 Clouds 22 1024 55 10000 3.6 300 15:37 06.09.2021
6612 Clouds 21 1024 60 10000 2.57 310 13:47 06.09.2021
6613 Clouds 20 1024 68 10000 1.54 0 12:46 06.09.2021
6614 Clouds 16 1025 85 10000 1.03 0 10:44 06.09.2021
6615 Fog 8 1024 97 50 0 0 07:58 06.09.2021
6616 Fog 9 1023 97 200 0 0 04:44 06.09.2021
6617 Clear 13 1023 89 10000 3.09 140 23:27 05.09.2021
6618 Clear 14 1023 87 10000 3.09 150 22:46 05.09.2021
6619 Clouds 14 1023 85 10000 0 0 21:57 05.09.2021
6620 Clouds 15 1023 81 10000 0 0 21:29 05.09.2021
6621 Clouds 18 1022 65 10000 1.03 0 19:50 05.09.2021
6622 Clouds 21 1022 57 10000 1.03 0 18:38 05.09.2021
6623 Clouds 21 1022 54 10000 1.54 0 17:29 05.09.2021
6624 Clouds 20 1023 55 10000 1.54 50 15:27 05.09.2021
6625 Clouds 19 1023 65 10000 1.54 70 13:54 05.09.2021
6626 Mist 15 1024 86 5000 2.06 70 11:57 05.09.2021
6627 Mist 12 1023 100 1300 2.06 50 10:48 05.09.2021
6628 Mist 12 1023 98 1500 2.06 100 10:23 05.09.2021
6629 Mist 12 1023 100 1500 2.06 100 10:23 05.09.2021
6630 Mist 12 1023 98 1500 3.09 100 09:21 05.09.2021
6631 Mist 12 1022 98 2200 3.6 90 07:43 05.09.2021
6632 Clear 12 1021 86 10000 2.06 60 00:48 05.09.2021
6633 Clear 12 1021 86 10000 2.06 40 00:22 05.09.2021
6634 Clear 13 1021 87 10000 1.54 60 23:32 04.09.2021
6635 Clear 13 1021 85 10000 2.06 60 22:35 04.09.2021
6636 Clear 14 1020 82 10000 1.54 70 21:55 04.09.2021
6637 Clouds 17 1019 71 10000 3.6 70 19:41 04.09.2021
6638 Clouds 18 1019 68 10000 4.63 70 18:39 04.09.2021
6639 Clouds 19 1019 63 10000 3.6 40 15:54 04.09.2021
6640 Clouds 18 1020 66 10000 2.57 360 12:48 04.09.2021
6641 Clouds 17 1020 68 10000 3.09 340 11:19 04.09.2021
6642 Clouds 15 1019 80 10000 2.57 340 08:58 04.09.2021
6643 Clouds 14 1019 77 10000 3.09 350 04:50 04.09.2021
6644 Clouds 15 1020 77 10000 4.63 360 00:24 04.09.2021
6645 Clouds 15 1020 82 10000 4.12 350 23:31 03.09.2021
6646 Clouds 15 1020 84 10000 3.6 340 21:53 03.09.2021
6647 Clouds 15 1020 81 10000 4.12 330 21:33 03.09.2021
6648 Clouds 16 1019 81 10000 4.12 340 20:42 03.09.2021
6649 Clouds 17 1020 79 10000 4.12 350 19:49 03.09.2021
6650 Clouds 17 1020 78 10000 4.63 340 18:55 03.09.2021
6651 Clouds 19 1020 74 10000 5.14 340 17:42 03.09.2021
6652 Clouds 20 1020 70 10000 5.14 300 16:25 03.09.2021
6653 Clouds 20 1021 73 10000 4.63 280 14:47 03.09.2021
6654 Clouds 16 1022 82 10000 4.63 290 11:57 03.09.2021
6655 Clouds 15 1022 90 10000 2.57 300 10:27 03.09.2021
6656 Clouds 11 1023 100 8000 1.03 0 08:44 03.09.2021
6657 Mist 8 1023 100 3600 1.54 290 07:39 03.09.2021
6658